<?xml version="1.0" encoding="UTF-8" standalone="no" ?>
<gpx xmlns="http://www.topografix.com/GPX/1/1" xmlns:xsi="http://www.w3.org/2001/XMLSchema-instance" xsi:schemaLocation="http://www.topografix.com/GPX/1/1 http://www.topografix.com/GPX/1/1/gpx.xsd" version="1.1" creator="VisuGPX - https://www.visugpx.com">
  <metadata>
    <name>rando beauvais sur tescou 2014</name>
    <desc><![CDATA[beau parcour , mais dur ]]></desc>
  </metadata>
  <trk>
    <name><![CDATA[Sequence 1]]></name>
    <trkseg>
      <trkpt lat="43.91103" lon="1.56874">
        <ele>144</ele>
        <time>2014-08-24T06:07:47Z</time>
      </trkpt>
      <trkpt lat="43.91084" lon="1.56877">
        <ele>145</ele>
        <time>2014-08-24T06:07:56Z</time>
      </trkpt>
      <trkpt lat="43.91083" lon="1.56885">
        <ele>145</ele>
        <time>2014-08-24T06:07:57Z</time>
      </trkpt>
      <trkpt lat="43.91163" lon="1.56901">
        <ele>142</ele>
        <time>2014-08-24T06:08:10Z</time>
      </trkpt>
      <trkpt lat="43.91208" lon="1.56932">
        <ele>139</ele>
        <time>2014-08-24T06:08:15Z</time>
      </trkpt>
      <trkpt lat="43.91237" lon="1.56957">
        <ele>137</ele>
        <time>2014-08-24T06:08:19Z</time>
      </trkpt>
      <trkpt lat="43.91271" lon="1.56987">
        <ele>135</ele>
        <time>2014-08-24T06:08:25Z</time>
      </trkpt>
      <trkpt lat="43.91288" lon="1.57013">
        <ele>134</ele>
        <time>2014-08-24T06:08:30Z</time>
      </trkpt>
      <trkpt lat="43.91294" lon="1.57024">
        <ele>134</ele>
        <time>2014-08-24T06:08:32Z</time>
      </trkpt>
      <trkpt lat="43.91304" lon="1.57073">
        <ele>133</ele>
        <time>2014-08-24T06:08:39Z</time>
      </trkpt>
      <trkpt lat="43.91306" lon="1.57087">
        <ele>132</ele>
        <time>2014-08-24T06:08:41Z</time>
      </trkpt>
      <trkpt lat="43.9131" lon="1.5714">
        <ele>131</ele>
        <time>2014-08-24T06:08:50Z</time>
      </trkpt>
      <trkpt lat="43.91311" lon="1.57153">
        <ele>131</ele>
        <time>2014-08-24T06:08:52Z</time>
      </trkpt>
      <trkpt lat="43.91311" lon="1.57178">
        <ele>131</ele>
        <time>2014-08-24T06:08:56Z</time>
      </trkpt>
      <trkpt lat="43.91319" lon="1.57208">
        <ele>130</ele>
        <time>2014-08-24T06:09:01Z</time>
      </trkpt>
      <trkpt lat="43.91321" lon="1.57238">
        <ele>129</ele>
        <time>2014-08-24T06:09:06Z</time>
      </trkpt>
      <trkpt lat="43.91324" lon="1.57267">
        <ele>129</ele>
        <time>2014-08-24T06:09:11Z</time>
      </trkpt>
      <trkpt lat="43.91326" lon="1.573">
        <ele>129</ele>
        <time>2014-08-24T06:09:19Z</time>
      </trkpt>
      <trkpt lat="43.91326" lon="1.573">
        <ele>129</ele>
        <time>2014-08-24T06:09:21Z</time>
      </trkpt>
      <trkpt lat="43.91327" lon="1.57302">
        <ele>129</ele>
        <time>2014-08-24T06:09:26Z</time>
      </trkpt>
      <trkpt lat="43.91328" lon="1.57305">
        <ele>129</ele>
        <time>2014-08-24T06:09:31Z</time>
      </trkpt>
      <trkpt lat="43.91329" lon="1.57307">
        <ele>129</ele>
        <time>2014-08-24T06:09:36Z</time>
      </trkpt>
      <trkpt lat="43.91329" lon="1.57307">
        <ele>129</ele>
        <time>2014-08-24T06:09:43Z</time>
      </trkpt>
      <trkpt lat="43.91329" lon="1.57308">
        <ele>129</ele>
        <time>2014-08-24T06:09:46Z</time>
      </trkpt>
      <trkpt lat="43.9133" lon="1.5731">
        <ele>129</ele>
        <time>2014-08-24T06:09:52Z</time>
      </trkpt>
      <trkpt lat="43.9133" lon="1.5731">
        <ele>129</ele>
        <time>2014-08-24T06:09:56Z</time>
      </trkpt>
      <trkpt lat="43.91331" lon="1.57312">
        <ele>129</ele>
        <time>2014-08-24T06:10:04Z</time>
      </trkpt>
      <trkpt lat="43.91331" lon="1.57312">
        <ele>129</ele>
        <time>2014-08-24T06:10:06Z</time>
      </trkpt>
      <trkpt lat="43.91333" lon="1.57313">
        <ele>129</ele>
        <time>2014-08-24T06:10:11Z</time>
      </trkpt>
      <trkpt lat="43.91335" lon="1.57313">
        <ele>129</ele>
        <time>2014-08-24T06:10:16Z</time>
      </trkpt>
      <trkpt lat="43.91336" lon="1.57308">
        <ele>129</ele>
        <time>2014-08-24T06:10:22Z</time>
      </trkpt>
      <trkpt lat="43.91341" lon="1.57306">
        <ele>128</ele>
        <time>2014-08-24T06:10:29Z</time>
      </trkpt>
      <trkpt lat="43.91347" lon="1.57311">
        <ele>128</ele>
        <time>2014-08-24T06:10:32Z</time>
      </trkpt>
      <trkpt lat="43.9135" lon="1.57322">
        <ele>129</ele>
        <time>2014-08-24T06:10:37Z</time>
      </trkpt>
      <trkpt lat="43.91351" lon="1.57331">
        <ele>129</ele>
        <time>2014-08-24T06:10:42Z</time>
      </trkpt>
      <trkpt lat="43.91351" lon="1.5735">
        <ele>129</ele>
        <time>2014-08-24T06:10:50Z</time>
      </trkpt>
      <trkpt lat="43.91352" lon="1.57369">
        <ele>129</ele>
        <time>2014-08-24T06:10:55Z</time>
      </trkpt>
      <trkpt lat="43.91352" lon="1.57377">
        <ele>129</ele>
        <time>2014-08-24T06:10:57Z</time>
      </trkpt>
      <trkpt lat="43.91355" lon="1.57398">
        <ele>129</ele>
        <time>2014-08-24T06:11:02Z</time>
      </trkpt>
      <trkpt lat="43.9136" lon="1.57418">
        <ele>129</ele>
        <time>2014-08-24T06:11:07Z</time>
      </trkpt>
      <trkpt lat="43.91364" lon="1.5744">
        <ele>130</ele>
        <time>2014-08-24T06:11:12Z</time>
      </trkpt>
      <trkpt lat="43.91374" lon="1.5745">
        <ele>130</ele>
        <time>2014-08-24T06:11:17Z</time>
      </trkpt>
      <trkpt lat="43.91404" lon="1.5742">
        <ele>130</ele>
        <time>2014-08-24T06:11:24Z</time>
      </trkpt>
      <trkpt lat="43.91438" lon="1.57389">
        <ele>130</ele>
        <time>2014-08-24T06:11:31Z</time>
      </trkpt>
      <trkpt lat="43.91453" lon="1.57377">
        <ele>129</ele>
        <time>2014-08-24T06:11:34Z</time>
      </trkpt>
      <trkpt lat="43.91468" lon="1.57367">
        <ele>129</ele>
        <time>2014-08-24T06:11:37Z</time>
      </trkpt>
      <trkpt lat="43.91497" lon="1.57353">
        <ele>130</ele>
        <time>2014-08-24T06:11:42Z</time>
      </trkpt>
      <trkpt lat="43.91527" lon="1.57341">
        <ele>131</ele>
        <time>2014-08-24T06:11:47Z</time>
      </trkpt>
      <trkpt lat="43.91558" lon="1.57329">
        <ele>132</ele>
        <time>2014-08-24T06:11:52Z</time>
      </trkpt>
      <trkpt lat="43.91589" lon="1.57316">
        <ele>133</ele>
        <time>2014-08-24T06:11:57Z</time>
      </trkpt>
      <trkpt lat="43.91621" lon="1.57303">
        <ele>133</ele>
        <time>2014-08-24T06:12:02Z</time>
      </trkpt>
      <trkpt lat="43.91648" lon="1.57291">
        <ele>133</ele>
        <time>2014-08-24T06:12:07Z</time>
      </trkpt>
      <trkpt lat="43.9166" lon="1.57276">
        <ele>133</ele>
        <time>2014-08-24T06:12:13Z</time>
      </trkpt>
      <trkpt lat="43.91661" lon="1.57275">
        <ele>133</ele>
        <time>2014-08-24T06:12:17Z</time>
      </trkpt>
      <trkpt lat="43.91665" lon="1.57276">
        <ele>133</ele>
        <time>2014-08-24T06:12:22Z</time>
      </trkpt>
      <trkpt lat="43.91676" lon="1.57278">
        <ele>133</ele>
        <time>2014-08-24T06:12:29Z</time>
      </trkpt>
      <trkpt lat="43.91681" lon="1.57284">
        <ele>133</ele>
        <time>2014-08-24T06:12:32Z</time>
      </trkpt>
      <trkpt lat="43.91684" lon="1.57297">
        <ele>132</ele>
        <time>2014-08-24T06:12:37Z</time>
      </trkpt>
      <trkpt lat="43.9169" lon="1.5732">
        <ele>132</ele>
        <time>2014-08-24T06:12:42Z</time>
      </trkpt>
      <trkpt lat="43.91703" lon="1.57338">
        <ele>132</ele>
        <time>2014-08-24T06:12:47Z</time>
      </trkpt>
      <trkpt lat="43.91719" lon="1.57355">
        <ele>131</ele>
        <time>2014-08-24T06:12:52Z</time>
      </trkpt>
      <trkpt lat="43.9174" lon="1.57372">
        <ele>131</ele>
        <time>2014-08-24T06:12:57Z</time>
      </trkpt>
      <trkpt lat="43.91761" lon="1.57389">
        <ele>130</ele>
        <time>2014-08-24T06:13:02Z</time>
      </trkpt>
      <trkpt lat="43.91783" lon="1.57405">
        <ele>129</ele>
        <time>2014-08-24T06:13:07Z</time>
      </trkpt>
      <trkpt lat="43.91804" lon="1.57417">
        <ele>128</ele>
        <time>2014-08-24T06:13:12Z</time>
      </trkpt>
      <trkpt lat="43.91808" lon="1.57396">
        <ele>128</ele>
        <time>2014-08-24T06:13:17Z</time>
      </trkpt>
      <trkpt lat="43.91814" lon="1.57363">
        <ele>128</ele>
        <time>2014-08-24T06:13:22Z</time>
      </trkpt>
      <trkpt lat="43.91817" lon="1.57328">
        <ele>129</ele>
        <time>2014-08-24T06:13:27Z</time>
      </trkpt>
      <trkpt lat="43.91822" lon="1.57294">
        <ele>130</ele>
        <time>2014-08-24T06:13:32Z</time>
      </trkpt>
      <trkpt lat="43.91828" lon="1.57261">
        <ele>130</ele>
        <time>2014-08-24T06:13:37Z</time>
      </trkpt>
      <trkpt lat="43.91836" lon="1.57224">
        <ele>130</ele>
        <time>2014-08-24T06:13:42Z</time>
      </trkpt>
      <trkpt lat="43.91845" lon="1.57193">
        <ele>130</ele>
        <time>2014-08-24T06:13:47Z</time>
      </trkpt>
      <trkpt lat="43.91852" lon="1.57167">
        <ele>129</ele>
        <time>2014-08-24T06:13:51Z</time>
      </trkpt>
      <trkpt lat="43.91862" lon="1.57131">
        <ele>130</ele>
        <time>2014-08-24T06:13:57Z</time>
      </trkpt>
      <trkpt lat="43.91868" lon="1.57103">
        <ele>130</ele>
        <time>2014-08-24T06:14:01Z</time>
      </trkpt>
      <trkpt lat="43.91873" lon="1.5707">
        <ele>131</ele>
        <time>2014-08-24T06:14:06Z</time>
      </trkpt>
      <trkpt lat="43.91878" lon="1.57037">
        <ele>131</ele>
        <time>2014-08-24T06:14:11Z</time>
      </trkpt>
      <trkpt lat="43.91881" lon="1.56986">
        <ele>131</ele>
        <time>2014-08-24T06:14:18Z</time>
      </trkpt>
      <trkpt lat="43.91882" lon="1.56963">
        <ele>131</ele>
        <time>2014-08-24T06:14:21Z</time>
      </trkpt>
      <trkpt lat="43.91879" lon="1.56925">
        <ele>131</ele>
        <time>2014-08-24T06:14:26Z</time>
      </trkpt>
      <trkpt lat="43.91871" lon="1.56875">
        <ele>131</ele>
        <time>2014-08-24T06:14:33Z</time>
      </trkpt>
      <trkpt lat="43.9186" lon="1.56844">
        <ele>132</ele>
        <time>2014-08-24T06:14:38Z</time>
      </trkpt>
      <trkpt lat="43.9185" lon="1.56819">
        <ele>132</ele>
        <time>2014-08-24T06:14:42Z</time>
      </trkpt>
      <trkpt lat="43.9184" lon="1.56794">
        <ele>132</ele>
        <time>2014-08-24T06:14:46Z</time>
      </trkpt>
      <trkpt lat="43.91823" lon="1.56739">
        <ele>131</ele>
        <time>2014-08-24T06:14:55Z</time>
      </trkpt>
      <trkpt lat="43.91829" lon="1.56731">
        <ele>131</ele>
        <time>2014-08-24T06:14:57Z</time>
      </trkpt>
      <trkpt lat="43.9185" lon="1.56714">
        <ele>132</ele>
        <time>2014-08-24T06:15:04Z</time>
      </trkpt>
      <trkpt lat="43.91855" lon="1.56711">
        <ele>132</ele>
        <time>2014-08-24T06:15:06Z</time>
      </trkpt>
      <trkpt lat="43.9187" lon="1.56705">
        <ele>133</ele>
        <time>2014-08-24T06:15:11Z</time>
      </trkpt>
      <trkpt lat="43.91882" lon="1.56703">
        <ele>134</ele>
        <time>2014-08-24T06:15:15Z</time>
      </trkpt>
      <trkpt lat="43.91892" lon="1.56701">
        <ele>136</ele>
        <time>2014-08-24T06:15:19Z</time>
      </trkpt>
      <trkpt lat="43.919" lon="1.56697">
        <ele>137</ele>
        <time>2014-08-24T06:15:23Z</time>
      </trkpt>
      <trkpt lat="43.91909" lon="1.56691">
        <ele>139</ele>
        <time>2014-08-24T06:15:28Z</time>
      </trkpt>
      <trkpt lat="43.91918" lon="1.56686">
        <ele>140</ele>
        <time>2014-08-24T06:15:33Z</time>
      </trkpt>
      <trkpt lat="43.91925" lon="1.56681">
        <ele>141</ele>
        <time>2014-08-24T06:15:37Z</time>
      </trkpt>
      <trkpt lat="43.91932" lon="1.56667">
        <ele>142</ele>
        <time>2014-08-24T06:15:44Z</time>
      </trkpt>
      <trkpt lat="43.91934" lon="1.56662">
        <ele>143</ele>
        <time>2014-08-24T06:15:46Z</time>
      </trkpt>
      <trkpt lat="43.91938" lon="1.56653">
        <ele>144</ele>
        <time>2014-08-24T06:15:51Z</time>
      </trkpt>
      <trkpt lat="43.91943" lon="1.56642">
        <ele>145</ele>
        <time>2014-08-24T06:15:57Z</time>
      </trkpt>
      <trkpt lat="43.91946" lon="1.56635">
        <ele>146</ele>
        <time>2014-08-24T06:16:01Z</time>
      </trkpt>
      <trkpt lat="43.91949" lon="1.56627">
        <ele>148</ele>
        <time>2014-08-24T06:16:06Z</time>
      </trkpt>
      <trkpt lat="43.91953" lon="1.56619">
        <ele>149</ele>
        <time>2014-08-24T06:16:11Z</time>
      </trkpt>
      <trkpt lat="43.91958" lon="1.56611">
        <ele>149</ele>
        <time>2014-08-24T06:16:17Z</time>
      </trkpt>
      <trkpt lat="43.91962" lon="1.56606">
        <ele>150</ele>
        <time>2014-08-24T06:16:21Z</time>
      </trkpt>
      <trkpt lat="43.91967" lon="1.56599">
        <ele>151</ele>
        <time>2014-08-24T06:16:26Z</time>
      </trkpt>
      <trkpt lat="43.91971" lon="1.56593">
        <ele>151</ele>
        <time>2014-08-24T06:16:31Z</time>
      </trkpt>
      <trkpt lat="43.91975" lon="1.56588">
        <ele>152</ele>
        <time>2014-08-24T06:16:36Z</time>
      </trkpt>
      <trkpt lat="43.9198" lon="1.56583">
        <ele>152</ele>
        <time>2014-08-24T06:16:41Z</time>
      </trkpt>
      <trkpt lat="43.91985" lon="1.56578">
        <ele>153</ele>
        <time>2014-08-24T06:16:46Z</time>
      </trkpt>
      <trkpt lat="43.91989" lon="1.56573">
        <ele>154</ele>
        <time>2014-08-24T06:16:51Z</time>
      </trkpt>
      <trkpt lat="43.91994" lon="1.56568">
        <ele>155</ele>
        <time>2014-08-24T06:16:56Z</time>
      </trkpt>
      <trkpt lat="43.91999" lon="1.56564">
        <ele>156</ele>
        <time>2014-08-24T06:17:01Z</time>
      </trkpt>
      <trkpt lat="43.92003" lon="1.5656">
        <ele>157</ele>
        <time>2014-08-24T06:17:06Z</time>
      </trkpt>
      <trkpt lat="43.92009" lon="1.56556">
        <ele>159</ele>
        <time>2014-08-24T06:17:11Z</time>
      </trkpt>
      <trkpt lat="43.92015" lon="1.56553">
        <ele>160</ele>
        <time>2014-08-24T06:17:16Z</time>
      </trkpt>
      <trkpt lat="43.92021" lon="1.5655">
        <ele>161</ele>
        <time>2014-08-24T06:17:21Z</time>
      </trkpt>
      <trkpt lat="43.92027" lon="1.56547">
        <ele>162</ele>
        <time>2014-08-24T06:17:26Z</time>
      </trkpt>
      <trkpt lat="43.92033" lon="1.56545">
        <ele>163</ele>
        <time>2014-08-24T06:17:31Z</time>
      </trkpt>
      <trkpt lat="43.92038" lon="1.56543">
        <ele>164</ele>
        <time>2014-08-24T06:17:36Z</time>
      </trkpt>
      <trkpt lat="43.92044" lon="1.5654">
        <ele>165</ele>
        <time>2014-08-24T06:17:41Z</time>
      </trkpt>
      <trkpt lat="43.92049" lon="1.56538">
        <ele>166</ele>
        <time>2014-08-24T06:17:46Z</time>
      </trkpt>
      <trkpt lat="43.92055" lon="1.56535">
        <ele>167</ele>
        <time>2014-08-24T06:17:51Z</time>
      </trkpt>
      <trkpt lat="43.92063" lon="1.56532">
        <ele>169</ele>
        <time>2014-08-24T06:17:58Z</time>
      </trkpt>
      <trkpt lat="43.92066" lon="1.5653">
        <ele>169</ele>
        <time>2014-08-24T06:18:01Z</time>
      </trkpt>
      <trkpt lat="43.92071" lon="1.56527">
        <ele>170</ele>
        <time>2014-08-24T06:18:05Z</time>
      </trkpt>
      <trkpt lat="43.92076" lon="1.56524">
        <ele>171</ele>
        <time>2014-08-24T06:18:10Z</time>
      </trkpt>
      <trkpt lat="43.92082" lon="1.56522">
        <ele>172</ele>
        <time>2014-08-24T06:18:15Z</time>
      </trkpt>
      <trkpt lat="43.92089" lon="1.56519">
        <ele>173</ele>
        <time>2014-08-24T06:18:20Z</time>
      </trkpt>
      <trkpt lat="43.92098" lon="1.56515">
        <ele>174</ele>
        <time>2014-08-24T06:18:25Z</time>
      </trkpt>
      <trkpt lat="43.92105" lon="1.56512">
        <ele>175</ele>
        <time>2014-08-24T06:18:29Z</time>
      </trkpt>
      <trkpt lat="43.92113" lon="1.56506">
        <ele>176</ele>
        <time>2014-08-24T06:18:34Z</time>
      </trkpt>
      <trkpt lat="43.92119" lon="1.56498">
        <ele>177</ele>
        <time>2014-08-24T06:18:39Z</time>
      </trkpt>
      <trkpt lat="43.92125" lon="1.56489">
        <ele>178</ele>
        <time>2014-08-24T06:18:44Z</time>
      </trkpt>
      <trkpt lat="43.92128" lon="1.56478">
        <ele>177</ele>
        <time>2014-08-24T06:18:49Z</time>
      </trkpt>
      <trkpt lat="43.92133" lon="1.56467">
        <ele>177</ele>
        <time>2014-08-24T06:18:54Z</time>
      </trkpt>
      <trkpt lat="43.9214" lon="1.56459">
        <ele>177</ele>
        <time>2014-08-24T06:18:59Z</time>
      </trkpt>
      <trkpt lat="43.92148" lon="1.56453">
        <ele>178</ele>
        <time>2014-08-24T06:19:04Z</time>
      </trkpt>
      <trkpt lat="43.92155" lon="1.5645">
        <ele>178</ele>
        <time>2014-08-24T06:19:08Z</time>
      </trkpt>
      <trkpt lat="43.92164" lon="1.56445">
        <ele>179</ele>
        <time>2014-08-24T06:19:13Z</time>
      </trkpt>
      <trkpt lat="43.92172" lon="1.5644">
        <ele>179</ele>
        <time>2014-08-24T06:19:18Z</time>
      </trkpt>
      <trkpt lat="43.9218" lon="1.56434">
        <ele>180</ele>
        <time>2014-08-24T06:19:23Z</time>
      </trkpt>
      <trkpt lat="43.92188" lon="1.56428">
        <ele>181</ele>
        <time>2014-08-24T06:19:28Z</time>
      </trkpt>
      <trkpt lat="43.92197" lon="1.56424">
        <ele>181</ele>
        <time>2014-08-24T06:19:33Z</time>
      </trkpt>
      <trkpt lat="43.92205" lon="1.56419">
        <ele>182</ele>
        <time>2014-08-24T06:19:38Z</time>
      </trkpt>
      <trkpt lat="43.92215" lon="1.56414">
        <ele>182</ele>
        <time>2014-08-24T06:19:44Z</time>
      </trkpt>
      <trkpt lat="43.92222" lon="1.56411">
        <ele>183</ele>
        <time>2014-08-24T06:19:48Z</time>
      </trkpt>
      <trkpt lat="43.92233" lon="1.56409">
        <ele>183</ele>
        <time>2014-08-24T06:19:54Z</time>
      </trkpt>
      <trkpt lat="43.92245" lon="1.56407">
        <ele>184</ele>
        <time>2014-08-24T06:20:00Z</time>
      </trkpt>
      <trkpt lat="43.92251" lon="1.56405">
        <ele>184</ele>
        <time>2014-08-24T06:20:03Z</time>
      </trkpt>
      <trkpt lat="43.92263" lon="1.56404">
        <ele>185</ele>
        <time>2014-08-24T06:20:09Z</time>
      </trkpt>
      <trkpt lat="43.92273" lon="1.56402">
        <ele>186</ele>
        <time>2014-08-24T06:20:14Z</time>
      </trkpt>
      <trkpt lat="43.92281" lon="1.564">
        <ele>186</ele>
        <time>2014-08-24T06:20:18Z</time>
      </trkpt>
      <trkpt lat="43.92294" lon="1.564">
        <ele>187</ele>
        <time>2014-08-24T06:20:24Z</time>
      </trkpt>
      <trkpt lat="43.92302" lon="1.564">
        <ele>187</ele>
        <time>2014-08-24T06:20:28Z</time>
      </trkpt>
      <trkpt lat="43.92314" lon="1.56399">
        <ele>188</ele>
        <time>2014-08-24T06:20:33Z</time>
      </trkpt>
      <trkpt lat="43.92329" lon="1.56396">
        <ele>189</ele>
        <time>2014-08-24T06:20:39Z</time>
      </trkpt>
      <trkpt lat="43.92339" lon="1.56395">
        <ele>189</ele>
        <time>2014-08-24T06:20:43Z</time>
      </trkpt>
      <trkpt lat="43.92352" lon="1.56391">
        <ele>189</ele>
        <time>2014-08-24T06:20:48Z</time>
      </trkpt>
      <trkpt lat="43.92369" lon="1.56385">
        <ele>190</ele>
        <time>2014-08-24T06:20:53Z</time>
      </trkpt>
      <trkpt lat="43.92389" lon="1.56381">
        <ele>191</ele>
        <time>2014-08-24T06:20:58Z</time>
      </trkpt>
      <trkpt lat="43.92407" lon="1.56377">
        <ele>192</ele>
        <time>2014-08-24T06:21:03Z</time>
      </trkpt>
      <trkpt lat="43.92436" lon="1.56368">
        <ele>196</ele>
        <time>2014-08-24T06:21:11Z</time>
      </trkpt>
      <trkpt lat="43.92447" lon="1.56366">
        <ele>198</ele>
        <time>2014-08-24T06:21:14Z</time>
      </trkpt>
      <trkpt lat="43.92467" lon="1.56361">
        <ele>200</ele>
        <time>2014-08-24T06:21:20Z</time>
      </trkpt>
      <trkpt lat="43.92477" lon="1.56359">
        <ele>201</ele>
        <time>2014-08-24T06:21:23Z</time>
      </trkpt>
      <trkpt lat="43.9249" lon="1.56358">
        <ele>202</ele>
        <time>2014-08-24T06:21:28Z</time>
      </trkpt>
      <trkpt lat="43.925" lon="1.56348">
        <ele>203</ele>
        <time>2014-08-24T06:21:33Z</time>
      </trkpt>
      <trkpt lat="43.92502" lon="1.56321">
        <ele>203</ele>
        <time>2014-08-24T06:21:38Z</time>
      </trkpt>
      <trkpt lat="43.92502" lon="1.56294">
        <ele>203</ele>
        <time>2014-08-24T06:21:43Z</time>
      </trkpt>
      <trkpt lat="43.92505" lon="1.56263">
        <ele>204</ele>
        <time>2014-08-24T06:21:48Z</time>
      </trkpt>
      <trkpt lat="43.92508" lon="1.56226">
        <ele>204</ele>
        <time>2014-08-24T06:21:54Z</time>
      </trkpt>
      <trkpt lat="43.92515" lon="1.56193">
        <ele>204</ele>
        <time>2014-08-24T06:22:00Z</time>
      </trkpt>
      <trkpt lat="43.92516" lon="1.56176">
        <ele>204</ele>
        <time>2014-08-24T06:22:03Z</time>
      </trkpt>
      <trkpt lat="43.9252" lon="1.5615">
        <ele>204</ele>
        <time>2014-08-24T06:22:08Z</time>
      </trkpt>
      <trkpt lat="43.92524" lon="1.56121">
        <ele>204</ele>
        <time>2014-08-24T06:22:13Z</time>
      </trkpt>
      <trkpt lat="43.92532" lon="1.56071">
        <ele>203</ele>
        <time>2014-08-24T06:22:20Z</time>
      </trkpt>
      <trkpt lat="43.92536" lon="1.56049">
        <ele>203</ele>
        <time>2014-08-24T06:22:23Z</time>
      </trkpt>
      <trkpt lat="43.92547" lon="1.55997">
        <ele>202</ele>
        <time>2014-08-24T06:22:29Z</time>
      </trkpt>
      <trkpt lat="43.92556" lon="1.55955">
        <ele>202</ele>
        <time>2014-08-24T06:22:33Z</time>
      </trkpt>
      <trkpt lat="43.92566" lon="1.55901">
        <ele>201</ele>
        <time>2014-08-24T06:22:38Z</time>
      </trkpt>
      <trkpt lat="43.92575" lon="1.55802">
        <ele>199</ele>
        <time>2014-08-24T06:22:47Z</time>
      </trkpt>
      <trkpt lat="43.92577" lon="1.5577">
        <ele>198</ele>
        <time>2014-08-24T06:22:50Z</time>
      </trkpt>
      <trkpt lat="43.92578" lon="1.55737">
        <ele>197</ele>
        <time>2014-08-24T06:22:53Z</time>
      </trkpt>
      <trkpt lat="43.92584" lon="1.55651">
        <ele>197</ele>
        <time>2014-08-24T06:23:01Z</time>
      </trkpt>
      <trkpt lat="43.92591" lon="1.55608">
        <ele>196</ele>
        <time>2014-08-24T06:23:05Z</time>
      </trkpt>
      <trkpt lat="43.92595" lon="1.55578">
        <ele>196</ele>
        <time>2014-08-24T06:23:08Z</time>
      </trkpt>
      <trkpt lat="43.92603" lon="1.55483">
        <ele>195</ele>
        <time>2014-08-24T06:23:17Z</time>
      </trkpt>
      <trkpt lat="43.92604" lon="1.55472">
        <ele>195</ele>
        <time>2014-08-24T06:23:18Z</time>
      </trkpt>
      <trkpt lat="43.92604" lon="1.55419">
        <ele>194</ele>
        <time>2014-08-24T06:23:23Z</time>
      </trkpt>
      <trkpt lat="43.92601" lon="1.55368">
        <ele>194</ele>
        <time>2014-08-24T06:23:28Z</time>
      </trkpt>
      <trkpt lat="43.92596" lon="1.55317">
        <ele>193</ele>
        <time>2014-08-24T06:23:33Z</time>
      </trkpt>
      <trkpt lat="43.92589" lon="1.55258">
        <ele>192</ele>
        <time>2014-08-24T06:23:39Z</time>
      </trkpt>
      <trkpt lat="43.92585" lon="1.55218">
        <ele>191</ele>
        <time>2014-08-24T06:23:43Z</time>
      </trkpt>
      <trkpt lat="43.92578" lon="1.55137">
        <ele>190</ele>
        <time>2014-08-24T06:23:51Z</time>
      </trkpt>
      <trkpt lat="43.92573" lon="1.55097">
        <ele>189</ele>
        <time>2014-08-24T06:23:55Z</time>
      </trkpt>
      <trkpt lat="43.92562" lon="1.55061">
        <ele>188</ele>
        <time>2014-08-24T06:23:59Z</time>
      </trkpt>
      <trkpt lat="43.9254" lon="1.54997">
        <ele>188</ele>
        <time>2014-08-24T06:24:06Z</time>
      </trkpt>
      <trkpt lat="43.92535" lon="1.54965">
        <ele>188</ele>
        <time>2014-08-24T06:24:09Z</time>
      </trkpt>
      <trkpt lat="43.92534" lon="1.54914">
        <ele>188</ele>
        <time>2014-08-24T06:24:14Z</time>
      </trkpt>
      <trkpt lat="43.92535" lon="1.5487">
        <ele>187</ele>
        <time>2014-08-24T06:24:18Z</time>
      </trkpt>
      <trkpt lat="43.92538" lon="1.54802">
        <ele>186</ele>
        <time>2014-08-24T06:24:25Z</time>
      </trkpt>
      <trkpt lat="43.92539" lon="1.54783">
        <ele>185</ele>
        <time>2014-08-24T06:24:27Z</time>
      </trkpt>
      <trkpt lat="43.92541" lon="1.54711">
        <ele>185</ele>
        <time>2014-08-24T06:24:36Z</time>
      </trkpt>
      <trkpt lat="43.92539" lon="1.54705">
        <ele>185</ele>
        <time>2014-08-24T06:24:37Z</time>
      </trkpt>
      <trkpt lat="43.92522" lon="1.54694">
        <ele>185</ele>
        <time>2014-08-24T06:24:42Z</time>
      </trkpt>
      <trkpt lat="43.92501" lon="1.54728">
        <ele>185</ele>
        <time>2014-08-24T06:24:48Z</time>
      </trkpt>
      <trkpt lat="43.92485" lon="1.54754">
        <ele>185</ele>
        <time>2014-08-24T06:24:53Z</time>
      </trkpt>
      <trkpt lat="43.92472" lon="1.54772">
        <ele>185</ele>
        <time>2014-08-24T06:24:57Z</time>
      </trkpt>
      <trkpt lat="43.92446" lon="1.54767">
        <ele>185</ele>
        <time>2014-08-24T06:25:02Z</time>
      </trkpt>
      <trkpt lat="43.92396" lon="1.5474">
        <ele>183</ele>
        <time>2014-08-24T06:25:10Z</time>
      </trkpt>
      <trkpt lat="43.92382" lon="1.54736">
        <ele>183</ele>
        <time>2014-08-24T06:25:12Z</time>
      </trkpt>
      <trkpt lat="43.92335" lon="1.54759">
        <ele>183</ele>
        <time>2014-08-24T06:25:19Z</time>
      </trkpt>
      <trkpt lat="43.92318" lon="1.54751">
        <ele>183</ele>
        <time>2014-08-24T06:25:22Z</time>
      </trkpt>
      <trkpt lat="43.92278" lon="1.54726">
        <ele>183</ele>
        <time>2014-08-24T06:25:29Z</time>
      </trkpt>
      <trkpt lat="43.9226" lon="1.5472">
        <ele>183</ele>
        <time>2014-08-24T06:25:32Z</time>
      </trkpt>
      <trkpt lat="43.9223" lon="1.54715">
        <ele>181</ele>
        <time>2014-08-24T06:25:37Z</time>
      </trkpt>
      <trkpt lat="43.92198" lon="1.54733">
        <ele>178</ele>
        <time>2014-08-24T06:25:42Z</time>
      </trkpt>
      <trkpt lat="43.92165" lon="1.54769">
        <ele>175</ele>
        <time>2014-08-24T06:25:47Z</time>
      </trkpt>
      <trkpt lat="43.92121" lon="1.54821">
        <ele>169</ele>
        <time>2014-08-24T06:25:54Z</time>
      </trkpt>
      <trkpt lat="43.92105" lon="1.54853">
        <ele>166</ele>
        <time>2014-08-24T06:25:57Z</time>
      </trkpt>
      <trkpt lat="43.9208" lon="1.54909">
        <ele>162</ele>
        <time>2014-08-24T06:26:02Z</time>
      </trkpt>
      <trkpt lat="43.92059" lon="1.5496">
        <ele>157</ele>
        <time>2014-08-24T06:26:07Z</time>
      </trkpt>
      <trkpt lat="43.9204" lon="1.54983">
        <ele>151</ele>
        <time>2014-08-24T06:26:11Z</time>
      </trkpt>
      <trkpt lat="43.92022" lon="1.55">
        <ele>147</ele>
        <time>2014-08-24T06:26:15Z</time>
      </trkpt>
      <trkpt lat="43.92007" lon="1.55034">
        <ele>145</ele>
        <time>2014-08-24T06:26:19Z</time>
      </trkpt>
      <trkpt lat="43.91992" lon="1.55071">
        <ele>142</ele>
        <time>2014-08-24T06:26:23Z</time>
      </trkpt>
      <trkpt lat="43.91972" lon="1.55103">
        <ele>139</ele>
        <time>2014-08-24T06:26:27Z</time>
      </trkpt>
      <trkpt lat="43.91943" lon="1.55129">
        <ele>136</ele>
        <time>2014-08-24T06:26:32Z</time>
      </trkpt>
      <trkpt lat="43.91914" lon="1.55158">
        <ele>132</ele>
        <time>2014-08-24T06:26:37Z</time>
      </trkpt>
      <trkpt lat="43.9188" lon="1.55187">
        <ele>133</ele>
        <time>2014-08-24T06:26:43Z</time>
      </trkpt>
      <trkpt lat="43.91853" lon="1.55151">
        <ele>134</ele>
        <time>2014-08-24T06:26:51Z</time>
      </trkpt>
      <trkpt lat="43.91852" lon="1.55142">
        <ele>134</ele>
        <time>2014-08-24T06:26:52Z</time>
      </trkpt>
      <trkpt lat="43.91856" lon="1.55097">
        <ele>134</ele>
        <time>2014-08-24T06:26:57Z</time>
      </trkpt>
      <trkpt lat="43.91865" lon="1.55053">
        <ele>134</ele>
        <time>2014-08-24T06:27:02Z</time>
      </trkpt>
      <trkpt lat="43.91877" lon="1.55011">
        <ele>134</ele>
        <time>2014-08-24T06:27:07Z</time>
      </trkpt>
      <trkpt lat="43.91895" lon="1.54974">
        <ele>134</ele>
        <time>2014-08-24T06:27:12Z</time>
      </trkpt>
      <trkpt lat="43.91922" lon="1.5492">
        <ele>135</ele>
        <time>2014-08-24T06:27:19Z</time>
      </trkpt>
      <trkpt lat="43.91934" lon="1.5489">
        <ele>135</ele>
        <time>2014-08-24T06:27:23Z</time>
      </trkpt>
      <trkpt lat="43.9195" lon="1.54834">
        <ele>135</ele>
        <time>2014-08-24T06:27:30Z</time>
      </trkpt>
      <trkpt lat="43.91953" lon="1.54818">
        <ele>135</ele>
        <time>2014-08-24T06:27:32Z</time>
      </trkpt>
      <trkpt lat="43.91965" lon="1.54761">
        <ele>135</ele>
        <time>2014-08-24T06:27:39Z</time>
      </trkpt>
      <trkpt lat="43.91971" lon="1.54738">
        <ele>135</ele>
        <time>2014-08-24T06:27:42Z</time>
      </trkpt>
      <trkpt lat="43.9198" lon="1.54702">
        <ele>135</ele>
        <time>2014-08-24T06:27:47Z</time>
      </trkpt>
      <trkpt lat="43.91989" lon="1.54665">
        <ele>134</ele>
        <time>2014-08-24T06:27:52Z</time>
      </trkpt>
      <trkpt lat="43.91998" lon="1.5463">
        <ele>134</ele>
        <time>2014-08-24T06:27:57Z</time>
      </trkpt>
      <trkpt lat="43.92006" lon="1.54596">
        <ele>133</ele>
        <time>2014-08-24T06:28:02Z</time>
      </trkpt>
      <trkpt lat="43.92014" lon="1.54563">
        <ele>132</ele>
        <time>2014-08-24T06:28:07Z</time>
      </trkpt>
      <trkpt lat="43.92029" lon="1.54531">
        <ele>130</ele>
        <time>2014-08-24T06:28:12Z</time>
      </trkpt>
      <trkpt lat="43.92044" lon="1.54498">
        <ele>128</ele>
        <time>2014-08-24T06:28:17Z</time>
      </trkpt>
      <trkpt lat="43.92055" lon="1.54464">
        <ele>126</ele>
        <time>2014-08-24T06:28:22Z</time>
      </trkpt>
      <trkpt lat="43.92062" lon="1.54433">
        <ele>125</ele>
        <time>2014-08-24T06:28:27Z</time>
      </trkpt>
      <trkpt lat="43.92067" lon="1.54403">
        <ele>125</ele>
        <time>2014-08-24T06:28:32Z</time>
      </trkpt>
      <trkpt lat="43.92073" lon="1.5437">
        <ele>124</ele>
        <time>2014-08-24T06:28:37Z</time>
      </trkpt>
      <trkpt lat="43.92078" lon="1.5434">
        <ele>124</ele>
        <time>2014-08-24T06:28:42Z</time>
      </trkpt>
      <trkpt lat="43.92085" lon="1.54309">
        <ele>124</ele>
        <time>2014-08-24T06:28:47Z</time>
      </trkpt>
      <trkpt lat="43.92093" lon="1.54279">
        <ele>124</ele>
        <time>2014-08-24T06:28:52Z</time>
      </trkpt>
      <trkpt lat="43.92101" lon="1.54246">
        <ele>124</ele>
        <time>2014-08-24T06:28:57Z</time>
      </trkpt>
      <trkpt lat="43.9211" lon="1.54214">
        <ele>124</ele>
        <time>2014-08-24T06:29:02Z</time>
      </trkpt>
      <trkpt lat="43.92122" lon="1.54179">
        <ele>124</ele>
        <time>2014-08-24T06:29:07Z</time>
      </trkpt>
      <trkpt lat="43.92132" lon="1.54145">
        <ele>124</ele>
        <time>2014-08-24T06:29:12Z</time>
      </trkpt>
      <trkpt lat="43.92149" lon="1.54101">
        <ele>124</ele>
        <time>2014-08-24T06:29:19Z</time>
      </trkpt>
      <trkpt lat="43.92174" lon="1.54059">
        <ele>125</ele>
        <time>2014-08-24T06:29:26Z</time>
      </trkpt>
      <trkpt lat="43.92177" lon="1.54053">
        <ele>125</ele>
        <time>2014-08-24T06:29:27Z</time>
      </trkpt>
      <trkpt lat="43.92195" lon="1.54025">
        <ele>125</ele>
        <time>2014-08-24T06:29:32Z</time>
      </trkpt>
      <trkpt lat="43.92214" lon="1.53997">
        <ele>126</ele>
        <time>2014-08-24T06:29:37Z</time>
      </trkpt>
      <trkpt lat="43.9223" lon="1.53968">
        <ele>126</ele>
        <time>2014-08-24T06:29:42Z</time>
      </trkpt>
      <trkpt lat="43.92245" lon="1.53935">
        <ele>127</ele>
        <time>2014-08-24T06:29:47Z</time>
      </trkpt>
      <trkpt lat="43.92257" lon="1.53902">
        <ele>127</ele>
        <time>2014-08-24T06:29:52Z</time>
      </trkpt>
      <trkpt lat="43.9227" lon="1.53871">
        <ele>128</ele>
        <time>2014-08-24T06:29:57Z</time>
      </trkpt>
      <trkpt lat="43.92281" lon="1.53839">
        <ele>128</ele>
        <time>2014-08-24T06:30:02Z</time>
      </trkpt>
      <trkpt lat="43.92292" lon="1.53808">
        <ele>129</ele>
        <time>2014-08-24T06:30:07Z</time>
      </trkpt>
      <trkpt lat="43.92304" lon="1.53777">
        <ele>130</ele>
        <time>2014-08-24T06:30:12Z</time>
      </trkpt>
      <trkpt lat="43.92319" lon="1.53738">
        <ele>131</ele>
        <time>2014-08-24T06:30:18Z</time>
      </trkpt>
      <trkpt lat="43.92327" lon="1.53715">
        <ele>130</ele>
        <time>2014-08-24T06:30:22Z</time>
      </trkpt>
      <trkpt lat="43.92335" lon="1.53691">
        <ele>130</ele>
        <time>2014-08-24T06:30:26Z</time>
      </trkpt>
      <trkpt lat="43.92344" lon="1.53665">
        <ele>130</ele>
        <time>2014-08-24T06:30:30Z</time>
      </trkpt>
      <trkpt lat="43.92354" lon="1.53642">
        <ele>130</ele>
        <time>2014-08-24T06:30:34Z</time>
      </trkpt>
      <trkpt lat="43.92367" lon="1.53613">
        <ele>130</ele>
        <time>2014-08-24T06:30:39Z</time>
      </trkpt>
      <trkpt lat="43.92372" lon="1.53579">
        <ele>130</ele>
        <time>2014-08-24T06:30:44Z</time>
      </trkpt>
      <trkpt lat="43.92375" lon="1.53544">
        <ele>129</ele>
        <time>2014-08-24T06:30:49Z</time>
      </trkpt>
      <trkpt lat="43.92388" lon="1.5349">
        <ele>130</ele>
        <time>2014-08-24T06:30:58Z</time>
      </trkpt>
      <trkpt lat="43.92389" lon="1.53483">
        <ele>130</ele>
        <time>2014-08-24T06:30:59Z</time>
      </trkpt>
      <trkpt lat="43.92398" lon="1.5341">
        <ele>130</ele>
        <time>2014-08-24T06:31:07Z</time>
      </trkpt>
      <trkpt lat="43.92399" lon="1.53392">
        <ele>130</ele>
        <time>2014-08-24T06:31:09Z</time>
      </trkpt>
      <trkpt lat="43.92407" lon="1.53344">
        <ele>130</ele>
        <time>2014-08-24T06:31:14Z</time>
      </trkpt>
      <trkpt lat="43.92417" lon="1.53278">
        <ele>129</ele>
        <time>2014-08-24T06:31:21Z</time>
      </trkpt>
      <trkpt lat="43.92421" lon="1.53252">
        <ele>127</ele>
        <time>2014-08-24T06:31:24Z</time>
      </trkpt>
      <trkpt lat="43.92428" lon="1.53203">
        <ele>124</ele>
        <time>2014-08-24T06:31:29Z</time>
      </trkpt>
      <trkpt lat="43.92438" lon="1.53141">
        <ele>123</ele>
        <time>2014-08-24T06:31:35Z</time>
      </trkpt>
      <trkpt lat="43.92444" lon="1.53099">
        <ele>122</ele>
        <time>2014-08-24T06:31:39Z</time>
      </trkpt>
      <trkpt lat="43.9245" lon="1.53048">
        <ele>121</ele>
        <time>2014-08-24T06:31:44Z</time>
      </trkpt>
      <trkpt lat="43.92457" lon="1.52998">
        <ele>120</ele>
        <time>2014-08-24T06:31:49Z</time>
      </trkpt>
      <trkpt lat="43.92464" lon="1.52946">
        <ele>119</ele>
        <time>2014-08-24T06:31:54Z</time>
      </trkpt>
      <trkpt lat="43.92471" lon="1.52898">
        <ele>119</ele>
        <time>2014-08-24T06:31:59Z</time>
      </trkpt>
      <trkpt lat="43.92477" lon="1.52848">
        <ele>119</ele>
        <time>2014-08-24T06:32:04Z</time>
      </trkpt>
      <trkpt lat="43.92484" lon="1.52798">
        <ele>121</ele>
        <time>2014-08-24T06:32:09Z</time>
      </trkpt>
      <trkpt lat="43.92489" lon="1.52751">
        <ele>121</ele>
        <time>2014-08-24T06:32:14Z</time>
      </trkpt>
      <trkpt lat="43.92498" lon="1.52723">
        <ele>121</ele>
        <time>2014-08-24T06:32:20Z</time>
      </trkpt>
      <trkpt lat="43.9251" lon="1.52717">
        <ele>122</ele>
        <time>2014-08-24T06:32:24Z</time>
      </trkpt>
      <trkpt lat="43.92525" lon="1.52716">
        <ele>125</ele>
        <time>2014-08-24T06:32:29Z</time>
      </trkpt>
      <trkpt lat="43.92539" lon="1.52715">
        <ele>127</ele>
        <time>2014-08-24T06:32:34Z</time>
      </trkpt>
      <trkpt lat="43.92547" lon="1.52708">
        <ele>128</ele>
        <time>2014-08-24T06:32:39Z</time>
      </trkpt>
      <trkpt lat="43.92554" lon="1.52697">
        <ele>129</ele>
        <time>2014-08-24T06:32:44Z</time>
      </trkpt>
      <trkpt lat="43.9256" lon="1.52685">
        <ele>130</ele>
        <time>2014-08-24T06:32:49Z</time>
      </trkpt>
      <trkpt lat="43.92572" lon="1.52666">
        <ele>132</ele>
        <time>2014-08-24T06:32:58Z</time>
      </trkpt>
      <trkpt lat="43.92573" lon="1.52664">
        <ele>132</ele>
        <time>2014-08-24T06:32:59Z</time>
      </trkpt>
      <trkpt lat="43.92579" lon="1.52654">
        <ele>133</ele>
        <time>2014-08-24T06:33:04Z</time>
      </trkpt>
      <trkpt lat="43.92587" lon="1.5264">
        <ele>135</ele>
        <time>2014-08-24T06:33:11Z</time>
      </trkpt>
      <trkpt lat="43.92592" lon="1.52634">
        <ele>135</ele>
        <time>2014-08-24T06:33:15Z</time>
      </trkpt>
      <trkpt lat="43.92596" lon="1.52627">
        <ele>136</ele>
        <time>2014-08-24T06:33:19Z</time>
      </trkpt>
      <trkpt lat="43.92603" lon="1.52619">
        <ele>137</ele>
        <time>2014-08-24T06:33:25Z</time>
      </trkpt>
      <trkpt lat="43.92607" lon="1.52615">
        <ele>138</ele>
        <time>2014-08-24T06:33:29Z</time>
      </trkpt>
      <trkpt lat="43.92612" lon="1.52609">
        <ele>139</ele>
        <time>2014-08-24T06:33:34Z</time>
      </trkpt>
      <trkpt lat="43.92617" lon="1.52603">
        <ele>140</ele>
        <time>2014-08-24T06:33:39Z</time>
      </trkpt>
      <trkpt lat="43.92621" lon="1.52597">
        <ele>140</ele>
        <time>2014-08-24T06:33:44Z</time>
      </trkpt>
      <trkpt lat="43.92625" lon="1.52591">
        <ele>141</ele>
        <time>2014-08-24T06:33:49Z</time>
      </trkpt>
      <trkpt lat="43.9263" lon="1.52585">
        <ele>142</ele>
        <time>2014-08-24T06:33:54Z</time>
      </trkpt>
      <trkpt lat="43.92635" lon="1.52579">
        <ele>143</ele>
        <time>2014-08-24T06:33:59Z</time>
      </trkpt>
      <trkpt lat="43.9264" lon="1.52573">
        <ele>143</ele>
        <time>2014-08-24T06:34:04Z</time>
      </trkpt>
      <trkpt lat="43.92646" lon="1.52565">
        <ele>144</ele>
        <time>2014-08-24T06:34:10Z</time>
      </trkpt>
      <trkpt lat="43.9265" lon="1.5256">
        <ele>145</ele>
        <time>2014-08-24T06:34:14Z</time>
      </trkpt>
      <trkpt lat="43.92656" lon="1.52553">
        <ele>145</ele>
        <time>2014-08-24T06:34:20Z</time>
      </trkpt>
      <trkpt lat="43.92661" lon="1.52548">
        <ele>146</ele>
        <time>2014-08-24T06:34:24Z</time>
      </trkpt>
      <trkpt lat="43.92666" lon="1.52543">
        <ele>146</ele>
        <time>2014-08-24T06:34:29Z</time>
      </trkpt>
      <trkpt lat="43.92671" lon="1.52536">
        <ele>146</ele>
        <time>2014-08-24T06:34:34Z</time>
      </trkpt>
      <trkpt lat="43.92676" lon="1.5253">
        <ele>147</ele>
        <time>2014-08-24T06:34:39Z</time>
      </trkpt>
      <trkpt lat="43.92681" lon="1.52525">
        <ele>147</ele>
        <time>2014-08-24T06:34:44Z</time>
      </trkpt>
      <trkpt lat="43.92689" lon="1.52521">
        <ele>147</ele>
        <time>2014-08-24T06:34:50Z</time>
      </trkpt>
      <trkpt lat="43.92696" lon="1.52518">
        <ele>148</ele>
        <time>2014-08-24T06:34:55Z</time>
      </trkpt>
      <trkpt lat="43.92703" lon="1.52517">
        <ele>149</ele>
        <time>2014-08-24T06:34:59Z</time>
      </trkpt>
      <trkpt lat="43.9271" lon="1.52517">
        <ele>150</ele>
        <time>2014-08-24T06:35:04Z</time>
      </trkpt>
      <trkpt lat="43.9272" lon="1.52517">
        <ele>150</ele>
        <time>2014-08-24T06:35:10Z</time>
      </trkpt>
      <trkpt lat="43.92726" lon="1.52518">
        <ele>151</ele>
        <time>2014-08-24T06:35:14Z</time>
      </trkpt>
      <trkpt lat="43.92733" lon="1.5252">
        <ele>152</ele>
        <time>2014-08-24T06:35:19Z</time>
      </trkpt>
      <trkpt lat="43.9274" lon="1.52525">
        <ele>153</ele>
        <time>2014-08-24T06:35:24Z</time>
      </trkpt>
      <trkpt lat="43.92746" lon="1.52531">
        <ele>154</ele>
        <time>2014-08-24T06:35:29Z</time>
      </trkpt>
      <trkpt lat="43.92751" lon="1.52537">
        <ele>156</ele>
        <time>2014-08-24T06:35:34Z</time>
      </trkpt>
      <trkpt lat="43.92756" lon="1.52544">
        <ele>158</ele>
        <time>2014-08-24T06:35:39Z</time>
      </trkpt>
      <trkpt lat="43.9276" lon="1.52551">
        <ele>159</ele>
        <time>2014-08-24T06:35:44Z</time>
      </trkpt>
      <trkpt lat="43.92764" lon="1.52558">
        <ele>161</ele>
        <time>2014-08-24T06:35:49Z</time>
      </trkpt>
      <trkpt lat="43.92767" lon="1.52566">
        <ele>162</ele>
        <time>2014-08-24T06:35:54Z</time>
      </trkpt>
      <trkpt lat="43.92771" lon="1.52573">
        <ele>164</ele>
        <time>2014-08-24T06:35:59Z</time>
      </trkpt>
      <trkpt lat="43.92775" lon="1.52582">
        <ele>164</ele>
        <time>2014-08-24T06:36:04Z</time>
      </trkpt>
      <trkpt lat="43.9278" lon="1.52589">
        <ele>165</ele>
        <time>2014-08-24T06:36:09Z</time>
      </trkpt>
      <trkpt lat="43.92785" lon="1.52597">
        <ele>166</ele>
        <time>2014-08-24T06:36:14Z</time>
      </trkpt>
      <trkpt lat="43.9279" lon="1.52604">
        <ele>167</ele>
        <time>2014-08-24T06:36:19Z</time>
      </trkpt>
      <trkpt lat="43.92796" lon="1.52612">
        <ele>168</ele>
        <time>2014-08-24T06:36:24Z</time>
      </trkpt>
      <trkpt lat="43.92803" lon="1.5262">
        <ele>169</ele>
        <time>2014-08-24T06:36:29Z</time>
      </trkpt>
      <trkpt lat="43.92809" lon="1.52628">
        <ele>170</ele>
        <time>2014-08-24T06:36:34Z</time>
      </trkpt>
      <trkpt lat="43.92816" lon="1.52636">
        <ele>171</ele>
        <time>2014-08-24T06:36:39Z</time>
      </trkpt>
      <trkpt lat="43.92823" lon="1.52645">
        <ele>172</ele>
        <time>2014-08-24T06:36:44Z</time>
      </trkpt>
      <trkpt lat="43.9283" lon="1.52653">
        <ele>174</ele>
        <time>2014-08-24T06:36:49Z</time>
      </trkpt>
      <trkpt lat="43.92837" lon="1.52661">
        <ele>175</ele>
        <time>2014-08-24T06:36:54Z</time>
      </trkpt>
      <trkpt lat="43.92843" lon="1.52667">
        <ele>176</ele>
        <time>2014-08-24T06:36:59Z</time>
      </trkpt>
      <trkpt lat="43.92846" lon="1.52668">
        <ele>176</ele>
        <time>2014-08-24T06:37:04Z</time>
      </trkpt>
      <trkpt lat="43.92846" lon="1.52668">
        <ele>176</ele>
        <time>2014-08-24T06:37:09Z</time>
      </trkpt>
      <trkpt lat="43.92847" lon="1.52668">
        <ele>176</ele>
        <time>2014-08-24T06:37:14Z</time>
      </trkpt>
      <trkpt lat="43.92847" lon="1.52668">
        <ele>176</ele>
        <time>2014-08-24T06:37:19Z</time>
      </trkpt>
      <trkpt lat="43.92847" lon="1.52669">
        <ele>176</ele>
        <time>2014-08-24T06:37:24Z</time>
      </trkpt>
      <trkpt lat="43.92847" lon="1.52669">
        <ele>176</ele>
        <time>2014-08-24T06:37:29Z</time>
      </trkpt>
      <trkpt lat="43.92847" lon="1.52668">
        <ele>176</ele>
        <time>2014-08-24T06:37:34Z</time>
      </trkpt>
      <trkpt lat="43.92847" lon="1.52668">
        <ele>176</ele>
        <time>2014-08-24T06:37:39Z</time>
      </trkpt>
      <trkpt lat="43.92849" lon="1.52668">
        <ele>176</ele>
        <time>2014-08-24T06:37:44Z</time>
      </trkpt>
      <trkpt lat="43.92855" lon="1.5267">
        <ele>177</ele>
        <time>2014-08-24T06:37:49Z</time>
      </trkpt>
      <trkpt lat="43.92863" lon="1.52672">
        <ele>177</ele>
        <time>2014-08-24T06:37:54Z</time>
      </trkpt>
      <trkpt lat="43.92875" lon="1.52677">
        <ele>178</ele>
        <time>2014-08-24T06:37:59Z</time>
      </trkpt>
      <trkpt lat="43.92891" lon="1.52682">
        <ele>180</ele>
        <time>2014-08-24T06:38:04Z</time>
      </trkpt>
      <trkpt lat="43.92909" lon="1.52687">
        <ele>181</ele>
        <time>2014-08-24T06:38:09Z</time>
      </trkpt>
      <trkpt lat="43.92936" lon="1.52694">
        <ele>182</ele>
        <time>2014-08-24T06:38:16Z</time>
      </trkpt>
      <trkpt lat="43.92947" lon="1.52697">
        <ele>182</ele>
        <time>2014-08-24T06:38:19Z</time>
      </trkpt>
      <trkpt lat="43.92966" lon="1.52705">
        <ele>182</ele>
        <time>2014-08-24T06:38:24Z</time>
      </trkpt>
      <trkpt lat="43.92991" lon="1.52724">
        <ele>182</ele>
        <time>2014-08-24T06:38:30Z</time>
      </trkpt>
      <trkpt lat="43.93013" lon="1.52739">
        <ele>182</ele>
        <time>2014-08-24T06:38:35Z</time>
      </trkpt>
      <trkpt lat="43.93031" lon="1.52751">
        <ele>182</ele>
        <time>2014-08-24T06:38:39Z</time>
      </trkpt>
      <trkpt lat="43.9305" lon="1.52759">
        <ele>182</ele>
        <time>2014-08-24T06:38:44Z</time>
      </trkpt>
      <trkpt lat="43.93054" lon="1.52735">
        <ele>182</ele>
        <time>2014-08-24T06:38:49Z</time>
      </trkpt>
      <trkpt lat="43.93055" lon="1.52703">
        <ele>182</ele>
        <time>2014-08-24T06:38:54Z</time>
      </trkpt>
      <trkpt lat="43.93056" lon="1.52673">
        <ele>182</ele>
        <time>2014-08-24T06:38:59Z</time>
      </trkpt>
      <trkpt lat="43.93057" lon="1.52607">
        <ele>182</ele>
        <time>2014-08-24T06:39:08Z</time>
      </trkpt>
      <trkpt lat="43.93057" lon="1.52599">
        <ele>182</ele>
        <time>2014-08-24T06:39:09Z</time>
      </trkpt>
      <trkpt lat="43.93056" lon="1.52555">
        <ele>183</ele>
        <time>2014-08-24T06:39:15Z</time>
      </trkpt>
      <trkpt lat="43.93036" lon="1.52513">
        <ele>184</ele>
        <time>2014-08-24T06:39:22Z</time>
      </trkpt>
      <trkpt lat="43.93016" lon="1.52494">
        <ele>184</ele>
        <time>2014-08-24T06:39:26Z</time>
      </trkpt>
      <trkpt lat="43.93002" lon="1.52483">
        <ele>184</ele>
        <time>2014-08-24T06:39:29Z</time>
      </trkpt>
      <trkpt lat="43.92982" lon="1.52463">
        <ele>183</ele>
        <time>2014-08-24T06:39:34Z</time>
      </trkpt>
      <trkpt lat="43.92976" lon="1.52412">
        <ele>183</ele>
        <time>2014-08-24T06:39:40Z</time>
      </trkpt>
      <trkpt lat="43.9297" lon="1.52345">
        <ele>183</ele>
        <time>2014-08-24T06:39:48Z</time>
      </trkpt>
      <trkpt lat="43.92969" lon="1.52337">
        <ele>183</ele>
        <time>2014-08-24T06:39:49Z</time>
      </trkpt>
      <trkpt lat="43.92964" lon="1.52295">
        <ele>184</ele>
        <time>2014-08-24T06:39:54Z</time>
      </trkpt>
      <trkpt lat="43.92966" lon="1.52242">
        <ele>184</ele>
        <time>2014-08-24T06:40:00Z</time>
      </trkpt>
      <trkpt lat="43.92969" lon="1.52207">
        <ele>183</ele>
        <time>2014-08-24T06:40:04Z</time>
      </trkpt>
      <trkpt lat="43.9297" lon="1.52164">
        <ele>182</ele>
        <time>2014-08-24T06:40:09Z</time>
      </trkpt>
      <trkpt lat="43.92976" lon="1.5212">
        <ele>179</ele>
        <time>2014-08-24T06:40:14Z</time>
      </trkpt>
      <trkpt lat="43.92991" lon="1.52078">
        <ele>178</ele>
        <time>2014-08-24T06:40:19Z</time>
      </trkpt>
      <trkpt lat="43.9301" lon="1.52039">
        <ele>178</ele>
        <time>2014-08-24T06:40:24Z</time>
      </trkpt>
      <trkpt lat="43.93029" lon="1.51997">
        <ele>178</ele>
        <time>2014-08-24T06:40:29Z</time>
      </trkpt>
      <trkpt lat="43.93047" lon="1.51957">
        <ele>181</ele>
        <time>2014-08-24T06:40:34Z</time>
      </trkpt>
      <trkpt lat="43.9306" lon="1.51916">
        <ele>182</ele>
        <time>2014-08-24T06:40:39Z</time>
      </trkpt>
      <trkpt lat="43.93073" lon="1.51881">
        <ele>181</ele>
        <time>2014-08-24T06:40:44Z</time>
      </trkpt>
      <trkpt lat="43.93086" lon="1.51846">
        <ele>180</ele>
        <time>2014-08-24T06:40:49Z</time>
      </trkpt>
      <trkpt lat="43.93099" lon="1.51812">
        <ele>181</ele>
        <time>2014-08-24T06:40:54Z</time>
      </trkpt>
      <trkpt lat="43.93109" lon="1.51771">
        <ele>176</ele>
        <time>2014-08-24T06:40:59Z</time>
      </trkpt>
      <trkpt lat="43.93117" lon="1.51717">
        <ele>171</ele>
        <time>2014-08-24T06:41:04Z</time>
      </trkpt>
      <trkpt lat="43.93121" lon="1.51664">
        <ele>166</ele>
        <time>2014-08-24T06:41:09Z</time>
      </trkpt>
      <trkpt lat="43.93123" lon="1.5161">
        <ele>160</ele>
        <time>2014-08-24T06:41:14Z</time>
      </trkpt>
      <trkpt lat="43.93129" lon="1.5155">
        <ele>153</ele>
        <time>2014-08-24T06:41:19Z</time>
      </trkpt>
      <trkpt lat="43.93143" lon="1.5148">
        <ele>147</ele>
        <time>2014-08-24T06:41:24Z</time>
      </trkpt>
      <trkpt lat="43.93162" lon="1.51412">
        <ele>145</ele>
        <time>2014-08-24T06:41:29Z</time>
      </trkpt>
      <trkpt lat="43.93178" lon="1.51348">
        <ele>144</ele>
        <time>2014-08-24T06:41:34Z</time>
      </trkpt>
      <trkpt lat="43.93188" lon="1.51289">
        <ele>143</ele>
        <time>2014-08-24T06:41:39Z</time>
      </trkpt>
      <trkpt lat="43.93182" lon="1.51212">
        <ele>140</ele>
        <time>2014-08-24T06:41:45Z</time>
      </trkpt>
      <trkpt lat="43.93174" lon="1.51165">
        <ele>137</ele>
        <time>2014-08-24T06:41:49Z</time>
      </trkpt>
      <trkpt lat="43.93165" lon="1.51094">
        <ele>130</ele>
        <time>2014-08-24T06:41:55Z</time>
      </trkpt>
      <trkpt lat="43.93163" lon="1.51036">
        <ele>123</ele>
        <time>2014-08-24T06:42:00Z</time>
      </trkpt>
      <trkpt lat="43.93167" lon="1.50984">
        <ele>119</ele>
        <time>2014-08-24T06:42:06Z</time>
      </trkpt>
      <trkpt lat="43.93181" lon="1.5097">
        <ele>120</ele>
        <time>2014-08-24T06:42:09Z</time>
      </trkpt>
      <trkpt lat="43.93209" lon="1.50937">
        <ele>119</ele>
        <time>2014-08-24T06:42:14Z</time>
      </trkpt>
      <trkpt lat="43.93235" lon="1.50903">
        <ele>119</ele>
        <time>2014-08-24T06:42:19Z</time>
      </trkpt>
      <trkpt lat="43.93264" lon="1.50871">
        <ele>119</ele>
        <time>2014-08-24T06:42:24Z</time>
      </trkpt>
      <trkpt lat="43.93294" lon="1.50842">
        <ele>119</ele>
        <time>2014-08-24T06:42:29Z</time>
      </trkpt>
      <trkpt lat="43.93321" lon="1.50815">
        <ele>119</ele>
        <time>2014-08-24T06:42:34Z</time>
      </trkpt>
      <trkpt lat="43.93349" lon="1.50792">
        <ele>118</ele>
        <time>2014-08-24T06:42:43Z</time>
      </trkpt>
      <trkpt lat="43.93349" lon="1.50798">
        <ele>118</ele>
        <time>2014-08-24T06:42:44Z</time>
      </trkpt>
      <trkpt lat="43.93344" lon="1.50827">
        <ele>119</ele>
        <time>2014-08-24T06:42:49Z</time>
      </trkpt>
      <trkpt lat="43.93371" lon="1.50845">
        <ele>119</ele>
        <time>2014-08-24T06:42:55Z</time>
      </trkpt>
      <trkpt lat="43.93395" lon="1.50851">
        <ele>119</ele>
        <time>2014-08-24T06:42:59Z</time>
      </trkpt>
      <trkpt lat="43.93442" lon="1.50897">
        <ele>119</ele>
        <time>2014-08-24T06:43:08Z</time>
      </trkpt>
      <trkpt lat="43.93447" lon="1.50902">
        <ele>118</ele>
        <time>2014-08-24T06:43:09Z</time>
      </trkpt>
      <trkpt lat="43.93485" lon="1.5094">
        <ele>118</ele>
        <time>2014-08-24T06:43:17Z</time>
      </trkpt>
      <trkpt lat="43.93494" lon="1.50951">
        <ele>118</ele>
        <time>2014-08-24T06:43:19Z</time>
      </trkpt>
      <trkpt lat="43.93519" lon="1.50971">
        <ele>118</ele>
        <time>2014-08-24T06:43:24Z</time>
      </trkpt>
      <trkpt lat="43.93549" lon="1.50962">
        <ele>117</ele>
        <time>2014-08-24T06:43:31Z</time>
      </trkpt>
      <trkpt lat="43.93559" lon="1.5094">
        <ele>117</ele>
        <time>2014-08-24T06:43:34Z</time>
      </trkpt>
      <trkpt lat="43.93575" lon="1.50905">
        <ele>118</ele>
        <time>2014-08-24T06:43:39Z</time>
      </trkpt>
      <trkpt lat="43.93591" lon="1.50874">
        <ele>118</ele>
        <time>2014-08-24T06:43:44Z</time>
      </trkpt>
      <trkpt lat="43.93617" lon="1.50877">
        <ele>119</ele>
        <time>2014-08-24T06:43:51Z</time>
      </trkpt>
      <trkpt lat="43.93625" lon="1.50877">
        <ele>119</ele>
        <time>2014-08-24T06:43:54Z</time>
      </trkpt>
      <trkpt lat="43.93656" lon="1.50871">
        <ele>120</ele>
        <time>2014-08-24T06:44:03Z</time>
      </trkpt>
      <trkpt lat="43.9366" lon="1.50874">
        <ele>120</ele>
        <time>2014-08-24T06:44:04Z</time>
      </trkpt>
      <trkpt lat="43.93676" lon="1.50858">
        <ele>121</ele>
        <time>2014-08-24T06:44:09Z</time>
      </trkpt>
      <trkpt lat="43.93689" lon="1.50802">
        <ele>122</ele>
        <time>2014-08-24T06:44:17Z</time>
      </trkpt>
      <trkpt lat="43.93691" lon="1.50788">
        <ele>122</ele>
        <time>2014-08-24T06:44:19Z</time>
      </trkpt>
      <trkpt lat="43.93697" lon="1.50757">
        <ele>123</ele>
        <time>2014-08-24T06:44:24Z</time>
      </trkpt>
      <trkpt lat="43.93729" lon="1.50788">
        <ele>124</ele>
        <time>2014-08-24T06:44:33Z</time>
      </trkpt>
      <trkpt lat="43.93733" lon="1.50792">
        <ele>125</ele>
        <time>2014-08-24T06:44:34Z</time>
      </trkpt>
      <trkpt lat="43.93755" lon="1.50811">
        <ele>126</ele>
        <time>2014-08-24T06:44:39Z</time>
      </trkpt>
      <trkpt lat="43.93774" lon="1.50834">
        <ele>127</ele>
        <time>2014-08-24T06:44:44Z</time>
      </trkpt>
      <trkpt lat="43.93791" lon="1.50861">
        <ele>127</ele>
        <time>2014-08-24T06:44:49Z</time>
      </trkpt>
      <trkpt lat="43.93807" lon="1.50891">
        <ele>128</ele>
        <time>2014-08-24T06:44:54Z</time>
      </trkpt>
      <trkpt lat="43.93825" lon="1.50929">
        <ele>128</ele>
        <time>2014-08-24T06:45:00Z</time>
      </trkpt>
      <trkpt lat="43.93835" lon="1.50963">
        <ele>128</ele>
        <time>2014-08-24T06:45:05Z</time>
      </trkpt>
      <trkpt lat="43.93842" lon="1.50989">
        <ele>127</ele>
        <time>2014-08-24T06:45:09Z</time>
      </trkpt>
      <trkpt lat="43.93854" lon="1.5102">
        <ele>127</ele>
        <time>2014-08-24T06:45:14Z</time>
      </trkpt>
      <trkpt lat="43.9387" lon="1.51045">
        <ele>127</ele>
        <time>2014-08-24T06:45:19Z</time>
      </trkpt>
      <trkpt lat="43.93884" lon="1.5107">
        <ele>127</ele>
        <time>2014-08-24T06:45:24Z</time>
      </trkpt>
      <trkpt lat="43.93899" lon="1.51092">
        <ele>127</ele>
        <time>2014-08-24T06:45:29Z</time>
      </trkpt>
      <trkpt lat="43.93915" lon="1.51113">
        <ele>127</ele>
        <time>2014-08-24T06:45:34Z</time>
      </trkpt>
      <trkpt lat="43.93931" lon="1.51133">
        <ele>128</ele>
        <time>2014-08-24T06:45:39Z</time>
      </trkpt>
      <trkpt lat="43.93946" lon="1.51155">
        <ele>128</ele>
        <time>2014-08-24T06:45:44Z</time>
      </trkpt>
      <trkpt lat="43.93961" lon="1.51178">
        <ele>129</ele>
        <time>2014-08-24T06:45:49Z</time>
      </trkpt>
      <trkpt lat="43.93975" lon="1.51202">
        <ele>130</ele>
        <time>2014-08-24T06:45:54Z</time>
      </trkpt>
      <trkpt lat="43.93989" lon="1.51227">
        <ele>131</ele>
        <time>2014-08-24T06:45:59Z</time>
      </trkpt>
      <trkpt lat="43.94" lon="1.51254">
        <ele>131</ele>
        <time>2014-08-24T06:46:04Z</time>
      </trkpt>
      <trkpt lat="43.94013" lon="1.51286">
        <ele>131</ele>
        <time>2014-08-24T06:46:09Z</time>
      </trkpt>
      <trkpt lat="43.94022" lon="1.51319">
        <ele>131</ele>
        <time>2014-08-24T06:46:14Z</time>
      </trkpt>
      <trkpt lat="43.9403" lon="1.51353">
        <ele>130</ele>
        <time>2014-08-24T06:46:19Z</time>
      </trkpt>
      <trkpt lat="43.94034" lon="1.51389">
        <ele>129</ele>
        <time>2014-08-24T06:46:24Z</time>
      </trkpt>
      <trkpt lat="43.9403" lon="1.51437">
        <ele>127</ele>
        <time>2014-08-24T06:46:31Z</time>
      </trkpt>
      <trkpt lat="43.94015" lon="1.51468">
        <ele>125</ele>
        <time>2014-08-24T06:46:36Z</time>
      </trkpt>
      <trkpt lat="43.94003" lon="1.51495">
        <ele>124</ele>
        <time>2014-08-24T06:46:40Z</time>
      </trkpt>
      <trkpt lat="43.93993" lon="1.51522">
        <ele>123</ele>
        <time>2014-08-24T06:46:44Z</time>
      </trkpt>
      <trkpt lat="43.93986" lon="1.51564">
        <ele>123</ele>
        <time>2014-08-24T06:46:49Z</time>
      </trkpt>
      <trkpt lat="43.9399" lon="1.51606">
        <ele>123</ele>
        <time>2014-08-24T06:46:54Z</time>
      </trkpt>
      <trkpt lat="43.94015" lon="1.51642">
        <ele>126</ele>
        <time>2014-08-24T06:47:02Z</time>
      </trkpt>
      <trkpt lat="43.94021" lon="1.51651">
        <ele>127</ele>
        <time>2014-08-24T06:47:04Z</time>
      </trkpt>
      <trkpt lat="43.9403" lon="1.51669">
        <ele>128</ele>
        <time>2014-08-24T06:47:09Z</time>
      </trkpt>
      <trkpt lat="43.9404" lon="1.5169">
        <ele>129</ele>
        <time>2014-08-24T06:47:16Z</time>
      </trkpt>
      <trkpt lat="43.94044" lon="1.517">
        <ele>130</ele>
        <time>2014-08-24T06:47:19Z</time>
      </trkpt>
      <trkpt lat="43.94051" lon="1.51715">
        <ele>131</ele>
        <time>2014-08-24T06:47:24Z</time>
      </trkpt>
      <trkpt lat="43.94057" lon="1.51733">
        <ele>131</ele>
        <time>2014-08-24T06:47:32Z</time>
      </trkpt>
      <trkpt lat="43.94059" lon="1.51737">
        <ele>131</ele>
        <time>2014-08-24T06:47:34Z</time>
      </trkpt>
      <trkpt lat="43.94063" lon="1.51747">
        <ele>132</ele>
        <time>2014-08-24T06:47:39Z</time>
      </trkpt>
      <trkpt lat="43.94067" lon="1.51757">
        <ele>133</ele>
        <time>2014-08-24T06:47:44Z</time>
      </trkpt>
      <trkpt lat="43.94071" lon="1.51765">
        <ele>133</ele>
        <time>2014-08-24T06:47:49Z</time>
      </trkpt>
      <trkpt lat="43.94077" lon="1.51771">
        <ele>134</ele>
        <time>2014-08-24T06:47:54Z</time>
      </trkpt>
      <trkpt lat="43.94083" lon="1.51772">
        <ele>135</ele>
        <time>2014-08-24T06:47:59Z</time>
      </trkpt>
      <trkpt lat="43.94091" lon="1.51771">
        <ele>136</ele>
        <time>2014-08-24T06:48:04Z</time>
      </trkpt>
      <trkpt lat="43.94099" lon="1.51771">
        <ele>137</ele>
        <time>2014-08-24T06:48:09Z</time>
      </trkpt>
      <trkpt lat="43.94106" lon="1.51766">
        <ele>138</ele>
        <time>2014-08-24T06:48:14Z</time>
      </trkpt>
      <trkpt lat="43.94111" lon="1.51756">
        <ele>138</ele>
        <time>2014-08-24T06:48:19Z</time>
      </trkpt>
      <trkpt lat="43.94115" lon="1.51746">
        <ele>139</ele>
        <time>2014-08-24T06:48:24Z</time>
      </trkpt>
      <trkpt lat="43.94127" lon="1.51737">
        <ele>140</ele>
        <time>2014-08-24T06:48:32Z</time>
      </trkpt>
      <trkpt lat="43.94129" lon="1.51737">
        <ele>140</ele>
        <time>2014-08-24T06:48:33Z</time>
      </trkpt>
      <trkpt lat="43.94138" lon="1.5174">
        <ele>141</ele>
        <time>2014-08-24T06:48:38Z</time>
      </trkpt>
      <trkpt lat="43.94149" lon="1.51739">
        <ele>142</ele>
        <time>2014-08-24T06:48:44Z</time>
      </trkpt>
      <trkpt lat="43.94164" lon="1.51735">
        <ele>143</ele>
        <time>2014-08-24T06:48:52Z</time>
      </trkpt>
      <trkpt lat="43.94166" lon="1.51735">
        <ele>144</ele>
        <time>2014-08-24T06:48:53Z</time>
      </trkpt>
      <trkpt lat="43.94176" lon="1.5173">
        <ele>144</ele>
        <time>2014-08-24T06:48:59Z</time>
      </trkpt>
      <trkpt lat="43.94183" lon="1.51727">
        <ele>145</ele>
        <time>2014-08-24T06:49:03Z</time>
      </trkpt>
      <trkpt lat="43.9419" lon="1.51725">
        <ele>145</ele>
        <time>2014-08-24T06:49:07Z</time>
      </trkpt>
      <trkpt lat="43.94199" lon="1.51722">
        <ele>146</ele>
        <time>2014-08-24T06:49:12Z</time>
      </trkpt>
      <trkpt lat="43.94206" lon="1.5172">
        <ele>146</ele>
        <time>2014-08-24T06:49:16Z</time>
      </trkpt>
      <trkpt lat="43.94213" lon="1.51718">
        <ele>147</ele>
        <time>2014-08-24T06:49:20Z</time>
      </trkpt>
      <trkpt lat="43.94218" lon="1.51716">
        <ele>147</ele>
        <time>2014-08-24T06:49:23Z</time>
      </trkpt>
      <trkpt lat="43.94225" lon="1.51713">
        <ele>148</ele>
        <time>2014-08-24T06:49:27Z</time>
      </trkpt>
      <trkpt lat="43.94236" lon="1.51709">
        <ele>148</ele>
        <time>2014-08-24T06:49:33Z</time>
      </trkpt>
      <trkpt lat="43.94239" lon="1.51708">
        <ele>148</ele>
        <time>2014-08-24T06:49:35Z</time>
      </trkpt>
      <trkpt lat="43.94253" lon="1.51705">
        <ele>150</ele>
        <time>2014-08-24T06:49:43Z</time>
      </trkpt>
      <trkpt lat="43.9426" lon="1.51703">
        <ele>150</ele>
        <time>2014-08-24T06:49:47Z</time>
      </trkpt>
      <trkpt lat="43.94265" lon="1.51702">
        <ele>151</ele>
        <time>2014-08-24T06:49:50Z</time>
      </trkpt>
      <trkpt lat="43.94275" lon="1.517">
        <ele>152</ele>
        <time>2014-08-24T06:49:56Z</time>
      </trkpt>
      <trkpt lat="43.94288" lon="1.51698">
        <ele>153</ele>
        <time>2014-08-24T06:50:03Z</time>
      </trkpt>
      <trkpt lat="43.94292" lon="1.51697">
        <ele>153</ele>
        <time>2014-08-24T06:50:05Z</time>
      </trkpt>
      <trkpt lat="43.943" lon="1.51695">
        <ele>154</ele>
        <time>2014-08-24T06:50:10Z</time>
      </trkpt>
      <trkpt lat="43.94311" lon="1.51693">
        <ele>155</ele>
        <time>2014-08-24T06:50:16Z</time>
      </trkpt>
      <trkpt lat="43.9432" lon="1.51691">
        <ele>156</ele>
        <time>2014-08-24T06:50:21Z</time>
      </trkpt>
      <trkpt lat="43.94327" lon="1.5169">
        <ele>157</ele>
        <time>2014-08-24T06:50:25Z</time>
      </trkpt>
      <trkpt lat="43.94336" lon="1.51688">
        <ele>158</ele>
        <time>2014-08-24T06:50:30Z</time>
      </trkpt>
      <trkpt lat="43.94347" lon="1.51686">
        <ele>158</ele>
        <time>2014-08-24T06:50:36Z</time>
      </trkpt>
      <trkpt lat="43.9436" lon="1.51682">
        <ele>159</ele>
        <time>2014-08-24T06:50:43Z</time>
      </trkpt>
      <trkpt lat="43.94364" lon="1.51681">
        <ele>159</ele>
        <time>2014-08-24T06:50:45Z</time>
      </trkpt>
      <trkpt lat="43.94378" lon="1.5168">
        <ele>159</ele>
        <time>2014-08-24T06:50:53Z</time>
      </trkpt>
      <trkpt lat="43.94382" lon="1.51684">
        <ele>160</ele>
        <time>2014-08-24T06:50:57Z</time>
      </trkpt>
      <trkpt lat="43.94388" lon="1.51688">
        <ele>160</ele>
        <time>2014-08-24T06:51:01Z</time>
      </trkpt>
      <trkpt lat="43.94393" lon="1.51692">
        <ele>161</ele>
        <time>2014-08-24T06:51:05Z</time>
      </trkpt>
      <trkpt lat="43.944" lon="1.51696">
        <ele>161</ele>
        <time>2014-08-24T06:51:09Z</time>
      </trkpt>
      <trkpt lat="43.94409" lon="1.51701">
        <ele>161</ele>
        <time>2014-08-24T06:51:14Z</time>
      </trkpt>
      <trkpt lat="43.94418" lon="1.51705">
        <ele>162</ele>
        <time>2014-08-24T06:51:19Z</time>
      </trkpt>
      <trkpt lat="43.94434" lon="1.51705">
        <ele>162</ele>
        <time>2014-08-24T06:51:27Z</time>
      </trkpt>
      <trkpt lat="43.94437" lon="1.51708">
        <ele>162</ele>
        <time>2014-08-24T06:51:29Z</time>
      </trkpt>
      <trkpt lat="43.94447" lon="1.51718">
        <ele>164</ele>
        <time>2014-08-24T06:51:35Z</time>
      </trkpt>
      <trkpt lat="43.94454" lon="1.51724">
        <ele>165</ele>
        <time>2014-08-24T06:51:39Z</time>
      </trkpt>
      <trkpt lat="43.94465" lon="1.51728">
        <ele>166</ele>
        <time>2014-08-24T06:51:44Z</time>
      </trkpt>
      <trkpt lat="43.94482" lon="1.51726">
        <ele>167</ele>
        <time>2014-08-24T06:51:52Z</time>
      </trkpt>
      <trkpt lat="43.94485" lon="1.51728">
        <ele>167</ele>
        <time>2014-08-24T06:51:54Z</time>
      </trkpt>
      <trkpt lat="43.94489" lon="1.51731">
        <ele>168</ele>
        <time>2014-08-24T06:51:59Z</time>
      </trkpt>
      <trkpt lat="43.94496" lon="1.51736">
        <ele>169</ele>
        <time>2014-08-24T06:52:04Z</time>
      </trkpt>
      <trkpt lat="43.94514" lon="1.51741">
        <ele>172</ele>
        <time>2014-08-24T06:52:12Z</time>
      </trkpt>
      <trkpt lat="43.94518" lon="1.51741">
        <ele>173</ele>
        <time>2014-08-24T06:52:14Z</time>
      </trkpt>
      <trkpt lat="43.94529" lon="1.51745">
        <ele>174</ele>
        <time>2014-08-24T06:52:19Z</time>
      </trkpt>
      <trkpt lat="43.9454" lon="1.51747">
        <ele>176</ele>
        <time>2014-08-24T06:52:24Z</time>
      </trkpt>
      <trkpt lat="43.94551" lon="1.51749">
        <ele>177</ele>
        <time>2014-08-24T06:52:29Z</time>
      </trkpt>
      <trkpt lat="43.94567" lon="1.51749">
        <ele>179</ele>
        <time>2014-08-24T06:52:36Z</time>
      </trkpt>
      <trkpt lat="43.94582" lon="1.51749">
        <ele>180</ele>
        <time>2014-08-24T06:52:43Z</time>
      </trkpt>
      <trkpt lat="43.94585" lon="1.5175">
        <ele>181</ele>
        <time>2014-08-24T06:52:44Z</time>
      </trkpt>
      <trkpt lat="43.94596" lon="1.51751">
        <ele>181</ele>
        <time>2014-08-24T06:52:49Z</time>
      </trkpt>
      <trkpt lat="43.94613" lon="1.51749">
        <ele>182</ele>
        <time>2014-08-24T06:52:56Z</time>
      </trkpt>
      <trkpt lat="43.94626" lon="1.51756">
        <ele>183</ele>
        <time>2014-08-24T06:53:01Z</time>
      </trkpt>
      <trkpt lat="43.94623" lon="1.51766">
        <ele>182</ele>
        <time>2014-08-24T06:53:03Z</time>
      </trkpt>
      <trkpt lat="43.94616" lon="1.51793">
        <ele>182</ele>
        <time>2014-08-24T06:53:08Z</time>
      </trkpt>
      <trkpt lat="43.94611" lon="1.5182">
        <ele>182</ele>
        <time>2014-08-24T06:53:13Z</time>
      </trkpt>
      <trkpt lat="43.94608" lon="1.51842">
        <ele>182</ele>
        <time>2014-08-24T06:53:17Z</time>
      </trkpt>
      <trkpt lat="43.94611" lon="1.51869">
        <ele>182</ele>
        <time>2014-08-24T06:53:22Z</time>
      </trkpt>
      <trkpt lat="43.94618" lon="1.51897">
        <ele>181</ele>
        <time>2014-08-24T06:53:27Z</time>
      </trkpt>
      <trkpt lat="43.94628" lon="1.51921">
        <ele>181</ele>
        <time>2014-08-24T06:53:32Z</time>
      </trkpt>
      <trkpt lat="43.94639" lon="1.51944">
        <ele>181</ele>
        <time>2014-08-24T06:53:37Z</time>
      </trkpt>
      <trkpt lat="43.94648" lon="1.51969">
        <ele>181</ele>
        <time>2014-08-24T06:53:42Z</time>
      </trkpt>
      <trkpt lat="43.94654" lon="1.51995">
        <ele>181</ele>
        <time>2014-08-24T06:53:47Z</time>
      </trkpt>
      <trkpt lat="43.94657" lon="1.52028">
        <ele>182</ele>
        <time>2014-08-24T06:53:53Z</time>
      </trkpt>
      <trkpt lat="43.9466" lon="1.52068">
        <ele>183</ele>
        <time>2014-08-24T06:54:00Z</time>
      </trkpt>
      <trkpt lat="43.94661" lon="1.52086">
        <ele>184</ele>
        <time>2014-08-24T06:54:03Z</time>
      </trkpt>
      <trkpt lat="43.94664" lon="1.52118">
        <ele>184</ele>
        <time>2014-08-24T06:54:09Z</time>
      </trkpt>
      <trkpt lat="43.94668" lon="1.52157">
        <ele>184</ele>
        <time>2014-08-24T06:54:16Z</time>
      </trkpt>
      <trkpt lat="43.94674" lon="1.52172">
        <ele>184</ele>
        <time>2014-08-24T06:54:19Z</time>
      </trkpt>
      <trkpt lat="43.94694" lon="1.52153">
        <ele>185</ele>
        <time>2014-08-24T06:54:25Z</time>
      </trkpt>
      <trkpt lat="43.94699" lon="1.52143">
        <ele>185</ele>
        <time>2014-08-24T06:54:27Z</time>
      </trkpt>
      <trkpt lat="43.94715" lon="1.52116">
        <ele>184</ele>
        <time>2014-08-24T06:54:32Z</time>
      </trkpt>
      <trkpt lat="43.94734" lon="1.52092">
        <ele>184</ele>
        <time>2014-08-24T06:54:36Z</time>
      </trkpt>
      <trkpt lat="43.94762" lon="1.52063">
        <ele>182</ele>
        <time>2014-08-24T06:54:41Z</time>
      </trkpt>
      <trkpt lat="43.94801" lon="1.52013">
        <ele>180</ele>
        <time>2014-08-24T06:54:48Z</time>
      </trkpt>
      <trkpt lat="43.94827" lon="1.5198">
        <ele>178</ele>
        <time>2014-08-24T06:54:53Z</time>
      </trkpt>
      <trkpt lat="43.94852" lon="1.51954">
        <ele>178</ele>
        <time>2014-08-24T06:54:58Z</time>
      </trkpt>
      <trkpt lat="43.94885" lon="1.51928">
        <ele>177</ele>
        <time>2014-08-24T06:55:04Z</time>
      </trkpt>
      <trkpt lat="43.94897" lon="1.51917">
        <ele>175</ele>
        <time>2014-08-24T06:55:06Z</time>
      </trkpt>
      <trkpt lat="43.94928" lon="1.51881">
        <ele>172</ele>
        <time>2014-08-24T06:55:11Z</time>
      </trkpt>
      <trkpt lat="43.94971" lon="1.51833">
        <ele>166</ele>
        <time>2014-08-24T06:55:17Z</time>
      </trkpt>
      <trkpt lat="43.95001" lon="1.51802">
        <ele>162</ele>
        <time>2014-08-24T06:55:21Z</time>
      </trkpt>
      <trkpt lat="43.95037" lon="1.51759">
        <ele>157</ele>
        <time>2014-08-24T06:55:26Z</time>
      </trkpt>
      <trkpt lat="43.95061" lon="1.51724">
        <ele>152</ele>
        <time>2014-08-24T06:55:31Z</time>
      </trkpt>
      <trkpt lat="43.9509" lon="1.51712">
        <ele>150</ele>
        <time>2014-08-24T06:55:36Z</time>
      </trkpt>
      <trkpt lat="43.95116" lon="1.51694">
        <ele>147</ele>
        <time>2014-08-24T06:55:41Z</time>
      </trkpt>
      <trkpt lat="43.95146" lon="1.51671">
        <ele>144</ele>
        <time>2014-08-24T06:55:46Z</time>
      </trkpt>
      <trkpt lat="43.95178" lon="1.51656">
        <ele>141</ele>
        <time>2014-08-24T06:55:51Z</time>
      </trkpt>
      <trkpt lat="43.95206" lon="1.51653">
        <ele>138</ele>
        <time>2014-08-24T06:55:56Z</time>
      </trkpt>
      <trkpt lat="43.95237" lon="1.51658">
        <ele>135</ele>
        <time>2014-08-24T06:56:03Z</time>
      </trkpt>
      <trkpt lat="43.95255" lon="1.51664">
        <ele>134</ele>
        <time>2014-08-24T06:56:06Z</time>
      </trkpt>
      <trkpt lat="43.95292" lon="1.51666">
        <ele>131</ele>
        <time>2014-08-24T06:56:12Z</time>
      </trkpt>
      <trkpt lat="43.95309" lon="1.51683">
        <ele>130</ele>
        <time>2014-08-24T06:56:17Z</time>
      </trkpt>
      <trkpt lat="43.95318" lon="1.51697">
        <ele>130</ele>
        <time>2014-08-24T06:56:21Z</time>
      </trkpt>
      <trkpt lat="43.95324" lon="1.51712">
        <ele>131</ele>
        <time>2014-08-24T06:56:26Z</time>
      </trkpt>
      <trkpt lat="43.95329" lon="1.51725">
        <ele>131</ele>
        <time>2014-08-24T06:56:31Z</time>
      </trkpt>
      <trkpt lat="43.95334" lon="1.51739">
        <ele>131</ele>
        <time>2014-08-24T06:56:36Z</time>
      </trkpt>
      <trkpt lat="43.95338" lon="1.51752">
        <ele>131</ele>
        <time>2014-08-24T06:56:41Z</time>
      </trkpt>
      <trkpt lat="43.9534" lon="1.51765">
        <ele>132</ele>
        <time>2014-08-24T06:56:46Z</time>
      </trkpt>
      <trkpt lat="43.95345" lon="1.51778">
        <ele>132</ele>
        <time>2014-08-24T06:56:51Z</time>
      </trkpt>
      <trkpt lat="43.95362" lon="1.51795">
        <ele>132</ele>
        <time>2014-08-24T06:56:56Z</time>
      </trkpt>
      <trkpt lat="43.95383" lon="1.51825">
        <ele>133</ele>
        <time>2014-08-24T06:57:01Z</time>
      </trkpt>
      <trkpt lat="43.95404" lon="1.51857">
        <ele>133</ele>
        <time>2014-08-24T06:57:06Z</time>
      </trkpt>
      <trkpt lat="43.95433" lon="1.51861">
        <ele>131</ele>
        <time>2014-08-24T06:57:11Z</time>
      </trkpt>
      <trkpt lat="43.95463" lon="1.51854">
        <ele>130</ele>
        <time>2014-08-24T06:57:16Z</time>
      </trkpt>
      <trkpt lat="43.955" lon="1.51845">
        <ele>128</ele>
        <time>2014-08-24T06:57:23Z</time>
      </trkpt>
      <trkpt lat="43.95511" lon="1.51847">
        <ele>128</ele>
        <time>2014-08-24T06:57:26Z</time>
      </trkpt>
      <trkpt lat="43.95518" lon="1.51872">
        <ele>128</ele>
        <time>2014-08-24T06:57:31Z</time>
      </trkpt>
      <trkpt lat="43.95523" lon="1.51897">
        <ele>128</ele>
        <time>2014-08-24T06:57:36Z</time>
      </trkpt>
      <trkpt lat="43.95527" lon="1.51923">
        <ele>128</ele>
        <time>2014-08-24T06:57:41Z</time>
      </trkpt>
      <trkpt lat="43.95533" lon="1.51948">
        <ele>128</ele>
        <time>2014-08-24T06:57:46Z</time>
      </trkpt>
      <trkpt lat="43.95539" lon="1.51974">
        <ele>128</ele>
        <time>2014-08-24T06:57:51Z</time>
      </trkpt>
      <trkpt lat="43.95544" lon="1.52001">
        <ele>129</ele>
        <time>2014-08-24T06:57:56Z</time>
      </trkpt>
      <trkpt lat="43.95548" lon="1.52029">
        <ele>129</ele>
        <time>2014-08-24T06:58:01Z</time>
      </trkpt>
      <trkpt lat="43.95552" lon="1.52056">
        <ele>129</ele>
        <time>2014-08-24T06:58:06Z</time>
      </trkpt>
      <trkpt lat="43.9555" lon="1.52084">
        <ele>129</ele>
        <time>2014-08-24T06:58:11Z</time>
      </trkpt>
      <trkpt lat="43.95548" lon="1.52111">
        <ele>129</ele>
        <time>2014-08-24T06:58:16Z</time>
      </trkpt>
      <trkpt lat="43.9555" lon="1.52138">
        <ele>129</ele>
        <time>2014-08-24T06:58:21Z</time>
      </trkpt>
      <trkpt lat="43.95554" lon="1.52168">
        <ele>130</ele>
        <time>2014-08-24T06:58:26Z</time>
      </trkpt>
      <trkpt lat="43.95562" lon="1.52215">
        <ele>130</ele>
        <time>2014-08-24T06:58:33Z</time>
      </trkpt>
      <trkpt lat="43.95566" lon="1.52234">
        <ele>130</ele>
        <time>2014-08-24T06:58:36Z</time>
      </trkpt>
      <trkpt lat="43.9557" lon="1.52267">
        <ele>130</ele>
        <time>2014-08-24T06:58:41Z</time>
      </trkpt>
      <trkpt lat="43.95573" lon="1.523">
        <ele>131</ele>
        <time>2014-08-24T06:58:46Z</time>
      </trkpt>
      <trkpt lat="43.95579" lon="1.52333">
        <ele>131</ele>
        <time>2014-08-24T06:58:51Z</time>
      </trkpt>
      <trkpt lat="43.95585" lon="1.52365">
        <ele>132</ele>
        <time>2014-08-24T06:58:56Z</time>
      </trkpt>
      <trkpt lat="43.95595" lon="1.52394">
        <ele>132</ele>
        <time>2014-08-24T06:59:01Z</time>
      </trkpt>
      <trkpt lat="43.95605" lon="1.5242">
        <ele>133</ele>
        <time>2014-08-24T06:59:06Z</time>
      </trkpt>
      <trkpt lat="43.95615" lon="1.52449">
        <ele>133</ele>
        <time>2014-08-24T06:59:11Z</time>
      </trkpt>
      <trkpt lat="43.95626" lon="1.52477">
        <ele>134</ele>
        <time>2014-08-24T06:59:16Z</time>
      </trkpt>
      <trkpt lat="43.95639" lon="1.52505">
        <ele>134</ele>
        <time>2014-08-24T06:59:21Z</time>
      </trkpt>
      <trkpt lat="43.95649" lon="1.52533">
        <ele>135</ele>
        <time>2014-08-24T06:59:26Z</time>
      </trkpt>
      <trkpt lat="43.95655" lon="1.52569">
        <ele>135</ele>
        <time>2014-08-24T06:59:32Z</time>
      </trkpt>
      <trkpt lat="43.95658" lon="1.52594">
        <ele>135</ele>
        <time>2014-08-24T06:59:36Z</time>
      </trkpt>
      <trkpt lat="43.95659" lon="1.52627">
        <ele>135</ele>
        <time>2014-08-24T06:59:42Z</time>
      </trkpt>
      <trkpt lat="43.95661" lon="1.52649">
        <ele>135</ele>
        <time>2014-08-24T06:59:46Z</time>
      </trkpt>
      <trkpt lat="43.95665" lon="1.52668">
        <ele>135</ele>
        <time>2014-08-24T06:59:51Z</time>
      </trkpt>
      <trkpt lat="43.95683" lon="1.52673">
        <ele>135</ele>
        <time>2014-08-24T06:59:58Z</time>
      </trkpt>
      <trkpt lat="43.95689" lon="1.52688">
        <ele>135</ele>
        <time>2014-08-24T07:00:01Z</time>
      </trkpt>
      <trkpt lat="43.9571" lon="1.52732">
        <ele>136</ele>
        <time>2014-08-24T07:00:10Z</time>
      </trkpt>
      <trkpt lat="43.95714" lon="1.52743">
        <ele>136</ele>
        <time>2014-08-24T07:00:12Z</time>
      </trkpt>
      <trkpt lat="43.95722" lon="1.52761">
        <ele>137</ele>
        <time>2014-08-24T07:00:16Z</time>
      </trkpt>
      <trkpt lat="43.95731" lon="1.52783">
        <ele>137</ele>
        <time>2014-08-24T07:00:21Z</time>
      </trkpt>
      <trkpt lat="43.9574" lon="1.52803">
        <ele>137</ele>
        <time>2014-08-24T07:00:26Z</time>
      </trkpt>
      <trkpt lat="43.9575" lon="1.52827">
        <ele>137</ele>
        <time>2014-08-24T07:00:32Z</time>
      </trkpt>
      <trkpt lat="43.95761" lon="1.52854">
        <ele>137</ele>
        <time>2014-08-24T07:00:38Z</time>
      </trkpt>
      <trkpt lat="43.95767" lon="1.52869">
        <ele>137</ele>
        <time>2014-08-24T07:00:41Z</time>
      </trkpt>
      <trkpt lat="43.95777" lon="1.52892">
        <ele>137</ele>
        <time>2014-08-24T07:00:46Z</time>
      </trkpt>
      <trkpt lat="43.95795" lon="1.52936">
        <ele>137</ele>
        <time>2014-08-24T07:00:55Z</time>
      </trkpt>
      <trkpt lat="43.95797" lon="1.52941">
        <ele>137</ele>
        <time>2014-08-24T07:00:56Z</time>
      </trkpt>
      <trkpt lat="43.95805" lon="1.52962">
        <ele>136</ele>
        <time>2014-08-24T07:01:01Z</time>
      </trkpt>
      <trkpt lat="43.95814" lon="1.52982">
        <ele>136</ele>
        <time>2014-08-24T07:01:06Z</time>
      </trkpt>
      <trkpt lat="43.95824" lon="1.53003">
        <ele>136</ele>
        <time>2014-08-24T07:01:11Z</time>
      </trkpt>
      <trkpt lat="43.95833" lon="1.53024">
        <ele>136</ele>
        <time>2014-08-24T07:01:16Z</time>
      </trkpt>
      <trkpt lat="43.95843" lon="1.53045">
        <ele>136</ele>
        <time>2014-08-24T07:01:21Z</time>
      </trkpt>
      <trkpt lat="43.95851" lon="1.53065">
        <ele>136</ele>
        <time>2014-08-24T07:01:26Z</time>
      </trkpt>
      <trkpt lat="43.95859" lon="1.53084">
        <ele>136</ele>
        <time>2014-08-24T07:01:31Z</time>
      </trkpt>
      <trkpt lat="43.95871" lon="1.53099">
        <ele>136</ele>
        <time>2014-08-24T07:01:36Z</time>
      </trkpt>
      <trkpt lat="43.95881" lon="1.53114">
        <ele>136</ele>
        <time>2014-08-24T07:01:41Z</time>
      </trkpt>
      <trkpt lat="43.95893" lon="1.53127">
        <ele>136</ele>
        <time>2014-08-24T07:01:46Z</time>
      </trkpt>
      <trkpt lat="43.95901" lon="1.53145">
        <ele>137</ele>
        <time>2014-08-24T07:01:51Z</time>
      </trkpt>
      <trkpt lat="43.9591" lon="1.53169">
        <ele>137</ele>
        <time>2014-08-24T07:01:56Z</time>
      </trkpt>
      <trkpt lat="43.95916" lon="1.53195">
        <ele>137</ele>
        <time>2014-08-24T07:02:01Z</time>
      </trkpt>
      <trkpt lat="43.95919" lon="1.53215">
        <ele>137</ele>
        <time>2014-08-24T07:02:05Z</time>
      </trkpt>
      <trkpt lat="43.95926" lon="1.5325">
        <ele>137</ele>
        <time>2014-08-24T07:02:12Z</time>
      </trkpt>
      <trkpt lat="43.95931" lon="1.53265">
        <ele>137</ele>
        <time>2014-08-24T07:02:15Z</time>
      </trkpt>
      <trkpt lat="43.9594" lon="1.53298">
        <ele>137</ele>
        <time>2014-08-24T07:02:22Z</time>
      </trkpt>
      <trkpt lat="43.95944" lon="1.53312">
        <ele>137</ele>
        <time>2014-08-24T07:02:25Z</time>
      </trkpt>
      <trkpt lat="43.95952" lon="1.53343">
        <ele>136</ele>
        <time>2014-08-24T07:02:31Z</time>
      </trkpt>
      <trkpt lat="43.95955" lon="1.53365">
        <ele>136</ele>
        <time>2014-08-24T07:02:35Z</time>
      </trkpt>
      <trkpt lat="43.95961" lon="1.53391">
        <ele>135</ele>
        <time>2014-08-24T07:02:40Z</time>
      </trkpt>
      <trkpt lat="43.95971" lon="1.53416">
        <ele>135</ele>
        <time>2014-08-24T07:02:45Z</time>
      </trkpt>
      <trkpt lat="43.95982" lon="1.53438">
        <ele>135</ele>
        <time>2014-08-24T07:02:50Z</time>
      </trkpt>
      <trkpt lat="43.95995" lon="1.53458">
        <ele>135</ele>
        <time>2014-08-24T07:02:55Z</time>
      </trkpt>
      <trkpt lat="43.96006" lon="1.53478">
        <ele>135</ele>
        <time>2014-08-24T07:03:00Z</time>
      </trkpt>
      <trkpt lat="43.96016" lon="1.53496">
        <ele>135</ele>
        <time>2014-08-24T07:03:05Z</time>
      </trkpt>
      <trkpt lat="43.9603" lon="1.53514">
        <ele>135</ele>
        <time>2014-08-24T07:03:11Z</time>
      </trkpt>
      <trkpt lat="43.96039" lon="1.5353">
        <ele>135</ele>
        <time>2014-08-24T07:03:15Z</time>
      </trkpt>
      <trkpt lat="43.9605" lon="1.53553">
        <ele>136</ele>
        <time>2014-08-24T07:03:20Z</time>
      </trkpt>
      <trkpt lat="43.96063" lon="1.53585">
        <ele>136</ele>
        <time>2014-08-24T07:03:27Z</time>
      </trkpt>
      <trkpt lat="43.96068" lon="1.53599">
        <ele>136</ele>
        <time>2014-08-24T07:03:30Z</time>
      </trkpt>
      <trkpt lat="43.96078" lon="1.53621">
        <ele>137</ele>
        <time>2014-08-24T07:03:35Z</time>
      </trkpt>
      <trkpt lat="43.9609" lon="1.53643">
        <ele>137</ele>
        <time>2014-08-24T07:03:40Z</time>
      </trkpt>
      <trkpt lat="43.96098" lon="1.53668">
        <ele>137</ele>
        <time>2014-08-24T07:03:45Z</time>
      </trkpt>
      <trkpt lat="43.96099" lon="1.53693">
        <ele>137</ele>
        <time>2014-08-24T07:03:50Z</time>
      </trkpt>
      <trkpt lat="43.96097" lon="1.53725">
        <ele>137</ele>
        <time>2014-08-24T07:03:55Z</time>
      </trkpt>
      <trkpt lat="43.96099" lon="1.53753">
        <ele>137</ele>
        <time>2014-08-24T07:04:00Z</time>
      </trkpt>
      <trkpt lat="43.96095" lon="1.53773">
        <ele>137</ele>
        <time>2014-08-24T07:04:05Z</time>
      </trkpt>
      <trkpt lat="43.96083" lon="1.53789">
        <ele>137</ele>
        <time>2014-08-24T07:04:10Z</time>
      </trkpt>
      <trkpt lat="43.96059" lon="1.53801">
        <ele>137</ele>
        <time>2014-08-24T07:04:18Z</time>
      </trkpt>
      <trkpt lat="43.96054" lon="1.53783">
        <ele>138</ele>
        <time>2014-08-24T07:04:22Z</time>
      </trkpt>
      <trkpt lat="43.96053" lon="1.53779">
        <ele>138</ele>
        <time>2014-08-24T07:04:23Z</time>
      </trkpt>
      <trkpt lat="43.96049" lon="1.53758">
        <ele>138</ele>
        <time>2014-08-24T07:04:28Z</time>
      </trkpt>
      <trkpt lat="43.96045" lon="1.5374">
        <ele>138</ele>
        <time>2014-08-24T07:04:32Z</time>
      </trkpt>
      <trkpt lat="43.9604" lon="1.53723">
        <ele>138</ele>
        <time>2014-08-24T07:04:36Z</time>
      </trkpt>
      <trkpt lat="43.96032" lon="1.53695">
        <ele>138</ele>
        <time>2014-08-24T07:04:43Z</time>
      </trkpt>
      <trkpt lat="43.9603" lon="1.53688">
        <ele>138</ele>
        <time>2014-08-24T07:04:45Z</time>
      </trkpt>
      <trkpt lat="43.96015" lon="1.53662">
        <ele>138</ele>
        <time>2014-08-24T07:04:53Z</time>
      </trkpt>
      <trkpt lat="43.96009" lon="1.53662">
        <ele>138</ele>
        <time>2014-08-24T07:04:55Z</time>
      </trkpt>
      <trkpt lat="43.95997" lon="1.53671">
        <ele>140</ele>
        <time>2014-08-24T07:05:00Z</time>
      </trkpt>
      <trkpt lat="43.95991" lon="1.53682">
        <ele>141</ele>
        <time>2014-08-24T07:05:05Z</time>
      </trkpt>
      <trkpt lat="43.95986" lon="1.5369">
        <ele>141</ele>
        <time>2014-08-24T07:05:10Z</time>
      </trkpt>
      <trkpt lat="43.95981" lon="1.53697">
        <ele>142</ele>
        <time>2014-08-24T07:05:15Z</time>
      </trkpt>
      <trkpt lat="43.95975" lon="1.53705">
        <ele>143</ele>
        <time>2014-08-24T07:05:20Z</time>
      </trkpt>
      <trkpt lat="43.9597" lon="1.53713">
        <ele>144</ele>
        <time>2014-08-24T07:05:25Z</time>
      </trkpt>
      <trkpt lat="43.95964" lon="1.5372">
        <ele>146</ele>
        <time>2014-08-24T07:05:30Z</time>
      </trkpt>
      <trkpt lat="43.95957" lon="1.53728">
        <ele>147</ele>
        <time>2014-08-24T07:05:35Z</time>
      </trkpt>
      <trkpt lat="43.95952" lon="1.53736">
        <ele>149</ele>
        <time>2014-08-24T07:05:40Z</time>
      </trkpt>
      <trkpt lat="43.95945" lon="1.53743">
        <ele>150</ele>
        <time>2014-08-24T07:05:45Z</time>
      </trkpt>
      <trkpt lat="43.95938" lon="1.53747">
        <ele>152</ele>
        <time>2014-08-24T07:05:50Z</time>
      </trkpt>
      <trkpt lat="43.95931" lon="1.53742">
        <ele>153</ele>
        <time>2014-08-24T07:05:55Z</time>
      </trkpt>
      <trkpt lat="43.95927" lon="1.53729">
        <ele>153</ele>
        <time>2014-08-24T07:06:01Z</time>
      </trkpt>
      <trkpt lat="43.95923" lon="1.5372">
        <ele>154</ele>
        <time>2014-08-24T07:06:05Z</time>
      </trkpt>
      <trkpt lat="43.95919" lon="1.5371">
        <ele>154</ele>
        <time>2014-08-24T07:06:10Z</time>
      </trkpt>
      <trkpt lat="43.95914" lon="1.53701">
        <ele>154</ele>
        <time>2014-08-24T07:06:15Z</time>
      </trkpt>
      <trkpt lat="43.95909" lon="1.53692">
        <ele>155</ele>
        <time>2014-08-24T07:06:20Z</time>
      </trkpt>
      <trkpt lat="43.95905" lon="1.53683">
        <ele>155</ele>
        <time>2014-08-24T07:06:25Z</time>
      </trkpt>
      <trkpt lat="43.959" lon="1.53674">
        <ele>155</ele>
        <time>2014-08-24T07:06:30Z</time>
      </trkpt>
      <trkpt lat="43.95895" lon="1.53665">
        <ele>156</ele>
        <time>2014-08-24T07:06:35Z</time>
      </trkpt>
      <trkpt lat="43.95891" lon="1.53656">
        <ele>156</ele>
        <time>2014-08-24T07:06:40Z</time>
      </trkpt>
      <trkpt lat="43.95885" lon="1.53646">
        <ele>157</ele>
        <time>2014-08-24T07:06:46Z</time>
      </trkpt>
      <trkpt lat="43.95881" lon="1.53638">
        <ele>157</ele>
        <time>2014-08-24T07:06:50Z</time>
      </trkpt>
      <trkpt lat="43.95876" lon="1.53629">
        <ele>158</ele>
        <time>2014-08-24T07:06:55Z</time>
      </trkpt>
      <trkpt lat="43.9587" lon="1.53622">
        <ele>158</ele>
        <time>2014-08-24T07:07:00Z</time>
      </trkpt>
      <trkpt lat="43.95859" lon="1.53613">
        <ele>160</ele>
        <time>2014-08-24T07:07:08Z</time>
      </trkpt>
      <trkpt lat="43.95851" lon="1.5361">
        <ele>161</ele>
        <time>2014-08-24T07:07:13Z</time>
      </trkpt>
      <trkpt lat="43.95847" lon="1.53609">
        <ele>162</ele>
        <time>2014-08-24T07:07:15Z</time>
      </trkpt>
      <trkpt lat="43.95835" lon="1.5361">
        <ele>164</ele>
        <time>2014-08-24T07:07:21Z</time>
      </trkpt>
      <trkpt lat="43.95825" lon="1.53612">
        <ele>165</ele>
        <time>2014-08-24T07:07:26Z</time>
      </trkpt>
      <trkpt lat="43.95818" lon="1.53613">
        <ele>166</ele>
        <time>2014-08-24T07:07:30Z</time>
      </trkpt>
      <trkpt lat="43.95807" lon="1.53615">
        <ele>167</ele>
        <time>2014-08-24T07:07:35Z</time>
      </trkpt>
      <trkpt lat="43.95796" lon="1.53618">
        <ele>169</ele>
        <time>2014-08-24T07:07:40Z</time>
      </trkpt>
      <trkpt lat="43.95785" lon="1.53619">
        <ele>170</ele>
        <time>2014-08-24T07:07:45Z</time>
      </trkpt>
      <trkpt lat="43.95774" lon="1.53619">
        <ele>171</ele>
        <time>2014-08-24T07:07:50Z</time>
      </trkpt>
      <trkpt lat="43.95763" lon="1.53617">
        <ele>172</ele>
        <time>2014-08-24T07:07:55Z</time>
      </trkpt>
      <trkpt lat="43.95748" lon="1.53617">
        <ele>173</ele>
        <time>2014-08-24T07:08:02Z</time>
      </trkpt>
      <trkpt lat="43.9574" lon="1.53616">
        <ele>174</ele>
        <time>2014-08-24T07:08:06Z</time>
      </trkpt>
      <trkpt lat="43.95732" lon="1.53616">
        <ele>174</ele>
        <time>2014-08-24T07:08:10Z</time>
      </trkpt>
      <trkpt lat="43.95723" lon="1.53617">
        <ele>175</ele>
        <time>2014-08-24T07:08:15Z</time>
      </trkpt>
      <trkpt lat="43.95713" lon="1.53621">
        <ele>175</ele>
        <time>2014-08-24T07:08:20Z</time>
      </trkpt>
      <trkpt lat="43.95704" lon="1.53628">
        <ele>176</ele>
        <time>2014-08-24T07:08:25Z</time>
      </trkpt>
      <trkpt lat="43.95696" lon="1.53636">
        <ele>177</ele>
        <time>2014-08-24T07:08:30Z</time>
      </trkpt>
      <trkpt lat="43.95688" lon="1.53645">
        <ele>178</ele>
        <time>2014-08-24T07:08:35Z</time>
      </trkpt>
      <trkpt lat="43.95676" lon="1.53657">
        <ele>179</ele>
        <time>2014-08-24T07:08:42Z</time>
      </trkpt>
      <trkpt lat="43.95671" lon="1.53662">
        <ele>180</ele>
        <time>2014-08-24T07:08:45Z</time>
      </trkpt>
      <trkpt lat="43.95664" lon="1.53671">
        <ele>181</ele>
        <time>2014-08-24T07:08:50Z</time>
      </trkpt>
      <trkpt lat="43.95655" lon="1.53679">
        <ele>180</ele>
        <time>2014-08-24T07:08:55Z</time>
      </trkpt>
      <trkpt lat="43.95642" lon="1.53691">
        <ele>180</ele>
        <time>2014-08-24T07:09:03Z</time>
      </trkpt>
      <trkpt lat="43.9564" lon="1.53694">
        <ele>180</ele>
        <time>2014-08-24T07:09:05Z</time>
      </trkpt>
      <trkpt lat="43.95632" lon="1.53701">
        <ele>181</ele>
        <time>2014-08-24T07:09:10Z</time>
      </trkpt>
      <trkpt lat="43.95624" lon="1.53709">
        <ele>181</ele>
        <time>2014-08-24T07:09:15Z</time>
      </trkpt>
      <trkpt lat="43.95617" lon="1.53717">
        <ele>181</ele>
        <time>2014-08-24T07:09:20Z</time>
      </trkpt>
      <trkpt lat="43.95609" lon="1.53726">
        <ele>181</ele>
        <time>2014-08-24T07:09:25Z</time>
      </trkpt>
      <trkpt lat="43.95601" lon="1.53735">
        <ele>181</ele>
        <time>2014-08-24T07:09:30Z</time>
      </trkpt>
      <trkpt lat="43.95592" lon="1.53744">
        <ele>181</ele>
        <time>2014-08-24T07:09:35Z</time>
      </trkpt>
      <trkpt lat="43.95584" lon="1.53753">
        <ele>181</ele>
        <time>2014-08-24T07:09:40Z</time>
      </trkpt>
      <trkpt lat="43.95575" lon="1.53763">
        <ele>182</ele>
        <time>2014-08-24T07:09:45Z</time>
      </trkpt>
      <trkpt lat="43.95566" lon="1.53774">
        <ele>181</ele>
        <time>2014-08-24T07:09:50Z</time>
      </trkpt>
      <trkpt lat="43.95556" lon="1.53787">
        <ele>181</ele>
        <time>2014-08-24T07:09:55Z</time>
      </trkpt>
      <trkpt lat="43.95547" lon="1.538">
        <ele>182</ele>
        <time>2014-08-24T07:10:00Z</time>
      </trkpt>
      <trkpt lat="43.95538" lon="1.53814">
        <ele>182</ele>
        <time>2014-08-24T07:10:05Z</time>
      </trkpt>
      <trkpt lat="43.95529" lon="1.53827">
        <ele>183</ele>
        <time>2014-08-24T07:10:10Z</time>
      </trkpt>
      <trkpt lat="43.95514" lon="1.53851">
        <ele>183</ele>
        <time>2014-08-24T07:10:19Z</time>
      </trkpt>
      <trkpt lat="43.95512" lon="1.53854">
        <ele>183</ele>
        <time>2014-08-24T07:10:20Z</time>
      </trkpt>
      <trkpt lat="43.95503" lon="1.53868">
        <ele>184</ele>
        <time>2014-08-24T07:10:25Z</time>
      </trkpt>
      <trkpt lat="43.95488" lon="1.53894">
        <ele>185</ele>
        <time>2014-08-24T07:10:34Z</time>
      </trkpt>
      <trkpt lat="43.95486" lon="1.53897">
        <ele>185</ele>
        <time>2014-08-24T07:10:35Z</time>
      </trkpt>
      <trkpt lat="43.95478" lon="1.53912">
        <ele>186</ele>
        <time>2014-08-24T07:10:40Z</time>
      </trkpt>
      <trkpt lat="43.95463" lon="1.53935">
        <ele>186</ele>
        <time>2014-08-24T07:10:48Z</time>
      </trkpt>
      <trkpt lat="43.95458" lon="1.53943">
        <ele>186</ele>
        <time>2014-08-24T07:10:51Z</time>
      </trkpt>
      <trkpt lat="43.9545" lon="1.53955">
        <ele>186</ele>
        <time>2014-08-24T07:10:55Z</time>
      </trkpt>
      <trkpt lat="43.95441" lon="1.53968">
        <ele>186</ele>
        <time>2014-08-24T07:11:00Z</time>
      </trkpt>
      <trkpt lat="43.95433" lon="1.53982">
        <ele>186</ele>
        <time>2014-08-24T07:11:05Z</time>
      </trkpt>
      <trkpt lat="43.95425" lon="1.53997">
        <ele>186</ele>
        <time>2014-08-24T07:11:10Z</time>
      </trkpt>
      <trkpt lat="43.95415" lon="1.54016">
        <ele>187</ele>
        <time>2014-08-24T07:11:16Z</time>
      </trkpt>
      <trkpt lat="43.95408" lon="1.54028">
        <ele>187</ele>
        <time>2014-08-24T07:11:20Z</time>
      </trkpt>
      <trkpt lat="43.95399" lon="1.54042">
        <ele>187</ele>
        <time>2014-08-24T07:11:25Z</time>
      </trkpt>
      <trkpt lat="43.95389" lon="1.54056">
        <ele>188</ele>
        <time>2014-08-24T07:11:30Z</time>
      </trkpt>
      <trkpt lat="43.9538" lon="1.54069">
        <ele>189</ele>
        <time>2014-08-24T07:11:35Z</time>
      </trkpt>
      <trkpt lat="43.95373" lon="1.5408">
        <ele>190</ele>
        <time>2014-08-24T07:11:40Z</time>
      </trkpt>
      <trkpt lat="43.95364" lon="1.54092">
        <ele>191</ele>
        <time>2014-08-24T07:11:45Z</time>
      </trkpt>
      <trkpt lat="43.95354" lon="1.54107">
        <ele>192</ele>
        <time>2014-08-24T07:11:50Z</time>
      </trkpt>
      <trkpt lat="43.95344" lon="1.5412">
        <ele>194</ele>
        <time>2014-08-24T07:11:55Z</time>
      </trkpt>
      <trkpt lat="43.95342" lon="1.54129">
        <ele>194</ele>
        <time>2014-08-24T07:12:03Z</time>
      </trkpt>
      <trkpt lat="43.9534" lon="1.54134">
        <ele>195</ele>
        <time>2014-08-24T07:12:09Z</time>
      </trkpt>
      <trkpt lat="43.95339" lon="1.54135">
        <ele>195</ele>
        <time>2014-08-24T07:12:10Z</time>
      </trkpt>
      <trkpt lat="43.95338" lon="1.54136">
        <ele>195</ele>
        <time>2014-08-24T07:12:17Z</time>
      </trkpt>
      <trkpt lat="43.95338" lon="1.54137">
        <ele>195</ele>
        <time>2014-08-24T07:12:20Z</time>
      </trkpt>
      <trkpt lat="43.95339" lon="1.54137">
        <ele>195</ele>
        <time>2014-08-24T07:12:25Z</time>
      </trkpt>
      <trkpt lat="43.95339" lon="1.54137">
        <ele>195</ele>
        <time>2014-08-24T07:12:30Z</time>
      </trkpt>
      <trkpt lat="43.9534" lon="1.54137">
        <ele>195</ele>
        <time>2014-08-24T07:12:35Z</time>
      </trkpt>
      <trkpt lat="43.95339" lon="1.54137">
        <ele>195</ele>
        <time>2014-08-24T07:12:40Z</time>
      </trkpt>
      <trkpt lat="43.9534" lon="1.54137">
        <ele>195</ele>
        <time>2014-08-24T07:12:45Z</time>
      </trkpt>
      <trkpt lat="43.95339" lon="1.54137">
        <ele>195</ele>
        <time>2014-08-24T07:12:50Z</time>
      </trkpt>
      <trkpt lat="43.95339" lon="1.54137">
        <ele>195</ele>
        <time>2014-08-24T07:12:55Z</time>
      </trkpt>
      <trkpt lat="43.9534" lon="1.54137">
        <ele>195</ele>
        <time>2014-08-24T07:13:02Z</time>
      </trkpt>
      <trkpt lat="43.95339" lon="1.54137">
        <ele>195</ele>
        <time>2014-08-24T07:13:05Z</time>
      </trkpt>
      <trkpt lat="43.95339" lon="1.54137">
        <ele>195</ele>
        <time>2014-08-24T07:13:10Z</time>
      </trkpt>
      <trkpt lat="43.95336" lon="1.54138">
        <ele>195</ele>
        <time>2014-08-24T07:13:19Z</time>
      </trkpt>
      <trkpt lat="43.95334" lon="1.54138">
        <ele>195</ele>
        <time>2014-08-24T07:13:20Z</time>
      </trkpt>
      <trkpt lat="43.9533" lon="1.5414">
        <ele>196</ele>
        <time>2014-08-24T07:13:29Z</time>
      </trkpt>
      <trkpt lat="43.9533" lon="1.5414">
        <ele>196</ele>
        <time>2014-08-24T07:13:30Z</time>
      </trkpt>
      <trkpt lat="43.95329" lon="1.54141">
        <ele>196</ele>
        <time>2014-08-24T07:13:38Z</time>
      </trkpt>
      <trkpt lat="43.95329" lon="1.54141">
        <ele>196</ele>
        <time>2014-08-24T07:13:40Z</time>
      </trkpt>
      <trkpt lat="43.9533" lon="1.54141">
        <ele>196</ele>
        <time>2014-08-24T07:13:46Z</time>
      </trkpt>
      <trkpt lat="43.9533" lon="1.54141">
        <ele>196</ele>
        <time>2014-08-24T07:13:50Z</time>
      </trkpt>
      <trkpt lat="43.95331" lon="1.54141">
        <ele>196</ele>
        <time>2014-08-24T07:13:56Z</time>
      </trkpt>
      <trkpt lat="43.95331" lon="1.5414">
        <ele>196</ele>
        <time>2014-08-24T07:14:00Z</time>
      </trkpt>
      <trkpt lat="43.95331" lon="1.5414">
        <ele>196</ele>
        <time>2014-08-24T07:14:05Z</time>
      </trkpt>
      <trkpt lat="43.95332" lon="1.5414">
        <ele>196</ele>
        <time>2014-08-24T07:14:10Z</time>
      </trkpt>
      <trkpt lat="43.95331" lon="1.54141">
        <ele>196</ele>
        <time>2014-08-24T07:14:15Z</time>
      </trkpt>
      <trkpt lat="43.95331" lon="1.54141">
        <ele>196</ele>
        <time>2014-08-24T07:14:20Z</time>
      </trkpt>
      <trkpt lat="43.95332" lon="1.54141">
        <ele>196</ele>
        <time>2014-08-24T07:14:25Z</time>
      </trkpt>
      <trkpt lat="43.95332" lon="1.54141">
        <ele>196</ele>
        <time>2014-08-24T07:14:30Z</time>
      </trkpt>
      <trkpt lat="43.95332" lon="1.5414">
        <ele>196</ele>
        <time>2014-08-24T07:14:35Z</time>
      </trkpt>
      <trkpt lat="43.95332" lon="1.5414">
        <ele>196</ele>
        <time>2014-08-24T07:14:40Z</time>
      </trkpt>
      <trkpt lat="43.95332" lon="1.54141">
        <ele>196</ele>
        <time>2014-08-24T07:14:45Z</time>
      </trkpt>
      <trkpt lat="43.95332" lon="1.54142">
        <ele>196</ele>
        <time>2014-08-24T07:14:50Z</time>
      </trkpt>
      <trkpt lat="43.95333" lon="1.54141">
        <ele>196</ele>
        <time>2014-08-24T07:14:55Z</time>
      </trkpt>
      <trkpt lat="43.95332" lon="1.54141">
        <ele>196</ele>
        <time>2014-08-24T07:15:03Z</time>
      </trkpt>
      <trkpt lat="43.95329" lon="1.54143">
        <ele>196</ele>
        <time>2014-08-24T07:15:09Z</time>
      </trkpt>
      <trkpt lat="43.95329" lon="1.54142">
        <ele>196</ele>
        <time>2014-08-24T07:15:12Z</time>
      </trkpt>
      <trkpt lat="43.95328" lon="1.54143">
        <ele>196</ele>
        <time>2014-08-24T07:15:15Z</time>
      </trkpt>
      <trkpt lat="43.95328" lon="1.54144">
        <ele>196</ele>
        <time>2014-08-24T07:15:20Z</time>
      </trkpt>
      <trkpt lat="43.95329" lon="1.54144">
        <ele>196</ele>
        <time>2014-08-24T07:15:25Z</time>
      </trkpt>
      <trkpt lat="43.95328" lon="1.54144">
        <ele>196</ele>
        <time>2014-08-24T07:15:30Z</time>
      </trkpt>
      <trkpt lat="43.95329" lon="1.54144">
        <ele>196</ele>
        <time>2014-08-24T07:15:35Z</time>
      </trkpt>
      <trkpt lat="43.95329" lon="1.54144">
        <ele>196</ele>
        <time>2014-08-24T07:15:40Z</time>
      </trkpt>
      <trkpt lat="43.95329" lon="1.54144">
        <ele>196</ele>
        <time>2014-08-24T07:15:45Z</time>
      </trkpt>
      <trkpt lat="43.95329" lon="1.54144">
        <ele>196</ele>
        <time>2014-08-24T07:15:50Z</time>
      </trkpt>
      <trkpt lat="43.95329" lon="1.54144">
        <ele>196</ele>
        <time>2014-08-24T07:15:54Z</time>
      </trkpt>
      <trkpt lat="43.95329" lon="1.54144">
        <ele>196</ele>
        <time>2014-08-24T07:15:59Z</time>
      </trkpt>
      <trkpt lat="43.95329" lon="1.54144">
        <ele>196</ele>
        <time>2014-08-24T07:16:04Z</time>
      </trkpt>
      <trkpt lat="43.95329" lon="1.54144">
        <ele>196</ele>
        <time>2014-08-24T07:16:09Z</time>
      </trkpt>
      <trkpt lat="43.95329" lon="1.54144">
        <ele>196</ele>
        <time>2014-08-24T07:16:14Z</time>
      </trkpt>
      <trkpt lat="43.95329" lon="1.54144">
        <ele>196</ele>
        <time>2014-08-24T07:16:19Z</time>
      </trkpt>
      <trkpt lat="43.95329" lon="1.54144">
        <ele>196</ele>
        <time>2014-08-24T07:16:24Z</time>
      </trkpt>
      <trkpt lat="43.95328" lon="1.54145">
        <ele>196</ele>
        <time>2014-08-24T07:16:29Z</time>
      </trkpt>
      <trkpt lat="43.95328" lon="1.54145">
        <ele>196</ele>
        <time>2014-08-24T07:16:34Z</time>
      </trkpt>
      <trkpt lat="43.95328" lon="1.54146">
        <ele>196</ele>
        <time>2014-08-24T07:16:42Z</time>
      </trkpt>
      <trkpt lat="43.95331" lon="1.54142">
        <ele>196</ele>
        <time>2014-08-24T07:16:47Z</time>
      </trkpt>
      <trkpt lat="43.95333" lon="1.54144">
        <ele>196</ele>
        <time>2014-08-24T07:16:50Z</time>
      </trkpt>
      <trkpt lat="43.95335" lon="1.54145">
        <ele>196</ele>
        <time>2014-08-24T07:16:55Z</time>
      </trkpt>
      <trkpt lat="43.9533" lon="1.54145">
        <ele>196</ele>
        <time>2014-08-24T07:17:03Z</time>
      </trkpt>
      <trkpt lat="43.95327" lon="1.54148">
        <ele>197</ele>
        <time>2014-08-24T07:17:06Z</time>
      </trkpt>
      <trkpt lat="43.95322" lon="1.54153">
        <ele>197</ele>
        <time>2014-08-24T07:17:11Z</time>
      </trkpt>
      <trkpt lat="43.95319" lon="1.54155">
        <ele>197</ele>
        <time>2014-08-24T07:17:14Z</time>
      </trkpt>
      <trkpt lat="43.95311" lon="1.54159">
        <ele>197</ele>
        <time>2014-08-24T07:17:19Z</time>
      </trkpt>
      <trkpt lat="43.95306" lon="1.54172">
        <ele>198</ele>
        <time>2014-08-24T07:17:24Z</time>
      </trkpt>
      <trkpt lat="43.95315" lon="1.542">
        <ele>198</ele>
        <time>2014-08-24T07:17:32Z</time>
      </trkpt>
      <trkpt lat="43.95318" lon="1.54206">
        <ele>199</ele>
        <time>2014-08-24T07:17:34Z</time>
      </trkpt>
      <trkpt lat="43.95321" lon="1.54213">
        <ele>199</ele>
        <time>2014-08-24T07:17:39Z</time>
      </trkpt>
      <trkpt lat="43.9533" lon="1.54228">
        <ele>198</ele>
        <time>2014-08-24T07:17:44Z</time>
      </trkpt>
      <trkpt lat="43.95349" lon="1.54256">
        <ele>196</ele>
        <time>2014-08-24T07:17:52Z</time>
      </trkpt>
      <trkpt lat="43.95353" lon="1.54264">
        <ele>195</ele>
        <time>2014-08-24T07:17:54Z</time>
      </trkpt>
      <trkpt lat="43.95366" lon="1.54282">
        <ele>194</ele>
        <time>2014-08-24T07:17:59Z</time>
      </trkpt>
      <trkpt lat="43.95377" lon="1.543">
        <ele>193</ele>
        <time>2014-08-24T07:18:04Z</time>
      </trkpt>
      <trkpt lat="43.95387" lon="1.5432">
        <ele>191</ele>
        <time>2014-08-24T07:18:09Z</time>
      </trkpt>
      <trkpt lat="43.95394" lon="1.54345">
        <ele>190</ele>
        <time>2014-08-24T07:18:14Z</time>
      </trkpt>
      <trkpt lat="43.95402" lon="1.5438">
        <ele>189</ele>
        <time>2014-08-24T07:18:19Z</time>
      </trkpt>
      <trkpt lat="43.95415" lon="1.54437">
        <ele>188</ele>
        <time>2014-08-24T07:18:28Z</time>
      </trkpt>
      <trkpt lat="43.95418" lon="1.54444">
        <ele>188</ele>
        <time>2014-08-24T07:18:29Z</time>
      </trkpt>
      <trkpt lat="43.95424" lon="1.54479">
        <ele>188</ele>
        <time>2014-08-24T07:18:34Z</time>
      </trkpt>
      <trkpt lat="43.95432" lon="1.54513">
        <ele>188</ele>
        <time>2014-08-24T07:18:39Z</time>
      </trkpt>
      <trkpt lat="43.95442" lon="1.54549">
        <ele>188</ele>
        <time>2014-08-24T07:18:45Z</time>
      </trkpt>
      <trkpt lat="43.95451" lon="1.54578">
        <ele>189</ele>
        <time>2014-08-24T07:18:50Z</time>
      </trkpt>
      <trkpt lat="43.95461" lon="1.54603">
        <ele>190</ele>
        <time>2014-08-24T07:18:55Z</time>
      </trkpt>
      <trkpt lat="43.95467" lon="1.54617">
        <ele>190</ele>
        <time>2014-08-24T07:18:58Z</time>
      </trkpt>
      <trkpt lat="43.95483" lon="1.54659">
        <ele>192</ele>
        <time>2014-08-24T07:19:07Z</time>
      </trkpt>
      <trkpt lat="43.95486" lon="1.54664">
        <ele>192</ele>
        <time>2014-08-24T07:19:08Z</time>
      </trkpt>
      <trkpt lat="43.95494" lon="1.54683">
        <ele>193</ele>
        <time>2014-08-24T07:19:12Z</time>
      </trkpt>
      <trkpt lat="43.95506" lon="1.54713">
        <ele>194</ele>
        <time>2014-08-24T07:19:18Z</time>
      </trkpt>
      <trkpt lat="43.95513" lon="1.54747">
        <ele>196</ele>
        <time>2014-08-24T07:19:24Z</time>
      </trkpt>
      <trkpt lat="43.95515" lon="1.54753">
        <ele>196</ele>
        <time>2014-08-24T07:19:25Z</time>
      </trkpt>
      <trkpt lat="43.95517" lon="1.54769">
        <ele>197</ele>
        <time>2014-08-24T07:19:28Z</time>
      </trkpt>
      <trkpt lat="43.9552" lon="1.54797">
        <ele>198</ele>
        <time>2014-08-24T07:19:33Z</time>
      </trkpt>
      <trkpt lat="43.95524" lon="1.54829">
        <ele>200</ele>
        <time>2014-08-24T07:19:39Z</time>
      </trkpt>
      <trkpt lat="43.95526" lon="1.54846">
        <ele>201</ele>
        <time>2014-08-24T07:19:42Z</time>
      </trkpt>
      <trkpt lat="43.95529" lon="1.54873">
        <ele>201</ele>
        <time>2014-08-24T07:19:47Z</time>
      </trkpt>
      <trkpt lat="43.9553" lon="1.54899">
        <ele>201</ele>
        <time>2014-08-24T07:19:52Z</time>
      </trkpt>
      <trkpt lat="43.95524" lon="1.54931">
        <ele>201</ele>
        <time>2014-08-24T07:19:58Z</time>
      </trkpt>
      <trkpt lat="43.95511" lon="1.54971">
        <ele>199</ele>
        <time>2014-08-24T07:20:04Z</time>
      </trkpt>
      <trkpt lat="43.95505" lon="1.54995">
        <ele>199</ele>
        <time>2014-08-24T07:20:08Z</time>
      </trkpt>
      <trkpt lat="43.95499" lon="1.55019">
        <ele>199</ele>
        <time>2014-08-24T07:20:12Z</time>
      </trkpt>
      <trkpt lat="43.9549" lon="1.55059">
        <ele>200</ele>
        <time>2014-08-24T07:20:19Z</time>
      </trkpt>
      <trkpt lat="43.95487" lon="1.55078">
        <ele>201</ele>
        <time>2014-08-24T07:20:22Z</time>
      </trkpt>
      <trkpt lat="43.95493" lon="1.55138">
        <ele>200</ele>
        <time>2014-08-24T07:20:31Z</time>
      </trkpt>
      <trkpt lat="43.95494" lon="1.55144">
        <ele>200</ele>
        <time>2014-08-24T07:20:32Z</time>
      </trkpt>
      <trkpt lat="43.95502" lon="1.55175">
        <ele>199</ele>
        <time>2014-08-24T07:20:37Z</time>
      </trkpt>
      <trkpt lat="43.95512" lon="1.55214">
        <ele>200</ele>
        <time>2014-08-24T07:20:44Z</time>
      </trkpt>
      <trkpt lat="43.95517" lon="1.55232">
        <ele>200</ele>
        <time>2014-08-24T07:20:47Z</time>
      </trkpt>
      <trkpt lat="43.95524" lon="1.55261">
        <ele>201</ele>
        <time>2014-08-24T07:20:52Z</time>
      </trkpt>
      <trkpt lat="43.95531" lon="1.5529">
        <ele>202</ele>
        <time>2014-08-24T07:20:57Z</time>
      </trkpt>
      <trkpt lat="43.95541" lon="1.55326">
        <ele>203</ele>
        <time>2014-08-24T07:21:03Z</time>
      </trkpt>
      <trkpt lat="43.95549" lon="1.55359">
        <ele>203</ele>
        <time>2014-08-24T07:21:08Z</time>
      </trkpt>
      <trkpt lat="43.95552" lon="1.55379">
        <ele>202</ele>
        <time>2014-08-24T07:21:11Z</time>
      </trkpt>
      <trkpt lat="43.95559" lon="1.55419">
        <ele>202</ele>
        <time>2014-08-24T07:21:16Z</time>
      </trkpt>
      <trkpt lat="43.95567" lon="1.55457">
        <ele>201</ele>
        <time>2014-08-24T07:21:21Z</time>
      </trkpt>
      <trkpt lat="43.95576" lon="1.55494">
        <ele>201</ele>
        <time>2014-08-24T07:21:27Z</time>
      </trkpt>
      <trkpt lat="43.9558" lon="1.55518">
        <ele>201</ele>
        <time>2014-08-24T07:21:31Z</time>
      </trkpt>
      <trkpt lat="43.95587" lon="1.55549">
        <ele>200</ele>
        <time>2014-08-24T07:21:36Z</time>
      </trkpt>
      <trkpt lat="43.95594" lon="1.55579">
        <ele>200</ele>
        <time>2014-08-24T07:21:41Z</time>
      </trkpt>
      <trkpt lat="43.956" lon="1.55609">
        <ele>200</ele>
        <time>2014-08-24T07:21:46Z</time>
      </trkpt>
      <trkpt lat="43.95611" lon="1.55658">
        <ele>202</ele>
        <time>2014-08-24T07:21:54Z</time>
      </trkpt>
      <trkpt lat="43.95615" lon="1.55678">
        <ele>203</ele>
        <time>2014-08-24T07:21:57Z</time>
      </trkpt>
      <trkpt lat="43.95618" lon="1.55704">
        <ele>204</ele>
        <time>2014-08-24T07:22:01Z</time>
      </trkpt>
      <trkpt lat="43.95619" lon="1.55736">
        <ele>205</ele>
        <time>2014-08-24T07:22:06Z</time>
      </trkpt>
      <trkpt lat="43.9562" lon="1.55768">
        <ele>205</ele>
        <time>2014-08-24T07:22:11Z</time>
      </trkpt>
      <trkpt lat="43.95618" lon="1.5582">
        <ele>204</ele>
        <time>2014-08-24T07:22:19Z</time>
      </trkpt>
      <trkpt lat="43.95617" lon="1.55833">
        <ele>204</ele>
        <time>2014-08-24T07:22:21Z</time>
      </trkpt>
      <trkpt lat="43.95608" lon="1.55864">
        <ele>203</ele>
        <time>2014-08-24T07:22:26Z</time>
      </trkpt>
      <trkpt lat="43.95598" lon="1.55894">
        <ele>202</ele>
        <time>2014-08-24T07:22:31Z</time>
      </trkpt>
      <trkpt lat="43.95587" lon="1.55925">
        <ele>202</ele>
        <time>2014-08-24T07:22:36Z</time>
      </trkpt>
      <trkpt lat="43.95577" lon="1.55954">
        <ele>202</ele>
        <time>2014-08-24T07:22:41Z</time>
      </trkpt>
      <trkpt lat="43.95564" lon="1.55987">
        <ele>201</ele>
        <time>2014-08-24T07:22:47Z</time>
      </trkpt>
      <trkpt lat="43.95555" lon="1.56011">
        <ele>202</ele>
        <time>2014-08-24T07:22:51Z</time>
      </trkpt>
      <trkpt lat="43.95544" lon="1.56046">
        <ele>202</ele>
        <time>2014-08-24T07:22:57Z</time>
      </trkpt>
      <trkpt lat="43.95538" lon="1.56073">
        <ele>202</ele>
        <time>2014-08-24T07:23:02Z</time>
      </trkpt>
      <trkpt lat="43.95531" lon="1.56114">
        <ele>203</ele>
        <time>2014-08-24T07:23:09Z</time>
      </trkpt>
      <trkpt lat="43.95525" lon="1.56137">
        <ele>204</ele>
        <time>2014-08-24T07:23:13Z</time>
      </trkpt>
      <trkpt lat="43.95519" lon="1.56169">
        <ele>204</ele>
        <time>2014-08-24T07:23:18Z</time>
      </trkpt>
      <trkpt lat="43.95515" lon="1.56187">
        <ele>204</ele>
        <time>2014-08-24T07:23:21Z</time>
      </trkpt>
      <trkpt lat="43.95509" lon="1.5622">
        <ele>203</ele>
        <time>2014-08-24T07:23:26Z</time>
      </trkpt>
      <trkpt lat="43.95498" lon="1.56272">
        <ele>203</ele>
        <time>2014-08-24T07:23:34Z</time>
      </trkpt>
      <trkpt lat="43.95496" lon="1.56285">
        <ele>203</ele>
        <time>2014-08-24T07:23:36Z</time>
      </trkpt>
      <trkpt lat="43.9549" lon="1.56313">
        <ele>202</ele>
        <time>2014-08-24T07:23:41Z</time>
      </trkpt>
      <trkpt lat="43.9552" lon="1.56324">
        <ele>202</ele>
        <time>2014-08-24T07:23:50Z</time>
      </trkpt>
      <trkpt lat="43.95535" lon="1.56327">
        <ele>201</ele>
        <time>2014-08-24T07:23:53Z</time>
      </trkpt>
      <trkpt lat="43.95555" lon="1.56331">
        <ele>199</ele>
        <time>2014-08-24T07:23:56Z</time>
      </trkpt>
      <trkpt lat="43.95612" lon="1.56337">
        <ele>189</ele>
        <time>2014-08-24T07:24:02Z</time>
      </trkpt>
      <trkpt lat="43.95653" lon="1.56329">
        <ele>183</ele>
        <time>2014-08-24T07:24:06Z</time>
      </trkpt>
      <trkpt lat="43.95701" lon="1.56326">
        <ele>180</ele>
        <time>2014-08-24T07:24:11Z</time>
      </trkpt>
      <trkpt lat="43.9575" lon="1.5632">
        <ele>177</ele>
        <time>2014-08-24T07:24:17Z</time>
      </trkpt>
      <trkpt lat="43.95767" lon="1.56346">
        <ele>179</ele>
        <time>2014-08-24T07:24:23Z</time>
      </trkpt>
      <trkpt lat="43.9577" lon="1.56367">
        <ele>180</ele>
        <time>2014-08-24T07:24:26Z</time>
      </trkpt>
      <trkpt lat="43.95796" lon="1.56365">
        <ele>178</ele>
        <time>2014-08-24T07:24:31Z</time>
      </trkpt>
      <trkpt lat="43.95821" lon="1.56361">
        <ele>176</ele>
        <time>2014-08-24T07:24:36Z</time>
      </trkpt>
      <trkpt lat="43.95853" lon="1.56352">
        <ele>173</ele>
        <time>2014-08-24T07:24:43Z</time>
      </trkpt>
      <trkpt lat="43.95869" lon="1.56347">
        <ele>171</ele>
        <time>2014-08-24T07:24:47Z</time>
      </trkpt>
      <trkpt lat="43.95881" lon="1.56343">
        <ele>170</ele>
        <time>2014-08-24T07:24:50Z</time>
      </trkpt>
      <trkpt lat="43.95905" lon="1.56334">
        <ele>168</ele>
        <time>2014-08-24T07:24:56Z</time>
      </trkpt>
      <trkpt lat="43.95924" lon="1.56328">
        <ele>166</ele>
        <time>2014-08-24T07:25:00Z</time>
      </trkpt>
      <trkpt lat="43.95948" lon="1.5632">
        <ele>165</ele>
        <time>2014-08-24T07:25:05Z</time>
      </trkpt>
      <trkpt lat="43.95971" lon="1.56311">
        <ele>163</ele>
        <time>2014-08-24T07:25:10Z</time>
      </trkpt>
      <trkpt lat="43.95995" lon="1.56302">
        <ele>163</ele>
        <time>2014-08-24T07:25:16Z</time>
      </trkpt>
      <trkpt lat="43.96012" lon="1.56298">
        <ele>162</ele>
        <time>2014-08-24T07:25:20Z</time>
      </trkpt>
      <trkpt lat="43.96024" lon="1.56319">
        <ele>162</ele>
        <time>2014-08-24T07:25:25Z</time>
      </trkpt>
      <trkpt lat="43.96031" lon="1.56347">
        <ele>163</ele>
        <time>2014-08-24T07:25:30Z</time>
      </trkpt>
      <trkpt lat="43.96038" lon="1.56375">
        <ele>160</ele>
        <time>2014-08-24T07:25:35Z</time>
      </trkpt>
      <trkpt lat="43.96048" lon="1.56415">
        <ele>156</ele>
        <time>2014-08-24T07:25:41Z</time>
      </trkpt>
      <trkpt lat="43.96061" lon="1.56418">
        <ele>154</ele>
        <time>2014-08-24T07:25:45Z</time>
      </trkpt>
      <trkpt lat="43.9608" lon="1.56406">
        <ele>153</ele>
        <time>2014-08-24T07:25:51Z</time>
      </trkpt>
      <trkpt lat="43.96094" lon="1.56398">
        <ele>152</ele>
        <time>2014-08-24T07:25:55Z</time>
      </trkpt>
      <trkpt lat="43.96111" lon="1.56387">
        <ele>151</ele>
        <time>2014-08-24T07:26:00Z</time>
      </trkpt>
      <trkpt lat="43.96128" lon="1.56378">
        <ele>149</ele>
        <time>2014-08-24T07:26:05Z</time>
      </trkpt>
      <trkpt lat="43.96145" lon="1.56371">
        <ele>148</ele>
        <time>2014-08-24T07:26:10Z</time>
      </trkpt>
      <trkpt lat="43.96159" lon="1.56367">
        <ele>146</ele>
        <time>2014-08-24T07:26:14Z</time>
      </trkpt>
      <trkpt lat="43.96177" lon="1.56362">
        <ele>144</ele>
        <time>2014-08-24T07:26:19Z</time>
      </trkpt>
      <trkpt lat="43.96195" lon="1.56357">
        <ele>143</ele>
        <time>2014-08-24T07:26:24Z</time>
      </trkpt>
      <trkpt lat="43.96215" lon="1.5635">
        <ele>141</ele>
        <time>2014-08-24T07:26:29Z</time>
      </trkpt>
      <trkpt lat="43.96237" lon="1.56344">
        <ele>140</ele>
        <time>2014-08-24T07:26:34Z</time>
      </trkpt>
      <trkpt lat="43.96259" lon="1.56338">
        <ele>140</ele>
        <time>2014-08-24T07:26:39Z</time>
      </trkpt>
      <trkpt lat="43.96276" lon="1.56333">
        <ele>139</ele>
        <time>2014-08-24T07:26:44Z</time>
      </trkpt>
      <trkpt lat="43.96293" lon="1.5633">
        <ele>139</ele>
        <time>2014-08-24T07:26:49Z</time>
      </trkpt>
      <trkpt lat="43.96307" lon="1.5633">
        <ele>139</ele>
        <time>2014-08-24T07:26:54Z</time>
      </trkpt>
      <trkpt lat="43.96319" lon="1.56343">
        <ele>139</ele>
        <time>2014-08-24T07:26:59Z</time>
      </trkpt>
      <trkpt lat="43.96337" lon="1.56367">
        <ele>139</ele>
        <time>2014-08-24T07:27:07Z</time>
      </trkpt>
      <trkpt lat="43.96338" lon="1.56376">
        <ele>139</ele>
        <time>2014-08-24T07:27:09Z</time>
      </trkpt>
      <trkpt lat="43.96339" lon="1.56399">
        <ele>139</ele>
        <time>2014-08-24T07:27:14Z</time>
      </trkpt>
      <trkpt lat="43.96339" lon="1.56422">
        <ele>139</ele>
        <time>2014-08-24T07:27:19Z</time>
      </trkpt>
      <trkpt lat="43.9634" lon="1.56444">
        <ele>139</ele>
        <time>2014-08-24T07:27:24Z</time>
      </trkpt>
      <trkpt lat="43.96343" lon="1.56485">
        <ele>140</ele>
        <time>2014-08-24T07:27:32Z</time>
      </trkpt>
      <trkpt lat="43.96344" lon="1.56502">
        <ele>139</ele>
        <time>2014-08-24T07:27:35Z</time>
      </trkpt>
      <trkpt lat="43.96345" lon="1.56523">
        <ele>139</ele>
        <time>2014-08-24T07:27:39Z</time>
      </trkpt>
      <trkpt lat="43.96347" lon="1.56549">
        <ele>139</ele>
        <time>2014-08-24T07:27:44Z</time>
      </trkpt>
      <trkpt lat="43.9635" lon="1.56575">
        <ele>139</ele>
        <time>2014-08-24T07:27:49Z</time>
      </trkpt>
      <trkpt lat="43.96353" lon="1.56602">
        <ele>139</ele>
        <time>2014-08-24T07:27:54Z</time>
      </trkpt>
      <trkpt lat="43.96356" lon="1.56629">
        <ele>138</ele>
        <time>2014-08-24T07:27:59Z</time>
      </trkpt>
      <trkpt lat="43.96358" lon="1.56656">
        <ele>138</ele>
        <time>2014-08-24T07:28:04Z</time>
      </trkpt>
      <trkpt lat="43.96361" lon="1.56684">
        <ele>138</ele>
        <time>2014-08-24T07:28:09Z</time>
      </trkpt>
      <trkpt lat="43.96363" lon="1.56714">
        <ele>137</ele>
        <time>2014-08-24T07:28:15Z</time>
      </trkpt>
      <trkpt lat="43.96363" lon="1.56733">
        <ele>137</ele>
        <time>2014-08-24T07:28:19Z</time>
      </trkpt>
      <trkpt lat="43.9636" lon="1.56764">
        <ele>137</ele>
        <time>2014-08-24T07:28:25Z</time>
      </trkpt>
      <trkpt lat="43.96357" lon="1.56786">
        <ele>137</ele>
        <time>2014-08-24T07:28:29Z</time>
      </trkpt>
      <trkpt lat="43.96355" lon="1.56814">
        <ele>137</ele>
        <time>2014-08-24T07:28:34Z</time>
      </trkpt>
      <trkpt lat="43.96353" lon="1.5684">
        <ele>136</ele>
        <time>2014-08-24T07:28:39Z</time>
      </trkpt>
      <trkpt lat="43.96352" lon="1.56867">
        <ele>136</ele>
        <time>2014-08-24T07:28:44Z</time>
      </trkpt>
      <trkpt lat="43.96351" lon="1.56893">
        <ele>136</ele>
        <time>2014-08-24T07:28:49Z</time>
      </trkpt>
      <trkpt lat="43.96351" lon="1.5692">
        <ele>135</ele>
        <time>2014-08-24T07:28:54Z</time>
      </trkpt>
      <trkpt lat="43.9635" lon="1.56946">
        <ele>135</ele>
        <time>2014-08-24T07:28:59Z</time>
      </trkpt>
      <trkpt lat="43.96349" lon="1.56972">
        <ele>135</ele>
        <time>2014-08-24T07:29:04Z</time>
      </trkpt>
      <trkpt lat="43.96348" lon="1.56997">
        <ele>135</ele>
        <time>2014-08-24T07:29:09Z</time>
      </trkpt>
      <trkpt lat="43.96346" lon="1.57022">
        <ele>136</ele>
        <time>2014-08-24T07:29:14Z</time>
      </trkpt>
      <trkpt lat="43.96345" lon="1.57048">
        <ele>136</ele>
        <time>2014-08-24T07:29:19Z</time>
      </trkpt>
      <trkpt lat="43.96344" lon="1.57075">
        <ele>137</ele>
        <time>2014-08-24T07:29:24Z</time>
      </trkpt>
      <trkpt lat="43.96343" lon="1.57101">
        <ele>137</ele>
        <time>2014-08-24T07:29:29Z</time>
      </trkpt>
      <trkpt lat="43.96342" lon="1.57128">
        <ele>138</ele>
        <time>2014-08-24T07:29:34Z</time>
      </trkpt>
      <trkpt lat="43.96342" lon="1.57171">
        <ele>138</ele>
        <time>2014-08-24T07:29:42Z</time>
      </trkpt>
      <trkpt lat="43.96341" lon="1.57181">
        <ele>138</ele>
        <time>2014-08-24T07:29:44Z</time>
      </trkpt>
      <trkpt lat="43.96339" lon="1.57208">
        <ele>138</ele>
        <time>2014-08-24T07:29:49Z</time>
      </trkpt>
      <trkpt lat="43.96338" lon="1.5723">
        <ele>138</ele>
        <time>2014-08-24T07:29:54Z</time>
      </trkpt>
      <trkpt lat="43.96335" lon="1.57258">
        <ele>138</ele>
        <time>2014-08-24T07:30:00Z</time>
      </trkpt>
      <trkpt lat="43.96334" lon="1.5728">
        <ele>138</ele>
        <time>2014-08-24T07:30:04Z</time>
      </trkpt>
      <trkpt lat="43.96335" lon="1.57306">
        <ele>138</ele>
        <time>2014-08-24T07:30:09Z</time>
      </trkpt>
      <trkpt lat="43.9634" lon="1.57339">
        <ele>137</ele>
        <time>2014-08-24T07:30:15Z</time>
      </trkpt>
      <trkpt lat="43.96345" lon="1.57361">
        <ele>137</ele>
        <time>2014-08-24T07:30:19Z</time>
      </trkpt>
      <trkpt lat="43.96352" lon="1.574">
        <ele>136</ele>
        <time>2014-08-24T07:30:26Z</time>
      </trkpt>
      <trkpt lat="43.96354" lon="1.57411">
        <ele>136</ele>
        <time>2014-08-24T07:30:28Z</time>
      </trkpt>
      <trkpt lat="43.96359" lon="1.57438">
        <ele>135</ele>
        <time>2014-08-24T07:30:33Z</time>
      </trkpt>
      <trkpt lat="43.96364" lon="1.57466">
        <ele>135</ele>
        <time>2014-08-24T07:30:38Z</time>
      </trkpt>
      <trkpt lat="43.96373" lon="1.57498">
        <ele>135</ele>
        <time>2014-08-24T07:30:43Z</time>
      </trkpt>
      <trkpt lat="43.96393" lon="1.57507">
        <ele>136</ele>
        <time>2014-08-24T07:30:48Z</time>
      </trkpt>
      <trkpt lat="43.96415" lon="1.57506">
        <ele>137</ele>
        <time>2014-08-24T07:30:53Z</time>
      </trkpt>
      <trkpt lat="43.96452" lon="1.57497">
        <ele>138</ele>
        <time>2014-08-24T07:31:02Z</time>
      </trkpt>
      <trkpt lat="43.96456" lon="1.57496">
        <ele>138</ele>
        <time>2014-08-24T07:31:03Z</time>
      </trkpt>
      <trkpt lat="43.96498" lon="1.57513">
        <ele>139</ele>
        <time>2014-08-24T07:31:12Z</time>
      </trkpt>
      <trkpt lat="43.96502" lon="1.57515">
        <ele>139</ele>
        <time>2014-08-24T07:31:13Z</time>
      </trkpt>
      <trkpt lat="43.96541" lon="1.57527">
        <ele>139</ele>
        <time>2014-08-24T07:31:22Z</time>
      </trkpt>
      <trkpt lat="43.96544" lon="1.5753">
        <ele>139</ele>
        <time>2014-08-24T07:31:23Z</time>
      </trkpt>
      <trkpt lat="43.96562" lon="1.5755">
        <ele>139</ele>
        <time>2014-08-24T07:31:28Z</time>
      </trkpt>
      <trkpt lat="43.96568" lon="1.57589">
        <ele>139</ele>
        <time>2014-08-24T07:31:36Z</time>
      </trkpt>
      <trkpt lat="43.96563" lon="1.57619">
        <ele>140</ele>
        <time>2014-08-24T07:31:42Z</time>
      </trkpt>
      <trkpt lat="43.96562" lon="1.57635">
        <ele>140</ele>
        <time>2014-08-24T07:31:45Z</time>
      </trkpt>
      <trkpt lat="43.9656" lon="1.57655">
        <ele>140</ele>
        <time>2014-08-24T07:31:49Z</time>
      </trkpt>
      <trkpt lat="43.96557" lon="1.57696">
        <ele>140</ele>
        <time>2014-08-24T07:31:57Z</time>
      </trkpt>
      <trkpt lat="43.96557" lon="1.57705">
        <ele>141</ele>
        <time>2014-08-24T07:31:59Z</time>
      </trkpt>
      <trkpt lat="43.96557" lon="1.57743">
        <ele>141</ele>
        <time>2014-08-24T07:32:07Z</time>
      </trkpt>
      <trkpt lat="43.96557" lon="1.57766">
        <ele>141</ele>
        <time>2014-08-24T07:32:12Z</time>
      </trkpt>
      <trkpt lat="43.96557" lon="1.57771">
        <ele>141</ele>
        <time>2014-08-24T07:32:13Z</time>
      </trkpt>
      <trkpt lat="43.96557" lon="1.57794">
        <ele>141</ele>
        <time>2014-08-24T07:32:18Z</time>
      </trkpt>
      <trkpt lat="43.96556" lon="1.57819">
        <ele>141</ele>
        <time>2014-08-24T07:32:23Z</time>
      </trkpt>
      <trkpt lat="43.96557" lon="1.57842">
        <ele>142</ele>
        <time>2014-08-24T07:32:28Z</time>
      </trkpt>
      <trkpt lat="43.96557" lon="1.57864">
        <ele>142</ele>
        <time>2014-08-24T07:32:33Z</time>
      </trkpt>
      <trkpt lat="43.96543" lon="1.5789">
        <ele>141</ele>
        <time>2014-08-24T07:32:39Z</time>
      </trkpt>
      <trkpt lat="43.96525" lon="1.57924">
        <ele>140</ele>
        <time>2014-08-24T07:32:45Z</time>
      </trkpt>
      <trkpt lat="43.96512" lon="1.57952">
        <ele>140</ele>
        <time>2014-08-24T07:32:49Z</time>
      </trkpt>
      <trkpt lat="43.96497" lon="1.57981">
        <ele>139</ele>
        <time>2014-08-24T07:32:53Z</time>
      </trkpt>
      <trkpt lat="43.96471" lon="1.58012">
        <ele>138</ele>
        <time>2014-08-24T07:32:58Z</time>
      </trkpt>
      <trkpt lat="43.96445" lon="1.58034">
        <ele>138</ele>
        <time>2014-08-24T07:33:03Z</time>
      </trkpt>
      <trkpt lat="43.96425" lon="1.58082">
        <ele>138</ele>
        <time>2014-08-24T07:33:11Z</time>
      </trkpt>
      <trkpt lat="43.96418" lon="1.58118">
        <ele>138</ele>
        <time>2014-08-24T07:33:17Z</time>
      </trkpt>
      <trkpt lat="43.96417" lon="1.58123">
        <ele>138</ele>
        <time>2014-08-24T07:33:18Z</time>
      </trkpt>
      <trkpt lat="43.96396" lon="1.58167">
        <ele>138</ele>
        <time>2014-08-24T07:33:27Z</time>
      </trkpt>
      <trkpt lat="43.96394" lon="1.58172">
        <ele>138</ele>
        <time>2014-08-24T07:33:28Z</time>
      </trkpt>
      <trkpt lat="43.96382" lon="1.58197">
        <ele>137</ele>
        <time>2014-08-24T07:33:33Z</time>
      </trkpt>
      <trkpt lat="43.96372" lon="1.58219">
        <ele>137</ele>
        <time>2014-08-24T07:33:37Z</time>
      </trkpt>
      <trkpt lat="43.9636" lon="1.58246">
        <ele>136</ele>
        <time>2014-08-24T07:33:42Z</time>
      </trkpt>
      <trkpt lat="43.96347" lon="1.58271">
        <ele>136</ele>
        <time>2014-08-24T07:33:47Z</time>
      </trkpt>
      <trkpt lat="43.96334" lon="1.58296">
        <ele>136</ele>
        <time>2014-08-24T07:33:52Z</time>
      </trkpt>
      <trkpt lat="43.96322" lon="1.5832">
        <ele>136</ele>
        <time>2014-08-24T07:33:57Z</time>
      </trkpt>
      <trkpt lat="43.96309" lon="1.58344">
        <ele>137</ele>
        <time>2014-08-24T07:34:02Z</time>
      </trkpt>
      <trkpt lat="43.96306" lon="1.58389">
        <ele>137</ele>
        <time>2014-08-24T07:34:10Z</time>
      </trkpt>
      <trkpt lat="43.9631" lon="1.584">
        <ele>137</ele>
        <time>2014-08-24T07:34:12Z</time>
      </trkpt>
      <trkpt lat="43.96317" lon="1.58422">
        <ele>137</ele>
        <time>2014-08-24T07:34:16Z</time>
      </trkpt>
      <trkpt lat="43.96324" lon="1.58442">
        <ele>138</ele>
        <time>2014-08-24T07:34:20Z</time>
      </trkpt>
      <trkpt lat="43.96326" lon="1.58453">
        <ele>138</ele>
        <time>2014-08-24T07:34:24Z</time>
      </trkpt>
      <trkpt lat="43.96325" lon="1.58468">
        <ele>138</ele>
        <time>2014-08-24T07:34:28Z</time>
      </trkpt>
      <trkpt lat="43.96325" lon="1.58488">
        <ele>139</ele>
        <time>2014-08-24T07:34:32Z</time>
      </trkpt>
      <trkpt lat="43.9632" lon="1.58509">
        <ele>139</ele>
        <time>2014-08-24T07:34:36Z</time>
      </trkpt>
      <trkpt lat="43.96314" lon="1.58535">
        <ele>139</ele>
        <time>2014-08-24T07:34:41Z</time>
      </trkpt>
      <trkpt lat="43.96308" lon="1.58565">
        <ele>139</ele>
        <time>2014-08-24T07:34:46Z</time>
      </trkpt>
      <trkpt lat="43.96298" lon="1.58596">
        <ele>138</ele>
        <time>2014-08-24T07:34:51Z</time>
      </trkpt>
      <trkpt lat="43.9628" lon="1.58643">
        <ele>137</ele>
        <time>2014-08-24T07:34:59Z</time>
      </trkpt>
      <trkpt lat="43.96271" lon="1.58673">
        <ele>137</ele>
        <time>2014-08-24T07:35:04Z</time>
      </trkpt>
      <trkpt lat="43.96264" lon="1.58698">
        <ele>137</ele>
        <time>2014-08-24T07:35:08Z</time>
      </trkpt>
      <trkpt lat="43.96255" lon="1.58725">
        <ele>137</ele>
        <time>2014-08-24T07:35:12Z</time>
      </trkpt>
      <trkpt lat="43.96246" lon="1.5875">
        <ele>137</ele>
        <time>2014-08-24T07:35:16Z</time>
      </trkpt>
      <trkpt lat="43.96234" lon="1.5878">
        <ele>138</ele>
        <time>2014-08-24T07:35:21Z</time>
      </trkpt>
      <trkpt lat="43.96222" lon="1.58809">
        <ele>138</ele>
        <time>2014-08-24T07:35:26Z</time>
      </trkpt>
      <trkpt lat="43.96208" lon="1.58839">
        <ele>138</ele>
        <time>2014-08-24T07:35:31Z</time>
      </trkpt>
      <trkpt lat="43.96194" lon="1.58868">
        <ele>138</ele>
        <time>2014-08-24T07:35:36Z</time>
      </trkpt>
      <trkpt lat="43.96184" lon="1.58899">
        <ele>138</ele>
        <time>2014-08-24T07:35:41Z</time>
      </trkpt>
      <trkpt lat="43.96176" lon="1.5893">
        <ele>138</ele>
        <time>2014-08-24T07:35:46Z</time>
      </trkpt>
      <trkpt lat="43.96169" lon="1.58958">
        <ele>139</ele>
        <time>2014-08-24T07:35:51Z</time>
      </trkpt>
      <trkpt lat="43.96157" lon="1.58987">
        <ele>138</ele>
        <time>2014-08-24T07:35:56Z</time>
      </trkpt>
      <trkpt lat="43.96138" lon="1.59003">
        <ele>138</ele>
        <time>2014-08-24T07:36:01Z</time>
      </trkpt>
      <trkpt lat="43.96113" lon="1.58998">
        <ele>137</ele>
        <time>2014-08-24T07:36:06Z</time>
      </trkpt>
      <trkpt lat="43.96087" lon="1.5898">
        <ele>137</ele>
        <time>2014-08-24T07:36:11Z</time>
      </trkpt>
      <trkpt lat="43.96068" lon="1.58959">
        <ele>137</ele>
        <time>2014-08-24T07:36:16Z</time>
      </trkpt>
      <trkpt lat="43.96043" lon="1.58928">
        <ele>138</ele>
        <time>2014-08-24T07:36:24Z</time>
      </trkpt>
      <trkpt lat="43.96034" lon="1.58921">
        <ele>138</ele>
        <time>2014-08-24T07:36:26Z</time>
      </trkpt>
      <trkpt lat="43.96014" lon="1.58913">
        <ele>138</ele>
        <time>2014-08-24T07:36:31Z</time>
      </trkpt>
      <trkpt lat="43.95995" lon="1.58926">
        <ele>139</ele>
        <time>2014-08-24T07:36:36Z</time>
      </trkpt>
      <trkpt lat="43.95979" lon="1.58944">
        <ele>140</ele>
        <time>2014-08-24T07:36:41Z</time>
      </trkpt>
      <trkpt lat="43.95959" lon="1.58955">
        <ele>141</ele>
        <time>2014-08-24T07:36:46Z</time>
      </trkpt>
      <trkpt lat="43.95939" lon="1.58959">
        <ele>142</ele>
        <time>2014-08-24T07:36:51Z</time>
      </trkpt>
      <trkpt lat="43.9592" lon="1.58964">
        <ele>144</ele>
        <time>2014-08-24T07:36:56Z</time>
      </trkpt>
      <trkpt lat="43.95902" lon="1.58968">
        <ele>146</ele>
        <time>2014-08-24T07:37:01Z</time>
      </trkpt>
      <trkpt lat="43.95885" lon="1.58974">
        <ele>148</ele>
        <time>2014-08-24T07:37:06Z</time>
      </trkpt>
      <trkpt lat="43.95871" lon="1.58979">
        <ele>149</ele>
        <time>2014-08-24T07:37:10Z</time>
      </trkpt>
      <trkpt lat="43.95857" lon="1.58988">
        <ele>151</ele>
        <time>2014-08-24T07:37:15Z</time>
      </trkpt>
      <trkpt lat="43.95844" lon="1.58998">
        <ele>153</ele>
        <time>2014-08-24T07:37:20Z</time>
      </trkpt>
      <trkpt lat="43.95833" lon="1.59008">
        <ele>154</ele>
        <time>2014-08-24T07:37:25Z</time>
      </trkpt>
      <trkpt lat="43.95824" lon="1.59019">
        <ele>156</ele>
        <time>2014-08-24T07:37:30Z</time>
      </trkpt>
      <trkpt lat="43.95813" lon="1.59035">
        <ele>157</ele>
        <time>2014-08-24T07:37:37Z</time>
      </trkpt>
      <trkpt lat="43.95809" lon="1.59039">
        <ele>158</ele>
        <time>2014-08-24T07:37:40Z</time>
      </trkpt>
      <trkpt lat="43.95801" lon="1.59048">
        <ele>159</ele>
        <time>2014-08-24T07:37:45Z</time>
      </trkpt>
      <trkpt lat="43.95793" lon="1.59058">
        <ele>160</ele>
        <time>2014-08-24T07:37:50Z</time>
      </trkpt>
      <trkpt lat="43.95787" lon="1.59067">
        <ele>161</ele>
        <time>2014-08-24T07:37:55Z</time>
      </trkpt>
      <trkpt lat="43.95778" lon="1.59076">
        <ele>162</ele>
        <time>2014-08-24T07:38:03Z</time>
      </trkpt>
      <trkpt lat="43.95776" lon="1.5908">
        <ele>163</ele>
        <time>2014-08-24T07:38:06Z</time>
      </trkpt>
      <trkpt lat="43.95772" lon="1.59083">
        <ele>163</ele>
        <time>2014-08-24T07:38:10Z</time>
      </trkpt>
      <trkpt lat="43.95759" lon="1.5909">
        <ele>165</ele>
        <time>2014-08-24T07:38:17Z</time>
      </trkpt>
      <trkpt lat="43.95752" lon="1.59094">
        <ele>166</ele>
        <time>2014-08-24T07:38:21Z</time>
      </trkpt>
      <trkpt lat="43.95745" lon="1.59096">
        <ele>167</ele>
        <time>2014-08-24T07:38:25Z</time>
      </trkpt>
      <trkpt lat="43.95734" lon="1.59099">
        <ele>169</ele>
        <time>2014-08-24T07:38:30Z</time>
      </trkpt>
      <trkpt lat="43.95725" lon="1.59101">
        <ele>171</ele>
        <time>2014-08-24T07:38:35Z</time>
      </trkpt>
      <trkpt lat="43.95715" lon="1.59102">
        <ele>172</ele>
        <time>2014-08-24T07:38:40Z</time>
      </trkpt>
      <trkpt lat="43.95705" lon="1.59102">
        <ele>174</ele>
        <time>2014-08-24T07:38:45Z</time>
      </trkpt>
      <trkpt lat="43.95695" lon="1.59102">
        <ele>175</ele>
        <time>2014-08-24T07:38:50Z</time>
      </trkpt>
      <trkpt lat="43.95684" lon="1.59101">
        <ele>177</ele>
        <time>2014-08-24T07:38:56Z</time>
      </trkpt>
      <trkpt lat="43.9567" lon="1.59104">
        <ele>179</ele>
        <time>2014-08-24T07:39:03Z</time>
      </trkpt>
      <trkpt lat="43.95666" lon="1.59105">
        <ele>179</ele>
        <time>2014-08-24T07:39:05Z</time>
      </trkpt>
      <trkpt lat="43.95649" lon="1.59112">
        <ele>179</ele>
        <time>2014-08-24T07:39:12Z</time>
      </trkpt>
      <trkpt lat="43.95633" lon="1.59119">
        <ele>180</ele>
        <time>2014-08-24T07:39:18Z</time>
      </trkpt>
      <trkpt lat="43.95628" lon="1.59122">
        <ele>180</ele>
        <time>2014-08-24T07:39:20Z</time>
      </trkpt>
      <trkpt lat="43.95612" lon="1.59128">
        <ele>181</ele>
        <time>2014-08-24T07:39:26Z</time>
      </trkpt>
      <trkpt lat="43.95593" lon="1.59136">
        <ele>181</ele>
        <time>2014-08-24T07:39:34Z</time>
      </trkpt>
      <trkpt lat="43.95591" lon="1.59137">
        <ele>181</ele>
        <time>2014-08-24T07:39:35Z</time>
      </trkpt>
      <trkpt lat="43.9558" lon="1.59141">
        <ele>181</ele>
        <time>2014-08-24T07:39:40Z</time>
      </trkpt>
      <trkpt lat="43.95567" lon="1.59144">
        <ele>181</ele>
        <time>2014-08-24T07:39:45Z</time>
      </trkpt>
      <trkpt lat="43.9555" lon="1.59149">
        <ele>181</ele>
        <time>2014-08-24T07:39:52Z</time>
      </trkpt>
      <trkpt lat="43.95532" lon="1.59153">
        <ele>181</ele>
        <time>2014-08-24T07:39:59Z</time>
      </trkpt>
      <trkpt lat="43.95529" lon="1.59154">
        <ele>181</ele>
        <time>2014-08-24T07:40:00Z</time>
      </trkpt>
      <trkpt lat="43.95512" lon="1.59157">
        <ele>181</ele>
        <time>2014-08-24T07:40:06Z</time>
      </trkpt>
      <trkpt lat="43.95503" lon="1.5916">
        <ele>181</ele>
        <time>2014-08-24T07:40:10Z</time>
      </trkpt>
      <trkpt lat="43.95485" lon="1.59166">
        <ele>181</ele>
        <time>2014-08-24T07:40:18Z</time>
      </trkpt>
      <trkpt lat="43.95479" lon="1.59168">
        <ele>181</ele>
        <time>2014-08-24T07:40:20Z</time>
      </trkpt>
      <trkpt lat="43.95462" lon="1.59174">
        <ele>180</ele>
        <time>2014-08-24T07:40:26Z</time>
      </trkpt>
      <trkpt lat="43.95451" lon="1.59179">
        <ele>180</ele>
        <time>2014-08-24T07:40:30Z</time>
      </trkpt>
      <trkpt lat="43.95438" lon="1.59188">
        <ele>180</ele>
        <time>2014-08-24T07:40:35Z</time>
      </trkpt>
      <trkpt lat="43.95425" lon="1.59197">
        <ele>181</ele>
        <time>2014-08-24T07:40:40Z</time>
      </trkpt>
      <trkpt lat="43.95416" lon="1.59204">
        <ele>181</ele>
        <time>2014-08-24T07:40:45Z</time>
      </trkpt>
      <trkpt lat="43.95405" lon="1.59213">
        <ele>181</ele>
        <time>2014-08-24T07:40:50Z</time>
      </trkpt>
      <trkpt lat="43.95389" lon="1.59226">
        <ele>183</ele>
        <time>2014-08-24T07:40:57Z</time>
      </trkpt>
      <trkpt lat="43.95383" lon="1.59232">
        <ele>183</ele>
        <time>2014-08-24T07:41:00Z</time>
      </trkpt>
      <trkpt lat="43.95365" lon="1.59248">
        <ele>184</ele>
        <time>2014-08-24T07:41:08Z</time>
      </trkpt>
      <trkpt lat="43.95357" lon="1.59256">
        <ele>184</ele>
        <time>2014-08-24T07:41:12Z</time>
      </trkpt>
      <trkpt lat="43.95353" lon="1.5926">
        <ele>184</ele>
        <time>2014-08-24T07:41:14Z</time>
      </trkpt>
      <trkpt lat="43.95343" lon="1.59267">
        <ele>184</ele>
        <time>2014-08-24T07:41:19Z</time>
      </trkpt>
      <trkpt lat="43.9533" lon="1.59277">
        <ele>185</ele>
        <time>2014-08-24T07:41:24Z</time>
      </trkpt>
      <trkpt lat="43.95318" lon="1.59286">
        <ele>186</ele>
        <time>2014-08-24T07:41:29Z</time>
      </trkpt>
      <trkpt lat="43.95307" lon="1.59297">
        <ele>187</ele>
        <time>2014-08-24T07:41:34Z</time>
      </trkpt>
      <trkpt lat="43.95294" lon="1.59306">
        <ele>188</ele>
        <time>2014-08-24T07:41:39Z</time>
      </trkpt>
      <trkpt lat="43.9528" lon="1.59317">
        <ele>189</ele>
        <time>2014-08-24T07:41:45Z</time>
      </trkpt>
      <trkpt lat="43.95262" lon="1.59332">
        <ele>190</ele>
        <time>2014-08-24T07:41:53Z</time>
      </trkpt>
      <trkpt lat="43.9526" lon="1.59334">
        <ele>190</ele>
        <time>2014-08-24T07:41:54Z</time>
      </trkpt>
      <trkpt lat="43.95248" lon="1.59343">
        <ele>191</ele>
        <time>2014-08-24T07:41:59Z</time>
      </trkpt>
      <trkpt lat="43.95239" lon="1.59351">
        <ele>191</ele>
        <time>2014-08-24T07:42:03Z</time>
      </trkpt>
      <trkpt lat="43.95226" lon="1.59358">
        <ele>192</ele>
        <time>2014-08-24T07:42:08Z</time>
      </trkpt>
      <trkpt lat="43.95216" lon="1.59365">
        <ele>192</ele>
        <time>2014-08-24T07:42:13Z</time>
      </trkpt>
      <trkpt lat="43.95207" lon="1.59371">
        <ele>192</ele>
        <time>2014-08-24T07:42:18Z</time>
      </trkpt>
      <trkpt lat="43.95198" lon="1.59378">
        <ele>193</ele>
        <time>2014-08-24T07:42:23Z</time>
      </trkpt>
      <trkpt lat="43.9519" lon="1.59386">
        <ele>193</ele>
        <time>2014-08-24T07:42:28Z</time>
      </trkpt>
      <trkpt lat="43.95173" lon="1.59398">
        <ele>193</ele>
        <time>2014-08-24T07:42:34Z</time>
      </trkpt>
      <trkpt lat="43.95162" lon="1.59403">
        <ele>193</ele>
        <time>2014-08-24T07:42:38Z</time>
      </trkpt>
      <trkpt lat="43.95141" lon="1.59417">
        <ele>193</ele>
        <time>2014-08-24T07:42:46Z</time>
      </trkpt>
      <trkpt lat="43.95139" lon="1.59418">
        <ele>193</ele>
        <time>2014-08-24T07:42:47Z</time>
      </trkpt>
      <trkpt lat="43.95117" lon="1.59434">
        <ele>193</ele>
        <time>2014-08-24T07:42:54Z</time>
      </trkpt>
      <trkpt lat="43.95106" lon="1.59439">
        <ele>193</ele>
        <time>2014-08-24T07:42:57Z</time>
      </trkpt>
      <trkpt lat="43.9509" lon="1.59449">
        <ele>192</ele>
        <time>2014-08-24T07:43:02Z</time>
      </trkpt>
      <trkpt lat="43.95076" lon="1.59461">
        <ele>192</ele>
        <time>2014-08-24T07:43:07Z</time>
      </trkpt>
      <trkpt lat="43.95059" lon="1.59471">
        <ele>192</ele>
        <time>2014-08-24T07:43:13Z</time>
      </trkpt>
      <trkpt lat="43.95048" lon="1.59478">
        <ele>192</ele>
        <time>2014-08-24T07:43:17Z</time>
      </trkpt>
      <trkpt lat="43.95036" lon="1.59487">
        <ele>192</ele>
        <time>2014-08-24T07:43:22Z</time>
      </trkpt>
      <trkpt lat="43.95023" lon="1.59495">
        <ele>193</ele>
        <time>2014-08-24T07:43:27Z</time>
      </trkpt>
      <trkpt lat="43.95005" lon="1.59507">
        <ele>194</ele>
        <time>2014-08-24T07:43:34Z</time>
      </trkpt>
      <trkpt lat="43.94997" lon="1.59512">
        <ele>194</ele>
        <time>2014-08-24T07:43:37Z</time>
      </trkpt>
      <trkpt lat="43.94984" lon="1.59519">
        <ele>195</ele>
        <time>2014-08-24T07:43:42Z</time>
      </trkpt>
      <trkpt lat="43.94971" lon="1.5953">
        <ele>196</ele>
        <time>2014-08-24T07:43:47Z</time>
      </trkpt>
      <trkpt lat="43.9496" lon="1.59541">
        <ele>197</ele>
        <time>2014-08-24T07:43:52Z</time>
      </trkpt>
      <trkpt lat="43.94948" lon="1.59548">
        <ele>197</ele>
        <time>2014-08-24T07:43:59Z</time>
      </trkpt>
      <trkpt lat="43.94939" lon="1.59551">
        <ele>198</ele>
        <time>2014-08-24T07:44:03Z</time>
      </trkpt>
      <trkpt lat="43.94927" lon="1.59556">
        <ele>198</ele>
        <time>2014-08-24T07:44:07Z</time>
      </trkpt>
      <trkpt lat="43.9491" lon="1.59565">
        <ele>199</ele>
        <time>2014-08-24T07:44:13Z</time>
      </trkpt>
      <trkpt lat="43.94902" lon="1.59569">
        <ele>200</ele>
        <time>2014-08-24T07:44:17Z</time>
      </trkpt>
      <trkpt lat="43.94889" lon="1.59573">
        <ele>200</ele>
        <time>2014-08-24T07:44:23Z</time>
      </trkpt>
      <trkpt lat="43.9488" lon="1.59578">
        <ele>201</ele>
        <time>2014-08-24T07:44:27Z</time>
      </trkpt>
      <trkpt lat="43.94867" lon="1.59581">
        <ele>201</ele>
        <time>2014-08-24T07:44:32Z</time>
      </trkpt>
      <trkpt lat="43.94854" lon="1.59583">
        <ele>201</ele>
        <time>2014-08-24T07:44:37Z</time>
      </trkpt>
      <trkpt lat="43.9484" lon="1.59586">
        <ele>201</ele>
        <time>2014-08-24T07:44:42Z</time>
      </trkpt>
      <trkpt lat="43.94818" lon="1.59591">
        <ele>202</ele>
        <time>2014-08-24T07:44:50Z</time>
      </trkpt>
      <trkpt lat="43.94813" lon="1.59592">
        <ele>202</ele>
        <time>2014-08-24T07:44:52Z</time>
      </trkpt>
      <trkpt lat="43.94792" lon="1.59593">
        <ele>203</ele>
        <time>2014-08-24T07:45:00Z</time>
      </trkpt>
      <trkpt lat="43.94788" lon="1.59593">
        <ele>203</ele>
        <time>2014-08-24T07:45:02Z</time>
      </trkpt>
      <trkpt lat="43.94777" lon="1.59593">
        <ele>203</ele>
        <time>2014-08-24T07:45:07Z</time>
      </trkpt>
      <trkpt lat="43.94766" lon="1.59597">
        <ele>204</ele>
        <time>2014-08-24T07:45:12Z</time>
      </trkpt>
      <trkpt lat="43.94752" lon="1.59599">
        <ele>204</ele>
        <time>2014-08-24T07:45:19Z</time>
      </trkpt>
      <trkpt lat="43.94746" lon="1.596">
        <ele>204</ele>
        <time>2014-08-24T07:45:22Z</time>
      </trkpt>
      <trkpt lat="43.94734" lon="1.59602">
        <ele>204</ele>
        <time>2014-08-24T07:45:28Z</time>
      </trkpt>
      <trkpt lat="43.94721" lon="1.59602">
        <ele>205</ele>
        <time>2014-08-24T07:45:34Z</time>
      </trkpt>
      <trkpt lat="43.94712" lon="1.59603">
        <ele>205</ele>
        <time>2014-08-24T07:45:38Z</time>
      </trkpt>
      <trkpt lat="43.94705" lon="1.59604">
        <ele>205</ele>
        <time>2014-08-24T07:45:42Z</time>
      </trkpt>
      <trkpt lat="43.94692" lon="1.59605">
        <ele>206</ele>
        <time>2014-08-24T07:45:49Z</time>
      </trkpt>
      <trkpt lat="43.94686" lon="1.59605">
        <ele>206</ele>
        <time>2014-08-24T07:45:52Z</time>
      </trkpt>
      <trkpt lat="43.94669" lon="1.59606">
        <ele>206</ele>
        <time>2014-08-24T07:46:00Z</time>
      </trkpt>
      <trkpt lat="43.94656" lon="1.59608">
        <ele>206</ele>
        <time>2014-08-24T07:46:06Z</time>
      </trkpt>
      <trkpt lat="43.94652" lon="1.59609">
        <ele>206</ele>
        <time>2014-08-24T07:46:08Z</time>
      </trkpt>
      <trkpt lat="43.94641" lon="1.59612">
        <ele>206</ele>
        <time>2014-08-24T07:46:12Z</time>
      </trkpt>
      <trkpt lat="43.94628" lon="1.59616">
        <ele>207</ele>
        <time>2014-08-24T07:46:17Z</time>
      </trkpt>
      <trkpt lat="43.94604" lon="1.59626">
        <ele>207</ele>
        <time>2014-08-24T07:46:26Z</time>
      </trkpt>
      <trkpt lat="43.94593" lon="1.59628">
        <ele>207</ele>
        <time>2014-08-24T07:46:29Z</time>
      </trkpt>
      <trkpt lat="43.94569" lon="1.59637">
        <ele>207</ele>
        <time>2014-08-24T07:46:36Z</time>
      </trkpt>
      <trkpt lat="43.94566" lon="1.5964">
        <ele>207</ele>
        <time>2014-08-24T07:46:37Z</time>
      </trkpt>
      <trkpt lat="43.94545" lon="1.59647">
        <ele>208</ele>
        <time>2014-08-24T07:46:42Z</time>
      </trkpt>
      <trkpt lat="43.94518" lon="1.59653">
        <ele>208</ele>
        <time>2014-08-24T07:46:48Z</time>
      </trkpt>
      <trkpt lat="43.94501" lon="1.59656">
        <ele>208</ele>
        <time>2014-08-24T07:46:52Z</time>
      </trkpt>
      <trkpt lat="43.94472" lon="1.59663">
        <ele>208</ele>
        <time>2014-08-24T07:46:59Z</time>
      </trkpt>
      <trkpt lat="43.9446" lon="1.59667">
        <ele>208</ele>
        <time>2014-08-24T07:47:02Z</time>
      </trkpt>
      <trkpt lat="43.94439" lon="1.59672">
        <ele>208</ele>
        <time>2014-08-24T07:47:07Z</time>
      </trkpt>
      <trkpt lat="43.94418" lon="1.59677">
        <ele>207</ele>
        <time>2014-08-24T07:47:12Z</time>
      </trkpt>
      <trkpt lat="43.94389" lon="1.59686">
        <ele>207</ele>
        <time>2014-08-24T07:47:19Z</time>
      </trkpt>
      <trkpt lat="43.94377" lon="1.59694">
        <ele>206</ele>
        <time>2014-08-24T07:47:22Z</time>
      </trkpt>
      <trkpt lat="43.94359" lon="1.5971">
        <ele>206</ele>
        <time>2014-08-24T07:47:27Z</time>
      </trkpt>
      <trkpt lat="43.94343" lon="1.59732">
        <ele>206</ele>
        <time>2014-08-24T07:47:32Z</time>
      </trkpt>
      <trkpt lat="43.94331" lon="1.59759">
        <ele>206</ele>
        <time>2014-08-24T07:47:37Z</time>
      </trkpt>
      <trkpt lat="43.9432" lon="1.59787">
        <ele>207</ele>
        <time>2014-08-24T07:47:42Z</time>
      </trkpt>
      <trkpt lat="43.94311" lon="1.59814">
        <ele>208</ele>
        <time>2014-08-24T07:47:47Z</time>
      </trkpt>
      <trkpt lat="43.94302" lon="1.5984">
        <ele>208</ele>
        <time>2014-08-24T07:47:52Z</time>
      </trkpt>
      <trkpt lat="43.94293" lon="1.59867">
        <ele>209</ele>
        <time>2014-08-24T07:47:57Z</time>
      </trkpt>
      <trkpt lat="43.94284" lon="1.59897">
        <ele>211</ele>
        <time>2014-08-24T07:48:02Z</time>
      </trkpt>
      <trkpt lat="43.94273" lon="1.59926">
        <ele>211</ele>
        <time>2014-08-24T07:48:07Z</time>
      </trkpt>
      <trkpt lat="43.94263" lon="1.59956">
        <ele>213</ele>
        <time>2014-08-24T07:48:12Z</time>
      </trkpt>
      <trkpt lat="43.94252" lon="1.59986">
        <ele>214</ele>
        <time>2014-08-24T07:48:17Z</time>
      </trkpt>
      <trkpt lat="43.94241" lon="1.60017">
        <ele>215</ele>
        <time>2014-08-24T07:48:22Z</time>
      </trkpt>
      <trkpt lat="43.94231" lon="1.60047">
        <ele>215</ele>
        <time>2014-08-24T07:48:27Z</time>
      </trkpt>
      <trkpt lat="43.94221" lon="1.60076">
        <ele>216</ele>
        <time>2014-08-24T07:48:32Z</time>
      </trkpt>
      <trkpt lat="43.9421" lon="1.60105">
        <ele>217</ele>
        <time>2014-08-24T07:48:37Z</time>
      </trkpt>
      <trkpt lat="43.94201" lon="1.60133">
        <ele>217</ele>
        <time>2014-08-24T07:48:42Z</time>
      </trkpt>
      <trkpt lat="43.94191" lon="1.60162">
        <ele>219</ele>
        <time>2014-08-24T07:48:47Z</time>
      </trkpt>
      <trkpt lat="43.94181" lon="1.6019">
        <ele>219</ele>
        <time>2014-08-24T07:48:52Z</time>
      </trkpt>
      <trkpt lat="43.94172" lon="1.60219">
        <ele>220</ele>
        <time>2014-08-24T07:48:57Z</time>
      </trkpt>
      <trkpt lat="43.94162" lon="1.60249">
        <ele>220</ele>
        <time>2014-08-24T07:49:02Z</time>
      </trkpt>
      <trkpt lat="43.94148" lon="1.60302">
        <ele>221</ele>
        <time>2014-08-24T07:49:10Z</time>
      </trkpt>
      <trkpt lat="43.94145" lon="1.60316">
        <ele>221</ele>
        <time>2014-08-24T07:49:12Z</time>
      </trkpt>
      <trkpt lat="43.9414" lon="1.6035">
        <ele>221</ele>
        <time>2014-08-24T07:49:17Z</time>
      </trkpt>
      <trkpt lat="43.94134" lon="1.60385">
        <ele>220</ele>
        <time>2014-08-24T07:49:22Z</time>
      </trkpt>
      <trkpt lat="43.94129" lon="1.60421">
        <ele>220</ele>
        <time>2014-08-24T07:49:27Z</time>
      </trkpt>
      <trkpt lat="43.94121" lon="1.60486">
        <ele>219</ele>
        <time>2014-08-24T07:49:36Z</time>
      </trkpt>
      <trkpt lat="43.94119" lon="1.60493">
        <ele>219</ele>
        <time>2014-08-24T07:49:37Z</time>
      </trkpt>
      <trkpt lat="43.94115" lon="1.60522">
        <ele>219</ele>
        <time>2014-08-24T07:49:41Z</time>
      </trkpt>
      <trkpt lat="43.94111" lon="1.60557">
        <ele>219</ele>
        <time>2014-08-24T07:49:46Z</time>
      </trkpt>
      <trkpt lat="43.94108" lon="1.60591">
        <ele>220</ele>
        <time>2014-08-24T07:49:51Z</time>
      </trkpt>
      <trkpt lat="43.94107" lon="1.60626">
        <ele>220</ele>
        <time>2014-08-24T07:49:56Z</time>
      </trkpt>
      <trkpt lat="43.94105" lon="1.60663">
        <ele>220</ele>
        <time>2014-08-24T07:50:01Z</time>
      </trkpt>
      <trkpt lat="43.94111" lon="1.60712">
        <ele>220</ele>
        <time>2014-08-24T07:50:08Z</time>
      </trkpt>
      <trkpt lat="43.94111" lon="1.60733">
        <ele>220</ele>
        <time>2014-08-24T07:50:11Z</time>
      </trkpt>
      <trkpt lat="43.94113" lon="1.60769">
        <ele>220</ele>
        <time>2014-08-24T07:50:16Z</time>
      </trkpt>
      <trkpt lat="43.94115" lon="1.60818">
        <ele>221</ele>
        <time>2014-08-24T07:50:23Z</time>
      </trkpt>
      <trkpt lat="43.94117" lon="1.60839">
        <ele>221</ele>
        <time>2014-08-24T07:50:26Z</time>
      </trkpt>
      <trkpt lat="43.94117" lon="1.60874">
        <ele>221</ele>
        <time>2014-08-24T07:50:31Z</time>
      </trkpt>
      <trkpt lat="43.94112" lon="1.60912">
        <ele>221</ele>
        <time>2014-08-24T07:50:36Z</time>
      </trkpt>
      <trkpt lat="43.94102" lon="1.60948">
        <ele>220</ele>
        <time>2014-08-24T07:50:41Z</time>
      </trkpt>
      <trkpt lat="43.94088" lon="1.60972">
        <ele>219</ele>
        <time>2014-08-24T07:50:45Z</time>
      </trkpt>
      <trkpt lat="43.94058" lon="1.61011">
        <ele>217</ele>
        <time>2014-08-24T07:50:52Z</time>
      </trkpt>
      <trkpt lat="43.94046" lon="1.61029">
        <ele>216</ele>
        <time>2014-08-24T07:50:55Z</time>
      </trkpt>
      <trkpt lat="43.94028" lon="1.61062">
        <ele>215</ele>
        <time>2014-08-24T07:51:00Z</time>
      </trkpt>
      <trkpt lat="43.94016" lon="1.61096">
        <ele>215</ele>
        <time>2014-08-24T07:51:05Z</time>
      </trkpt>
      <trkpt lat="43.94005" lon="1.6113">
        <ele>217</ele>
        <time>2014-08-24T07:51:10Z</time>
      </trkpt>
      <trkpt lat="43.93998" lon="1.61165">
        <ele>219</ele>
        <time>2014-08-24T07:51:15Z</time>
      </trkpt>
      <trkpt lat="43.93993" lon="1.612">
        <ele>218</ele>
        <time>2014-08-24T07:51:20Z</time>
      </trkpt>
      <trkpt lat="43.93988" lon="1.61242">
        <ele>216</ele>
        <time>2014-08-24T07:51:26Z</time>
      </trkpt>
      <trkpt lat="43.93982" lon="1.61269">
        <ele>214</ele>
        <time>2014-08-24T07:51:30Z</time>
      </trkpt>
      <trkpt lat="43.93966" lon="1.61313">
        <ele>213</ele>
        <time>2014-08-24T07:51:37Z</time>
      </trkpt>
      <trkpt lat="43.93958" lon="1.61337">
        <ele>214</ele>
        <time>2014-08-24T07:51:41Z</time>
      </trkpt>
      <trkpt lat="43.93941" lon="1.61369">
        <ele>216</ele>
        <time>2014-08-24T07:51:47Z</time>
      </trkpt>
      <trkpt lat="43.9393" lon="1.61383">
        <ele>216</ele>
        <time>2014-08-24T07:51:50Z</time>
      </trkpt>
      <trkpt lat="43.93913" lon="1.61407">
        <ele>217</ele>
        <time>2014-08-24T07:51:55Z</time>
      </trkpt>
      <trkpt lat="43.93897" lon="1.61429">
        <ele>218</ele>
        <time>2014-08-24T07:52:00Z</time>
      </trkpt>
      <trkpt lat="43.93893" lon="1.61448">
        <ele>219</ele>
        <time>2014-08-24T07:52:05Z</time>
      </trkpt>
      <trkpt lat="43.93884" lon="1.61485">
        <ele>222</ele>
        <time>2014-08-24T07:52:14Z</time>
      </trkpt>
      <trkpt lat="43.93883" lon="1.61489">
        <ele>222</ele>
        <time>2014-08-24T07:52:15Z</time>
      </trkpt>
      <trkpt lat="43.93867" lon="1.6151">
        <ele>222</ele>
        <time>2014-08-24T07:52:21Z</time>
      </trkpt>
      <trkpt lat="43.9385" lon="1.61519">
        <ele>222</ele>
        <time>2014-08-24T07:52:25Z</time>
      </trkpt>
      <trkpt lat="43.93829" lon="1.61531">
        <ele>221</ele>
        <time>2014-08-24T07:52:30Z</time>
      </trkpt>
      <trkpt lat="43.93792" lon="1.61552">
        <ele>222</ele>
        <time>2014-08-24T07:52:38Z</time>
      </trkpt>
      <trkpt lat="43.93785" lon="1.61558">
        <ele>222</ele>
        <time>2014-08-24T07:52:40Z</time>
      </trkpt>
      <trkpt lat="43.93766" lon="1.61576">
        <ele>222</ele>
        <time>2014-08-24T07:52:45Z</time>
      </trkpt>
      <trkpt lat="43.93744" lon="1.616">
        <ele>221</ele>
        <time>2014-08-24T07:52:51Z</time>
      </trkpt>
      <trkpt lat="43.93719" lon="1.61637">
        <ele>220</ele>
        <time>2014-08-24T07:52:59Z</time>
      </trkpt>
      <trkpt lat="43.93717" lon="1.61642">
        <ele>220</ele>
        <time>2014-08-24T07:53:00Z</time>
      </trkpt>
      <trkpt lat="43.93705" lon="1.61667">
        <ele>220</ele>
        <time>2014-08-24T07:53:05Z</time>
      </trkpt>
      <trkpt lat="43.93693" lon="1.61694">
        <ele>220</ele>
        <time>2014-08-24T07:53:10Z</time>
      </trkpt>
      <trkpt lat="43.93681" lon="1.61717">
        <ele>219</ele>
        <time>2014-08-24T07:53:15Z</time>
      </trkpt>
      <trkpt lat="43.93668" lon="1.61739">
        <ele>219</ele>
        <time>2014-08-24T07:53:20Z</time>
      </trkpt>
      <trkpt lat="43.93652" lon="1.61765">
        <ele>219</ele>
        <time>2014-08-24T07:53:26Z</time>
      </trkpt>
      <trkpt lat="43.93644" lon="1.61775">
        <ele>218</ele>
        <time>2014-08-24T07:53:29Z</time>
      </trkpt>
      <trkpt lat="43.93628" lon="1.61798">
        <ele>217</ele>
        <time>2014-08-24T07:53:35Z</time>
      </trkpt>
      <trkpt lat="43.93617" lon="1.61813">
        <ele>217</ele>
        <time>2014-08-24T07:53:39Z</time>
      </trkpt>
      <trkpt lat="43.93601" lon="1.61833">
        <ele>217</ele>
        <time>2014-08-24T07:53:44Z</time>
      </trkpt>
      <trkpt lat="43.93572" lon="1.61862">
        <ele>215</ele>
        <time>2014-08-24T07:53:51Z</time>
      </trkpt>
      <trkpt lat="43.93539" lon="1.61888">
        <ele>211</ele>
        <time>2014-08-24T07:53:57Z</time>
      </trkpt>
      <trkpt lat="43.93509" lon="1.61908">
        <ele>209</ele>
        <time>2014-08-24T07:54:02Z</time>
      </trkpt>
      <trkpt lat="43.93497" lon="1.61916">
        <ele>208</ele>
        <time>2014-08-24T07:54:04Z</time>
      </trkpt>
      <trkpt lat="43.93469" lon="1.61934">
        <ele>206</ele>
        <time>2014-08-24T07:54:09Z</time>
      </trkpt>
      <trkpt lat="43.93442" lon="1.61954">
        <ele>205</ele>
        <time>2014-08-24T07:54:14Z</time>
      </trkpt>
      <trkpt lat="43.93412" lon="1.61978">
        <ele>206</ele>
        <time>2014-08-24T07:54:20Z</time>
      </trkpt>
      <trkpt lat="43.93385" lon="1.62003">
        <ele>204</ele>
        <time>2014-08-24T07:54:26Z</time>
      </trkpt>
      <trkpt lat="43.93371" lon="1.62016">
        <ele>203</ele>
        <time>2014-08-24T07:54:29Z</time>
      </trkpt>
      <trkpt lat="43.93349" lon="1.62037">
        <ele>203</ele>
        <time>2014-08-24T07:54:34Z</time>
      </trkpt>
      <trkpt lat="43.93324" lon="1.62061">
        <ele>203</ele>
        <time>2014-08-24T07:54:40Z</time>
      </trkpt>
      <trkpt lat="43.93301" lon="1.62084">
        <ele>202</ele>
        <time>2014-08-24T07:54:45Z</time>
      </trkpt>
      <trkpt lat="43.93275" lon="1.62105">
        <ele>201</ele>
        <time>2014-08-24T07:54:50Z</time>
      </trkpt>
      <trkpt lat="43.93246" lon="1.62129">
        <ele>200</ele>
        <time>2014-08-24T07:54:55Z</time>
      </trkpt>
      <trkpt lat="43.93223" lon="1.62147">
        <ele>198</ele>
        <time>2014-08-24T07:54:59Z</time>
      </trkpt>
      <trkpt lat="43.93193" lon="1.6217">
        <ele>196</ele>
        <time>2014-08-24T07:55:04Z</time>
      </trkpt>
      <trkpt lat="43.93161" lon="1.62191">
        <ele>193</ele>
        <time>2014-08-24T07:55:09Z</time>
      </trkpt>
      <trkpt lat="43.93122" lon="1.62205">
        <ele>188</ele>
        <time>2014-08-24T07:55:14Z</time>
      </trkpt>
      <trkpt lat="43.93084" lon="1.62216">
        <ele>184</ele>
        <time>2014-08-24T07:55:19Z</time>
      </trkpt>
      <trkpt lat="43.93026" lon="1.62252">
        <ele>179</ele>
        <time>2014-08-24T07:55:26Z</time>
      </trkpt>
      <trkpt lat="43.92969" lon="1.62296">
        <ele>172</ele>
        <time>2014-08-24T07:55:33Z</time>
      </trkpt>
      <trkpt lat="43.9296" lon="1.62302">
        <ele>171</ele>
        <time>2014-08-24T07:55:34Z</time>
      </trkpt>
      <trkpt lat="43.92914" lon="1.62318">
        <ele>166</ele>
        <time>2014-08-24T07:55:40Z</time>
      </trkpt>
      <trkpt lat="43.92882" lon="1.6232">
        <ele>162</ele>
        <time>2014-08-24T07:55:44Z</time>
      </trkpt>
      <trkpt lat="43.92837" lon="1.6235">
        <ele>160</ele>
        <time>2014-08-24T07:55:50Z</time>
      </trkpt>
      <trkpt lat="43.92811" lon="1.62363">
        <ele>159</ele>
        <time>2014-08-24T07:55:54Z</time>
      </trkpt>
      <trkpt lat="43.9275" lon="1.62359">
        <ele>159</ele>
        <time>2014-08-24T07:56:02Z</time>
      </trkpt>
      <trkpt lat="43.92738" lon="1.62353">
        <ele>159</ele>
        <time>2014-08-24T07:56:04Z</time>
      </trkpt>
      <trkpt lat="43.92704" lon="1.62358">
        <ele>160</ele>
        <time>2014-08-24T07:56:13Z</time>
      </trkpt>
      <trkpt lat="43.92691" lon="1.62361">
        <ele>160</ele>
        <time>2014-08-24T07:56:16Z</time>
      </trkpt>
      <trkpt lat="43.92675" lon="1.62362">
        <ele>160</ele>
        <time>2014-08-24T07:56:21Z</time>
      </trkpt>
      <trkpt lat="43.92648" lon="1.62366">
        <ele>161</ele>
        <time>2014-08-24T07:56:27Z</time>
      </trkpt>
      <trkpt lat="43.92638" lon="1.62366">
        <ele>161</ele>
        <time>2014-08-24T07:56:29Z</time>
      </trkpt>
      <trkpt lat="43.92602" lon="1.62372">
        <ele>160</ele>
        <time>2014-08-24T07:56:38Z</time>
      </trkpt>
      <trkpt lat="43.92599" lon="1.62373">
        <ele>160</ele>
        <time>2014-08-24T07:56:39Z</time>
      </trkpt>
      <trkpt lat="43.92569" lon="1.62372">
        <ele>160</ele>
        <time>2014-08-24T07:56:47Z</time>
      </trkpt>
      <trkpt lat="43.92561" lon="1.62371">
        <ele>161</ele>
        <time>2014-08-24T07:56:49Z</time>
      </trkpt>
      <trkpt lat="43.92547" lon="1.62356">
        <ele>161</ele>
        <time>2014-08-24T07:56:54Z</time>
      </trkpt>
      <trkpt lat="43.92541" lon="1.62334">
        <ele>161</ele>
        <time>2014-08-24T07:56:59Z</time>
      </trkpt>
      <trkpt lat="43.92533" lon="1.62316">
        <ele>162</ele>
        <time>2014-08-24T07:57:04Z</time>
      </trkpt>
      <trkpt lat="43.92522" lon="1.623">
        <ele>161</ele>
        <time>2014-08-24T07:57:09Z</time>
      </trkpt>
      <trkpt lat="43.92499" lon="1.62273">
        <ele>160</ele>
        <time>2014-08-24T07:57:16Z</time>
      </trkpt>
      <trkpt lat="43.92484" lon="1.6226">
        <ele>160</ele>
        <time>2014-08-24T07:57:20Z</time>
      </trkpt>
      <trkpt lat="43.92471" lon="1.62253">
        <ele>159</ele>
        <time>2014-08-24T07:57:24Z</time>
      </trkpt>
      <trkpt lat="43.92443" lon="1.62251">
        <ele>157</ele>
        <time>2014-08-24T07:57:29Z</time>
      </trkpt>
      <trkpt lat="43.92414" lon="1.62241">
        <ele>155</ele>
        <time>2014-08-24T07:57:34Z</time>
      </trkpt>
      <trkpt lat="43.92373" lon="1.62228">
        <ele>153</ele>
        <time>2014-08-24T07:57:41Z</time>
      </trkpt>
      <trkpt lat="43.92355" lon="1.62223">
        <ele>152</ele>
        <time>2014-08-24T07:57:44Z</time>
      </trkpt>
      <trkpt lat="43.92325" lon="1.62212">
        <ele>151</ele>
        <time>2014-08-24T07:57:49Z</time>
      </trkpt>
      <trkpt lat="43.92296" lon="1.62194">
        <ele>149</ele>
        <time>2014-08-24T07:57:54Z</time>
      </trkpt>
      <trkpt lat="43.92266" lon="1.6217">
        <ele>148</ele>
        <time>2014-08-24T07:57:59Z</time>
      </trkpt>
      <trkpt lat="43.9224" lon="1.62148">
        <ele>146</ele>
        <time>2014-08-24T07:58:03Z</time>
      </trkpt>
      <trkpt lat="43.922" lon="1.62114">
        <ele>144</ele>
        <time>2014-08-24T07:58:09Z</time>
      </trkpt>
      <trkpt lat="43.92172" lon="1.6209">
        <ele>142</ele>
        <time>2014-08-24T07:58:13Z</time>
      </trkpt>
      <trkpt lat="43.92137" lon="1.62062">
        <ele>141</ele>
        <time>2014-08-24T07:58:18Z</time>
      </trkpt>
      <trkpt lat="43.921" lon="1.62036">
        <ele>140</ele>
        <time>2014-08-24T07:58:23Z</time>
      </trkpt>
      <trkpt lat="43.92061" lon="1.62015">
        <ele>139</ele>
        <time>2014-08-24T07:58:28Z</time>
      </trkpt>
      <trkpt lat="43.9202" lon="1.62004">
        <ele>139</ele>
        <time>2014-08-24T07:58:33Z</time>
      </trkpt>
      <trkpt lat="43.91979" lon="1.62004">
        <ele>139</ele>
        <time>2014-08-24T07:58:38Z</time>
      </trkpt>
      <trkpt lat="43.91945" lon="1.62">
        <ele>138</ele>
        <time>2014-08-24T07:58:43Z</time>
      </trkpt>
      <trkpt lat="43.91913" lon="1.6198">
        <ele>137</ele>
        <time>2014-08-24T07:58:49Z</time>
      </trkpt>
      <trkpt lat="43.91894" lon="1.61958">
        <ele>137</ele>
        <time>2014-08-24T07:58:53Z</time>
      </trkpt>
      <trkpt lat="43.91845" lon="1.61937">
        <ele>137</ele>
        <time>2014-08-24T07:59:02Z</time>
      </trkpt>
      <trkpt lat="43.91839" lon="1.61937">
        <ele>137</ele>
        <time>2014-08-24T07:59:03Z</time>
      </trkpt>
      <trkpt lat="43.91817" lon="1.61931">
        <ele>137</ele>
        <time>2014-08-24T07:59:08Z</time>
      </trkpt>
      <trkpt lat="43.91816" lon="1.6193">
        <ele>137</ele>
        <time>2014-08-24T07:59:13Z</time>
      </trkpt>
      <trkpt lat="43.91816" lon="1.61931">
        <ele>137</ele>
        <time>2014-08-24T07:59:18Z</time>
      </trkpt>
      <trkpt lat="43.91816" lon="1.61931">
        <ele>137</ele>
        <time>2014-08-24T07:59:23Z</time>
      </trkpt>
      <trkpt lat="43.91816" lon="1.61931">
        <ele>137</ele>
        <time>2014-08-24T07:59:30Z</time>
      </trkpt>
      <trkpt lat="43.91816" lon="1.6193">
        <ele>137</ele>
        <time>2014-08-24T07:59:33Z</time>
      </trkpt>
      <trkpt lat="43.91819" lon="1.61913">
        <ele>137</ele>
        <time>2014-08-24T07:59:42Z</time>
      </trkpt>
      <trkpt lat="43.9182" lon="1.61908">
        <ele>137</ele>
        <time>2014-08-24T07:59:43Z</time>
      </trkpt>
      <trkpt lat="43.91822" lon="1.61876">
        <ele>137</ele>
        <time>2014-08-24T07:59:48Z</time>
      </trkpt>
      <trkpt lat="43.91822" lon="1.6184">
        <ele>136</ele>
        <time>2014-08-24T07:59:53Z</time>
      </trkpt>
      <trkpt lat="43.91822" lon="1.61806">
        <ele>136</ele>
        <time>2014-08-24T07:59:58Z</time>
      </trkpt>
      <trkpt lat="43.91814" lon="1.61752">
        <ele>136</ele>
        <time>2014-08-24T08:00:06Z</time>
      </trkpt>
      <trkpt lat="43.91809" lon="1.61715">
        <ele>137</ele>
        <time>2014-08-24T08:00:11Z</time>
      </trkpt>
      <trkpt lat="43.91805" lon="1.61693">
        <ele>138</ele>
        <time>2014-08-24T08:00:14Z</time>
      </trkpt>
      <trkpt lat="43.91802" lon="1.6166">
        <ele>138</ele>
        <time>2014-08-24T08:00:18Z</time>
      </trkpt>
      <trkpt lat="43.91797" lon="1.61621">
        <ele>138</ele>
        <time>2014-08-24T08:00:23Z</time>
      </trkpt>
      <trkpt lat="43.91792" lon="1.61581">
        <ele>138</ele>
        <time>2014-08-24T08:00:28Z</time>
      </trkpt>
      <trkpt lat="43.91787" lon="1.61542">
        <ele>138</ele>
        <time>2014-08-24T08:00:33Z</time>
      </trkpt>
      <trkpt lat="43.91768" lon="1.61477">
        <ele>137</ele>
        <time>2014-08-24T08:00:42Z</time>
      </trkpt>
      <trkpt lat="43.91765" lon="1.61471">
        <ele>137</ele>
        <time>2014-08-24T08:00:43Z</time>
      </trkpt>
      <trkpt lat="43.91756" lon="1.61435">
        <ele>137</ele>
        <time>2014-08-24T08:00:48Z</time>
      </trkpt>
      <trkpt lat="43.91754" lon="1.61396">
        <ele>138</ele>
        <time>2014-08-24T08:00:53Z</time>
      </trkpt>
      <trkpt lat="43.91759" lon="1.61358">
        <ele>137</ele>
        <time>2014-08-24T08:00:58Z</time>
      </trkpt>
      <trkpt lat="43.91764" lon="1.61317">
        <ele>137</ele>
        <time>2014-08-24T08:01:03Z</time>
      </trkpt>
      <trkpt lat="43.91766" lon="1.61276">
        <ele>137</ele>
        <time>2014-08-24T08:01:08Z</time>
      </trkpt>
      <trkpt lat="43.91767" lon="1.61234">
        <ele>137</ele>
        <time>2014-08-24T08:01:13Z</time>
      </trkpt>
      <trkpt lat="43.91766" lon="1.61192">
        <ele>137</ele>
        <time>2014-08-24T08:01:18Z</time>
      </trkpt>
      <trkpt lat="43.91761" lon="1.61151">
        <ele>137</ele>
        <time>2014-08-24T08:01:23Z</time>
      </trkpt>
      <trkpt lat="43.91753" lon="1.6111">
        <ele>137</ele>
        <time>2014-08-24T08:01:28Z</time>
      </trkpt>
      <trkpt lat="43.9174" lon="1.61074">
        <ele>137</ele>
        <time>2014-08-24T08:01:33Z</time>
      </trkpt>
      <trkpt lat="43.91725" lon="1.61039">
        <ele>136</ele>
        <time>2014-08-24T08:01:38Z</time>
      </trkpt>
      <trkpt lat="43.91719" lon="1.60984">
        <ele>136</ele>
        <time>2014-08-24T08:01:45Z</time>
      </trkpt>
      <trkpt lat="43.91722" lon="1.60951">
        <ele>136</ele>
        <time>2014-08-24T08:01:49Z</time>
      </trkpt>
      <trkpt lat="43.91723" lon="1.60917">
        <ele>136</ele>
        <time>2014-08-24T08:01:53Z</time>
      </trkpt>
      <trkpt lat="43.91719" lon="1.60876">
        <ele>136</ele>
        <time>2014-08-24T08:01:58Z</time>
      </trkpt>
      <trkpt lat="43.91707" lon="1.60838">
        <ele>136</ele>
        <time>2014-08-24T08:02:03Z</time>
      </trkpt>
      <trkpt lat="43.91692" lon="1.60794">
        <ele>136</ele>
        <time>2014-08-24T08:02:09Z</time>
      </trkpt>
      <trkpt lat="43.91683" lon="1.60769">
        <ele>135</ele>
        <time>2014-08-24T08:02:13Z</time>
      </trkpt>
      <trkpt lat="43.91665" lon="1.60768">
        <ele>137</ele>
        <time>2014-08-24T08:02:20Z</time>
      </trkpt>
      <trkpt lat="43.91655" lon="1.60776">
        <ele>139</ele>
        <time>2014-08-24T08:02:23Z</time>
      </trkpt>
      <trkpt lat="43.91643" lon="1.60791">
        <ele>142</ele>
        <time>2014-08-24T08:02:28Z</time>
      </trkpt>
      <trkpt lat="43.91628" lon="1.6081">
        <ele>144</ele>
        <time>2014-08-24T08:02:34Z</time>
      </trkpt>
      <trkpt lat="43.91618" lon="1.60823">
        <ele>146</ele>
        <time>2014-08-24T08:02:38Z</time>
      </trkpt>
      <trkpt lat="43.91608" lon="1.60835">
        <ele>148</ele>
        <time>2014-08-24T08:02:42Z</time>
      </trkpt>
      <trkpt lat="43.91594" lon="1.60845">
        <ele>150</ele>
        <time>2014-08-24T08:02:48Z</time>
      </trkpt>
      <trkpt lat="43.91583" lon="1.60845">
        <ele>152</ele>
        <time>2014-08-24T08:02:52Z</time>
      </trkpt>
      <trkpt lat="43.91575" lon="1.60847">
        <ele>153</ele>
        <time>2014-08-24T08:02:57Z</time>
      </trkpt>
      <trkpt lat="43.91569" lon="1.60857">
        <ele>154</ele>
        <time>2014-08-24T08:03:04Z</time>
      </trkpt>
      <trkpt lat="43.91567" lon="1.60861">
        <ele>154</ele>
        <time>2014-08-24T08:03:07Z</time>
      </trkpt>
      <trkpt lat="43.91559" lon="1.60867">
        <ele>154</ele>
        <time>2014-08-24T08:03:12Z</time>
      </trkpt>
      <trkpt lat="43.9155" lon="1.6087">
        <ele>155</ele>
        <time>2014-08-24T08:03:17Z</time>
      </trkpt>
      <trkpt lat="43.91541" lon="1.60873">
        <ele>156</ele>
        <time>2014-08-24T08:03:22Z</time>
      </trkpt>
      <trkpt lat="43.91532" lon="1.60878">
        <ele>157</ele>
        <time>2014-08-24T08:03:27Z</time>
      </trkpt>
      <trkpt lat="43.91523" lon="1.60882">
        <ele>157</ele>
        <time>2014-08-24T08:03:33Z</time>
      </trkpt>
      <trkpt lat="43.91517" lon="1.60885">
        <ele>158</ele>
        <time>2014-08-24T08:03:37Z</time>
      </trkpt>
      <trkpt lat="43.91512" lon="1.60887">
        <ele>158</ele>
        <time>2014-08-24T08:03:42Z</time>
      </trkpt>
      <trkpt lat="43.91506" lon="1.6089">
        <ele>159</ele>
        <time>2014-08-24T08:03:47Z</time>
      </trkpt>
      <trkpt lat="43.91499" lon="1.60892">
        <ele>159</ele>
        <time>2014-08-24T08:03:52Z</time>
      </trkpt>
      <trkpt lat="43.9149" lon="1.60896">
        <ele>160</ele>
        <time>2014-08-24T08:03:57Z</time>
      </trkpt>
      <trkpt lat="43.91479" lon="1.60906">
        <ele>161</ele>
        <time>2014-08-24T08:04:04Z</time>
      </trkpt>
      <trkpt lat="43.91475" lon="1.60911">
        <ele>161</ele>
        <time>2014-08-24T08:04:07Z</time>
      </trkpt>
      <trkpt lat="43.91469" lon="1.60916">
        <ele>162</ele>
        <time>2014-08-24T08:04:11Z</time>
      </trkpt>
      <trkpt lat="43.91459" lon="1.60923">
        <ele>163</ele>
        <time>2014-08-24T08:04:18Z</time>
      </trkpt>
      <trkpt lat="43.91456" lon="1.60926">
        <ele>163</ele>
        <time>2014-08-24T08:04:20Z</time>
      </trkpt>
      <trkpt lat="43.91451" lon="1.6093">
        <ele>164</ele>
        <time>2014-08-24T08:04:24Z</time>
      </trkpt>
      <trkpt lat="43.91443" lon="1.60935">
        <ele>164</ele>
        <time>2014-08-24T08:04:29Z</time>
      </trkpt>
      <trkpt lat="43.91438" lon="1.60939">
        <ele>165</ele>
        <time>2014-08-24T08:04:34Z</time>
      </trkpt>
      <trkpt lat="43.91434" lon="1.60943">
        <ele>165</ele>
        <time>2014-08-24T08:04:39Z</time>
      </trkpt>
      <trkpt lat="43.91428" lon="1.60948">
        <ele>166</ele>
        <time>2014-08-24T08:04:44Z</time>
      </trkpt>
      <trkpt lat="43.91418" lon="1.60955">
        <ele>167</ele>
        <time>2014-08-24T08:04:49Z</time>
      </trkpt>
      <trkpt lat="43.91408" lon="1.6096">
        <ele>168</ele>
        <time>2014-08-24T08:04:54Z</time>
      </trkpt>
      <trkpt lat="43.914" lon="1.60965">
        <ele>169</ele>
        <time>2014-08-24T08:04:59Z</time>
      </trkpt>
      <trkpt lat="43.91385" lon="1.6097">
        <ele>170</ele>
        <time>2014-08-24T08:05:07Z</time>
      </trkpt>
      <trkpt lat="43.9138" lon="1.60972">
        <ele>170</ele>
        <time>2014-08-24T08:05:10Z</time>
      </trkpt>
      <trkpt lat="43.91371" lon="1.60974">
        <ele>171</ele>
        <time>2014-08-24T08:05:15Z</time>
      </trkpt>
      <trkpt lat="43.91363" lon="1.60977">
        <ele>170</ele>
        <time>2014-08-24T08:05:19Z</time>
      </trkpt>
      <trkpt lat="43.91351" lon="1.60982">
        <ele>170</ele>
        <time>2014-08-24T08:05:25Z</time>
      </trkpt>
      <trkpt lat="43.91342" lon="1.60984">
        <ele>171</ele>
        <time>2014-08-24T08:05:29Z</time>
      </trkpt>
      <trkpt lat="43.9133" lon="1.60988">
        <ele>171</ele>
        <time>2014-08-24T08:05:34Z</time>
      </trkpt>
      <trkpt lat="43.91303" lon="1.60995">
        <ele>170</ele>
        <time>2014-08-24T08:05:43Z</time>
      </trkpt>
      <trkpt lat="43.91291" lon="1.60997">
        <ele>170</ele>
        <time>2014-08-24T08:05:46Z</time>
      </trkpt>
      <trkpt lat="43.91277" lon="1.61001">
        <ele>170</ele>
        <time>2014-08-24T08:05:49Z</time>
      </trkpt>
      <trkpt lat="43.91255" lon="1.61006">
        <ele>170</ele>
        <time>2014-08-24T08:05:54Z</time>
      </trkpt>
      <trkpt lat="43.91233" lon="1.61011">
        <ele>170</ele>
        <time>2014-08-24T08:05:59Z</time>
      </trkpt>
      <trkpt lat="43.91212" lon="1.61016">
        <ele>171</ele>
        <time>2014-08-24T08:06:04Z</time>
      </trkpt>
      <trkpt lat="43.91192" lon="1.61021">
        <ele>174</ele>
        <time>2014-08-24T08:06:09Z</time>
      </trkpt>
      <trkpt lat="43.91173" lon="1.61025">
        <ele>176</ele>
        <time>2014-08-24T08:06:14Z</time>
      </trkpt>
      <trkpt lat="43.91157" lon="1.61028">
        <ele>178</ele>
        <time>2014-08-24T08:06:19Z</time>
      </trkpt>
      <trkpt lat="43.91139" lon="1.61032">
        <ele>181</ele>
        <time>2014-08-24T08:06:25Z</time>
      </trkpt>
      <trkpt lat="43.91126" lon="1.61037">
        <ele>183</ele>
        <time>2014-08-24T08:06:29Z</time>
      </trkpt>
      <trkpt lat="43.91114" lon="1.6104">
        <ele>185</ele>
        <time>2014-08-24T08:06:34Z</time>
      </trkpt>
      <trkpt lat="43.91103" lon="1.61039">
        <ele>186</ele>
        <time>2014-08-24T08:06:39Z</time>
      </trkpt>
      <trkpt lat="43.9109" lon="1.61037">
        <ele>189</ele>
        <time>2014-08-24T08:06:44Z</time>
      </trkpt>
      <trkpt lat="43.91071" lon="1.61036">
        <ele>191</ele>
        <time>2014-08-24T08:06:50Z</time>
      </trkpt>
      <trkpt lat="43.91059" lon="1.61036">
        <ele>192</ele>
        <time>2014-08-24T08:06:54Z</time>
      </trkpt>
      <trkpt lat="43.91048" lon="1.61039">
        <ele>193</ele>
        <time>2014-08-24T08:06:59Z</time>
      </trkpt>
      <trkpt lat="43.91038" lon="1.61042">
        <ele>193</ele>
        <time>2014-08-24T08:07:04Z</time>
      </trkpt>
      <trkpt lat="43.91021" lon="1.61044">
        <ele>194</ele>
        <time>2014-08-24T08:07:09Z</time>
      </trkpt>
      <trkpt lat="43.91004" lon="1.61051">
        <ele>194</ele>
        <time>2014-08-24T08:07:14Z</time>
      </trkpt>
      <trkpt lat="43.90991" lon="1.61059">
        <ele>194</ele>
        <time>2014-08-24T08:07:19Z</time>
      </trkpt>
      <trkpt lat="43.90979" lon="1.61066">
        <ele>193</ele>
        <time>2014-08-24T08:07:24Z</time>
      </trkpt>
      <trkpt lat="43.90968" lon="1.61071">
        <ele>194</ele>
        <time>2014-08-24T08:07:29Z</time>
      </trkpt>
      <trkpt lat="43.90958" lon="1.61075">
        <ele>195</ele>
        <time>2014-08-24T08:07:34Z</time>
      </trkpt>
      <trkpt lat="43.90945" lon="1.61078">
        <ele>196</ele>
        <time>2014-08-24T08:07:40Z</time>
      </trkpt>
      <trkpt lat="43.90937" lon="1.6108">
        <ele>197</ele>
        <time>2014-08-24T08:07:44Z</time>
      </trkpt>
      <trkpt lat="43.90925" lon="1.61083">
        <ele>199</ele>
        <time>2014-08-24T08:07:49Z</time>
      </trkpt>
      <trkpt lat="43.90912" lon="1.61084">
        <ele>200</ele>
        <time>2014-08-24T08:07:54Z</time>
      </trkpt>
      <trkpt lat="43.909" lon="1.61088">
        <ele>201</ele>
        <time>2014-08-24T08:07:59Z</time>
      </trkpt>
      <trkpt lat="43.90888" lon="1.61094">
        <ele>202</ele>
        <time>2014-08-24T08:08:04Z</time>
      </trkpt>
      <trkpt lat="43.90878" lon="1.61099">
        <ele>203</ele>
        <time>2014-08-24T08:08:09Z</time>
      </trkpt>
      <trkpt lat="43.90868" lon="1.61108">
        <ele>203</ele>
        <time>2014-08-24T08:08:14Z</time>
      </trkpt>
      <trkpt lat="43.90848" lon="1.61136">
        <ele>201</ele>
        <time>2014-08-24T08:08:19Z</time>
      </trkpt>
      <trkpt lat="43.90834" lon="1.61152">
        <ele>200</ele>
        <time>2014-08-24T08:08:25Z</time>
      </trkpt>
      <trkpt lat="43.90822" lon="1.6116">
        <ele>200</ele>
        <time>2014-08-24T08:08:30Z</time>
      </trkpt>
      <trkpt lat="43.90812" lon="1.61163">
        <ele>201</ele>
        <time>2014-08-24T08:08:34Z</time>
      </trkpt>
      <trkpt lat="43.908" lon="1.61168">
        <ele>201</ele>
        <time>2014-08-24T08:08:40Z</time>
      </trkpt>
      <trkpt lat="43.90794" lon="1.61169">
        <ele>202</ele>
        <time>2014-08-24T08:08:43Z</time>
      </trkpt>
      <trkpt lat="43.90783" lon="1.6117">
        <ele>203</ele>
        <time>2014-08-24T08:08:48Z</time>
      </trkpt>
      <trkpt lat="43.90772" lon="1.6117">
        <ele>204</ele>
        <time>2014-08-24T08:08:53Z</time>
      </trkpt>
      <trkpt lat="43.90759" lon="1.61171">
        <ele>205</ele>
        <time>2014-08-24T08:09:00Z</time>
      </trkpt>
      <trkpt lat="43.90754" lon="1.61173">
        <ele>205</ele>
        <time>2014-08-24T08:09:03Z</time>
      </trkpt>
      <trkpt lat="43.9074" lon="1.61176">
        <ele>206</ele>
        <time>2014-08-24T08:09:11Z</time>
      </trkpt>
      <trkpt lat="43.90737" lon="1.61177">
        <ele>206</ele>
        <time>2014-08-24T08:09:13Z</time>
      </trkpt>
      <trkpt lat="43.90729" lon="1.61179">
        <ele>207</ele>
        <time>2014-08-24T08:09:18Z</time>
      </trkpt>
      <trkpt lat="43.90721" lon="1.61181">
        <ele>206</ele>
        <time>2014-08-24T08:09:23Z</time>
      </trkpt>
      <trkpt lat="43.90713" lon="1.61183">
        <ele>206</ele>
        <time>2014-08-24T08:09:28Z</time>
      </trkpt>
      <trkpt lat="43.90707" lon="1.61185">
        <ele>205</ele>
        <time>2014-08-24T08:09:33Z</time>
      </trkpt>
      <trkpt lat="43.90701" lon="1.61188">
        <ele>205</ele>
        <time>2014-08-24T08:09:38Z</time>
      </trkpt>
      <trkpt lat="43.90691" lon="1.61193">
        <ele>204</ele>
        <time>2014-08-24T08:09:45Z</time>
      </trkpt>
      <trkpt lat="43.90687" lon="1.61192">
        <ele>204</ele>
        <time>2014-08-24T08:09:48Z</time>
      </trkpt>
      <trkpt lat="43.90685" lon="1.61175">
        <ele>205</ele>
        <time>2014-08-24T08:09:56Z</time>
      </trkpt>
      <trkpt lat="43.90685" lon="1.6117">
        <ele>205</ele>
        <time>2014-08-24T08:09:58Z</time>
      </trkpt>
      <trkpt lat="43.90684" lon="1.61158">
        <ele>206</ele>
        <time>2014-08-24T08:10:03Z</time>
      </trkpt>
      <trkpt lat="43.90685" lon="1.61143">
        <ele>207</ele>
        <time>2014-08-24T08:10:09Z</time>
      </trkpt>
      <trkpt lat="43.90685" lon="1.61134">
        <ele>207</ele>
        <time>2014-08-24T08:10:13Z</time>
      </trkpt>
      <trkpt lat="43.90685" lon="1.61122">
        <ele>208</ele>
        <time>2014-08-24T08:10:18Z</time>
      </trkpt>
      <trkpt lat="43.90684" lon="1.6111">
        <ele>209</ele>
        <time>2014-08-24T08:10:23Z</time>
      </trkpt>
      <trkpt lat="43.90684" lon="1.61097">
        <ele>210</ele>
        <time>2014-08-24T08:10:28Z</time>
      </trkpt>
      <trkpt lat="43.90684" lon="1.61085">
        <ele>210</ele>
        <time>2014-08-24T08:10:33Z</time>
      </trkpt>
      <trkpt lat="43.90682" lon="1.61072">
        <ele>210</ele>
        <time>2014-08-24T08:10:38Z</time>
      </trkpt>
      <trkpt lat="43.9068" lon="1.6106">
        <ele>210</ele>
        <time>2014-08-24T08:10:43Z</time>
      </trkpt>
      <trkpt lat="43.90676" lon="1.61043">
        <ele>209</ele>
        <time>2014-08-24T08:10:50Z</time>
      </trkpt>
      <trkpt lat="43.90675" lon="1.61035">
        <ele>209</ele>
        <time>2014-08-24T08:10:53Z</time>
      </trkpt>
      <trkpt lat="43.90675" lon="1.61018">
        <ele>209</ele>
        <time>2014-08-24T08:10:58Z</time>
      </trkpt>
      <trkpt lat="43.90676" lon="1.61">
        <ele>209</ele>
        <time>2014-08-24T08:11:03Z</time>
      </trkpt>
      <trkpt lat="43.90679" lon="1.60983">
        <ele>211</ele>
        <time>2014-08-24T08:11:08Z</time>
      </trkpt>
      <trkpt lat="43.90684" lon="1.60967">
        <ele>212</ele>
        <time>2014-08-24T08:11:13Z</time>
      </trkpt>
      <trkpt lat="43.90689" lon="1.60951">
        <ele>213</ele>
        <time>2014-08-24T08:11:18Z</time>
      </trkpt>
      <trkpt lat="43.90693" lon="1.60936">
        <ele>214</ele>
        <time>2014-08-24T08:11:23Z</time>
      </trkpt>
      <trkpt lat="43.90694" lon="1.60919">
        <ele>215</ele>
        <time>2014-08-24T08:11:28Z</time>
      </trkpt>
      <trkpt lat="43.90695" lon="1.60904">
        <ele>215</ele>
        <time>2014-08-24T08:11:33Z</time>
      </trkpt>
      <trkpt lat="43.90693" lon="1.60888">
        <ele>215</ele>
        <time>2014-08-24T08:11:38Z</time>
      </trkpt>
      <trkpt lat="43.9069" lon="1.60874">
        <ele>215</ele>
        <time>2014-08-24T08:11:43Z</time>
      </trkpt>
      <trkpt lat="43.90688" lon="1.60859">
        <ele>215</ele>
        <time>2014-08-24T08:11:48Z</time>
      </trkpt>
      <trkpt lat="43.90692" lon="1.60846">
        <ele>215</ele>
        <time>2014-08-24T08:11:57Z</time>
      </trkpt>
      <trkpt lat="43.907" lon="1.60858">
        <ele>215</ele>
        <time>2014-08-24T08:12:02Z</time>
      </trkpt>
      <trkpt lat="43.90702" lon="1.6086">
        <ele>215</ele>
        <time>2014-08-24T08:12:03Z</time>
      </trkpt>
      <trkpt lat="43.90715" lon="1.60874">
        <ele>216</ele>
        <time>2014-08-24T08:12:12Z</time>
      </trkpt>
      <trkpt lat="43.90716" lon="1.60874">
        <ele>216</ele>
        <time>2014-08-24T08:12:13Z</time>
      </trkpt>
      <trkpt lat="43.90716" lon="1.60872">
        <ele>216</ele>
        <time>2014-08-24T08:12:18Z</time>
      </trkpt>
      <trkpt lat="43.90716" lon="1.60872">
        <ele>216</ele>
        <time>2014-08-24T08:12:23Z</time>
      </trkpt>
      <trkpt lat="43.90716" lon="1.60872">
        <ele>216</ele>
        <time>2014-08-24T08:12:28Z</time>
      </trkpt>
      <trkpt lat="43.90716" lon="1.60872">
        <ele>216</ele>
        <time>2014-08-24T08:12:33Z</time>
      </trkpt>
      <trkpt lat="43.90715" lon="1.60873">
        <ele>216</ele>
        <time>2014-08-24T08:12:38Z</time>
      </trkpt>
      <trkpt lat="43.90716" lon="1.60873">
        <ele>216</ele>
        <time>2014-08-24T08:12:43Z</time>
      </trkpt>
      <trkpt lat="43.90716" lon="1.60873">
        <ele>216</ele>
        <time>2014-08-24T08:12:48Z</time>
      </trkpt>
      <trkpt lat="43.90715" lon="1.60873">
        <ele>216</ele>
        <time>2014-08-24T08:12:53Z</time>
      </trkpt>
      <trkpt lat="43.90716" lon="1.60873">
        <ele>216</ele>
        <time>2014-08-24T08:12:57Z</time>
      </trkpt>
      <trkpt lat="43.90716" lon="1.60873">
        <ele>216</ele>
        <time>2014-08-24T08:13:02Z</time>
      </trkpt>
      <trkpt lat="43.90716" lon="1.60872">
        <ele>216</ele>
        <time>2014-08-24T08:13:07Z</time>
      </trkpt>
      <trkpt lat="43.90716" lon="1.60872">
        <ele>216</ele>
        <time>2014-08-24T08:13:12Z</time>
      </trkpt>
      <trkpt lat="43.90716" lon="1.60872">
        <ele>216</ele>
        <time>2014-08-24T08:13:17Z</time>
      </trkpt>
      <trkpt lat="43.90716" lon="1.60872">
        <ele>216</ele>
        <time>2014-08-24T08:13:22Z</time>
      </trkpt>
      <trkpt lat="43.90716" lon="1.60872">
        <ele>216</ele>
        <time>2014-08-24T08:13:29Z</time>
      </trkpt>
      <trkpt lat="43.90716" lon="1.60872">
        <ele>216</ele>
        <time>2014-08-24T08:13:32Z</time>
      </trkpt>
      <trkpt lat="43.90716" lon="1.60872">
        <ele>216</ele>
        <time>2014-08-24T08:13:37Z</time>
      </trkpt>
      <trkpt lat="43.90716" lon="1.60872">
        <ele>216</ele>
        <time>2014-08-24T08:13:42Z</time>
      </trkpt>
      <trkpt lat="43.90716" lon="1.60872">
        <ele>216</ele>
        <time>2014-08-24T08:13:47Z</time>
      </trkpt>
      <trkpt lat="43.90716" lon="1.60872">
        <ele>216</ele>
        <time>2014-08-24T08:13:52Z</time>
      </trkpt>
      <trkpt lat="43.90716" lon="1.60872">
        <ele>216</ele>
        <time>2014-08-24T08:13:56Z</time>
      </trkpt>
      <trkpt lat="43.90716" lon="1.60872">
        <ele>216</ele>
        <time>2014-08-24T08:14:01Z</time>
      </trkpt>
      <trkpt lat="43.90716" lon="1.60872">
        <ele>216</ele>
        <time>2014-08-24T08:14:06Z</time>
      </trkpt>
      <trkpt lat="43.90716" lon="1.60872">
        <ele>216</ele>
        <time>2014-08-24T08:14:11Z</time>
      </trkpt>
      <trkpt lat="43.90716" lon="1.60872">
        <ele>216</ele>
        <time>2014-08-24T08:14:20Z</time>
      </trkpt>
      <trkpt lat="43.90716" lon="1.60872">
        <ele>216</ele>
        <time>2014-08-24T08:14:22Z</time>
      </trkpt>
      <trkpt lat="43.90716" lon="1.60872">
        <ele>216</ele>
        <time>2014-08-24T08:14:26Z</time>
      </trkpt>
      <trkpt lat="43.90716" lon="1.60872">
        <ele>216</ele>
        <time>2014-08-24T08:14:31Z</time>
      </trkpt>
      <trkpt lat="43.90716" lon="1.60872">
        <ele>216</ele>
        <time>2014-08-24T08:14:40Z</time>
      </trkpt>
      <trkpt lat="43.90716" lon="1.60872">
        <ele>216</ele>
        <time>2014-08-24T08:14:41Z</time>
      </trkpt>
      <trkpt lat="43.90716" lon="1.60872">
        <ele>216</ele>
        <time>2014-08-24T08:14:46Z</time>
      </trkpt>
      <trkpt lat="43.90716" lon="1.60872">
        <ele>216</ele>
        <time>2014-08-24T08:14:51Z</time>
      </trkpt>
      <trkpt lat="43.90716" lon="1.60872">
        <ele>216</ele>
        <time>2014-08-24T08:14:56Z</time>
      </trkpt>
      <trkpt lat="43.90716" lon="1.60872">
        <ele>216</ele>
        <time>2014-08-24T08:15:02Z</time>
      </trkpt>
      <trkpt lat="43.90716" lon="1.60872">
        <ele>216</ele>
        <time>2014-08-24T08:15:06Z</time>
      </trkpt>
      <trkpt lat="43.90716" lon="1.60872">
        <ele>216</ele>
        <time>2014-08-24T08:15:11Z</time>
      </trkpt>
      <trkpt lat="43.90716" lon="1.60872">
        <ele>216</ele>
        <time>2014-08-24T08:15:19Z</time>
      </trkpt>
      <trkpt lat="43.90716" lon="1.60872">
        <ele>216</ele>
        <time>2014-08-24T08:15:21Z</time>
      </trkpt>
      <trkpt lat="43.90716" lon="1.60872">
        <ele>216</ele>
        <time>2014-08-24T08:15:26Z</time>
      </trkpt>
      <trkpt lat="43.90716" lon="1.60872">
        <ele>216</ele>
        <time>2014-08-24T08:15:31Z</time>
      </trkpt>
      <trkpt lat="43.90716" lon="1.60872">
        <ele>216</ele>
        <time>2014-08-24T08:15:36Z</time>
      </trkpt>
      <trkpt lat="43.90716" lon="1.60872">
        <ele>216</ele>
        <time>2014-08-24T08:15:45Z</time>
      </trkpt>
      <trkpt lat="43.90716" lon="1.60872">
        <ele>216</ele>
        <time>2014-08-24T08:15:46Z</time>
      </trkpt>
      <trkpt lat="43.90716" lon="1.60872">
        <ele>216</ele>
        <time>2014-08-24T08:15:51Z</time>
      </trkpt>
      <trkpt lat="43.90716" lon="1.60872">
        <ele>216</ele>
        <time>2014-08-24T08:15:57Z</time>
      </trkpt>
      <trkpt lat="43.90716" lon="1.60872">
        <ele>216</ele>
        <time>2014-08-24T08:16:04Z</time>
      </trkpt>
      <trkpt lat="43.90716" lon="1.60872">
        <ele>216</ele>
        <time>2014-08-24T08:16:09Z</time>
      </trkpt>
      <trkpt lat="43.90717" lon="1.60873">
        <ele>216</ele>
        <time>2014-08-24T08:16:15Z</time>
      </trkpt>
      <trkpt lat="43.90717" lon="1.60874">
        <ele>216</ele>
        <time>2014-08-24T08:16:16Z</time>
      </trkpt>
      <trkpt lat="43.90725" lon="1.60884">
        <ele>216</ele>
        <time>2014-08-24T08:16:21Z</time>
      </trkpt>
      <trkpt lat="43.90748" lon="1.60899">
        <ele>213</ele>
        <time>2014-08-24T08:16:27Z</time>
      </trkpt>
      <trkpt lat="43.90772" lon="1.60906">
        <ele>209</ele>
        <time>2014-08-24T08:16:31Z</time>
      </trkpt>
      <trkpt lat="43.9081" lon="1.60919">
        <ele>204</ele>
        <time>2014-08-24T08:16:36Z</time>
      </trkpt>
      <trkpt lat="43.90836" lon="1.60928">
        <ele>203</ele>
        <time>2014-08-24T08:16:41Z</time>
      </trkpt>
      <trkpt lat="43.9086" lon="1.60936">
        <ele>204</ele>
        <time>2014-08-24T08:16:48Z</time>
      </trkpt>
      <trkpt lat="43.90878" lon="1.60935">
        <ele>204</ele>
        <time>2014-08-24T08:16:53Z</time>
      </trkpt>
      <trkpt lat="43.90893" lon="1.60923">
        <ele>204</ele>
        <time>2014-08-24T08:16:57Z</time>
      </trkpt>
      <trkpt lat="43.90927" lon="1.60887">
        <ele>204</ele>
        <time>2014-08-24T08:17:05Z</time>
      </trkpt>
      <trkpt lat="43.90936" lon="1.60876">
        <ele>204</ele>
        <time>2014-08-24T08:17:07Z</time>
      </trkpt>
      <trkpt lat="43.90947" lon="1.60852">
        <ele>204</ele>
        <time>2014-08-24T08:17:11Z</time>
      </trkpt>
      <trkpt lat="43.90961" lon="1.60822">
        <ele>204</ele>
        <time>2014-08-24T08:17:16Z</time>
      </trkpt>
      <trkpt lat="43.90972" lon="1.60793">
        <ele>204</ele>
        <time>2014-08-24T08:17:21Z</time>
      </trkpt>
      <trkpt lat="43.90987" lon="1.60756">
        <ele>202</ele>
        <time>2014-08-24T08:17:27Z</time>
      </trkpt>
      <trkpt lat="43.90995" lon="1.6073">
        <ele>202</ele>
        <time>2014-08-24T08:17:31Z</time>
      </trkpt>
      <trkpt lat="43.91007" lon="1.60696">
        <ele>201</ele>
        <time>2014-08-24T08:17:36Z</time>
      </trkpt>
      <trkpt lat="43.91021" lon="1.60652">
        <ele>202</ele>
        <time>2014-08-24T08:17:42Z</time>
      </trkpt>
      <trkpt lat="43.91034" lon="1.60599">
        <ele>198</ele>
        <time>2014-08-24T08:17:49Z</time>
      </trkpt>
      <trkpt lat="43.91034" lon="1.60581">
        <ele>196</ele>
        <time>2014-08-24T08:17:51Z</time>
      </trkpt>
      <trkpt lat="43.91045" lon="1.60525">
        <ele>190</ele>
        <time>2014-08-24T08:17:56Z</time>
      </trkpt>
      <trkpt lat="43.91071" lon="1.60467">
        <ele>187</ele>
        <time>2014-08-24T08:18:01Z</time>
      </trkpt>
      <trkpt lat="43.91105" lon="1.60413">
        <ele>186</ele>
        <time>2014-08-24T08:18:06Z</time>
      </trkpt>
      <trkpt lat="43.9114" lon="1.60355">
        <ele>184</ele>
        <time>2014-08-24T08:18:12Z</time>
      </trkpt>
      <trkpt lat="43.91164" lon="1.6029">
        <ele>181</ele>
        <time>2014-08-24T08:18:18Z</time>
      </trkpt>
      <trkpt lat="43.91175" lon="1.60243">
        <ele>180</ele>
        <time>2014-08-24T08:18:22Z</time>
      </trkpt>
      <trkpt lat="43.91187" lon="1.6018">
        <ele>179</ele>
        <time>2014-08-24T08:18:28Z</time>
      </trkpt>
      <trkpt lat="43.91194" lon="1.60153">
        <ele>177</ele>
        <time>2014-08-24T08:18:31Z</time>
      </trkpt>
      <trkpt lat="43.912" lon="1.6012">
        <ele>176</ele>
        <time>2014-08-24T08:18:36Z</time>
      </trkpt>
      <trkpt lat="43.91173" lon="1.60091">
        <ele>170</ele>
        <time>2014-08-24T08:18:41Z</time>
      </trkpt>
      <trkpt lat="43.91129" lon="1.60046">
        <ele>160</ele>
        <time>2014-08-24T08:18:48Z</time>
      </trkpt>
      <trkpt lat="43.91107" lon="1.60023">
        <ele>155</ele>
        <time>2014-08-24T08:18:51Z</time>
      </trkpt>
      <trkpt lat="43.91062" lon="1.59979">
        <ele>149</ele>
        <time>2014-08-24T08:18:57Z</time>
      </trkpt>
      <trkpt lat="43.91048" lon="1.59939">
        <ele>149</ele>
        <time>2014-08-24T08:19:01Z</time>
      </trkpt>
      <trkpt lat="43.91046" lon="1.59902">
        <ele>150</ele>
        <time>2014-08-24T08:19:06Z</time>
      </trkpt>
      <trkpt lat="43.91038" lon="1.59898">
        <ele>151</ele>
        <time>2014-08-24T08:19:10Z</time>
      </trkpt>
      <trkpt lat="43.9103" lon="1.59888">
        <ele>152</ele>
        <time>2014-08-24T08:19:15Z</time>
      </trkpt>
      <trkpt lat="43.91021" lon="1.5988">
        <ele>153</ele>
        <time>2014-08-24T08:19:19Z</time>
      </trkpt>
      <trkpt lat="43.91004" lon="1.59861">
        <ele>156</ele>
        <time>2014-08-24T08:19:27Z</time>
      </trkpt>
      <trkpt lat="43.91003" lon="1.5986">
        <ele>156</ele>
        <time>2014-08-24T08:19:28Z</time>
      </trkpt>
      <trkpt lat="43.90992" lon="1.59851">
        <ele>158</ele>
        <time>2014-08-24T08:19:35Z</time>
      </trkpt>
      <trkpt lat="43.9099" lon="1.5985">
        <ele>158</ele>
        <time>2014-08-24T08:19:36Z</time>
      </trkpt>
      <trkpt lat="43.90983" lon="1.59844">
        <ele>159</ele>
        <time>2014-08-24T08:19:41Z</time>
      </trkpt>
      <trkpt lat="43.90976" lon="1.59838">
        <ele>160</ele>
        <time>2014-08-24T08:19:46Z</time>
      </trkpt>
      <trkpt lat="43.90969" lon="1.59832">
        <ele>161</ele>
        <time>2014-08-24T08:19:51Z</time>
      </trkpt>
      <trkpt lat="43.90963" lon="1.59825">
        <ele>162</ele>
        <time>2014-08-24T08:19:56Z</time>
      </trkpt>
      <trkpt lat="43.90957" lon="1.59819">
        <ele>163</ele>
        <time>2014-08-24T08:20:01Z</time>
      </trkpt>
      <trkpt lat="43.90952" lon="1.59812">
        <ele>164</ele>
        <time>2014-08-24T08:20:06Z</time>
      </trkpt>
      <trkpt lat="43.90946" lon="1.59806">
        <ele>165</ele>
        <time>2014-08-24T08:20:11Z</time>
      </trkpt>
      <trkpt lat="43.9094" lon="1.598">
        <ele>166</ele>
        <time>2014-08-24T08:20:16Z</time>
      </trkpt>
      <trkpt lat="43.90934" lon="1.59793">
        <ele>168</ele>
        <time>2014-08-24T08:20:22Z</time>
      </trkpt>
      <trkpt lat="43.90931" lon="1.59788">
        <ele>168</ele>
        <time>2014-08-24T08:20:26Z</time>
      </trkpt>
      <trkpt lat="43.90926" lon="1.59783">
        <ele>169</ele>
        <time>2014-08-24T08:20:31Z</time>
      </trkpt>
      <trkpt lat="43.90919" lon="1.59775">
        <ele>171</ele>
        <time>2014-08-24T08:20:38Z</time>
      </trkpt>
      <trkpt lat="43.90913" lon="1.59768">
        <ele>172</ele>
        <time>2014-08-24T08:20:45Z</time>
      </trkpt>
      <trkpt lat="43.90909" lon="1.59765">
        <ele>172</ele>
        <time>2014-08-24T08:20:49Z</time>
      </trkpt>
      <trkpt lat="43.90907" lon="1.59761">
        <ele>173</ele>
        <time>2014-08-24T08:20:52Z</time>
      </trkpt>
      <trkpt lat="43.90902" lon="1.59757">
        <ele>173</ele>
        <time>2014-08-24T08:20:57Z</time>
      </trkpt>
      <trkpt lat="43.90898" lon="1.59752">
        <ele>174</ele>
        <time>2014-08-24T08:21:01Z</time>
      </trkpt>
      <trkpt lat="43.90891" lon="1.59745">
        <ele>175</ele>
        <time>2014-08-24T08:21:08Z</time>
      </trkpt>
      <trkpt lat="43.90889" lon="1.59742">
        <ele>175</ele>
        <time>2014-08-24T08:21:11Z</time>
      </trkpt>
      <trkpt lat="43.90885" lon="1.59736">
        <ele>176</ele>
        <time>2014-08-24T08:21:16Z</time>
      </trkpt>
      <trkpt lat="43.9088" lon="1.59731">
        <ele>176</ele>
        <time>2014-08-24T08:21:21Z</time>
      </trkpt>
      <trkpt lat="43.90874" lon="1.59722">
        <ele>177</ele>
        <time>2014-08-24T08:21:28Z</time>
      </trkpt>
      <trkpt lat="43.90872" lon="1.59719">
        <ele>177</ele>
        <time>2014-08-24T08:21:31Z</time>
      </trkpt>
      <trkpt lat="43.90868" lon="1.59714">
        <ele>177</ele>
        <time>2014-08-24T08:21:36Z</time>
      </trkpt>
      <trkpt lat="43.90864" lon="1.59707">
        <ele>177</ele>
        <time>2014-08-24T08:21:42Z</time>
      </trkpt>
      <trkpt lat="43.90861" lon="1.59702">
        <ele>177</ele>
        <time>2014-08-24T08:21:46Z</time>
      </trkpt>
      <trkpt lat="43.90857" lon="1.59694">
        <ele>176</ele>
        <time>2014-08-24T08:21:51Z</time>
      </trkpt>
      <trkpt lat="43.90865" lon="1.59677">
        <ele>175</ele>
        <time>2014-08-24T08:21:56Z</time>
      </trkpt>
      <trkpt lat="43.90883" lon="1.59657">
        <ele>174</ele>
        <time>2014-08-24T08:22:00Z</time>
      </trkpt>
      <trkpt lat="43.90906" lon="1.59634">
        <ele>173</ele>
        <time>2014-08-24T08:22:05Z</time>
      </trkpt>
      <trkpt lat="43.90927" lon="1.59607">
        <ele>172</ele>
        <time>2014-08-24T08:22:10Z</time>
      </trkpt>
      <trkpt lat="43.90946" lon="1.59573">
        <ele>171</ele>
        <time>2014-08-24T08:22:15Z</time>
      </trkpt>
      <trkpt lat="43.90968" lon="1.59527">
        <ele>166</ele>
        <time>2014-08-24T08:22:23Z</time>
      </trkpt>
      <trkpt lat="43.9095" lon="1.59494">
        <ele>162</ele>
        <time>2014-08-24T08:22:28Z</time>
      </trkpt>
      <trkpt lat="43.90945" lon="1.59486">
        <ele>161</ele>
        <time>2014-08-24T08:22:29Z</time>
      </trkpt>
      <trkpt lat="43.90916" lon="1.5946">
        <ele>158</ele>
        <time>2014-08-24T08:22:34Z</time>
      </trkpt>
      <trkpt lat="43.90884" lon="1.59448">
        <ele>158</ele>
        <time>2014-08-24T08:22:39Z</time>
      </trkpt>
      <trkpt lat="43.90856" lon="1.5944">
        <ele>161</ele>
        <time>2014-08-24T08:22:44Z</time>
      </trkpt>
      <trkpt lat="43.90818" lon="1.59419">
        <ele>166</ele>
        <time>2014-08-24T08:22:53Z</time>
      </trkpt>
      <trkpt lat="43.90823" lon="1.59404">
        <ele>165</ele>
        <time>2014-08-24T08:22:56Z</time>
      </trkpt>
      <trkpt lat="43.90839" lon="1.59372">
        <ele>162</ele>
        <time>2014-08-24T08:23:02Z</time>
      </trkpt>
      <trkpt lat="43.90851" lon="1.5936">
        <ele>160</ele>
        <time>2014-08-24T08:23:06Z</time>
      </trkpt>
      <trkpt lat="43.90853" lon="1.59342">
        <ele>161</ele>
        <time>2014-08-24T08:23:09Z</time>
      </trkpt>
      <trkpt lat="43.90846" lon="1.59305">
        <ele>163</ele>
        <time>2014-08-24T08:23:16Z</time>
      </trkpt>
      <trkpt lat="43.90841" lon="1.59289">
        <ele>164</ele>
        <time>2014-08-24T08:23:19Z</time>
      </trkpt>
      <trkpt lat="43.90841" lon="1.59256">
        <ele>167</ele>
        <time>2014-08-24T08:23:26Z</time>
      </trkpt>
      <trkpt lat="43.90844" lon="1.59246">
        <ele>168</ele>
        <time>2014-08-24T08:23:29Z</time>
      </trkpt>
      <trkpt lat="43.90849" lon="1.5923">
        <ele>168</ele>
        <time>2014-08-24T08:23:35Z</time>
      </trkpt>
      <trkpt lat="43.90851" lon="1.59221">
        <ele>168</ele>
        <time>2014-08-24T08:23:39Z</time>
      </trkpt>
      <trkpt lat="43.9085" lon="1.59211">
        <ele>169</ele>
        <time>2014-08-24T08:23:44Z</time>
      </trkpt>
      <trkpt lat="43.90849" lon="1.59196">
        <ele>170</ele>
        <time>2014-08-24T08:23:51Z</time>
      </trkpt>
      <trkpt lat="43.90848" lon="1.59187">
        <ele>170</ele>
        <time>2014-08-24T08:23:56Z</time>
      </trkpt>
      <trkpt lat="43.90849" lon="1.59182">
        <ele>171</ele>
        <time>2014-08-24T08:23:59Z</time>
      </trkpt>
      <trkpt lat="43.90848" lon="1.59173">
        <ele>171</ele>
        <time>2014-08-24T08:24:04Z</time>
      </trkpt>
      <trkpt lat="43.90848" lon="1.59162">
        <ele>171</ele>
        <time>2014-08-24T08:24:12Z</time>
      </trkpt>
      <trkpt lat="43.90848" lon="1.59158">
        <ele>171</ele>
        <time>2014-08-24T08:24:14Z</time>
      </trkpt>
      <trkpt lat="43.90847" lon="1.59142">
        <ele>170</ele>
        <time>2014-08-24T08:24:19Z</time>
      </trkpt>
      <trkpt lat="43.90851" lon="1.59123">
        <ele>169</ele>
        <time>2014-08-24T08:24:24Z</time>
      </trkpt>
      <trkpt lat="43.90865" lon="1.59094">
        <ele>168</ele>
        <time>2014-08-24T08:24:31Z</time>
      </trkpt>
      <trkpt lat="43.90864" lon="1.5908">
        <ele>166</ele>
        <time>2014-08-24T08:24:34Z</time>
      </trkpt>
      <trkpt lat="43.90851" lon="1.59066">
        <ele>164</ele>
        <time>2014-08-24T08:24:39Z</time>
      </trkpt>
      <trkpt lat="43.90837" lon="1.59059">
        <ele>163</ele>
        <time>2014-08-24T08:24:44Z</time>
      </trkpt>
      <trkpt lat="43.90831" lon="1.59038">
        <ele>161</ele>
        <time>2014-08-24T08:24:50Z</time>
      </trkpt>
      <trkpt lat="43.90828" lon="1.59019">
        <ele>159</ele>
        <time>2014-08-24T08:24:54Z</time>
      </trkpt>
      <trkpt lat="43.90825" lon="1.58978">
        <ele>160</ele>
        <time>2014-08-24T08:25:01Z</time>
      </trkpt>
      <trkpt lat="43.90826" lon="1.5896">
        <ele>159</ele>
        <time>2014-08-24T08:25:04Z</time>
      </trkpt>
      <trkpt lat="43.90832" lon="1.58931">
        <ele>160</ele>
        <time>2014-08-24T08:25:10Z</time>
      </trkpt>
      <trkpt lat="43.90839" lon="1.58912">
        <ele>161</ele>
        <time>2014-08-24T08:25:14Z</time>
      </trkpt>
      <trkpt lat="43.90839" lon="1.58888">
        <ele>162</ele>
        <time>2014-08-24T08:25:19Z</time>
      </trkpt>
      <trkpt lat="43.90837" lon="1.58871">
        <ele>164</ele>
        <time>2014-08-24T08:25:24Z</time>
      </trkpt>
      <trkpt lat="43.90834" lon="1.58858">
        <ele>166</ele>
        <time>2014-08-24T08:25:29Z</time>
      </trkpt>
      <trkpt lat="43.90831" lon="1.58846">
        <ele>168</ele>
        <time>2014-08-24T08:25:34Z</time>
      </trkpt>
      <trkpt lat="43.90829" lon="1.58835">
        <ele>170</ele>
        <time>2014-08-24T08:25:39Z</time>
      </trkpt>
      <trkpt lat="43.90826" lon="1.58823">
        <ele>172</ele>
        <time>2014-08-24T08:25:45Z</time>
      </trkpt>
      <trkpt lat="43.90822" lon="1.58813">
        <ele>172</ele>
        <time>2014-08-24T08:25:51Z</time>
      </trkpt>
      <trkpt lat="43.9082" lon="1.58805">
        <ele>173</ele>
        <time>2014-08-24T08:25:55Z</time>
      </trkpt>
      <trkpt lat="43.90818" lon="1.58799">
        <ele>173</ele>
        <time>2014-08-24T08:25:59Z</time>
      </trkpt>
      <trkpt lat="43.90816" lon="1.5879">
        <ele>174</ele>
        <time>2014-08-24T08:26:04Z</time>
      </trkpt>
      <trkpt lat="43.90814" lon="1.58782">
        <ele>175</ele>
        <time>2014-08-24T08:26:09Z</time>
      </trkpt>
      <trkpt lat="43.90812" lon="1.58773">
        <ele>175</ele>
        <time>2014-08-24T08:26:14Z</time>
      </trkpt>
      <trkpt lat="43.90809" lon="1.58763">
        <ele>176</ele>
        <time>2014-08-24T08:26:20Z</time>
      </trkpt>
      <trkpt lat="43.90807" lon="1.58757">
        <ele>176</ele>
        <time>2014-08-24T08:26:24Z</time>
      </trkpt>
      <trkpt lat="43.90805" lon="1.58749">
        <ele>176</ele>
        <time>2014-08-24T08:26:29Z</time>
      </trkpt>
      <trkpt lat="43.90801" lon="1.58741">
        <ele>176</ele>
        <time>2014-08-24T08:26:34Z</time>
      </trkpt>
      <trkpt lat="43.90796" lon="1.58726">
        <ele>176</ele>
        <time>2014-08-24T08:26:43Z</time>
      </trkpt>
      <trkpt lat="43.90795" lon="1.58724">
        <ele>176</ele>
        <time>2014-08-24T08:26:44Z</time>
      </trkpt>
      <trkpt lat="43.90791" lon="1.58713">
        <ele>176</ele>
        <time>2014-08-24T08:26:49Z</time>
      </trkpt>
      <trkpt lat="43.90783" lon="1.58698">
        <ele>175</ele>
        <time>2014-08-24T08:26:54Z</time>
      </trkpt>
      <trkpt lat="43.90774" lon="1.58678">
        <ele>174</ele>
        <time>2014-08-24T08:26:59Z</time>
      </trkpt>
      <trkpt lat="43.90763" lon="1.58653">
        <ele>174</ele>
        <time>2014-08-24T08:27:04Z</time>
      </trkpt>
      <trkpt lat="43.90751" lon="1.58626">
        <ele>174</ele>
        <time>2014-08-24T08:27:09Z</time>
      </trkpt>
      <trkpt lat="43.90735" lon="1.58597">
        <ele>174</ele>
        <time>2014-08-24T08:27:15Z</time>
      </trkpt>
      <trkpt lat="43.90724" lon="1.58581">
        <ele>175</ele>
        <time>2014-08-24T08:27:20Z</time>
      </trkpt>
      <trkpt lat="43.90714" lon="1.58571">
        <ele>175</ele>
        <time>2014-08-24T08:27:25Z</time>
      </trkpt>
      <trkpt lat="43.90704" lon="1.58561">
        <ele>176</ele>
        <time>2014-08-24T08:27:31Z</time>
      </trkpt>
      <trkpt lat="43.90698" lon="1.58555">
        <ele>176</ele>
        <time>2014-08-24T08:27:35Z</time>
      </trkpt>
      <trkpt lat="43.90691" lon="1.58548">
        <ele>176</ele>
        <time>2014-08-24T08:27:40Z</time>
      </trkpt>
      <trkpt lat="43.90683" lon="1.58541">
        <ele>177</ele>
        <time>2014-08-24T08:27:45Z</time>
      </trkpt>
      <trkpt lat="43.90677" lon="1.58536">
        <ele>177</ele>
        <time>2014-08-24T08:27:49Z</time>
      </trkpt>
      <trkpt lat="43.9067" lon="1.58529">
        <ele>177</ele>
        <time>2014-08-24T08:27:54Z</time>
      </trkpt>
      <trkpt lat="43.90663" lon="1.58521">
        <ele>177</ele>
        <time>2014-08-24T08:27:59Z</time>
      </trkpt>
      <trkpt lat="43.90653" lon="1.58512">
        <ele>177</ele>
        <time>2014-08-24T08:28:05Z</time>
      </trkpt>
      <trkpt lat="43.90646" lon="1.58506">
        <ele>176</ele>
        <time>2014-08-24T08:28:09Z</time>
      </trkpt>
      <trkpt lat="43.90636" lon="1.58496">
        <ele>176</ele>
        <time>2014-08-24T08:28:14Z</time>
      </trkpt>
      <trkpt lat="43.90618" lon="1.58477">
        <ele>173</ele>
        <time>2014-08-24T08:28:23Z</time>
      </trkpt>
      <trkpt lat="43.90615" lon="1.58475">
        <ele>172</ele>
        <time>2014-08-24T08:28:24Z</time>
      </trkpt>
      <trkpt lat="43.90603" lon="1.58464">
        <ele>170</ele>
        <time>2014-08-24T08:28:29Z</time>
      </trkpt>
      <trkpt lat="43.90595" lon="1.5842">
        <ele>165</ele>
        <time>2014-08-24T08:28:34Z</time>
      </trkpt>
      <trkpt lat="43.90587" lon="1.58358">
        <ele>156</ele>
        <time>2014-08-24T08:28:39Z</time>
      </trkpt>
      <trkpt lat="43.90598" lon="1.58285">
        <ele>151</ele>
        <time>2014-08-24T08:28:44Z</time>
      </trkpt>
      <trkpt lat="43.90611" lon="1.58204">
        <ele>150</ele>
        <time>2014-08-24T08:28:49Z</time>
      </trkpt>
      <trkpt lat="43.90607" lon="1.58113">
        <ele>143</ele>
        <time>2014-08-24T08:28:55Z</time>
      </trkpt>
      <trkpt lat="43.90592" lon="1.58062">
        <ele>138</ele>
        <time>2014-08-24T08:28:58Z</time>
      </trkpt>
      <trkpt lat="43.90559" lon="1.57986">
        <ele>136</ele>
        <time>2014-08-24T08:29:03Z</time>
      </trkpt>
      <trkpt lat="43.90516" lon="1.57943">
        <ele>137</ele>
        <time>2014-08-24T08:29:08Z</time>
      </trkpt>
      <trkpt lat="43.90502" lon="1.57876">
        <ele>138</ele>
        <time>2014-08-24T08:29:14Z</time>
      </trkpt>
      <trkpt lat="43.90504" lon="1.57808">
        <ele>138</ele>
        <time>2014-08-24T08:29:21Z</time>
      </trkpt>
      <trkpt lat="43.9051" lon="1.57789">
        <ele>138</ele>
        <time>2014-08-24T08:29:23Z</time>
      </trkpt>
      <trkpt lat="43.90526" lon="1.57747">
        <ele>138</ele>
        <time>2014-08-24T08:29:28Z</time>
      </trkpt>
      <trkpt lat="43.9054" lon="1.57707">
        <ele>138</ele>
        <time>2014-08-24T08:29:33Z</time>
      </trkpt>
      <trkpt lat="43.90552" lon="1.57671">
        <ele>138</ele>
        <time>2014-08-24T08:29:38Z</time>
      </trkpt>
      <trkpt lat="43.90565" lon="1.57621">
        <ele>138</ele>
        <time>2014-08-24T08:29:45Z</time>
      </trkpt>
      <trkpt lat="43.90572" lon="1.57595">
        <ele>138</ele>
        <time>2014-08-24T08:29:49Z</time>
      </trkpt>
      <trkpt lat="43.90578" lon="1.57569">
        <ele>138</ele>
        <time>2014-08-24T08:29:53Z</time>
      </trkpt>
      <trkpt lat="43.90585" lon="1.57539">
        <ele>138</ele>
        <time>2014-08-24T08:29:58Z</time>
      </trkpt>
      <trkpt lat="43.90593" lon="1.57497">
        <ele>138</ele>
        <time>2014-08-24T08:30:05Z</time>
      </trkpt>
      <trkpt lat="43.906" lon="1.57473">
        <ele>138</ele>
        <time>2014-08-24T08:30:09Z</time>
      </trkpt>
      <trkpt lat="43.90616" lon="1.57437">
        <ele>138</ele>
        <time>2014-08-24T08:30:16Z</time>
      </trkpt>
      <trkpt lat="43.90622" lon="1.57429">
        <ele>138</ele>
        <time>2014-08-24T08:30:18Z</time>
      </trkpt>
      <trkpt lat="43.90647" lon="1.57397">
        <ele>138</ele>
        <time>2014-08-24T08:30:26Z</time>
      </trkpt>
      <trkpt lat="43.90652" lon="1.57388">
        <ele>138</ele>
        <time>2014-08-24T08:30:28Z</time>
      </trkpt>
      <trkpt lat="43.90649" lon="1.57365">
        <ele>138</ele>
        <time>2014-08-24T08:30:34Z</time>
      </trkpt>
      <trkpt lat="43.90631" lon="1.574">
        <ele>138</ele>
        <time>2014-08-24T08:30:41Z</time>
      </trkpt>
      <trkpt lat="43.90624" lon="1.57409">
        <ele>138</ele>
        <time>2014-08-24T08:30:43Z</time>
      </trkpt>
      <trkpt lat="43.90602" lon="1.57414">
        <ele>138</ele>
        <time>2014-08-24T08:30:50Z</time>
      </trkpt>
      <trkpt lat="43.90594" lon="1.57403">
        <ele>139</ele>
        <time>2014-08-24T08:30:53Z</time>
      </trkpt>
      <trkpt lat="43.90575" lon="1.57379">
        <ele>139</ele>
        <time>2014-08-24T08:31:01Z</time>
      </trkpt>
      <trkpt lat="43.90572" lon="1.57374">
        <ele>139</ele>
        <time>2014-08-24T08:31:03Z</time>
      </trkpt>
      <trkpt lat="43.90562" lon="1.57363">
        <ele>139</ele>
        <time>2014-08-24T08:31:08Z</time>
      </trkpt>
      <trkpt lat="43.90554" lon="1.57353">
        <ele>140</ele>
        <time>2014-08-24T08:31:13Z</time>
      </trkpt>
      <trkpt lat="43.90543" lon="1.57338">
        <ele>140</ele>
        <time>2014-08-24T08:31:20Z</time>
      </trkpt>
      <trkpt lat="43.90534" lon="1.57325">
        <ele>140</ele>
        <time>2014-08-24T08:31:26Z</time>
      </trkpt>
      <trkpt lat="43.90531" lon="1.5732">
        <ele>140</ele>
        <time>2014-08-24T08:31:28Z</time>
      </trkpt>
      <trkpt lat="43.90523" lon="1.57309">
        <ele>141</ele>
        <time>2014-08-24T08:31:33Z</time>
      </trkpt>
      <trkpt lat="43.90516" lon="1.57298">
        <ele>141</ele>
        <time>2014-08-24T08:31:38Z</time>
      </trkpt>
      <trkpt lat="43.90508" lon="1.57288">
        <ele>141</ele>
        <time>2014-08-24T08:31:43Z</time>
      </trkpt>
      <trkpt lat="43.90495" lon="1.57271">
        <ele>142</ele>
        <time>2014-08-24T08:31:51Z</time>
      </trkpt>
      <trkpt lat="43.90489" lon="1.57263">
        <ele>143</ele>
        <time>2014-08-24T08:31:55Z</time>
      </trkpt>
      <trkpt lat="43.90482" lon="1.57251">
        <ele>143</ele>
        <time>2014-08-24T08:32:00Z</time>
      </trkpt>
      <trkpt lat="43.90472" lon="1.57239">
        <ele>144</ele>
        <time>2014-08-24T08:32:06Z</time>
      </trkpt>
      <trkpt lat="43.90469" lon="1.57235">
        <ele>144</ele>
        <time>2014-08-24T08:32:08Z</time>
      </trkpt>
      <trkpt lat="43.9046" lon="1.57225">
        <ele>145</ele>
        <time>2014-08-24T08:32:13Z</time>
      </trkpt>
      <trkpt lat="43.90452" lon="1.57216">
        <ele>146</ele>
        <time>2014-08-24T08:32:18Z</time>
      </trkpt>
      <trkpt lat="43.90445" lon="1.57205">
        <ele>146</ele>
        <time>2014-08-24T08:32:23Z</time>
      </trkpt>
      <trkpt lat="43.90439" lon="1.57194">
        <ele>147</ele>
        <time>2014-08-24T08:32:28Z</time>
      </trkpt>
      <trkpt lat="43.90434" lon="1.57184">
        <ele>147</ele>
        <time>2014-08-24T08:32:33Z</time>
      </trkpt>
      <trkpt lat="43.90425" lon="1.57171">
        <ele>148</ele>
        <time>2014-08-24T08:32:41Z</time>
      </trkpt>
      <trkpt lat="43.90424" lon="1.57169">
        <ele>148</ele>
        <time>2014-08-24T08:32:42Z</time>
      </trkpt>
      <trkpt lat="43.90418" lon="1.57156">
        <ele>149</ele>
        <time>2014-08-24T08:32:47Z</time>
      </trkpt>
      <trkpt lat="43.90412" lon="1.57136">
        <ele>149</ele>
        <time>2014-08-24T08:32:55Z</time>
      </trkpt>
      <trkpt lat="43.90407" lon="1.57126">
        <ele>150</ele>
        <time>2014-08-24T08:32:59Z</time>
      </trkpt>
      <trkpt lat="43.90401" lon="1.57116">
        <ele>150</ele>
        <time>2014-08-24T08:33:03Z</time>
      </trkpt>
      <trkpt lat="43.90398" lon="1.57102">
        <ele>150</ele>
        <time>2014-08-24T08:33:09Z</time>
      </trkpt>
      <trkpt lat="43.90396" lon="1.57099">
        <ele>150</ele>
        <time>2014-08-24T08:33:11Z</time>
      </trkpt>
      <trkpt lat="43.90391" lon="1.57089">
        <ele>150</ele>
        <time>2014-08-24T08:33:16Z</time>
      </trkpt>
      <trkpt lat="43.90381" lon="1.57069">
        <ele>150</ele>
        <time>2014-08-24T08:33:25Z</time>
      </trkpt>
      <trkpt lat="43.90379" lon="1.57065">
        <ele>150</ele>
        <time>2014-08-24T08:33:27Z</time>
      </trkpt>
      <trkpt lat="43.90373" lon="1.57055">
        <ele>151</ele>
        <time>2014-08-24T08:33:32Z</time>
      </trkpt>
      <trkpt lat="43.90369" lon="1.57045">
        <ele>151</ele>
        <time>2014-08-24T08:33:37Z</time>
      </trkpt>
      <trkpt lat="43.90363" lon="1.57029">
        <ele>151</ele>
        <time>2014-08-24T08:33:45Z</time>
      </trkpt>
      <trkpt lat="43.90362" lon="1.57027">
        <ele>151</ele>
        <time>2014-08-24T08:33:46Z</time>
      </trkpt>
      <trkpt lat="43.90358" lon="1.57017">
        <ele>152</ele>
        <time>2014-08-24T08:33:51Z</time>
      </trkpt>
      <trkpt lat="43.90355" lon="1.57005">
        <ele>152</ele>
        <time>2014-08-24T08:33:56Z</time>
      </trkpt>
      <trkpt lat="43.90351" lon="1.56994">
        <ele>153</ele>
        <time>2014-08-24T08:34:01Z</time>
      </trkpt>
      <trkpt lat="43.90343" lon="1.56984">
        <ele>153</ele>
        <time>2014-08-24T08:34:08Z</time>
      </trkpt>
      <trkpt lat="43.90339" lon="1.56987">
        <ele>153</ele>
        <time>2014-08-24T08:34:11Z</time>
      </trkpt>
      <trkpt lat="43.90335" lon="1.56991">
        <ele>152</ele>
        <time>2014-08-24T08:34:14Z</time>
      </trkpt>
      <trkpt lat="43.90326" lon="1.57003">
        <ele>153</ele>
        <time>2014-08-24T08:34:22Z</time>
      </trkpt>
      <trkpt lat="43.90324" lon="1.57006">
        <ele>153</ele>
        <time>2014-08-24T08:34:25Z</time>
      </trkpt>
      <trkpt lat="43.90324" lon="1.57007">
        <ele>153</ele>
        <time>2014-08-24T08:34:26Z</time>
      </trkpt>
      <trkpt lat="43.90321" lon="1.57013">
        <ele>154</ele>
        <time>2014-08-24T08:34:32Z</time>
      </trkpt>
      <trkpt lat="43.90316" lon="1.5702">
        <ele>155</ele>
        <time>2014-08-24T08:34:38Z</time>
      </trkpt>
      <trkpt lat="43.90311" lon="1.57025">
        <ele>155</ele>
        <time>2014-08-24T08:34:43Z</time>
      </trkpt>
      <trkpt lat="43.90309" lon="1.57029">
        <ele>156</ele>
        <time>2014-08-24T08:34:46Z</time>
      </trkpt>
      <trkpt lat="43.90304" lon="1.57034">
        <ele>157</ele>
        <time>2014-08-24T08:34:51Z</time>
      </trkpt>
      <trkpt lat="43.903" lon="1.5704">
        <ele>157</ele>
        <time>2014-08-24T08:34:56Z</time>
      </trkpt>
      <trkpt lat="43.90292" lon="1.57049">
        <ele>159</ele>
        <time>2014-08-24T08:35:03Z</time>
      </trkpt>
      <trkpt lat="43.90284" lon="1.57055">
        <ele>160</ele>
        <time>2014-08-24T08:35:09Z</time>
      </trkpt>
      <trkpt lat="43.90281" lon="1.57058">
        <ele>160</ele>
        <time>2014-08-24T08:35:11Z</time>
      </trkpt>
      <trkpt lat="43.90276" lon="1.57063">
        <ele>161</ele>
        <time>2014-08-24T08:35:15Z</time>
      </trkpt>
      <trkpt lat="43.90268" lon="1.57069">
        <ele>162</ele>
        <time>2014-08-24T08:35:20Z</time>
      </trkpt>
      <trkpt lat="43.90262" lon="1.57075">
        <ele>163</ele>
        <time>2014-08-24T08:35:25Z</time>
      </trkpt>
      <trkpt lat="43.90254" lon="1.57082">
        <ele>164</ele>
        <time>2014-08-24T08:35:31Z</time>
      </trkpt>
      <trkpt lat="43.90249" lon="1.57087">
        <ele>165</ele>
        <time>2014-08-24T08:35:35Z</time>
      </trkpt>
      <trkpt lat="43.90243" lon="1.57093">
        <ele>165</ele>
        <time>2014-08-24T08:35:40Z</time>
      </trkpt>
      <trkpt lat="43.90237" lon="1.571">
        <ele>166</ele>
        <time>2014-08-24T08:35:45Z</time>
      </trkpt>
      <trkpt lat="43.9023" lon="1.57108">
        <ele>167</ele>
        <time>2014-08-24T08:35:51Z</time>
      </trkpt>
      <trkpt lat="43.90225" lon="1.57113">
        <ele>167</ele>
        <time>2014-08-24T08:35:55Z</time>
      </trkpt>
      <trkpt lat="43.90218" lon="1.57119">
        <ele>168</ele>
        <time>2014-08-24T08:36:00Z</time>
      </trkpt>
      <trkpt lat="43.90212" lon="1.57122">
        <ele>168</ele>
        <time>2014-08-24T08:36:05Z</time>
      </trkpt>
      <trkpt lat="43.90199" lon="1.57124">
        <ele>169</ele>
        <time>2014-08-24T08:36:14Z</time>
      </trkpt>
      <trkpt lat="43.90197" lon="1.57124">
        <ele>170</ele>
        <time>2014-08-24T08:36:15Z</time>
      </trkpt>
      <trkpt lat="43.9019" lon="1.57122">
        <ele>170</ele>
        <time>2014-08-24T08:36:20Z</time>
      </trkpt>
      <trkpt lat="43.90182" lon="1.5712">
        <ele>171</ele>
        <time>2014-08-24T08:36:25Z</time>
      </trkpt>
      <trkpt lat="43.90175" lon="1.57118">
        <ele>171</ele>
        <time>2014-08-24T08:36:30Z</time>
      </trkpt>
      <trkpt lat="43.90166" lon="1.57118">
        <ele>172</ele>
        <time>2014-08-24T08:36:35Z</time>
      </trkpt>
      <trkpt lat="43.90161" lon="1.57128">
        <ele>172</ele>
        <time>2014-08-24T08:36:42Z</time>
      </trkpt>
      <trkpt lat="43.9016" lon="1.57136">
        <ele>171</ele>
        <time>2014-08-24T08:36:45Z</time>
      </trkpt>
      <trkpt lat="43.90155" lon="1.57148">
        <ele>171</ele>
        <time>2014-08-24T08:36:50Z</time>
      </trkpt>
      <trkpt lat="43.9015" lon="1.57165">
        <ele>170</ele>
        <time>2014-08-24T08:36:55Z</time>
      </trkpt>
      <trkpt lat="43.90144" lon="1.57184">
        <ele>169</ele>
        <time>2014-08-24T08:37:00Z</time>
      </trkpt>
      <trkpt lat="43.90137" lon="1.57204">
        <ele>167</ele>
        <time>2014-08-24T08:37:05Z</time>
      </trkpt>
      <trkpt lat="43.90132" lon="1.57227">
        <ele>165</ele>
        <time>2014-08-24T08:37:10Z</time>
      </trkpt>
      <trkpt lat="43.90119" lon="1.57264">
        <ele>159</ele>
        <time>2014-08-24T08:37:15Z</time>
      </trkpt>
      <trkpt lat="43.9011" lon="1.57292">
        <ele>153</ele>
        <time>2014-08-24T08:37:20Z</time>
      </trkpt>
      <trkpt lat="43.90099" lon="1.57291">
        <ele>153</ele>
        <time>2014-08-24T08:37:25Z</time>
      </trkpt>
      <trkpt lat="43.90092" lon="1.57287">
        <ele>153</ele>
        <time>2014-08-24T08:37:29Z</time>
      </trkpt>
      <trkpt lat="43.90083" lon="1.57285">
        <ele>153</ele>
        <time>2014-08-24T08:37:34Z</time>
      </trkpt>
      <trkpt lat="43.90074" lon="1.57283">
        <ele>153</ele>
        <time>2014-08-24T08:37:39Z</time>
      </trkpt>
      <trkpt lat="43.90063" lon="1.57279">
        <ele>153</ele>
        <time>2014-08-24T08:37:45Z</time>
      </trkpt>
      <trkpt lat="43.90057" lon="1.57276">
        <ele>153</ele>
        <time>2014-08-24T08:37:49Z</time>
      </trkpt>
      <trkpt lat="43.90051" lon="1.57272">
        <ele>153</ele>
        <time>2014-08-24T08:37:53Z</time>
      </trkpt>
      <trkpt lat="43.90037" lon="1.57268">
        <ele>153</ele>
        <time>2014-08-24T08:38:01Z</time>
      </trkpt>
      <trkpt lat="43.90033" lon="1.57268">
        <ele>153</ele>
        <time>2014-08-24T08:38:03Z</time>
      </trkpt>
      <trkpt lat="43.90023" lon="1.57264">
        <ele>153</ele>
        <time>2014-08-24T08:38:09Z</time>
      </trkpt>
      <trkpt lat="43.90018" lon="1.57262">
        <ele>153</ele>
        <time>2014-08-24T08:38:12Z</time>
      </trkpt>
      <trkpt lat="43.90005" lon="1.57258">
        <ele>153</ele>
        <time>2014-08-24T08:38:20Z</time>
      </trkpt>
      <trkpt lat="43.90001" lon="1.57257">
        <ele>153</ele>
        <time>2014-08-24T08:38:22Z</time>
      </trkpt>
      <trkpt lat="43.89987" lon="1.57255">
        <ele>153</ele>
        <time>2014-08-24T08:38:30Z</time>
      </trkpt>
      <trkpt lat="43.89985" lon="1.57254">
        <ele>153</ele>
        <time>2014-08-24T08:38:31Z</time>
      </trkpt>
      <trkpt lat="43.89976" lon="1.57254">
        <ele>153</ele>
        <time>2014-08-24T08:38:36Z</time>
      </trkpt>
      <trkpt lat="43.8996" lon="1.5725">
        <ele>152</ele>
        <time>2014-08-24T08:38:45Z</time>
      </trkpt>
      <trkpt lat="43.89956" lon="1.57249">
        <ele>152</ele>
        <time>2014-08-24T08:38:47Z</time>
      </trkpt>
      <trkpt lat="43.89949" lon="1.57249">
        <ele>152</ele>
        <time>2014-08-24T08:38:51Z</time>
      </trkpt>
      <trkpt lat="43.89934" lon="1.57247">
        <ele>151</ele>
        <time>2014-08-24T08:38:58Z</time>
      </trkpt>
      <trkpt lat="43.89923" lon="1.57244">
        <ele>151</ele>
        <time>2014-08-24T08:39:04Z</time>
      </trkpt>
      <trkpt lat="43.89914" lon="1.57241">
        <ele>150</ele>
        <time>2014-08-24T08:39:08Z</time>
      </trkpt>
      <trkpt lat="43.89903" lon="1.57239">
        <ele>150</ele>
        <time>2014-08-24T08:39:13Z</time>
      </trkpt>
      <trkpt lat="43.89897" lon="1.57238">
        <ele>150</ele>
        <time>2014-08-24T08:39:16Z</time>
      </trkpt>
      <trkpt lat="43.89886" lon="1.57236">
        <ele>149</ele>
        <time>2014-08-24T08:39:21Z</time>
      </trkpt>
      <trkpt lat="43.89879" lon="1.57231">
        <ele>149</ele>
        <time>2014-08-24T08:39:26Z</time>
      </trkpt>
      <trkpt lat="43.89872" lon="1.57229">
        <ele>150</ele>
        <time>2014-08-24T08:39:31Z</time>
      </trkpt>
      <trkpt lat="43.8986" lon="1.5723">
        <ele>149</ele>
        <time>2014-08-24T08:39:36Z</time>
      </trkpt>
      <trkpt lat="43.89842" lon="1.57215">
        <ele>150</ele>
        <time>2014-08-24T08:39:45Z</time>
      </trkpt>
      <trkpt lat="43.89838" lon="1.57211">
        <ele>150</ele>
        <time>2014-08-24T08:39:47Z</time>
      </trkpt>
      <trkpt lat="43.89829" lon="1.57205">
        <ele>150</ele>
        <time>2014-08-24T08:39:51Z</time>
      </trkpt>
      <trkpt lat="43.89817" lon="1.57197">
        <ele>150</ele>
        <time>2014-08-24T08:39:57Z</time>
      </trkpt>
      <trkpt lat="43.89809" lon="1.57191">
        <ele>150</ele>
        <time>2014-08-24T08:40:01Z</time>
      </trkpt>
      <trkpt lat="43.89796" lon="1.57182">
        <ele>149</ele>
        <time>2014-08-24T08:40:07Z</time>
      </trkpt>
      <trkpt lat="43.89786" lon="1.57175">
        <ele>149</ele>
        <time>2014-08-24T08:40:11Z</time>
      </trkpt>
      <trkpt lat="43.89775" lon="1.57164">
        <ele>150</ele>
        <time>2014-08-24T08:40:16Z</time>
      </trkpt>
      <trkpt lat="43.89765" lon="1.57152">
        <ele>151</ele>
        <time>2014-08-24T08:40:21Z</time>
      </trkpt>
      <trkpt lat="43.89757" lon="1.57141">
        <ele>151</ele>
        <time>2014-08-24T08:40:26Z</time>
      </trkpt>
      <trkpt lat="43.89748" lon="1.5713">
        <ele>151</ele>
        <time>2014-08-24T08:40:31Z</time>
      </trkpt>
      <trkpt lat="43.89738" lon="1.57119">
        <ele>151</ele>
        <time>2014-08-24T08:40:36Z</time>
      </trkpt>
      <trkpt lat="43.89729" lon="1.57109">
        <ele>151</ele>
        <time>2014-08-24T08:40:41Z</time>
      </trkpt>
      <trkpt lat="43.89721" lon="1.571">
        <ele>152</ele>
        <time>2014-08-24T08:40:46Z</time>
      </trkpt>
      <trkpt lat="43.89712" lon="1.5709">
        <ele>153</ele>
        <time>2014-08-24T08:40:51Z</time>
      </trkpt>
      <trkpt lat="43.89704" lon="1.5708">
        <ele>154</ele>
        <time>2014-08-24T08:40:56Z</time>
      </trkpt>
      <trkpt lat="43.89689" lon="1.57063">
        <ele>156</ele>
        <time>2014-08-24T08:41:05Z</time>
      </trkpt>
      <trkpt lat="43.89686" lon="1.57059">
        <ele>156</ele>
        <time>2014-08-24T08:41:07Z</time>
      </trkpt>
      <trkpt lat="43.89679" lon="1.57052">
        <ele>156</ele>
        <time>2014-08-24T08:41:11Z</time>
      </trkpt>
      <trkpt lat="43.8967" lon="1.57042">
        <ele>157</ele>
        <time>2014-08-24T08:41:16Z</time>
      </trkpt>
      <trkpt lat="43.8966" lon="1.57034">
        <ele>157</ele>
        <time>2014-08-24T08:41:21Z</time>
      </trkpt>
      <trkpt lat="43.89652" lon="1.57029">
        <ele>156</ele>
        <time>2014-08-24T08:41:25Z</time>
      </trkpt>
      <trkpt lat="43.89641" lon="1.57025">
        <ele>155</ele>
        <time>2014-08-24T08:41:30Z</time>
      </trkpt>
      <trkpt lat="43.8963" lon="1.57021">
        <ele>154</ele>
        <time>2014-08-24T08:41:35Z</time>
      </trkpt>
      <trkpt lat="43.8962" lon="1.57016">
        <ele>154</ele>
        <time>2014-08-24T08:41:40Z</time>
      </trkpt>
      <trkpt lat="43.89608" lon="1.57012">
        <ele>154</ele>
        <time>2014-08-24T08:41:46Z</time>
      </trkpt>
      <trkpt lat="43.896" lon="1.57008">
        <ele>154</ele>
        <time>2014-08-24T08:41:50Z</time>
      </trkpt>
      <trkpt lat="43.89591" lon="1.57001">
        <ele>154</ele>
        <time>2014-08-24T08:41:55Z</time>
      </trkpt>
      <trkpt lat="43.89583" lon="1.56992">
        <ele>156</ele>
        <time>2014-08-24T08:42:00Z</time>
      </trkpt>
      <trkpt lat="43.89577" lon="1.56984">
        <ele>158</ele>
        <time>2014-08-24T08:42:05Z</time>
      </trkpt>
      <trkpt lat="43.89578" lon="1.56971">
        <ele>159</ele>
        <time>2014-08-24T08:42:12Z</time>
      </trkpt>
      <trkpt lat="43.89579" lon="1.56971">
        <ele>159</ele>
        <time>2014-08-24T08:42:15Z</time>
      </trkpt>
      <trkpt lat="43.89579" lon="1.56968">
        <ele>160</ele>
        <time>2014-08-24T08:42:23Z</time>
      </trkpt>
      <trkpt lat="43.89579" lon="1.56968">
        <ele>160</ele>
        <time>2014-08-24T08:42:24Z</time>
      </trkpt>
      <trkpt lat="43.89579" lon="1.56967">
        <ele>160</ele>
        <time>2014-08-24T08:42:29Z</time>
      </trkpt>
      <trkpt lat="43.8958" lon="1.56967">
        <ele>160</ele>
        <time>2014-08-24T08:42:34Z</time>
      </trkpt>
      <trkpt lat="43.8958" lon="1.56967">
        <ele>160</ele>
        <time>2014-08-24T08:42:39Z</time>
      </trkpt>
      <trkpt lat="43.8958" lon="1.56967">
        <ele>160</ele>
        <time>2014-08-24T08:42:47Z</time>
      </trkpt>
      <trkpt lat="43.8958" lon="1.56967">
        <ele>160</ele>
        <time>2014-08-24T08:42:49Z</time>
      </trkpt>
      <trkpt lat="43.8958" lon="1.56967">
        <ele>160</ele>
        <time>2014-08-24T08:42:54Z</time>
      </trkpt>
      <trkpt lat="43.8958" lon="1.56967">
        <ele>160</ele>
        <time>2014-08-24T08:42:59Z</time>
      </trkpt>
      <trkpt lat="43.8958" lon="1.56967">
        <ele>160</ele>
        <time>2014-08-24T08:43:04Z</time>
      </trkpt>
      <trkpt lat="43.8958" lon="1.56968">
        <ele>160</ele>
        <time>2014-08-24T08:43:13Z</time>
      </trkpt>
      <trkpt lat="43.89579" lon="1.56967">
        <ele>160</ele>
        <time>2014-08-24T08:43:17Z</time>
      </trkpt>
      <trkpt lat="43.89579" lon="1.56966">
        <ele>160</ele>
        <time>2014-08-24T08:43:19Z</time>
      </trkpt>
      <trkpt lat="43.89578" lon="1.56964">
        <ele>160</ele>
        <time>2014-08-24T08:43:24Z</time>
      </trkpt>
      <trkpt lat="43.89578" lon="1.56964">
        <ele>160</ele>
        <time>2014-08-24T08:43:31Z</time>
      </trkpt>
      <trkpt lat="43.89578" lon="1.56964">
        <ele>160</ele>
        <time>2014-08-24T08:43:34Z</time>
      </trkpt>
      <trkpt lat="43.89579" lon="1.56963">
        <ele>160</ele>
        <time>2014-08-24T08:43:39Z</time>
      </trkpt>
      <trkpt lat="43.89586" lon="1.56964">
        <ele>159</ele>
        <time>2014-08-24T08:43:44Z</time>
      </trkpt>
      <trkpt lat="43.89594" lon="1.56969">
        <ele>158</ele>
        <time>2014-08-24T08:43:49Z</time>
      </trkpt>
      <trkpt lat="43.89609" lon="1.56971">
        <ele>158</ele>
        <time>2014-08-24T08:43:58Z</time>
      </trkpt>
      <trkpt lat="43.89611" lon="1.5697">
        <ele>158</ele>
        <time>2014-08-24T08:43:59Z</time>
      </trkpt>
      <trkpt lat="43.89621" lon="1.5697">
        <ele>158</ele>
        <time>2014-08-24T08:44:06Z</time>
      </trkpt>
      <trkpt lat="43.89625" lon="1.56967">
        <ele>158</ele>
        <time>2014-08-24T08:44:09Z</time>
      </trkpt>
      <trkpt lat="43.89629" lon="1.56959">
        <ele>159</ele>
        <time>2014-08-24T08:44:14Z</time>
      </trkpt>
      <trkpt lat="43.89637" lon="1.56951">
        <ele>159</ele>
        <time>2014-08-24T08:44:22Z</time>
      </trkpt>
      <trkpt lat="43.89637" lon="1.56949">
        <ele>159</ele>
        <time>2014-08-24T08:44:23Z</time>
      </trkpt>
      <trkpt lat="43.89642" lon="1.56946">
        <ele>160</ele>
        <time>2014-08-24T08:44:28Z</time>
      </trkpt>
      <trkpt lat="43.89646" lon="1.56942">
        <ele>160</ele>
        <time>2014-08-24T08:44:33Z</time>
      </trkpt>
      <trkpt lat="43.89649" lon="1.56938">
        <ele>161</ele>
        <time>2014-08-24T08:44:38Z</time>
      </trkpt>
      <trkpt lat="43.89652" lon="1.56933">
        <ele>162</ele>
        <time>2014-08-24T08:44:44Z</time>
      </trkpt>
      <trkpt lat="43.89654" lon="1.5693">
        <ele>162</ele>
        <time>2014-08-24T08:44:48Z</time>
      </trkpt>
      <trkpt lat="43.89658" lon="1.56927">
        <ele>163</ele>
        <time>2014-08-24T08:44:53Z</time>
      </trkpt>
      <trkpt lat="43.89663" lon="1.56923">
        <ele>164</ele>
        <time>2014-08-24T08:44:58Z</time>
      </trkpt>
      <trkpt lat="43.89666" lon="1.56918">
        <ele>165</ele>
        <time>2014-08-24T08:45:03Z</time>
      </trkpt>
      <trkpt lat="43.8967" lon="1.56913">
        <ele>165</ele>
        <time>2014-08-24T08:45:08Z</time>
      </trkpt>
      <trkpt lat="43.89674" lon="1.56906">
        <ele>166</ele>
        <time>2014-08-24T08:45:14Z</time>
      </trkpt>
      <trkpt lat="43.89677" lon="1.56902">
        <ele>166</ele>
        <time>2014-08-24T08:45:18Z</time>
      </trkpt>
      <trkpt lat="43.89681" lon="1.56897">
        <ele>167</ele>
        <time>2014-08-24T08:45:23Z</time>
      </trkpt>
      <trkpt lat="43.89687" lon="1.56894">
        <ele>168</ele>
        <time>2014-08-24T08:45:28Z</time>
      </trkpt>
      <trkpt lat="43.89695" lon="1.56891">
        <ele>169</ele>
        <time>2014-08-24T08:45:35Z</time>
      </trkpt>
      <trkpt lat="43.89697" lon="1.56888">
        <ele>170</ele>
        <time>2014-08-24T08:45:38Z</time>
      </trkpt>
      <trkpt lat="43.89704" lon="1.56883">
        <ele>172</ele>
        <time>2014-08-24T08:45:44Z</time>
      </trkpt>
      <trkpt lat="43.89708" lon="1.5688">
        <ele>173</ele>
        <time>2014-08-24T08:45:48Z</time>
      </trkpt>
      <trkpt lat="43.89714" lon="1.56876">
        <ele>174</ele>
        <time>2014-08-24T08:45:53Z</time>
      </trkpt>
      <trkpt lat="43.89718" lon="1.56872">
        <ele>175</ele>
        <time>2014-08-24T08:45:58Z</time>
      </trkpt>
      <trkpt lat="43.89722" lon="1.56868">
        <ele>176</ele>
        <time>2014-08-24T08:46:02Z</time>
      </trkpt>
      <trkpt lat="43.89729" lon="1.56863">
        <ele>178</ele>
        <time>2014-08-24T08:46:09Z</time>
      </trkpt>
      <trkpt lat="43.89734" lon="1.56859">
        <ele>179</ele>
        <time>2014-08-24T08:46:14Z</time>
      </trkpt>
      <trkpt lat="43.89738" lon="1.56856">
        <ele>180</ele>
        <time>2014-08-24T08:46:18Z</time>
      </trkpt>
      <trkpt lat="43.89741" lon="1.56852">
        <ele>180</ele>
        <time>2014-08-24T08:46:22Z</time>
      </trkpt>
      <trkpt lat="43.89747" lon="1.56847">
        <ele>182</ele>
        <time>2014-08-24T08:46:28Z</time>
      </trkpt>
      <trkpt lat="43.8975" lon="1.56844">
        <ele>182</ele>
        <time>2014-08-24T08:46:32Z</time>
      </trkpt>
      <trkpt lat="43.89754" lon="1.56839">
        <ele>183</ele>
        <time>2014-08-24T08:46:37Z</time>
      </trkpt>
      <trkpt lat="43.89759" lon="1.56834">
        <ele>184</ele>
        <time>2014-08-24T08:46:42Z</time>
      </trkpt>
      <trkpt lat="43.89766" lon="1.56828">
        <ele>186</ele>
        <time>2014-08-24T08:46:49Z</time>
      </trkpt>
      <trkpt lat="43.89768" lon="1.56826">
        <ele>186</ele>
        <time>2014-08-24T08:46:52Z</time>
      </trkpt>
      <trkpt lat="43.89772" lon="1.56821">
        <ele>187</ele>
        <time>2014-08-24T08:46:57Z</time>
      </trkpt>
      <trkpt lat="43.89775" lon="1.56816">
        <ele>188</ele>
        <time>2014-08-24T08:47:02Z</time>
      </trkpt>
      <trkpt lat="43.89779" lon="1.56812">
        <ele>189</ele>
        <time>2014-08-24T08:47:07Z</time>
      </trkpt>
      <trkpt lat="43.89783" lon="1.56806">
        <ele>190</ele>
        <time>2014-08-24T08:47:13Z</time>
      </trkpt>
      <trkpt lat="43.89785" lon="1.56802">
        <ele>190</ele>
        <time>2014-08-24T08:47:17Z</time>
      </trkpt>
      <trkpt lat="43.89788" lon="1.56797">
        <ele>191</ele>
        <time>2014-08-24T08:47:22Z</time>
      </trkpt>
      <trkpt lat="43.89792" lon="1.56792">
        <ele>191</ele>
        <time>2014-08-24T08:47:27Z</time>
      </trkpt>
      <trkpt lat="43.89795" lon="1.56787">
        <ele>192</ele>
        <time>2014-08-24T08:47:32Z</time>
      </trkpt>
      <trkpt lat="43.89798" lon="1.56781">
        <ele>192</ele>
        <time>2014-08-24T08:47:37Z</time>
      </trkpt>
      <trkpt lat="43.89801" lon="1.56776">
        <ele>193</ele>
        <time>2014-08-24T08:47:42Z</time>
      </trkpt>
      <trkpt lat="43.89804" lon="1.5677">
        <ele>193</ele>
        <time>2014-08-24T08:47:47Z</time>
      </trkpt>
      <trkpt lat="43.89807" lon="1.56763">
        <ele>194</ele>
        <time>2014-08-24T08:47:52Z</time>
      </trkpt>
      <trkpt lat="43.89811" lon="1.56756">
        <ele>194</ele>
        <time>2014-08-24T08:47:57Z</time>
      </trkpt>
      <trkpt lat="43.89814" lon="1.56749">
        <ele>195</ele>
        <time>2014-08-24T08:48:02Z</time>
      </trkpt>
      <trkpt lat="43.89817" lon="1.56742">
        <ele>196</ele>
        <time>2014-08-24T08:48:07Z</time>
      </trkpt>
      <trkpt lat="43.89821" lon="1.56734">
        <ele>197</ele>
        <time>2014-08-24T08:48:12Z</time>
      </trkpt>
      <trkpt lat="43.89825" lon="1.56725">
        <ele>197</ele>
        <time>2014-08-24T08:48:17Z</time>
      </trkpt>
      <trkpt lat="43.89829" lon="1.56718">
        <ele>198</ele>
        <time>2014-08-24T08:48:22Z</time>
      </trkpt>
      <trkpt lat="43.89833" lon="1.56708">
        <ele>199</ele>
        <time>2014-08-24T08:48:28Z</time>
      </trkpt>
      <trkpt lat="43.89837" lon="1.56701">
        <ele>200</ele>
        <time>2014-08-24T08:48:32Z</time>
      </trkpt>
      <trkpt lat="43.89842" lon="1.56694">
        <ele>200</ele>
        <time>2014-08-24T08:48:37Z</time>
      </trkpt>
      <trkpt lat="43.89847" lon="1.56686">
        <ele>201</ele>
        <time>2014-08-24T08:48:42Z</time>
      </trkpt>
      <trkpt lat="43.89857" lon="1.56678">
        <ele>201</ele>
        <time>2014-08-24T08:48:49Z</time>
      </trkpt>
      <trkpt lat="43.89865" lon="1.56675">
        <ele>201</ele>
        <time>2014-08-24T08:48:54Z</time>
      </trkpt>
      <trkpt lat="43.8987" lon="1.56669">
        <ele>201</ele>
        <time>2014-08-24T08:48:57Z</time>
      </trkpt>
      <trkpt lat="43.89879" lon="1.56666">
        <ele>201</ele>
        <time>2014-08-24T08:49:02Z</time>
      </trkpt>
      <trkpt lat="43.89878" lon="1.56663">
        <ele>201</ele>
        <time>2014-08-24T08:49:07Z</time>
      </trkpt>
      <trkpt lat="43.89878" lon="1.56662">
        <ele>201</ele>
        <time>2014-08-24T08:49:13Z</time>
      </trkpt>
      <trkpt lat="43.89877" lon="1.56662">
        <ele>201</ele>
        <time>2014-08-24T08:49:15Z</time>
      </trkpt>
      <trkpt lat="43.89878" lon="1.56662">
        <ele>201</ele>
        <time>2014-08-24T08:49:19Z</time>
      </trkpt>
      <trkpt lat="43.89878" lon="1.56662">
        <ele>201</ele>
        <time>2014-08-24T08:49:24Z</time>
      </trkpt>
      <trkpt lat="43.89878" lon="1.56662">
        <ele>201</ele>
        <time>2014-08-24T08:49:29Z</time>
      </trkpt>
      <trkpt lat="43.89878" lon="1.56662">
        <ele>201</ele>
        <time>2014-08-24T08:49:34Z</time>
      </trkpt>
      <trkpt lat="43.89878" lon="1.56661">
        <ele>201</ele>
        <time>2014-08-24T08:49:39Z</time>
      </trkpt>
      <trkpt lat="43.89878" lon="1.56661">
        <ele>201</ele>
        <time>2014-08-24T08:49:45Z</time>
      </trkpt>
      <trkpt lat="43.89877" lon="1.56661">
        <ele>201</ele>
        <time>2014-08-24T08:49:49Z</time>
      </trkpt>
      <trkpt lat="43.89878" lon="1.56661">
        <ele>201</ele>
        <time>2014-08-24T08:49:54Z</time>
      </trkpt>
      <trkpt lat="43.89878" lon="1.56661">
        <ele>201</ele>
        <time>2014-08-24T08:49:59Z</time>
      </trkpt>
      <trkpt lat="43.89878" lon="1.56661">
        <ele>201</ele>
        <time>2014-08-24T08:50:04Z</time>
      </trkpt>
      <trkpt lat="43.89877" lon="1.5666">
        <ele>201</ele>
        <time>2014-08-24T08:50:10Z</time>
      </trkpt>
      <trkpt lat="43.89875" lon="1.56661">
        <ele>201</ele>
        <time>2014-08-24T08:50:14Z</time>
      </trkpt>
      <trkpt lat="43.89876" lon="1.56661">
        <ele>201</ele>
        <time>2014-08-24T08:50:20Z</time>
      </trkpt>
      <trkpt lat="43.89876" lon="1.56661">
        <ele>201</ele>
        <time>2014-08-24T08:50:24Z</time>
      </trkpt>
      <trkpt lat="43.89876" lon="1.56661">
        <ele>201</ele>
        <time>2014-08-24T08:50:29Z</time>
      </trkpt>
      <trkpt lat="43.89875" lon="1.56661">
        <ele>201</ele>
        <time>2014-08-24T08:50:34Z</time>
      </trkpt>
      <trkpt lat="43.89876" lon="1.56662">
        <ele>201</ele>
        <time>2014-08-24T08:50:39Z</time>
      </trkpt>
      <trkpt lat="43.89876" lon="1.56662">
        <ele>201</ele>
        <time>2014-08-24T08:50:44Z</time>
      </trkpt>
      <trkpt lat="43.89876" lon="1.56662">
        <ele>201</ele>
        <time>2014-08-24T08:50:49Z</time>
      </trkpt>
      <trkpt lat="43.89875" lon="1.56662">
        <ele>201</ele>
        <time>2014-08-24T08:50:54Z</time>
      </trkpt>
      <trkpt lat="43.89875" lon="1.56663">
        <ele>201</ele>
        <time>2014-08-24T08:50:59Z</time>
      </trkpt>
      <trkpt lat="43.89874" lon="1.56662">
        <ele>201</ele>
        <time>2014-08-24T08:51:04Z</time>
      </trkpt>
      <trkpt lat="43.89874" lon="1.56662">
        <ele>201</ele>
        <time>2014-08-24T08:51:09Z</time>
      </trkpt>
      <trkpt lat="43.89874" lon="1.56662">
        <ele>201</ele>
        <time>2014-08-24T08:51:15Z</time>
      </trkpt>
      <trkpt lat="43.89874" lon="1.56663">
        <ele>201</ele>
        <time>2014-08-24T08:51:19Z</time>
      </trkpt>
      <trkpt lat="43.89874" lon="1.56664">
        <ele>201</ele>
        <time>2014-08-24T08:51:24Z</time>
      </trkpt>
      <trkpt lat="43.89874" lon="1.56664">
        <ele>201</ele>
        <time>2014-08-24T08:51:29Z</time>
      </trkpt>
      <trkpt lat="43.89874" lon="1.56663">
        <ele>201</ele>
        <time>2014-08-24T08:51:35Z</time>
      </trkpt>
      <trkpt lat="43.89874" lon="1.56662">
        <ele>201</ele>
        <time>2014-08-24T08:51:39Z</time>
      </trkpt>
      <trkpt lat="43.89874" lon="1.56663">
        <ele>201</ele>
        <time>2014-08-24T08:51:44Z</time>
      </trkpt>
      <trkpt lat="43.89873" lon="1.56662">
        <ele>201</ele>
        <time>2014-08-24T08:51:49Z</time>
      </trkpt>
      <trkpt lat="43.89874" lon="1.56664">
        <ele>201</ele>
        <time>2014-08-24T08:51:56Z</time>
      </trkpt>
      <trkpt lat="43.89875" lon="1.56665">
        <ele>201</ele>
        <time>2014-08-24T08:51:59Z</time>
      </trkpt>
      <trkpt lat="43.89875" lon="1.56665">
        <ele>201</ele>
        <time>2014-08-24T08:52:04Z</time>
      </trkpt>
      <trkpt lat="43.89875" lon="1.56665">
        <ele>201</ele>
        <time>2014-08-24T08:52:09Z</time>
      </trkpt>
      <trkpt lat="43.89875" lon="1.56665">
        <ele>201</ele>
        <time>2014-08-24T08:52:14Z</time>
      </trkpt>
      <trkpt lat="43.89875" lon="1.56665">
        <ele>201</ele>
        <time>2014-08-24T08:52:19Z</time>
      </trkpt>
      <trkpt lat="43.89875" lon="1.56664">
        <ele>201</ele>
        <time>2014-08-24T08:52:24Z</time>
      </trkpt>
      <trkpt lat="43.89874" lon="1.56664">
        <ele>201</ele>
        <time>2014-08-24T08:52:31Z</time>
      </trkpt>
      <trkpt lat="43.89874" lon="1.56664">
        <ele>201</ele>
        <time>2014-08-24T08:52:34Z</time>
      </trkpt>
      <trkpt lat="43.89873" lon="1.56664">
        <ele>201</ele>
        <time>2014-08-24T08:52:39Z</time>
      </trkpt>
      <trkpt lat="43.89873" lon="1.56664">
        <ele>201</ele>
        <time>2014-08-24T08:52:44Z</time>
      </trkpt>
      <trkpt lat="43.89873" lon="1.56664">
        <ele>201</ele>
        <time>2014-08-24T08:52:49Z</time>
      </trkpt>
      <trkpt lat="43.89873" lon="1.56664">
        <ele>201</ele>
        <time>2014-08-24T08:52:54Z</time>
      </trkpt>
      <trkpt lat="43.89873" lon="1.56664">
        <ele>201</ele>
        <time>2014-08-24T08:52:59Z</time>
      </trkpt>
      <trkpt lat="43.89873" lon="1.56664">
        <ele>201</ele>
        <time>2014-08-24T08:53:04Z</time>
      </trkpt>
      <trkpt lat="43.89873" lon="1.56664">
        <ele>201</ele>
        <time>2014-08-24T08:53:09Z</time>
      </trkpt>
      <trkpt lat="43.89873" lon="1.56664">
        <ele>201</ele>
        <time>2014-08-24T08:53:14Z</time>
      </trkpt>
      <trkpt lat="43.89873" lon="1.56664">
        <ele>201</ele>
        <time>2014-08-24T08:53:19Z</time>
      </trkpt>
      <trkpt lat="43.89873" lon="1.56665">
        <ele>201</ele>
        <time>2014-08-24T08:53:24Z</time>
      </trkpt>
      <trkpt lat="43.89873" lon="1.56664">
        <ele>201</ele>
        <time>2014-08-24T08:53:29Z</time>
      </trkpt>
      <trkpt lat="43.89873" lon="1.56664">
        <ele>201</ele>
        <time>2014-08-24T08:53:34Z</time>
      </trkpt>
      <trkpt lat="43.89873" lon="1.56664">
        <ele>201</ele>
        <time>2014-08-24T08:53:39Z</time>
      </trkpt>
      <trkpt lat="43.89873" lon="1.56664">
        <ele>201</ele>
        <time>2014-08-24T08:53:44Z</time>
      </trkpt>
      <trkpt lat="43.89872" lon="1.56664">
        <ele>201</ele>
        <time>2014-08-24T08:53:49Z</time>
      </trkpt>
      <trkpt lat="43.89873" lon="1.56664">
        <ele>201</ele>
        <time>2014-08-24T08:53:54Z</time>
      </trkpt>
      <trkpt lat="43.89873" lon="1.56664">
        <ele>201</ele>
        <time>2014-08-24T08:54:01Z</time>
      </trkpt>
      <trkpt lat="43.89873" lon="1.56664">
        <ele>201</ele>
        <time>2014-08-24T08:54:04Z</time>
      </trkpt>
      <trkpt lat="43.89874" lon="1.56663">
        <ele>201</ele>
        <time>2014-08-24T08:54:09Z</time>
      </trkpt>
      <trkpt lat="43.89874" lon="1.56664">
        <ele>201</ele>
        <time>2014-08-24T08:54:14Z</time>
      </trkpt>
      <trkpt lat="43.89874" lon="1.56663">
        <ele>201</ele>
        <time>2014-08-24T08:54:19Z</time>
      </trkpt>
      <trkpt lat="43.89874" lon="1.56664">
        <ele>201</ele>
        <time>2014-08-24T08:54:24Z</time>
      </trkpt>
      <trkpt lat="43.89874" lon="1.56664">
        <ele>201</ele>
        <time>2014-08-24T08:54:29Z</time>
      </trkpt>
      <trkpt lat="43.89876" lon="1.56665">
        <ele>201</ele>
        <time>2014-08-24T08:54:35Z</time>
      </trkpt>
      <trkpt lat="43.89876" lon="1.56665">
        <ele>201</ele>
        <time>2014-08-24T08:54:39Z</time>
      </trkpt>
      <trkpt lat="43.89876" lon="1.56666">
        <ele>201</ele>
        <time>2014-08-24T08:54:44Z</time>
      </trkpt>
      <trkpt lat="43.89876" lon="1.56666">
        <ele>201</ele>
        <time>2014-08-24T08:54:49Z</time>
      </trkpt>
      <trkpt lat="43.89876" lon="1.56666">
        <ele>201</ele>
        <time>2014-08-24T08:54:54Z</time>
      </trkpt>
      <trkpt lat="43.89876" lon="1.56666">
        <ele>201</ele>
        <time>2014-08-24T08:54:59Z</time>
      </trkpt>
      <trkpt lat="43.89876" lon="1.56666">
        <ele>201</ele>
        <time>2014-08-24T08:55:04Z</time>
      </trkpt>
      <trkpt lat="43.89876" lon="1.56666">
        <ele>201</ele>
        <time>2014-08-24T08:55:08Z</time>
      </trkpt>
      <trkpt lat="43.89876" lon="1.56665">
        <ele>201</ele>
        <time>2014-08-24T08:55:14Z</time>
      </trkpt>
      <trkpt lat="43.89876" lon="1.56666">
        <ele>201</ele>
        <time>2014-08-24T08:55:18Z</time>
      </trkpt>
      <trkpt lat="43.89876" lon="1.56666">
        <ele>201</ele>
        <time>2014-08-24T08:55:23Z</time>
      </trkpt>
      <trkpt lat="43.89875" lon="1.56667">
        <ele>201</ele>
        <time>2014-08-24T08:55:28Z</time>
      </trkpt>
      <trkpt lat="43.89876" lon="1.56666">
        <ele>201</ele>
        <time>2014-08-24T08:55:33Z</time>
      </trkpt>
      <trkpt lat="43.89876" lon="1.56666">
        <ele>201</ele>
        <time>2014-08-24T08:55:38Z</time>
      </trkpt>
      <trkpt lat="43.89876" lon="1.56666">
        <ele>201</ele>
        <time>2014-08-24T08:55:46Z</time>
      </trkpt>
      <trkpt lat="43.89876" lon="1.56666">
        <ele>201</ele>
        <time>2014-08-24T08:55:48Z</time>
      </trkpt>
      <trkpt lat="43.89876" lon="1.56666">
        <ele>201</ele>
        <time>2014-08-24T08:55:53Z</time>
      </trkpt>
      <trkpt lat="43.89876" lon="1.56665">
        <ele>201</ele>
        <time>2014-08-24T08:55:58Z</time>
      </trkpt>
      <trkpt lat="43.89876" lon="1.56663">
        <ele>201</ele>
        <time>2014-08-24T08:56:05Z</time>
      </trkpt>
      <trkpt lat="43.89877" lon="1.56663">
        <ele>201</ele>
        <time>2014-08-24T08:56:08Z</time>
      </trkpt>
      <trkpt lat="43.89877" lon="1.56663">
        <ele>201</ele>
        <time>2014-08-24T08:56:13Z</time>
      </trkpt>
      <trkpt lat="43.89877" lon="1.56663">
        <ele>201</ele>
        <time>2014-08-24T08:56:18Z</time>
      </trkpt>
      <trkpt lat="43.89877" lon="1.56664">
        <ele>201</ele>
        <time>2014-08-24T08:56:23Z</time>
      </trkpt>
      <trkpt lat="43.89877" lon="1.56663">
        <ele>201</ele>
        <time>2014-08-24T08:56:28Z</time>
      </trkpt>
      <trkpt lat="43.89877" lon="1.56663">
        <ele>201</ele>
        <time>2014-08-24T08:56:33Z</time>
      </trkpt>
      <trkpt lat="43.89877" lon="1.56663">
        <ele>201</ele>
        <time>2014-08-24T08:56:38Z</time>
      </trkpt>
      <trkpt lat="43.89877" lon="1.56663">
        <ele>201</ele>
        <time>2014-08-24T08:56:42Z</time>
      </trkpt>
      <trkpt lat="43.89877" lon="1.56663">
        <ele>201</ele>
        <time>2014-08-24T08:56:47Z</time>
      </trkpt>
      <trkpt lat="43.89877" lon="1.56664">
        <ele>201</ele>
        <time>2014-08-24T08:56:52Z</time>
      </trkpt>
      <trkpt lat="43.89876" lon="1.56663">
        <ele>201</ele>
        <time>2014-08-24T08:57:01Z</time>
      </trkpt>
      <trkpt lat="43.89874" lon="1.56662">
        <ele>201</ele>
        <time>2014-08-24T08:57:06Z</time>
      </trkpt>
      <trkpt lat="43.89873" lon="1.56662">
        <ele>201</ele>
        <time>2014-08-24T08:57:07Z</time>
      </trkpt>
      <trkpt lat="43.89874" lon="1.56662">
        <ele>201</ele>
        <time>2014-08-24T08:57:13Z</time>
      </trkpt>
      <trkpt lat="43.89875" lon="1.56662">
        <ele>201</ele>
        <time>2014-08-24T08:57:17Z</time>
      </trkpt>
      <trkpt lat="43.89875" lon="1.56663">
        <ele>201</ele>
        <time>2014-08-24T08:57:23Z</time>
      </trkpt>
      <trkpt lat="43.89875" lon="1.56662">
        <ele>201</ele>
        <time>2014-08-24T08:57:27Z</time>
      </trkpt>
      <trkpt lat="43.89875" lon="1.56663">
        <ele>201</ele>
        <time>2014-08-24T08:57:32Z</time>
      </trkpt>
      <trkpt lat="43.89875" lon="1.56661">
        <ele>201</ele>
        <time>2014-08-24T08:57:40Z</time>
      </trkpt>
      <trkpt lat="43.89875" lon="1.56661">
        <ele>201</ele>
        <time>2014-08-24T08:57:42Z</time>
      </trkpt>
      <trkpt lat="43.89875" lon="1.56661">
        <ele>201</ele>
        <time>2014-08-24T08:57:47Z</time>
      </trkpt>
      <trkpt lat="43.89875" lon="1.56661">
        <ele>201</ele>
        <time>2014-08-24T08:57:52Z</time>
      </trkpt>
      <trkpt lat="43.89877" lon="1.56662">
        <ele>201</ele>
        <time>2014-08-24T08:57:58Z</time>
      </trkpt>
      <trkpt lat="43.89878" lon="1.56662">
        <ele>201</ele>
        <time>2014-08-24T08:58:02Z</time>
      </trkpt>
      <trkpt lat="43.89878" lon="1.56662">
        <ele>201</ele>
        <time>2014-08-24T08:58:07Z</time>
      </trkpt>
      <trkpt lat="43.89878" lon="1.56663">
        <ele>201</ele>
        <time>2014-08-24T08:58:12Z</time>
      </trkpt>
      <trkpt lat="43.89878" lon="1.56664">
        <ele>201</ele>
        <time>2014-08-24T08:58:17Z</time>
      </trkpt>
      <trkpt lat="43.89878" lon="1.56665">
        <ele>201</ele>
        <time>2014-08-24T08:58:22Z</time>
      </trkpt>
      <trkpt lat="43.89878" lon="1.56665">
        <ele>201</ele>
        <time>2014-08-24T08:58:27Z</time>
      </trkpt>
      <trkpt lat="43.89878" lon="1.56665">
        <ele>201</ele>
        <time>2014-08-24T08:58:32Z</time>
      </trkpt>
      <trkpt lat="43.89878" lon="1.56665">
        <ele>201</ele>
        <time>2014-08-24T08:58:37Z</time>
      </trkpt>
      <trkpt lat="43.89878" lon="1.56665">
        <ele>201</ele>
        <time>2014-08-24T08:58:42Z</time>
      </trkpt>
      <trkpt lat="43.89877" lon="1.56665">
        <ele>201</ele>
        <time>2014-08-24T08:58:48Z</time>
      </trkpt>
      <trkpt lat="43.89878" lon="1.56665">
        <ele>201</ele>
        <time>2014-08-24T08:58:52Z</time>
      </trkpt>
      <trkpt lat="43.89877" lon="1.56664">
        <ele>201</ele>
        <time>2014-08-24T08:58:57Z</time>
      </trkpt>
      <trkpt lat="43.89876" lon="1.56662">
        <ele>201</ele>
        <time>2014-08-24T08:59:03Z</time>
      </trkpt>
      <trkpt lat="43.89876" lon="1.56662">
        <ele>201</ele>
        <time>2014-08-24T08:59:07Z</time>
      </trkpt>
      <trkpt lat="43.89874" lon="1.56663">
        <ele>201</ele>
        <time>2014-08-24T08:59:14Z</time>
      </trkpt>
      <trkpt lat="43.89873" lon="1.56662">
        <ele>201</ele>
        <time>2014-08-24T08:59:17Z</time>
      </trkpt>
      <trkpt lat="43.89873" lon="1.56662">
        <ele>201</ele>
        <time>2014-08-24T08:59:22Z</time>
      </trkpt>
      <trkpt lat="43.89873" lon="1.56662">
        <ele>201</ele>
        <time>2014-08-24T08:59:27Z</time>
      </trkpt>
      <trkpt lat="43.89873" lon="1.56662">
        <ele>201</ele>
        <time>2014-08-24T08:59:32Z</time>
      </trkpt>
      <trkpt lat="43.89873" lon="1.56662">
        <ele>201</ele>
        <time>2014-08-24T08:59:37Z</time>
      </trkpt>
      <trkpt lat="43.89873" lon="1.56662">
        <ele>201</ele>
        <time>2014-08-24T08:59:42Z</time>
      </trkpt>
      <trkpt lat="43.89874" lon="1.56662">
        <ele>201</ele>
        <time>2014-08-24T08:59:47Z</time>
      </trkpt>
      <trkpt lat="43.89874" lon="1.56662">
        <ele>201</ele>
        <time>2014-08-24T08:59:52Z</time>
      </trkpt>
      <trkpt lat="43.89874" lon="1.56661">
        <ele>201</ele>
        <time>2014-08-24T08:59:57Z</time>
      </trkpt>
      <trkpt lat="43.89874" lon="1.56661">
        <ele>201</ele>
        <time>2014-08-24T09:00:02Z</time>
      </trkpt>
      <trkpt lat="43.89874" lon="1.56661">
        <ele>201</ele>
        <time>2014-08-24T09:00:07Z</time>
      </trkpt>
      <trkpt lat="43.89874" lon="1.56662">
        <ele>201</ele>
        <time>2014-08-24T09:00:12Z</time>
      </trkpt>
      <trkpt lat="43.89877" lon="1.56663">
        <ele>201</ele>
        <time>2014-08-24T09:00:17Z</time>
      </trkpt>
      <trkpt lat="43.89877" lon="1.56664">
        <ele>201</ele>
        <time>2014-08-24T09:00:22Z</time>
      </trkpt>
      <trkpt lat="43.89876" lon="1.56666">
        <ele>201</ele>
        <time>2014-08-24T09:00:27Z</time>
      </trkpt>
      <trkpt lat="43.89876" lon="1.56666">
        <ele>201</ele>
        <time>2014-08-24T09:00:32Z</time>
      </trkpt>
      <trkpt lat="43.89876" lon="1.56666">
        <ele>201</ele>
        <time>2014-08-24T09:00:37Z</time>
      </trkpt>
      <trkpt lat="43.89876" lon="1.56666">
        <ele>201</ele>
        <time>2014-08-24T09:00:42Z</time>
      </trkpt>
      <trkpt lat="43.89876" lon="1.56666">
        <ele>201</ele>
        <time>2014-08-24T09:00:47Z</time>
      </trkpt>
      <trkpt lat="43.89876" lon="1.56666">
        <ele>201</ele>
        <time>2014-08-24T09:00:52Z</time>
      </trkpt>
      <trkpt lat="43.89879" lon="1.56663">
        <ele>201</ele>
        <time>2014-08-24T09:00:59Z</time>
      </trkpt>
      <trkpt lat="43.8988" lon="1.5666">
        <ele>201</ele>
        <time>2014-08-24T09:01:04Z</time>
      </trkpt>
      <trkpt lat="43.8988" lon="1.5666">
        <ele>201</ele>
        <time>2014-08-24T09:01:07Z</time>
      </trkpt>
      <trkpt lat="43.89883" lon="1.56653">
        <ele>201</ele>
        <time>2014-08-24T09:01:14Z</time>
      </trkpt>
      <trkpt lat="43.89886" lon="1.56647">
        <ele>201</ele>
        <time>2014-08-24T09:01:17Z</time>
      </trkpt>
      <trkpt lat="43.89897" lon="1.56634">
        <ele>200</ele>
        <time>2014-08-24T09:01:23Z</time>
      </trkpt>
      <trkpt lat="43.89898" lon="1.5663">
        <ele>200</ele>
        <time>2014-08-24T09:01:27Z</time>
      </trkpt>
      <trkpt lat="43.89899" lon="1.56629">
        <ele>200</ele>
        <time>2014-08-24T09:01:32Z</time>
      </trkpt>
      <trkpt lat="43.89904" lon="1.56618">
        <ele>199</ele>
        <time>2014-08-24T09:01:37Z</time>
      </trkpt>
      <trkpt lat="43.89902" lon="1.56594">
        <ele>198</ele>
        <time>2014-08-24T09:01:43Z</time>
      </trkpt>
      <trkpt lat="43.89897" lon="1.5658">
        <ele>198</ele>
        <time>2014-08-24T09:01:47Z</time>
      </trkpt>
      <trkpt lat="43.89878" lon="1.56567">
        <ele>198</ele>
        <time>2014-08-24T09:01:54Z</time>
      </trkpt>
      <trkpt lat="43.89869" lon="1.56561">
        <ele>199</ele>
        <time>2014-08-24T09:01:57Z</time>
      </trkpt>
      <trkpt lat="43.89855" lon="1.56551">
        <ele>200</ele>
        <time>2014-08-24T09:02:02Z</time>
      </trkpt>
      <trkpt lat="43.8984" lon="1.56542">
        <ele>201</ele>
        <time>2014-08-24T09:02:07Z</time>
      </trkpt>
      <trkpt lat="43.89816" lon="1.56525">
        <ele>202</ele>
        <time>2014-08-24T09:02:16Z</time>
      </trkpt>
      <trkpt lat="43.89813" lon="1.56523">
        <ele>202</ele>
        <time>2014-08-24T09:02:17Z</time>
      </trkpt>
      <trkpt lat="43.898" lon="1.56515">
        <ele>202</ele>
        <time>2014-08-24T09:02:22Z</time>
      </trkpt>
      <trkpt lat="43.89786" lon="1.56507">
        <ele>202</ele>
        <time>2014-08-24T09:02:27Z</time>
      </trkpt>
      <trkpt lat="43.89762" lon="1.56497">
        <ele>201</ele>
        <time>2014-08-24T09:02:36Z</time>
      </trkpt>
      <trkpt lat="43.89759" lon="1.56497">
        <ele>200</ele>
        <time>2014-08-24T09:02:37Z</time>
      </trkpt>
      <trkpt lat="43.89743" lon="1.56494">
        <ele>199</ele>
        <time>2014-08-24T09:02:43Z</time>
      </trkpt>
      <trkpt lat="43.89734" lon="1.56494">
        <ele>199</ele>
        <time>2014-08-24T09:02:46Z</time>
      </trkpt>
      <trkpt lat="43.89719" lon="1.56495">
        <ele>198</ele>
        <time>2014-08-24T09:02:51Z</time>
      </trkpt>
      <trkpt lat="43.89697" lon="1.56497">
        <ele>197</ele>
        <time>2014-08-24T09:02:57Z</time>
      </trkpt>
      <trkpt lat="43.89676" lon="1.56499">
        <ele>198</ele>
        <time>2014-08-24T09:03:03Z</time>
      </trkpt>
      <trkpt lat="43.89665" lon="1.565">
        <ele>198</ele>
        <time>2014-08-24T09:03:06Z</time>
      </trkpt>
      <trkpt lat="43.89647" lon="1.56502">
        <ele>198</ele>
        <time>2014-08-24T09:03:11Z</time>
      </trkpt>
      <trkpt lat="43.89628" lon="1.56503">
        <ele>199</ele>
        <time>2014-08-24T09:03:16Z</time>
      </trkpt>
      <trkpt lat="43.89609" lon="1.56502">
        <ele>200</ele>
        <time>2014-08-24T09:03:21Z</time>
      </trkpt>
      <trkpt lat="43.89589" lon="1.56501">
        <ele>201</ele>
        <time>2014-08-24T09:03:26Z</time>
      </trkpt>
      <trkpt lat="43.89562" lon="1.56496">
        <ele>203</ele>
        <time>2014-08-24T09:03:33Z</time>
      </trkpt>
      <trkpt lat="43.89547" lon="1.56492">
        <ele>204</ele>
        <time>2014-08-24T09:03:37Z</time>
      </trkpt>
      <trkpt lat="43.89532" lon="1.56488">
        <ele>205</ele>
        <time>2014-08-24T09:03:41Z</time>
      </trkpt>
      <trkpt lat="43.89513" lon="1.56482">
        <ele>208</ele>
        <time>2014-08-24T09:03:46Z</time>
      </trkpt>
      <trkpt lat="43.89495" lon="1.56477">
        <ele>210</ele>
        <time>2014-08-24T09:03:51Z</time>
      </trkpt>
      <trkpt lat="43.89476" lon="1.56471">
        <ele>211</ele>
        <time>2014-08-24T09:03:57Z</time>
      </trkpt>
      <trkpt lat="43.89464" lon="1.56468">
        <ele>212</ele>
        <time>2014-08-24T09:04:01Z</time>
      </trkpt>
      <trkpt lat="43.89453" lon="1.56466">
        <ele>212</ele>
        <time>2014-08-24T09:04:06Z</time>
      </trkpt>
      <trkpt lat="43.89444" lon="1.56464">
        <ele>213</ele>
        <time>2014-08-24T09:04:10Z</time>
      </trkpt>
      <trkpt lat="43.89428" lon="1.56459">
        <ele>213</ele>
        <time>2014-08-24T09:04:18Z</time>
      </trkpt>
      <trkpt lat="43.89428" lon="1.56454">
        <ele>213</ele>
        <time>2014-08-24T09:04:20Z</time>
      </trkpt>
      <trkpt lat="43.89436" lon="1.56442">
        <ele>213</ele>
        <time>2014-08-24T09:04:25Z</time>
      </trkpt>
      <trkpt lat="43.89443" lon="1.56432">
        <ele>213</ele>
        <time>2014-08-24T09:04:29Z</time>
      </trkpt>
      <trkpt lat="43.89448" lon="1.56423">
        <ele>213</ele>
        <time>2014-08-24T09:04:32Z</time>
      </trkpt>
      <trkpt lat="43.89457" lon="1.56408">
        <ele>212</ele>
        <time>2014-08-24T09:04:37Z</time>
      </trkpt>
      <trkpt lat="43.89465" lon="1.56391">
        <ele>211</ele>
        <time>2014-08-24T09:04:42Z</time>
      </trkpt>
      <trkpt lat="43.89473" lon="1.56374">
        <ele>211</ele>
        <time>2014-08-24T09:04:47Z</time>
      </trkpt>
      <trkpt lat="43.89478" lon="1.56356">
        <ele>210</ele>
        <time>2014-08-24T09:04:52Z</time>
      </trkpt>
      <trkpt lat="43.8949" lon="1.56321">
        <ele>209</ele>
        <time>2014-08-24T09:05:01Z</time>
      </trkpt>
      <trkpt lat="43.89493" lon="1.56316">
        <ele>208</ele>
        <time>2014-08-24T09:05:02Z</time>
      </trkpt>
      <trkpt lat="43.89518" lon="1.56273">
        <ele>206</ele>
        <time>2014-08-24T09:05:09Z</time>
      </trkpt>
      <trkpt lat="43.89531" lon="1.56253">
        <ele>205</ele>
        <time>2014-08-24T09:05:12Z</time>
      </trkpt>
      <trkpt lat="43.89556" lon="1.5621">
        <ele>203</ele>
        <time>2014-08-24T09:05:18Z</time>
      </trkpt>
      <trkpt lat="43.89571" lon="1.56181">
        <ele>202</ele>
        <time>2014-08-24T09:05:22Z</time>
      </trkpt>
      <trkpt lat="43.89587" lon="1.56146">
        <ele>202</ele>
        <time>2014-08-24T09:05:27Z</time>
      </trkpt>
      <trkpt lat="43.896" lon="1.56111">
        <ele>201</ele>
        <time>2014-08-24T09:05:32Z</time>
      </trkpt>
      <trkpt lat="43.89611" lon="1.56078">
        <ele>200</ele>
        <time>2014-08-24T09:05:37Z</time>
      </trkpt>
      <trkpt lat="43.89621" lon="1.56045">
        <ele>200</ele>
        <time>2014-08-24T09:05:42Z</time>
      </trkpt>
      <trkpt lat="43.8964" lon="1.55996">
        <ele>201</ele>
        <time>2014-08-24T09:05:51Z</time>
      </trkpt>
      <trkpt lat="43.89642" lon="1.55991">
        <ele>201</ele>
        <time>2014-08-24T09:05:52Z</time>
      </trkpt>
      <trkpt lat="43.89651" lon="1.55966">
        <ele>200</ele>
        <time>2014-08-24T09:05:57Z</time>
      </trkpt>
      <trkpt lat="43.89659" lon="1.55939">
        <ele>200</ele>
        <time>2014-08-24T09:06:02Z</time>
      </trkpt>
      <trkpt lat="43.8967" lon="1.5591">
        <ele>201</ele>
        <time>2014-08-24T09:06:07Z</time>
      </trkpt>
      <trkpt lat="43.89683" lon="1.55882">
        <ele>201</ele>
        <time>2014-08-24T09:06:12Z</time>
      </trkpt>
      <trkpt lat="43.89705" lon="1.55847">
        <ele>200</ele>
        <time>2014-08-24T09:06:18Z</time>
      </trkpt>
      <trkpt lat="43.89726" lon="1.55821">
        <ele>199</ele>
        <time>2014-08-24T09:06:22Z</time>
      </trkpt>
      <trkpt lat="43.89756" lon="1.5579">
        <ele>196</ele>
        <time>2014-08-24T09:06:27Z</time>
      </trkpt>
      <trkpt lat="43.89798" lon="1.55748">
        <ele>192</ele>
        <time>2014-08-24T09:06:33Z</time>
      </trkpt>
      <trkpt lat="43.89855" lon="1.55694">
        <ele>188</ele>
        <time>2014-08-24T09:06:41Z</time>
      </trkpt>
      <trkpt lat="43.89862" lon="1.55689">
        <ele>188</ele>
        <time>2014-08-24T09:06:42Z</time>
      </trkpt>
      <trkpt lat="43.89893" lon="1.55659">
        <ele>188</ele>
        <time>2014-08-24T09:06:47Z</time>
      </trkpt>
      <trkpt lat="43.89937" lon="1.55615">
        <ele>187</ele>
        <time>2014-08-24T09:06:55Z</time>
      </trkpt>
      <trkpt lat="43.89947" lon="1.55604">
        <ele>187</ele>
        <time>2014-08-24T09:06:57Z</time>
      </trkpt>
      <trkpt lat="43.89975" lon="1.55577">
        <ele>186</ele>
        <time>2014-08-24T09:07:03Z</time>
      </trkpt>
      <trkpt lat="43.89994" lon="1.55558">
        <ele>185</ele>
        <time>2014-08-24T09:07:07Z</time>
      </trkpt>
      <trkpt lat="43.90013" lon="1.55538">
        <ele>184</ele>
        <time>2014-08-24T09:07:11Z</time>
      </trkpt>
      <trkpt lat="43.90036" lon="1.55512">
        <ele>183</ele>
        <time>2014-08-24T09:07:16Z</time>
      </trkpt>
      <trkpt lat="43.9006" lon="1.55491">
        <ele>182</ele>
        <time>2014-08-24T09:07:21Z</time>
      </trkpt>
      <trkpt lat="43.90086" lon="1.55473">
        <ele>182</ele>
        <time>2014-08-24T09:07:26Z</time>
      </trkpt>
      <trkpt lat="43.90124" lon="1.55432">
        <ele>181</ele>
        <time>2014-08-24T09:07:34Z</time>
      </trkpt>
      <trkpt lat="43.90134" lon="1.55422">
        <ele>181</ele>
        <time>2014-08-24T09:07:36Z</time>
      </trkpt>
      <trkpt lat="43.90159" lon="1.55394">
        <ele>180</ele>
        <time>2014-08-24T09:07:41Z</time>
      </trkpt>
      <trkpt lat="43.90187" lon="1.55363">
        <ele>181</ele>
        <time>2014-08-24T09:07:47Z</time>
      </trkpt>
      <trkpt lat="43.90201" lon="1.55342">
        <ele>180</ele>
        <time>2014-08-24T09:07:51Z</time>
      </trkpt>
      <trkpt lat="43.90216" lon="1.55315">
        <ele>180</ele>
        <time>2014-08-24T09:07:56Z</time>
      </trkpt>
      <trkpt lat="43.90233" lon="1.55286">
        <ele>181</ele>
        <time>2014-08-24T09:08:01Z</time>
      </trkpt>
      <trkpt lat="43.90251" lon="1.55257">
        <ele>181</ele>
        <time>2014-08-24T09:08:06Z</time>
      </trkpt>
      <trkpt lat="43.90264" lon="1.55239">
        <ele>181</ele>
        <time>2014-08-24T09:08:11Z</time>
      </trkpt>
      <trkpt lat="43.90272" lon="1.55229">
        <ele>181</ele>
        <time>2014-08-24T09:08:16Z</time>
      </trkpt>
      <trkpt lat="43.90292" lon="1.55199">
        <ele>181</ele>
        <time>2014-08-24T09:08:23Z</time>
      </trkpt>
      <trkpt lat="43.90307" lon="1.55178">
        <ele>181</ele>
        <time>2014-08-24T09:08:27Z</time>
      </trkpt>
      <trkpt lat="43.90322" lon="1.55158">
        <ele>179</ele>
        <time>2014-08-24T09:08:31Z</time>
      </trkpt>
      <trkpt lat="43.90342" lon="1.55129">
        <ele>178</ele>
        <time>2014-08-24T09:08:36Z</time>
      </trkpt>
      <trkpt lat="43.90342" lon="1.55094">
        <ele>175</ele>
        <time>2014-08-24T09:08:41Z</time>
      </trkpt>
      <trkpt lat="43.90326" lon="1.55068">
        <ele>172</ele>
        <time>2014-08-24T09:08:46Z</time>
      </trkpt>
      <trkpt lat="43.90307" lon="1.55034">
        <ele>168</ele>
        <time>2014-08-24T09:08:51Z</time>
      </trkpt>
      <trkpt lat="43.90289" lon="1.54999">
        <ele>165</ele>
        <time>2014-08-24T09:08:56Z</time>
      </trkpt>
      <trkpt lat="43.90277" lon="1.54928">
        <ele>157</ele>
        <time>2014-08-24T09:09:05Z</time>
      </trkpt>
      <trkpt lat="43.90276" lon="1.5492">
        <ele>156</ele>
        <time>2014-08-24T09:09:06Z</time>
      </trkpt>
      <trkpt lat="43.90272" lon="1.54877">
        <ele>151</ele>
        <time>2014-08-24T09:09:11Z</time>
      </trkpt>
      <trkpt lat="43.90275" lon="1.54818">
        <ele>143</ele>
        <time>2014-08-24T09:09:18Z</time>
      </trkpt>
      <trkpt lat="43.90276" lon="1.54795">
        <ele>140</ele>
        <time>2014-08-24T09:09:21Z</time>
      </trkpt>
      <trkpt lat="43.90282" lon="1.54751">
        <ele>137</ele>
        <time>2014-08-24T09:09:26Z</time>
      </trkpt>
      <trkpt lat="43.90289" lon="1.54709">
        <ele>138</ele>
        <time>2014-08-24T09:09:31Z</time>
      </trkpt>
      <trkpt lat="43.90289" lon="1.54672">
        <ele>139</ele>
        <time>2014-08-24T09:09:37Z</time>
      </trkpt>
      <trkpt lat="43.90278" lon="1.54669">
        <ele>139</ele>
        <time>2014-08-24T09:09:41Z</time>
      </trkpt>
      <trkpt lat="43.90266" lon="1.54663">
        <ele>140</ele>
        <time>2014-08-24T09:09:46Z</time>
      </trkpt>
      <trkpt lat="43.90256" lon="1.54651">
        <ele>141</ele>
        <time>2014-08-24T09:09:51Z</time>
      </trkpt>
      <trkpt lat="43.90247" lon="1.54636">
        <ele>142</ele>
        <time>2014-08-24T09:10:00Z</time>
      </trkpt>
      <trkpt lat="43.90246" lon="1.54634">
        <ele>142</ele>
        <time>2014-08-24T09:10:01Z</time>
      </trkpt>
      <trkpt lat="43.90244" lon="1.54625">
        <ele>143</ele>
        <time>2014-08-24T09:10:06Z</time>
      </trkpt>
      <trkpt lat="43.90245" lon="1.54618">
        <ele>143</ele>
        <time>2014-08-24T09:10:11Z</time>
      </trkpt>
      <trkpt lat="43.90246" lon="1.54609">
        <ele>144</ele>
        <time>2014-08-24T09:10:16Z</time>
      </trkpt>
      <trkpt lat="43.90246" lon="1.54597">
        <ele>144</ele>
        <time>2014-08-24T09:10:21Z</time>
      </trkpt>
      <trkpt lat="43.90245" lon="1.54586">
        <ele>145</ele>
        <time>2014-08-24T09:10:26Z</time>
      </trkpt>
      <trkpt lat="43.90244" lon="1.54575">
        <ele>146</ele>
        <time>2014-08-24T09:10:31Z</time>
      </trkpt>
      <trkpt lat="43.90242" lon="1.54565">
        <ele>147</ele>
        <time>2014-08-24T09:10:36Z</time>
      </trkpt>
      <trkpt lat="43.9024" lon="1.54549">
        <ele>148</ele>
        <time>2014-08-24T09:10:43Z</time>
      </trkpt>
      <trkpt lat="43.9024" lon="1.54543">
        <ele>148</ele>
        <time>2014-08-24T09:10:46Z</time>
      </trkpt>
      <trkpt lat="43.90237" lon="1.54533">
        <ele>149</ele>
        <time>2014-08-24T09:10:51Z</time>
      </trkpt>
      <trkpt lat="43.90232" lon="1.54517">
        <ele>150</ele>
        <time>2014-08-24T09:11:00Z</time>
      </trkpt>
      <trkpt lat="43.90232" lon="1.54515">
        <ele>150</ele>
        <time>2014-08-24T09:11:02Z</time>
      </trkpt>
      <trkpt lat="43.90231" lon="1.5451">
        <ele>151</ele>
        <time>2014-08-24T09:11:06Z</time>
      </trkpt>
      <trkpt lat="43.90228" lon="1.545">
        <ele>152</ele>
        <time>2014-08-24T09:11:12Z</time>
      </trkpt>
      <trkpt lat="43.90226" lon="1.54493">
        <ele>152</ele>
        <time>2014-08-24T09:11:16Z</time>
      </trkpt>
      <trkpt lat="43.90222" lon="1.54478">
        <ele>153</ele>
        <time>2014-08-24T09:11:25Z</time>
      </trkpt>
      <trkpt lat="43.90222" lon="1.54472">
        <ele>153</ele>
        <time>2014-08-24T09:11:30Z</time>
      </trkpt>
      <trkpt lat="43.90221" lon="1.5447">
        <ele>154</ele>
        <time>2014-08-24T09:11:32Z</time>
      </trkpt>
      <trkpt lat="43.90221" lon="1.54464">
        <ele>154</ele>
        <time>2014-08-24T09:11:36Z</time>
      </trkpt>
      <trkpt lat="43.90219" lon="1.54455">
        <ele>154</ele>
        <time>2014-08-24T09:11:42Z</time>
      </trkpt>
      <trkpt lat="43.90217" lon="1.5445">
        <ele>155</ele>
        <time>2014-08-24T09:11:45Z</time>
      </trkpt>
      <trkpt lat="43.90214" lon="1.54439">
        <ele>155</ele>
        <time>2014-08-24T09:11:52Z</time>
      </trkpt>
      <trkpt lat="43.90213" lon="1.54435">
        <ele>156</ele>
        <time>2014-08-24T09:11:55Z</time>
      </trkpt>
      <trkpt lat="43.9021" lon="1.54428">
        <ele>157</ele>
        <time>2014-08-24T09:12:00Z</time>
      </trkpt>
      <trkpt lat="43.90204" lon="1.54418">
        <ele>158</ele>
        <time>2014-08-24T09:12:07Z</time>
      </trkpt>
      <trkpt lat="43.90201" lon="1.54414">
        <ele>158</ele>
        <time>2014-08-24T09:12:10Z</time>
      </trkpt>
      <trkpt lat="43.90196" lon="1.54407">
        <ele>159</ele>
        <time>2014-08-24T09:12:15Z</time>
      </trkpt>
      <trkpt lat="43.90192" lon="1.54401">
        <ele>160</ele>
        <time>2014-08-24T09:12:20Z</time>
      </trkpt>
      <trkpt lat="43.90183" lon="1.54392">
        <ele>161</ele>
        <time>2014-08-24T09:12:29Z</time>
      </trkpt>
      <trkpt lat="43.90182" lon="1.54391">
        <ele>161</ele>
        <time>2014-08-24T09:12:30Z</time>
      </trkpt>
      <trkpt lat="43.90175" lon="1.54386">
        <ele>162</ele>
        <time>2014-08-24T09:12:36Z</time>
      </trkpt>
      <trkpt lat="43.90172" lon="1.54382">
        <ele>163</ele>
        <time>2014-08-24T09:12:40Z</time>
      </trkpt>
      <trkpt lat="43.90165" lon="1.54373">
        <ele>164</ele>
        <time>2014-08-24T09:12:48Z</time>
      </trkpt>
      <trkpt lat="43.90163" lon="1.54371">
        <ele>165</ele>
        <time>2014-08-24T09:12:50Z</time>
      </trkpt>
      <trkpt lat="43.90158" lon="1.54366">
        <ele>166</ele>
        <time>2014-08-24T09:12:56Z</time>
      </trkpt>
      <trkpt lat="43.90154" lon="1.54359">
        <ele>167</ele>
        <time>2014-08-24T09:13:02Z</time>
      </trkpt>
      <trkpt lat="43.90152" lon="1.54357">
        <ele>167</ele>
        <time>2014-08-24T09:13:05Z</time>
      </trkpt>
      <trkpt lat="43.90148" lon="1.54353">
        <ele>167</ele>
        <time>2014-08-24T09:13:10Z</time>
      </trkpt>
      <trkpt lat="43.90144" lon="1.54349">
        <ele>168</ele>
        <time>2014-08-24T09:13:15Z</time>
      </trkpt>
      <trkpt lat="43.90142" lon="1.54346">
        <ele>168</ele>
        <time>2014-08-24T09:13:20Z</time>
      </trkpt>
      <trkpt lat="43.90139" lon="1.54342">
        <ele>168</ele>
        <time>2014-08-24T09:13:25Z</time>
      </trkpt>
      <trkpt lat="43.90137" lon="1.54338">
        <ele>168</ele>
        <time>2014-08-24T09:13:30Z</time>
      </trkpt>
      <trkpt lat="43.90133" lon="1.54335">
        <ele>168</ele>
        <time>2014-08-24T09:13:36Z</time>
      </trkpt>
      <trkpt lat="43.90131" lon="1.5433">
        <ele>168</ele>
        <time>2014-08-24T09:13:41Z</time>
      </trkpt>
      <trkpt lat="43.90128" lon="1.54326">
        <ele>168</ele>
        <time>2014-08-24T09:13:45Z</time>
      </trkpt>
      <trkpt lat="43.90125" lon="1.54321">
        <ele>168</ele>
        <time>2014-08-24T09:13:50Z</time>
      </trkpt>
      <trkpt lat="43.90123" lon="1.54316">
        <ele>168</ele>
        <time>2014-08-24T09:13:55Z</time>
      </trkpt>
      <trkpt lat="43.90119" lon="1.54312">
        <ele>168</ele>
        <time>2014-08-24T09:14:00Z</time>
      </trkpt>
      <trkpt lat="43.90112" lon="1.54307">
        <ele>168</ele>
        <time>2014-08-24T09:14:08Z</time>
      </trkpt>
      <trkpt lat="43.90108" lon="1.54307">
        <ele>168</ele>
        <time>2014-08-24T09:14:11Z</time>
      </trkpt>
      <trkpt lat="43.90104" lon="1.54309">
        <ele>169</ele>
        <time>2014-08-24T09:14:15Z</time>
      </trkpt>
      <trkpt lat="43.90096" lon="1.54312">
        <ele>170</ele>
        <time>2014-08-24T09:14:20Z</time>
      </trkpt>
      <trkpt lat="43.90087" lon="1.54314">
        <ele>171</ele>
        <time>2014-08-24T09:14:25Z</time>
      </trkpt>
      <trkpt lat="43.90079" lon="1.54312">
        <ele>172</ele>
        <time>2014-08-24T09:14:30Z</time>
      </trkpt>
      <trkpt lat="43.90065" lon="1.54304">
        <ele>174</ele>
        <time>2014-08-24T09:14:38Z</time>
      </trkpt>
      <trkpt lat="43.9006" lon="1.54301">
        <ele>174</ele>
        <time>2014-08-24T09:14:41Z</time>
      </trkpt>
      <trkpt lat="43.90052" lon="1.54297">
        <ele>176</ele>
        <time>2014-08-24T09:14:45Z</time>
      </trkpt>
      <trkpt lat="43.90041" lon="1.54291">
        <ele>177</ele>
        <time>2014-08-24T09:14:50Z</time>
      </trkpt>
      <trkpt lat="43.90032" lon="1.54285">
        <ele>179</ele>
        <time>2014-08-24T09:14:55Z</time>
      </trkpt>
      <trkpt lat="43.90024" lon="1.54277">
        <ele>180</ele>
        <time>2014-08-24T09:15:00Z</time>
      </trkpt>
      <trkpt lat="43.90015" lon="1.54269">
        <ele>180</ele>
        <time>2014-08-24T09:15:05Z</time>
      </trkpt>
      <trkpt lat="43.90002" lon="1.54258">
        <ele>182</ele>
        <time>2014-08-24T09:15:13Z</time>
      </trkpt>
      <trkpt lat="43.89998" lon="1.54254">
        <ele>182</ele>
        <time>2014-08-24T09:15:16Z</time>
      </trkpt>
      <trkpt lat="43.89995" lon="1.54251">
        <ele>182</ele>
        <time>2014-08-24T09:15:20Z</time>
      </trkpt>
      <trkpt lat="43.8999" lon="1.54248">
        <ele>183</ele>
        <time>2014-08-24T09:15:25Z</time>
      </trkpt>
      <trkpt lat="43.89986" lon="1.54244">
        <ele>183</ele>
        <time>2014-08-24T09:15:30Z</time>
      </trkpt>
      <trkpt lat="43.89979" lon="1.54237">
        <ele>183</ele>
        <time>2014-08-24T09:15:38Z</time>
      </trkpt>
      <trkpt lat="43.89977" lon="1.54235">
        <ele>183</ele>
        <time>2014-08-24T09:15:40Z</time>
      </trkpt>
      <trkpt lat="43.8997" lon="1.54229">
        <ele>183</ele>
        <time>2014-08-24T09:15:46Z</time>
      </trkpt>
      <trkpt lat="43.89965" lon="1.54226">
        <ele>183</ele>
        <time>2014-08-24T09:15:50Z</time>
      </trkpt>
      <trkpt lat="43.89955" lon="1.54214">
        <ele>182</ele>
        <time>2014-08-24T09:15:59Z</time>
      </trkpt>
      <trkpt lat="43.89953" lon="1.54212">
        <ele>182</ele>
        <time>2014-08-24T09:16:00Z</time>
      </trkpt>
      <trkpt lat="43.89945" lon="1.54202">
        <ele>182</ele>
        <time>2014-08-24T09:16:05Z</time>
      </trkpt>
      <trkpt lat="43.8995" lon="1.5418">
        <ele>180</ele>
        <time>2014-08-24T09:16:13Z</time>
      </trkpt>
      <trkpt lat="43.89955" lon="1.54175">
        <ele>180</ele>
        <time>2014-08-24T09:16:15Z</time>
      </trkpt>
      <trkpt lat="43.89969" lon="1.5416">
        <ele>180</ele>
        <time>2014-08-24T09:16:20Z</time>
      </trkpt>
      <trkpt lat="43.89985" lon="1.54141">
        <ele>180</ele>
        <time>2014-08-24T09:16:25Z</time>
      </trkpt>
      <trkpt lat="43.90001" lon="1.54123">
        <ele>179</ele>
        <time>2014-08-24T09:16:30Z</time>
      </trkpt>
      <trkpt lat="43.90034" lon="1.54088">
        <ele>177</ele>
        <time>2014-08-24T09:16:39Z</time>
      </trkpt>
      <trkpt lat="43.90054" lon="1.54078">
        <ele>177</ele>
        <time>2014-08-24T09:16:43Z</time>
      </trkpt>
      <trkpt lat="43.9007" lon="1.54075">
        <ele>177</ele>
        <time>2014-08-24T09:16:46Z</time>
      </trkpt>
      <trkpt lat="43.90091" lon="1.54073">
        <ele>178</ele>
        <time>2014-08-24T09:16:50Z</time>
      </trkpt>
      <trkpt lat="43.90119" lon="1.5407">
        <ele>178</ele>
        <time>2014-08-24T09:16:55Z</time>
      </trkpt>
      <trkpt lat="43.90145" lon="1.54067">
        <ele>179</ele>
        <time>2014-08-24T09:17:00Z</time>
      </trkpt>
      <trkpt lat="43.90172" lon="1.54064">
        <ele>178</ele>
        <time>2014-08-24T09:17:05Z</time>
      </trkpt>
      <trkpt lat="43.90204" lon="1.54062">
        <ele>178</ele>
        <time>2014-08-24T09:17:11Z</time>
      </trkpt>
      <trkpt lat="43.90223" lon="1.54062">
        <ele>178</ele>
        <time>2014-08-24T09:17:15Z</time>
      </trkpt>
      <trkpt lat="43.90249" lon="1.54061">
        <ele>178</ele>
        <time>2014-08-24T09:17:20Z</time>
      </trkpt>
      <trkpt lat="43.90291" lon="1.54058">
        <ele>177</ele>
        <time>2014-08-24T09:17:29Z</time>
      </trkpt>
      <trkpt lat="43.90296" lon="1.54058">
        <ele>177</ele>
        <time>2014-08-24T09:17:30Z</time>
      </trkpt>
      <trkpt lat="43.90326" lon="1.54054">
        <ele>177</ele>
        <time>2014-08-24T09:17:36Z</time>
      </trkpt>
      <trkpt lat="43.90353" lon="1.54051">
        <ele>178</ele>
        <time>2014-08-24T09:17:41Z</time>
      </trkpt>
      <trkpt lat="43.90389" lon="1.54049">
        <ele>179</ele>
        <time>2014-08-24T09:17:49Z</time>
      </trkpt>
      <trkpt lat="43.90393" lon="1.54048">
        <ele>179</ele>
        <time>2014-08-24T09:17:50Z</time>
      </trkpt>
      <trkpt lat="43.90415" lon="1.54046">
        <ele>180</ele>
        <time>2014-08-24T09:17:55Z</time>
      </trkpt>
      <trkpt lat="43.90443" lon="1.54044">
        <ele>180</ele>
        <time>2014-08-24T09:18:00Z</time>
      </trkpt>
      <trkpt lat="43.90467" lon="1.54037">
        <ele>180</ele>
        <time>2014-08-24T09:18:05Z</time>
      </trkpt>
      <trkpt lat="43.90468" lon="1.54018">
        <ele>179</ele>
        <time>2014-08-24T09:18:09Z</time>
      </trkpt>
      <trkpt lat="43.90468" lon="1.53996">
        <ele>179</ele>
        <time>2014-08-24T09:18:14Z</time>
      </trkpt>
      <trkpt lat="43.90467" lon="1.53974">
        <ele>178</ele>
        <time>2014-08-24T09:18:19Z</time>
      </trkpt>
      <trkpt lat="43.90469" lon="1.53921">
        <ele>176</ele>
        <time>2014-08-24T09:18:28Z</time>
      </trkpt>
      <trkpt lat="43.9047" lon="1.53915">
        <ele>176</ele>
        <time>2014-08-24T09:18:29Z</time>
      </trkpt>
      <trkpt lat="43.90481" lon="1.53884">
        <ele>174</ele>
        <time>2014-08-24T09:18:34Z</time>
      </trkpt>
      <trkpt lat="43.90487" lon="1.53862">
        <ele>174</ele>
        <time>2014-08-24T09:18:39Z</time>
      </trkpt>
      <trkpt lat="43.90469" lon="1.53819">
        <ele>170</ele>
        <time>2014-08-24T09:18:46Z</time>
      </trkpt>
      <trkpt lat="43.90462" lon="1.53796">
        <ele>168</ele>
        <time>2014-08-24T09:18:49Z</time>
      </trkpt>
      <trkpt lat="43.90446" lon="1.53757">
        <ele>165</ele>
        <time>2014-08-24T09:18:54Z</time>
      </trkpt>
      <trkpt lat="43.90426" lon="1.53719">
        <ele>160</ele>
        <time>2014-08-24T09:18:59Z</time>
      </trkpt>
      <trkpt lat="43.90405" lon="1.53652">
        <ele>154</ele>
        <time>2014-08-24T09:19:06Z</time>
      </trkpt>
      <trkpt lat="43.90401" lon="1.53624">
        <ele>151</ele>
        <time>2014-08-24T09:19:09Z</time>
      </trkpt>
      <trkpt lat="43.90398" lon="1.53579">
        <ele>147</ele>
        <time>2014-08-24T09:19:14Z</time>
      </trkpt>
      <trkpt lat="43.90389" lon="1.53543">
        <ele>142</ele>
        <time>2014-08-24T09:19:21Z</time>
      </trkpt>
      <trkpt lat="43.90378" lon="1.53539">
        <ele>141</ele>
        <time>2014-08-24T09:19:24Z</time>
      </trkpt>
      <trkpt lat="43.90365" lon="1.53514">
        <ele>140</ele>
        <time>2014-08-24T09:19:28Z</time>
      </trkpt>
      <trkpt lat="43.9036" lon="1.53482">
        <ele>140</ele>
        <time>2014-08-24T09:19:32Z</time>
      </trkpt>
      <trkpt lat="43.90355" lon="1.53456">
        <ele>142</ele>
        <time>2014-08-24T09:19:36Z</time>
      </trkpt>
      <trkpt lat="43.90347" lon="1.53445">
        <ele>144</ele>
        <time>2014-08-24T09:19:40Z</time>
      </trkpt>
      <trkpt lat="43.90342" lon="1.53446">
        <ele>144</ele>
        <time>2014-08-24T09:19:44Z</time>
      </trkpt>
      <trkpt lat="43.90332" lon="1.53448">
        <ele>145</ele>
        <time>2014-08-24T09:19:49Z</time>
      </trkpt>
      <trkpt lat="43.9033" lon="1.53448">
        <ele>145</ele>
        <time>2014-08-24T09:19:56Z</time>
      </trkpt>
      <trkpt lat="43.90329" lon="1.53449">
        <ele>145</ele>
        <time>2014-08-24T09:19:59Z</time>
      </trkpt>
      <trkpt lat="43.90324" lon="1.53453">
        <ele>145</ele>
        <time>2014-08-24T09:20:04Z</time>
      </trkpt>
      <trkpt lat="43.90323" lon="1.53454">
        <ele>145</ele>
        <time>2014-08-24T09:20:09Z</time>
      </trkpt>
      <trkpt lat="43.90317" lon="1.53455">
        <ele>146</ele>
        <time>2014-08-24T09:20:14Z</time>
      </trkpt>
      <trkpt lat="43.90308" lon="1.53458">
        <ele>147</ele>
        <time>2014-08-24T09:20:19Z</time>
      </trkpt>
      <trkpt lat="43.90297" lon="1.53461">
        <ele>148</ele>
        <time>2014-08-24T09:20:24Z</time>
      </trkpt>
      <trkpt lat="43.90284" lon="1.53463">
        <ele>149</ele>
        <time>2014-08-24T09:20:29Z</time>
      </trkpt>
      <trkpt lat="43.90261" lon="1.53472">
        <ele>150</ele>
        <time>2014-08-24T09:20:38Z</time>
      </trkpt>
      <trkpt lat="43.90259" lon="1.53473">
        <ele>150</ele>
        <time>2014-08-24T09:20:39Z</time>
      </trkpt>
      <trkpt lat="43.9025" lon="1.53476">
        <ele>150</ele>
        <time>2014-08-24T09:20:44Z</time>
      </trkpt>
      <trkpt lat="43.90243" lon="1.53475">
        <ele>151</ele>
        <time>2014-08-24T09:20:49Z</time>
      </trkpt>
      <trkpt lat="43.90234" lon="1.53473">
        <ele>152</ele>
        <time>2014-08-24T09:20:57Z</time>
      </trkpt>
      <trkpt lat="43.90232" lon="1.53472">
        <ele>152</ele>
        <time>2014-08-24T09:20:59Z</time>
      </trkpt>
      <trkpt lat="43.90224" lon="1.53466">
        <ele>154</ele>
        <time>2014-08-24T09:21:07Z</time>
      </trkpt>
      <trkpt lat="43.9022" lon="1.53462">
        <ele>155</ele>
        <time>2014-08-24T09:21:11Z</time>
      </trkpt>
      <trkpt lat="43.90219" lon="1.53459">
        <ele>155</ele>
        <time>2014-08-24T09:21:14Z</time>
      </trkpt>
      <trkpt lat="43.90216" lon="1.53455">
        <ele>156</ele>
        <time>2014-08-24T09:21:19Z</time>
      </trkpt>
      <trkpt lat="43.90215" lon="1.53449">
        <ele>157</ele>
        <time>2014-08-24T09:21:24Z</time>
      </trkpt>
      <trkpt lat="43.90213" lon="1.53446">
        <ele>158</ele>
        <time>2014-08-24T09:21:30Z</time>
      </trkpt>
      <trkpt lat="43.90212" lon="1.53444">
        <ele>158</ele>
        <time>2014-08-24T09:21:34Z</time>
      </trkpt>
      <trkpt lat="43.90209" lon="1.53439">
        <ele>159</ele>
        <time>2014-08-24T09:21:40Z</time>
      </trkpt>
      <trkpt lat="43.90207" lon="1.53437">
        <ele>159</ele>
        <time>2014-08-24T09:21:45Z</time>
      </trkpt>
      <trkpt lat="43.90206" lon="1.53435">
        <ele>160</ele>
        <time>2014-08-24T09:21:49Z</time>
      </trkpt>
      <trkpt lat="43.90204" lon="1.53431">
        <ele>160</ele>
        <time>2014-08-24T09:21:54Z</time>
      </trkpt>
      <trkpt lat="43.90203" lon="1.53428">
        <ele>161</ele>
        <time>2014-08-24T09:22:00Z</time>
      </trkpt>
      <trkpt lat="43.90202" lon="1.53425">
        <ele>161</ele>
        <time>2014-08-24T09:22:04Z</time>
      </trkpt>
      <trkpt lat="43.90201" lon="1.53421">
        <ele>162</ele>
        <time>2014-08-24T09:22:09Z</time>
      </trkpt>
      <trkpt lat="43.90199" lon="1.53417">
        <ele>162</ele>
        <time>2014-08-24T09:22:14Z</time>
      </trkpt>
      <trkpt lat="43.90197" lon="1.53411">
        <ele>163</ele>
        <time>2014-08-24T09:22:21Z</time>
      </trkpt>
      <trkpt lat="43.90197" lon="1.53409">
        <ele>163</ele>
        <time>2014-08-24T09:22:24Z</time>
      </trkpt>
      <trkpt lat="43.90196" lon="1.53405">
        <ele>164</ele>
        <time>2014-08-24T09:22:29Z</time>
      </trkpt>
      <trkpt lat="43.90195" lon="1.53402">
        <ele>164</ele>
        <time>2014-08-24T09:22:33Z</time>
      </trkpt>
      <trkpt lat="43.90194" lon="1.53399">
        <ele>165</ele>
        <time>2014-08-24T09:22:38Z</time>
      </trkpt>
      <trkpt lat="43.90194" lon="1.53396">
        <ele>165</ele>
        <time>2014-08-24T09:22:42Z</time>
      </trkpt>
      <trkpt lat="43.90192" lon="1.53393">
        <ele>165</ele>
        <time>2014-08-24T09:22:45Z</time>
      </trkpt>
      <trkpt lat="43.9019" lon="1.5339">
        <ele>166</ele>
        <time>2014-08-24T09:22:48Z</time>
      </trkpt>
      <trkpt lat="43.90188" lon="1.53387">
        <ele>166</ele>
        <time>2014-08-24T09:22:52Z</time>
      </trkpt>
      <trkpt lat="43.90188" lon="1.53385">
        <ele>166</ele>
        <time>2014-08-24T09:22:57Z</time>
      </trkpt>
      <trkpt lat="43.90186" lon="1.5338">
        <ele>167</ele>
        <time>2014-08-24T09:23:02Z</time>
      </trkpt>
      <trkpt lat="43.90185" lon="1.53372">
        <ele>167</ele>
        <time>2014-08-24T09:23:07Z</time>
      </trkpt>
      <trkpt lat="43.90183" lon="1.53368">
        <ele>167</ele>
        <time>2014-08-24T09:23:12Z</time>
      </trkpt>
      <trkpt lat="43.90183" lon="1.53368">
        <ele>167</ele>
        <time>2014-08-24T09:23:17Z</time>
      </trkpt>
      <trkpt lat="43.90183" lon="1.53367">
        <ele>167</ele>
        <time>2014-08-24T09:23:22Z</time>
      </trkpt>
      <trkpt lat="43.90182" lon="1.53365">
        <ele>168</ele>
        <time>2014-08-24T09:23:26Z</time>
      </trkpt>
      <trkpt lat="43.90182" lon="1.53362">
        <ele>168</ele>
        <time>2014-08-24T09:23:31Z</time>
      </trkpt>
      <trkpt lat="43.9018" lon="1.53359">
        <ele>168</ele>
        <time>2014-08-24T09:23:36Z</time>
      </trkpt>
      <trkpt lat="43.9018" lon="1.53358">
        <ele>168</ele>
        <time>2014-08-24T09:23:41Z</time>
      </trkpt>
      <trkpt lat="43.90179" lon="1.53356">
        <ele>168</ele>
        <time>2014-08-24T09:23:46Z</time>
      </trkpt>
      <trkpt lat="43.90178" lon="1.53355">
        <ele>168</ele>
        <time>2014-08-24T09:23:51Z</time>
      </trkpt>
      <trkpt lat="43.90178" lon="1.53353">
        <ele>168</ele>
        <time>2014-08-24T09:23:56Z</time>
      </trkpt>
      <trkpt lat="43.90177" lon="1.53351">
        <ele>168</ele>
        <time>2014-08-24T09:24:01Z</time>
      </trkpt>
      <trkpt lat="43.90177" lon="1.53351">
        <ele>168</ele>
        <time>2014-08-24T09:24:06Z</time>
      </trkpt>
      <trkpt lat="43.90176" lon="1.5335">
        <ele>168</ele>
        <time>2014-08-24T09:24:11Z</time>
      </trkpt>
      <trkpt lat="43.90176" lon="1.5335">
        <ele>168</ele>
        <time>2014-08-24T09:24:16Z</time>
      </trkpt>
      <trkpt lat="43.90175" lon="1.5335">
        <ele>168</ele>
        <time>2014-08-24T09:24:21Z</time>
      </trkpt>
      <trkpt lat="43.90174" lon="1.53344">
        <ele>168</ele>
        <time>2014-08-24T09:24:28Z</time>
      </trkpt>
      <trkpt lat="43.90173" lon="1.53342">
        <ele>168</ele>
        <time>2014-08-24T09:24:31Z</time>
      </trkpt>
      <trkpt lat="43.90172" lon="1.53336">
        <ele>169</ele>
        <time>2014-08-24T09:24:37Z</time>
      </trkpt>
      <trkpt lat="43.90171" lon="1.53329">
        <ele>169</ele>
        <time>2014-08-24T09:24:44Z</time>
      </trkpt>
      <trkpt lat="43.90171" lon="1.53326">
        <ele>169</ele>
        <time>2014-08-24T09:24:46Z</time>
      </trkpt>
      <trkpt lat="43.90168" lon="1.5332">
        <ele>169</ele>
        <time>2014-08-24T09:24:51Z</time>
      </trkpt>
      <trkpt lat="43.90166" lon="1.53313">
        <ele>169</ele>
        <time>2014-08-24T09:24:57Z</time>
      </trkpt>
      <trkpt lat="43.90165" lon="1.53309">
        <ele>170</ele>
        <time>2014-08-24T09:25:01Z</time>
      </trkpt>
      <trkpt lat="43.90162" lon="1.53302">
        <ele>170</ele>
        <time>2014-08-24T09:25:06Z</time>
      </trkpt>
      <trkpt lat="43.90161" lon="1.53292">
        <ele>170</ele>
        <time>2014-08-24T09:25:13Z</time>
      </trkpt>
      <trkpt lat="43.9016" lon="1.53288">
        <ele>171</ele>
        <time>2014-08-24T09:25:16Z</time>
      </trkpt>
      <trkpt lat="43.90158" lon="1.5328">
        <ele>171</ele>
        <time>2014-08-24T09:25:22Z</time>
      </trkpt>
      <trkpt lat="43.90158" lon="1.53276">
        <ele>171</ele>
        <time>2014-08-24T09:25:26Z</time>
      </trkpt>
      <trkpt lat="43.90158" lon="1.53274">
        <ele>171</ele>
        <time>2014-08-24T09:25:31Z</time>
      </trkpt>
      <trkpt lat="43.90158" lon="1.53274">
        <ele>171</ele>
        <time>2014-08-24T09:25:36Z</time>
      </trkpt>
      <trkpt lat="43.90158" lon="1.53274">
        <ele>171</ele>
        <time>2014-08-24T09:25:41Z</time>
      </trkpt>
      <trkpt lat="43.90158" lon="1.53274">
        <ele>171</ele>
        <time>2014-08-24T09:25:46Z</time>
      </trkpt>
      <trkpt lat="43.90158" lon="1.53274">
        <ele>171</ele>
        <time>2014-08-24T09:25:51Z</time>
      </trkpt>
      <trkpt lat="43.90158" lon="1.53274">
        <ele>171</ele>
        <time>2014-08-24T09:25:56Z</time>
      </trkpt>
      <trkpt lat="43.90157" lon="1.53273">
        <ele>171</ele>
        <time>2014-08-24T09:26:04Z</time>
      </trkpt>
      <trkpt lat="43.90156" lon="1.5327">
        <ele>172</ele>
        <time>2014-08-24T09:26:07Z</time>
      </trkpt>
      <trkpt lat="43.90153" lon="1.53264">
        <ele>172</ele>
        <time>2014-08-24T09:26:12Z</time>
      </trkpt>
      <trkpt lat="43.90154" lon="1.53259">
        <ele>172</ele>
        <time>2014-08-24T09:26:16Z</time>
      </trkpt>
      <trkpt lat="43.90153" lon="1.53254">
        <ele>173</ele>
        <time>2014-08-24T09:26:22Z</time>
      </trkpt>
      <trkpt lat="43.90153" lon="1.53243">
        <ele>174</ele>
        <time>2014-08-24T09:26:28Z</time>
      </trkpt>
      <trkpt lat="43.90152" lon="1.53236">
        <ele>174</ele>
        <time>2014-08-24T09:26:32Z</time>
      </trkpt>
      <trkpt lat="43.90151" lon="1.5323">
        <ele>175</ele>
        <time>2014-08-24T09:26:36Z</time>
      </trkpt>
      <trkpt lat="43.90149" lon="1.53218">
        <ele>176</ele>
        <time>2014-08-24T09:26:43Z</time>
      </trkpt>
      <trkpt lat="43.90146" lon="1.53214">
        <ele>177</ele>
        <time>2014-08-24T09:26:46Z</time>
      </trkpt>
      <trkpt lat="43.90143" lon="1.53206">
        <ele>177</ele>
        <time>2014-08-24T09:26:51Z</time>
      </trkpt>
      <trkpt lat="43.90142" lon="1.53195">
        <ele>179</ele>
        <time>2014-08-24T09:26:56Z</time>
      </trkpt>
      <trkpt lat="43.90143" lon="1.53183">
        <ele>179</ele>
        <time>2014-08-24T09:27:01Z</time>
      </trkpt>
      <trkpt lat="43.90138" lon="1.53173">
        <ele>180</ele>
        <time>2014-08-24T09:27:06Z</time>
      </trkpt>
      <trkpt lat="43.90134" lon="1.53163">
        <ele>180</ele>
        <time>2014-08-24T09:27:11Z</time>
      </trkpt>
      <trkpt lat="43.90129" lon="1.53156">
        <ele>180</ele>
        <time>2014-08-24T09:27:16Z</time>
      </trkpt>
      <trkpt lat="43.90128" lon="1.53148">
        <ele>180</ele>
        <time>2014-08-24T09:27:20Z</time>
      </trkpt>
      <trkpt lat="43.90127" lon="1.53139">
        <ele>181</ele>
        <time>2014-08-24T09:27:25Z</time>
      </trkpt>
      <trkpt lat="43.90125" lon="1.53127">
        <ele>181</ele>
        <time>2014-08-24T09:27:31Z</time>
      </trkpt>
      <trkpt lat="43.90123" lon="1.53117">
        <ele>181</ele>
        <time>2014-08-24T09:27:37Z</time>
      </trkpt>
      <trkpt lat="43.90122" lon="1.53111">
        <ele>181</ele>
        <time>2014-08-24T09:27:40Z</time>
      </trkpt>
      <trkpt lat="43.90116" lon="1.53103">
        <ele>180</ele>
        <time>2014-08-24T09:27:45Z</time>
      </trkpt>
      <trkpt lat="43.90103" lon="1.53101">
        <ele>180</ele>
        <time>2014-08-24T09:27:51Z</time>
      </trkpt>
      <trkpt lat="43.90087" lon="1.53099">
        <ele>180</ele>
        <time>2014-08-24T09:27:58Z</time>
      </trkpt>
      <trkpt lat="43.9008" lon="1.53098">
        <ele>180</ele>
        <time>2014-08-24T09:28:01Z</time>
      </trkpt>
      <trkpt lat="43.90072" lon="1.53093">
        <ele>180</ele>
        <time>2014-08-24T09:28:05Z</time>
      </trkpt>
      <trkpt lat="43.90047" lon="1.53078">
        <ele>180</ele>
        <time>2014-08-24T09:28:14Z</time>
      </trkpt>
      <trkpt lat="43.90044" lon="1.53077">
        <ele>180</ele>
        <time>2014-08-24T09:28:15Z</time>
      </trkpt>
      <trkpt lat="43.90031" lon="1.53068">
        <ele>181</ele>
        <time>2014-08-24T09:28:20Z</time>
      </trkpt>
      <trkpt lat="43.90017" lon="1.5306">
        <ele>181</ele>
        <time>2014-08-24T09:28:25Z</time>
      </trkpt>
      <trkpt lat="43.89995" lon="1.53046">
        <ele>182</ele>
        <time>2014-08-24T09:28:33Z</time>
      </trkpt>
      <trkpt lat="43.89989" lon="1.53042">
        <ele>182</ele>
        <time>2014-08-24T09:28:35Z</time>
      </trkpt>
      <trkpt lat="43.89959" lon="1.53027">
        <ele>184</ele>
        <time>2014-08-24T09:28:44Z</time>
      </trkpt>
      <trkpt lat="43.89943" lon="1.5302">
        <ele>185</ele>
        <time>2014-08-24T09:28:48Z</time>
      </trkpt>
      <trkpt lat="43.89936" lon="1.53018">
        <ele>185</ele>
        <time>2014-08-24T09:28:50Z</time>
      </trkpt>
      <trkpt lat="43.89901" lon="1.5301">
        <ele>187</ele>
        <time>2014-08-24T09:28:59Z</time>
      </trkpt>
      <trkpt lat="43.89897" lon="1.53009">
        <ele>187</ele>
        <time>2014-08-24T09:29:00Z</time>
      </trkpt>
      <trkpt lat="43.8988" lon="1.53008">
        <ele>188</ele>
        <time>2014-08-24T09:29:05Z</time>
      </trkpt>
      <trkpt lat="43.89863" lon="1.53009">
        <ele>189</ele>
        <time>2014-08-24T09:29:10Z</time>
      </trkpt>
      <trkpt lat="43.89846" lon="1.5301">
        <ele>190</ele>
        <time>2014-08-24T09:29:15Z</time>
      </trkpt>
      <trkpt lat="43.89825" lon="1.53015">
        <ele>190</ele>
        <time>2014-08-24T09:29:22Z</time>
      </trkpt>
      <trkpt lat="43.89811" lon="1.5302">
        <ele>190</ele>
        <time>2014-08-24T09:29:27Z</time>
      </trkpt>
      <trkpt lat="43.89801" lon="1.53023">
        <ele>190</ele>
        <time>2014-08-24T09:29:30Z</time>
      </trkpt>
      <trkpt lat="43.89787" lon="1.53028">
        <ele>191</ele>
        <time>2014-08-24T09:29:35Z</time>
      </trkpt>
      <trkpt lat="43.89772" lon="1.53033">
        <ele>191</ele>
        <time>2014-08-24T09:29:40Z</time>
      </trkpt>
      <trkpt lat="43.89747" lon="1.53043">
        <ele>190</ele>
        <time>2014-08-24T09:29:49Z</time>
      </trkpt>
      <trkpt lat="43.8974" lon="1.53044">
        <ele>190</ele>
        <time>2014-08-24T09:29:51Z</time>
      </trkpt>
      <trkpt lat="43.89726" lon="1.53044">
        <ele>190</ele>
        <time>2014-08-24T09:29:55Z</time>
      </trkpt>
      <trkpt lat="43.89698" lon="1.5303">
        <ele>190</ele>
        <time>2014-08-24T09:30:03Z</time>
      </trkpt>
      <trkpt lat="43.89688" lon="1.53022">
        <ele>190</ele>
        <time>2014-08-24T09:30:06Z</time>
      </trkpt>
      <trkpt lat="43.89676" lon="1.53011">
        <ele>191</ele>
        <time>2014-08-24T09:30:10Z</time>
      </trkpt>
      <trkpt lat="43.89659" lon="1.52995">
        <ele>191</ele>
        <time>2014-08-24T09:30:16Z</time>
      </trkpt>
      <trkpt lat="43.89648" lon="1.52985">
        <ele>191</ele>
        <time>2014-08-24T09:30:20Z</time>
      </trkpt>
      <trkpt lat="43.89632" lon="1.52968">
        <ele>191</ele>
        <time>2014-08-24T09:30:25Z</time>
      </trkpt>
      <trkpt lat="43.89615" lon="1.52953">
        <ele>191</ele>
        <time>2014-08-24T09:30:30Z</time>
      </trkpt>
      <trkpt lat="43.89599" lon="1.52938">
        <ele>191</ele>
        <time>2014-08-24T09:30:35Z</time>
      </trkpt>
      <trkpt lat="43.89582" lon="1.52925">
        <ele>191</ele>
        <time>2014-08-24T09:30:40Z</time>
      </trkpt>
      <trkpt lat="43.89558" lon="1.5291">
        <ele>192</ele>
        <time>2014-08-24T09:30:47Z</time>
      </trkpt>
      <trkpt lat="43.89538" lon="1.529">
        <ele>192</ele>
        <time>2014-08-24T09:30:53Z</time>
      </trkpt>
      <trkpt lat="43.89531" lon="1.52896">
        <ele>192</ele>
        <time>2014-08-24T09:30:55Z</time>
      </trkpt>
      <trkpt lat="43.895" lon="1.52883">
        <ele>192</ele>
        <time>2014-08-24T09:31:04Z</time>
      </trkpt>
      <trkpt lat="43.89496" lon="1.52882">
        <ele>192</ele>
        <time>2014-08-24T09:31:05Z</time>
      </trkpt>
      <trkpt lat="43.89482" lon="1.52876">
        <ele>193</ele>
        <time>2014-08-24T09:31:10Z</time>
      </trkpt>
      <trkpt lat="43.89469" lon="1.5287">
        <ele>193</ele>
        <time>2014-08-24T09:31:15Z</time>
      </trkpt>
      <trkpt lat="43.89455" lon="1.52865">
        <ele>194</ele>
        <time>2014-08-24T09:31:20Z</time>
      </trkpt>
      <trkpt lat="43.89442" lon="1.5286">
        <ele>195</ele>
        <time>2014-08-24T09:31:25Z</time>
      </trkpt>
      <trkpt lat="43.89428" lon="1.52855">
        <ele>196</ele>
        <time>2014-08-24T09:31:30Z</time>
      </trkpt>
      <trkpt lat="43.89415" lon="1.5285">
        <ele>197</ele>
        <time>2014-08-24T09:31:35Z</time>
      </trkpt>
      <trkpt lat="43.89401" lon="1.52849">
        <ele>198</ele>
        <time>2014-08-24T09:31:40Z</time>
      </trkpt>
      <trkpt lat="43.89373" lon="1.52851">
        <ele>199</ele>
        <time>2014-08-24T09:31:49Z</time>
      </trkpt>
      <trkpt lat="43.8937" lon="1.52851">
        <ele>199</ele>
        <time>2014-08-24T09:31:50Z</time>
      </trkpt>
      <trkpt lat="43.89356" lon="1.52852">
        <ele>200</ele>
        <time>2014-08-24T09:31:55Z</time>
      </trkpt>
      <trkpt lat="43.89341" lon="1.52853">
        <ele>200</ele>
        <time>2014-08-24T09:32:00Z</time>
      </trkpt>
      <trkpt lat="43.89327" lon="1.52854">
        <ele>200</ele>
        <time>2014-08-24T09:32:05Z</time>
      </trkpt>
      <trkpt lat="43.89311" lon="1.52855">
        <ele>200</ele>
        <time>2014-08-24T09:32:12Z</time>
      </trkpt>
      <trkpt lat="43.89305" lon="1.52856">
        <ele>200</ele>
        <time>2014-08-24T09:32:15Z</time>
      </trkpt>
      <trkpt lat="43.89297" lon="1.52857">
        <ele>201</ele>
        <time>2014-08-24T09:32:19Z</time>
      </trkpt>
      <trkpt lat="43.8929" lon="1.52859">
        <ele>200</ele>
        <time>2014-08-24T09:32:24Z</time>
      </trkpt>
      <trkpt lat="43.89282" lon="1.5286">
        <ele>200</ele>
        <time>2014-08-24T09:32:29Z</time>
      </trkpt>
      <trkpt lat="43.89273" lon="1.52862">
        <ele>200</ele>
        <time>2014-08-24T09:32:34Z</time>
      </trkpt>
      <trkpt lat="43.89263" lon="1.52865">
        <ele>200</ele>
        <time>2014-08-24T09:32:39Z</time>
      </trkpt>
      <trkpt lat="43.8925" lon="1.52866">
        <ele>200</ele>
        <time>2014-08-24T09:32:46Z</time>
      </trkpt>
      <trkpt lat="43.89244" lon="1.52868">
        <ele>200</ele>
        <time>2014-08-24T09:32:49Z</time>
      </trkpt>
      <trkpt lat="43.89235" lon="1.52869">
        <ele>199</ele>
        <time>2014-08-24T09:32:54Z</time>
      </trkpt>
      <trkpt lat="43.89223" lon="1.52877">
        <ele>199</ele>
        <time>2014-08-24T09:33:00Z</time>
      </trkpt>
      <trkpt lat="43.89213" lon="1.52885">
        <ele>199</ele>
        <time>2014-08-24T09:33:04Z</time>
      </trkpt>
      <trkpt lat="43.89203" lon="1.52894">
        <ele>199</ele>
        <time>2014-08-24T09:33:08Z</time>
      </trkpt>
      <trkpt lat="43.89189" lon="1.52907">
        <ele>199</ele>
        <time>2014-08-24T09:33:13Z</time>
      </trkpt>
      <trkpt lat="43.89171" lon="1.52925">
        <ele>198</ele>
        <time>2014-08-24T09:33:19Z</time>
      </trkpt>
      <trkpt lat="43.89158" lon="1.52938">
        <ele>198</ele>
        <time>2014-08-24T09:33:23Z</time>
      </trkpt>
      <trkpt lat="43.89136" lon="1.52964">
        <ele>198</ele>
        <time>2014-08-24T09:33:30Z</time>
      </trkpt>
      <trkpt lat="43.89121" lon="1.52981">
        <ele>198</ele>
        <time>2014-08-24T09:33:35Z</time>
      </trkpt>
      <trkpt lat="43.89112" lon="1.5299">
        <ele>198</ele>
        <time>2014-08-24T09:33:38Z</time>
      </trkpt>
      <trkpt lat="43.89091" lon="1.53012">
        <ele>198</ele>
        <time>2014-08-24T09:33:45Z</time>
      </trkpt>
      <trkpt lat="43.89082" lon="1.53022">
        <ele>199</ele>
        <time>2014-08-24T09:33:48Z</time>
      </trkpt>
      <trkpt lat="43.89065" lon="1.53039">
        <ele>199</ele>
        <time>2014-08-24T09:33:53Z</time>
      </trkpt>
      <trkpt lat="43.8905" lon="1.53055">
        <ele>200</ele>
        <time>2014-08-24T09:33:58Z</time>
      </trkpt>
      <trkpt lat="43.89024" lon="1.53083">
        <ele>199</ele>
        <time>2014-08-24T09:34:07Z</time>
      </trkpt>
      <trkpt lat="43.89017" lon="1.53083">
        <ele>199</ele>
        <time>2014-08-24T09:34:09Z</time>
      </trkpt>
      <trkpt lat="43.89006" lon="1.53074">
        <ele>198</ele>
        <time>2014-08-24T09:34:14Z</time>
      </trkpt>
      <trkpt lat="43.88989" lon="1.5306">
        <ele>197</ele>
        <time>2014-08-24T09:34:20Z</time>
      </trkpt>
      <trkpt lat="43.88966" lon="1.53044">
        <ele>194</ele>
        <time>2014-08-24T09:34:25Z</time>
      </trkpt>
      <trkpt lat="43.88946" lon="1.5303">
        <ele>191</ele>
        <time>2014-08-24T09:34:29Z</time>
      </trkpt>
      <trkpt lat="43.88928" lon="1.5301">
        <ele>187</ele>
        <time>2014-08-24T09:34:33Z</time>
      </trkpt>
      <trkpt lat="43.88918" lon="1.52946">
        <ele>183</ele>
        <time>2014-08-24T09:34:41Z</time>
      </trkpt>
      <trkpt lat="43.88917" lon="1.52919">
        <ele>183</ele>
        <time>2014-08-24T09:34:44Z</time>
      </trkpt>
      <trkpt lat="43.88916" lon="1.5288">
        <ele>182</ele>
        <time>2014-08-24T09:34:48Z</time>
      </trkpt>
      <trkpt lat="43.8891" lon="1.52836">
        <ele>182</ele>
        <time>2014-08-24T09:34:53Z</time>
      </trkpt>
      <trkpt lat="43.889" lon="1.52797">
        <ele>182</ele>
        <time>2014-08-24T09:34:58Z</time>
      </trkpt>
      <trkpt lat="43.88889" lon="1.5276">
        <ele>182</ele>
        <time>2014-08-24T09:35:03Z</time>
      </trkpt>
      <trkpt lat="43.88872" lon="1.52724">
        <ele>182</ele>
        <time>2014-08-24T09:35:09Z</time>
      </trkpt>
      <trkpt lat="43.88859" lon="1.527">
        <ele>182</ele>
        <time>2014-08-24T09:35:14Z</time>
      </trkpt>
      <trkpt lat="43.88843" lon="1.5267">
        <ele>182</ele>
        <time>2014-08-24T09:35:22Z</time>
      </trkpt>
      <trkpt lat="43.88842" lon="1.52666">
        <ele>182</ele>
        <time>2014-08-24T09:35:23Z</time>
      </trkpt>
      <trkpt lat="43.88831" lon="1.52647">
        <ele>181</ele>
        <time>2014-08-24T09:35:28Z</time>
      </trkpt>
      <trkpt lat="43.88823" lon="1.52626">
        <ele>180</ele>
        <time>2014-08-24T09:35:33Z</time>
      </trkpt>
      <trkpt lat="43.8882" lon="1.52591">
        <ele>179</ele>
        <time>2014-08-24T09:35:40Z</time>
      </trkpt>
      <trkpt lat="43.88821" lon="1.52574">
        <ele>178</ele>
        <time>2014-08-24T09:35:43Z</time>
      </trkpt>
      <trkpt lat="43.88826" lon="1.52546">
        <ele>179</ele>
        <time>2014-08-24T09:35:48Z</time>
      </trkpt>
      <trkpt lat="43.88829" lon="1.52514">
        <ele>179</ele>
        <time>2014-08-24T09:35:54Z</time>
      </trkpt>
      <trkpt lat="43.8883" lon="1.52489">
        <ele>179</ele>
        <time>2014-08-24T09:35:59Z</time>
      </trkpt>
      <trkpt lat="43.88829" lon="1.52465">
        <ele>179</ele>
        <time>2014-08-24T09:36:03Z</time>
      </trkpt>
      <trkpt lat="43.88826" lon="1.5242">
        <ele>179</ele>
        <time>2014-08-24T09:36:10Z</time>
      </trkpt>
      <trkpt lat="43.88826" lon="1.52383">
        <ele>179</ele>
        <time>2014-08-24T09:36:16Z</time>
      </trkpt>
      <trkpt lat="43.88826" lon="1.52369">
        <ele>179</ele>
        <time>2014-08-24T09:36:18Z</time>
      </trkpt>
      <trkpt lat="43.88825" lon="1.52336">
        <ele>180</ele>
        <time>2014-08-24T09:36:23Z</time>
      </trkpt>
      <trkpt lat="43.88821" lon="1.52304">
        <ele>181</ele>
        <time>2014-08-24T09:36:28Z</time>
      </trkpt>
      <trkpt lat="43.88812" lon="1.52271">
        <ele>181</ele>
        <time>2014-08-24T09:36:33Z</time>
      </trkpt>
      <trkpt lat="43.88783" lon="1.52228">
        <ele>179</ele>
        <time>2014-08-24T09:36:42Z</time>
      </trkpt>
      <trkpt lat="43.88779" lon="1.52222">
        <ele>178</ele>
        <time>2014-08-24T09:36:43Z</time>
      </trkpt>
      <trkpt lat="43.88741" lon="1.52195">
        <ele>172</ele>
        <time>2014-08-24T09:36:51Z</time>
      </trkpt>
      <trkpt lat="43.8873" lon="1.5219">
        <ele>169</ele>
        <time>2014-08-24T09:36:53Z</time>
      </trkpt>
      <trkpt lat="43.88703" lon="1.52172">
        <ele>164</ele>
        <time>2014-08-24T09:36:58Z</time>
      </trkpt>
      <trkpt lat="43.88677" lon="1.52156">
        <ele>159</ele>
        <time>2014-08-24T09:37:04Z</time>
      </trkpt>
      <trkpt lat="43.88651" lon="1.5212">
        <ele>150</ele>
        <time>2014-08-24T09:37:12Z</time>
      </trkpt>
      <trkpt lat="43.88648" lon="1.52114">
        <ele>149</ele>
        <time>2014-08-24T09:37:13Z</time>
      </trkpt>
      <trkpt lat="43.88633" lon="1.52096">
        <ele>145</ele>
        <time>2014-08-24T09:37:18Z</time>
      </trkpt>
      <trkpt lat="43.88624" lon="1.52072">
        <ele>140</ele>
        <time>2014-08-24T09:37:23Z</time>
      </trkpt>
      <trkpt lat="43.88611" lon="1.52047">
        <ele>135</ele>
        <time>2014-08-24T09:37:28Z</time>
      </trkpt>
      <trkpt lat="43.88604" lon="1.52012">
        <ele>130</ele>
        <time>2014-08-24T09:37:33Z</time>
      </trkpt>
      <trkpt lat="43.88597" lon="1.51983">
        <ele>126</ele>
        <time>2014-08-24T09:37:38Z</time>
      </trkpt>
      <trkpt lat="43.88593" lon="1.51956">
        <ele>123</ele>
        <time>2014-08-24T09:37:43Z</time>
      </trkpt>
      <trkpt lat="43.88589" lon="1.5193">
        <ele>125</ele>
        <time>2014-08-24T09:37:48Z</time>
      </trkpt>
      <trkpt lat="43.88602" lon="1.51912">
        <ele>123</ele>
        <time>2014-08-24T09:37:53Z</time>
      </trkpt>
      <trkpt lat="43.88612" lon="1.51903">
        <ele>123</ele>
        <time>2014-08-24T09:37:58Z</time>
      </trkpt>
      <trkpt lat="43.88608" lon="1.51908">
        <ele>123</ele>
        <time>2014-08-24T09:38:03Z</time>
      </trkpt>
      <trkpt lat="43.8861" lon="1.51905">
        <ele>123</ele>
        <time>2014-08-24T09:38:08Z</time>
      </trkpt>
      <trkpt lat="43.88602" lon="1.51909">
        <ele>123</ele>
        <time>2014-08-24T09:38:13Z</time>
      </trkpt>
      <trkpt lat="43.88582" lon="1.51918">
        <ele>127</ele>
        <time>2014-08-24T09:38:20Z</time>
      </trkpt>
      <trkpt lat="43.88574" lon="1.51923">
        <ele>129</ele>
        <time>2014-08-24T09:38:23Z</time>
      </trkpt>
      <trkpt lat="43.88569" lon="1.51932">
        <ele>129</ele>
        <time>2014-08-24T09:38:28Z</time>
      </trkpt>
      <trkpt lat="43.88563" lon="1.51943">
        <ele>130</ele>
        <time>2014-08-24T09:38:34Z</time>
      </trkpt>
      <trkpt lat="43.88557" lon="1.51948">
        <ele>130</ele>
        <time>2014-08-24T09:38:38Z</time>
      </trkpt>
      <trkpt lat="43.88546" lon="1.51958">
        <ele>132</ele>
        <time>2014-08-24T09:38:43Z</time>
      </trkpt>
      <trkpt lat="43.88536" lon="1.51971">
        <ele>132</ele>
        <time>2014-08-24T09:38:48Z</time>
      </trkpt>
      <trkpt lat="43.8852" lon="1.51998">
        <ele>132</ele>
        <time>2014-08-24T09:38:57Z</time>
      </trkpt>
      <trkpt lat="43.88518" lon="1.52002">
        <ele>132</ele>
        <time>2014-08-24T09:38:58Z</time>
      </trkpt>
      <trkpt lat="43.88512" lon="1.5202">
        <ele>131</ele>
        <time>2014-08-24T09:39:04Z</time>
      </trkpt>
      <trkpt lat="43.88512" lon="1.52023">
        <ele>130</ele>
        <time>2014-08-24T09:39:08Z</time>
      </trkpt>
      <trkpt lat="43.8851" lon="1.52032">
        <ele>129</ele>
        <time>2014-08-24T09:39:16Z</time>
      </trkpt>
      <trkpt lat="43.8851" lon="1.52033">
        <ele>129</ele>
        <time>2014-08-24T09:39:20Z</time>
      </trkpt>
      <trkpt lat="43.88509" lon="1.52035">
        <ele>129</ele>
        <time>2014-08-24T09:39:23Z</time>
      </trkpt>
      <trkpt lat="43.88503" lon="1.52057">
        <ele>127</ele>
        <time>2014-08-24T09:39:32Z</time>
      </trkpt>
      <trkpt lat="43.88502" lon="1.52059">
        <ele>127</ele>
        <time>2014-08-24T09:39:33Z</time>
      </trkpt>
      <trkpt lat="43.88503" lon="1.52063">
        <ele>126</ele>
        <time>2014-08-24T09:39:38Z</time>
      </trkpt>
      <trkpt lat="43.88502" lon="1.52069">
        <ele>126</ele>
        <time>2014-08-24T09:39:43Z</time>
      </trkpt>
      <trkpt lat="43.88499" lon="1.52078">
        <ele>125</ele>
        <time>2014-08-24T09:39:48Z</time>
      </trkpt>
      <trkpt lat="43.88498" lon="1.5209">
        <ele>123</ele>
        <time>2014-08-24T09:39:53Z</time>
      </trkpt>
      <trkpt lat="43.88495" lon="1.52115">
        <ele>123</ele>
        <time>2014-08-24T09:40:00Z</time>
      </trkpt>
      <trkpt lat="43.88494" lon="1.52125">
        <ele>123</ele>
        <time>2014-08-24T09:40:03Z</time>
      </trkpt>
      <trkpt lat="43.88493" lon="1.52134">
        <ele>123</ele>
        <time>2014-08-24T09:40:08Z</time>
      </trkpt>
      <trkpt lat="43.88497" lon="1.52142">
        <ele>122</ele>
        <time>2014-08-24T09:40:15Z</time>
      </trkpt>
      <trkpt lat="43.88498" lon="1.52144">
        <ele>122</ele>
        <time>2014-08-24T09:40:18Z</time>
      </trkpt>
      <trkpt lat="43.88498" lon="1.5215">
        <ele>122</ele>
        <time>2014-08-24T09:40:23Z</time>
      </trkpt>
      <trkpt lat="43.88498" lon="1.5216">
        <ele>122</ele>
        <time>2014-08-24T09:40:28Z</time>
      </trkpt>
      <trkpt lat="43.88497" lon="1.52169">
        <ele>122</ele>
        <time>2014-08-24T09:40:33Z</time>
      </trkpt>
      <trkpt lat="43.88495" lon="1.5218">
        <ele>122</ele>
        <time>2014-08-24T09:40:41Z</time>
      </trkpt>
      <trkpt lat="43.88495" lon="1.52181">
        <ele>122</ele>
        <time>2014-08-24T09:40:42Z</time>
      </trkpt>
      <trkpt lat="43.88495" lon="1.52189">
        <ele>121</ele>
        <time>2014-08-24T09:40:47Z</time>
      </trkpt>
      <trkpt lat="43.88494" lon="1.52204">
        <ele>121</ele>
        <time>2014-08-24T09:40:56Z</time>
      </trkpt>
      <trkpt lat="43.88494" lon="1.52205">
        <ele>121</ele>
        <time>2014-08-24T09:40:57Z</time>
      </trkpt>
      <trkpt lat="43.88493" lon="1.52211">
        <ele>121</ele>
        <time>2014-08-24T09:41:03Z</time>
      </trkpt>
      <trkpt lat="43.88493" lon="1.52216">
        <ele>121</ele>
        <time>2014-08-24T09:41:08Z</time>
      </trkpt>
      <trkpt lat="43.88495" lon="1.52222">
        <ele>121</ele>
        <time>2014-08-24T09:41:12Z</time>
      </trkpt>
      <trkpt lat="43.88496" lon="1.52229">
        <ele>120</ele>
        <time>2014-08-24T09:41:17Z</time>
      </trkpt>
      <trkpt lat="43.88497" lon="1.52234">
        <ele>121</ele>
        <time>2014-08-24T09:41:22Z</time>
      </trkpt>
      <trkpt lat="43.88497" lon="1.5224">
        <ele>121</ele>
        <time>2014-08-24T09:41:26Z</time>
      </trkpt>
      <trkpt lat="43.88498" lon="1.52249">
        <ele>123</ele>
        <time>2014-08-24T09:41:32Z</time>
      </trkpt>
      <trkpt lat="43.88499" lon="1.52255">
        <ele>123</ele>
        <time>2014-08-24T09:41:36Z</time>
      </trkpt>
      <trkpt lat="43.885" lon="1.52263">
        <ele>124</ele>
        <time>2014-08-24T09:41:41Z</time>
      </trkpt>
      <trkpt lat="43.88501" lon="1.52271">
        <ele>125</ele>
        <time>2014-08-24T09:41:46Z</time>
      </trkpt>
      <trkpt lat="43.88501" lon="1.52279">
        <ele>126</ele>
        <time>2014-08-24T09:41:51Z</time>
      </trkpt>
      <trkpt lat="43.88503" lon="1.52291">
        <ele>128</ele>
        <time>2014-08-24T09:41:59Z</time>
      </trkpt>
      <trkpt lat="43.88504" lon="1.52295">
        <ele>128</ele>
        <time>2014-08-24T09:42:02Z</time>
      </trkpt>
      <trkpt lat="43.88504" lon="1.52306">
        <ele>130</ele>
        <time>2014-08-24T09:42:10Z</time>
      </trkpt>
      <trkpt lat="43.88505" lon="1.52311">
        <ele>131</ele>
        <time>2014-08-24T09:42:14Z</time>
      </trkpt>
      <trkpt lat="43.88505" lon="1.52314">
        <ele>132</ele>
        <time>2014-08-24T09:42:16Z</time>
      </trkpt>
      <trkpt lat="43.88505" lon="1.52321">
        <ele>133</ele>
        <time>2014-08-24T09:42:21Z</time>
      </trkpt>
      <trkpt lat="43.88505" lon="1.52327">
        <ele>135</ele>
        <time>2014-08-24T09:42:26Z</time>
      </trkpt>
      <trkpt lat="43.88505" lon="1.52333">
        <ele>136</ele>
        <time>2014-08-24T09:42:31Z</time>
      </trkpt>
      <trkpt lat="43.88504" lon="1.52337">
        <ele>137</ele>
        <time>2014-08-24T09:42:36Z</time>
      </trkpt>
      <trkpt lat="43.88505" lon="1.52346">
        <ele>139</ele>
        <time>2014-08-24T09:42:44Z</time>
      </trkpt>
      <trkpt lat="43.88505" lon="1.52348">
        <ele>139</ele>
        <time>2014-08-24T09:42:46Z</time>
      </trkpt>
      <trkpt lat="43.88505" lon="1.52356">
        <ele>141</ele>
        <time>2014-08-24T09:42:54Z</time>
      </trkpt>
      <trkpt lat="43.88504" lon="1.52363">
        <ele>142</ele>
        <time>2014-08-24T09:43:00Z</time>
      </trkpt>
      <trkpt lat="43.88503" lon="1.52368">
        <ele>143</ele>
        <time>2014-08-24T09:43:05Z</time>
      </trkpt>
      <trkpt lat="43.88502" lon="1.52369">
        <ele>144</ele>
        <time>2014-08-24T09:43:06Z</time>
      </trkpt>
      <trkpt lat="43.885" lon="1.52375">
        <ele>144</ele>
        <time>2014-08-24T09:43:13Z</time>
      </trkpt>
      <trkpt lat="43.885" lon="1.52377">
        <ele>145</ele>
        <time>2014-08-24T09:43:16Z</time>
      </trkpt>
      <trkpt lat="43.885" lon="1.52377">
        <ele>145</ele>
        <time>2014-08-24T09:43:21Z</time>
      </trkpt>
      <trkpt lat="43.885" lon="1.52377">
        <ele>145</ele>
        <time>2014-08-24T09:43:26Z</time>
      </trkpt>
      <trkpt lat="43.88499" lon="1.5238">
        <ele>145</ele>
        <time>2014-08-24T09:43:33Z</time>
      </trkpt>
      <trkpt lat="43.88494" lon="1.52389">
        <ele>146</ele>
        <time>2014-08-24T09:43:40Z</time>
      </trkpt>
      <trkpt lat="43.88492" lon="1.52391">
        <ele>146</ele>
        <time>2014-08-24T09:43:42Z</time>
      </trkpt>
      <trkpt lat="43.8849" lon="1.52397">
        <ele>147</ele>
        <time>2014-08-24T09:43:46Z</time>
      </trkpt>
      <trkpt lat="43.88486" lon="1.52407">
        <ele>149</ele>
        <time>2014-08-24T09:43:53Z</time>
      </trkpt>
      <trkpt lat="43.88484" lon="1.52413">
        <ele>150</ele>
        <time>2014-08-24T09:43:56Z</time>
      </trkpt>
      <trkpt lat="43.88481" lon="1.52422">
        <ele>151</ele>
        <time>2014-08-24T09:44:01Z</time>
      </trkpt>
      <trkpt lat="43.88477" lon="1.5243">
        <ele>152</ele>
        <time>2014-08-24T09:44:06Z</time>
      </trkpt>
      <trkpt lat="43.88473" lon="1.5244">
        <ele>154</ele>
        <time>2014-08-24T09:44:12Z</time>
      </trkpt>
      <trkpt lat="43.88468" lon="1.52451">
        <ele>155</ele>
        <time>2014-08-24T09:44:19Z</time>
      </trkpt>
      <trkpt lat="43.88466" lon="1.52454">
        <ele>155</ele>
        <time>2014-08-24T09:44:21Z</time>
      </trkpt>
      <trkpt lat="43.88463" lon="1.52467">
        <ele>156</ele>
        <time>2014-08-24T09:44:29Z</time>
      </trkpt>
      <trkpt lat="43.88463" lon="1.52467">
        <ele>156</ele>
        <time>2014-08-24T09:44:31Z</time>
      </trkpt>
      <trkpt lat="43.88463" lon="1.52469">
        <ele>157</ele>
        <time>2014-08-24T09:44:36Z</time>
      </trkpt>
      <trkpt lat="43.88462" lon="1.52472">
        <ele>157</ele>
        <time>2014-08-24T09:44:41Z</time>
      </trkpt>
      <trkpt lat="43.88458" lon="1.52481">
        <ele>158</ele>
        <time>2014-08-24T09:44:46Z</time>
      </trkpt>
      <trkpt lat="43.88453" lon="1.52493">
        <ele>159</ele>
        <time>2014-08-24T09:44:53Z</time>
      </trkpt>
      <trkpt lat="43.88451" lon="1.52497">
        <ele>160</ele>
        <time>2014-08-24T09:44:56Z</time>
      </trkpt>
      <trkpt lat="43.88448" lon="1.52504">
        <ele>160</ele>
        <time>2014-08-24T09:45:01Z</time>
      </trkpt>
      <trkpt lat="43.88444" lon="1.52514">
        <ele>161</ele>
        <time>2014-08-24T09:45:07Z</time>
      </trkpt>
      <trkpt lat="43.88441" lon="1.52522">
        <ele>161</ele>
        <time>2014-08-24T09:45:12Z</time>
      </trkpt>
      <trkpt lat="43.88439" lon="1.52528">
        <ele>162</ele>
        <time>2014-08-24T09:45:16Z</time>
      </trkpt>
      <trkpt lat="43.88435" lon="1.52535">
        <ele>162</ele>
        <time>2014-08-24T09:45:21Z</time>
      </trkpt>
      <trkpt lat="43.88432" lon="1.52543">
        <ele>163</ele>
        <time>2014-08-24T09:45:26Z</time>
      </trkpt>
      <trkpt lat="43.88429" lon="1.52553">
        <ele>164</ele>
        <time>2014-08-24T09:45:31Z</time>
      </trkpt>
      <trkpt lat="43.88425" lon="1.52564">
        <ele>165</ele>
        <time>2014-08-24T09:45:37Z</time>
      </trkpt>
      <trkpt lat="43.88423" lon="1.52571">
        <ele>166</ele>
        <time>2014-08-24T09:45:41Z</time>
      </trkpt>
      <trkpt lat="43.88419" lon="1.5258">
        <ele>167</ele>
        <time>2014-08-24T09:45:46Z</time>
      </trkpt>
      <trkpt lat="43.88416" lon="1.52591">
        <ele>168</ele>
        <time>2014-08-24T09:45:53Z</time>
      </trkpt>
      <trkpt lat="43.88414" lon="1.52595">
        <ele>168</ele>
        <time>2014-08-24T09:45:56Z</time>
      </trkpt>
      <trkpt lat="43.88411" lon="1.52602">
        <ele>169</ele>
        <time>2014-08-24T09:46:01Z</time>
      </trkpt>
      <trkpt lat="43.88408" lon="1.52609">
        <ele>170</ele>
        <time>2014-08-24T09:46:06Z</time>
      </trkpt>
      <trkpt lat="43.88404" lon="1.52618">
        <ele>171</ele>
        <time>2014-08-24T09:46:13Z</time>
      </trkpt>
      <trkpt lat="43.88402" lon="1.52623">
        <ele>172</ele>
        <time>2014-08-24T09:46:16Z</time>
      </trkpt>
      <trkpt lat="43.88399" lon="1.5263">
        <ele>172</ele>
        <time>2014-08-24T09:46:21Z</time>
      </trkpt>
      <trkpt lat="43.88394" lon="1.52639">
        <ele>173</ele>
        <time>2014-08-24T09:46:27Z</time>
      </trkpt>
      <trkpt lat="43.88391" lon="1.52644">
        <ele>174</ele>
        <time>2014-08-24T09:46:31Z</time>
      </trkpt>
      <trkpt lat="43.88389" lon="1.52651">
        <ele>174</ele>
        <time>2014-08-24T09:46:36Z</time>
      </trkpt>
      <trkpt lat="43.88386" lon="1.52657">
        <ele>175</ele>
        <time>2014-08-24T09:46:45Z</time>
      </trkpt>
      <trkpt lat="43.88386" lon="1.52657">
        <ele>175</ele>
        <time>2014-08-24T09:46:50Z</time>
      </trkpt>
      <trkpt lat="43.88386" lon="1.52658">
        <ele>175</ele>
        <time>2014-08-24T09:46:51Z</time>
      </trkpt>
      <trkpt lat="43.88386" lon="1.52658">
        <ele>175</ele>
        <time>2014-08-24T09:46:56Z</time>
      </trkpt>
      <trkpt lat="43.88386" lon="1.52658">
        <ele>175</ele>
        <time>2014-08-24T09:47:01Z</time>
      </trkpt>
      <trkpt lat="43.88385" lon="1.52659">
        <ele>175</ele>
        <time>2014-08-24T09:47:06Z</time>
      </trkpt>
      <trkpt lat="43.88383" lon="1.52663">
        <ele>175</ele>
        <time>2014-08-24T09:47:11Z</time>
      </trkpt>
      <trkpt lat="43.88382" lon="1.52666">
        <ele>176</ele>
        <time>2014-08-24T09:47:17Z</time>
      </trkpt>
      <trkpt lat="43.88382" lon="1.52666">
        <ele>176</ele>
        <time>2014-08-24T09:47:21Z</time>
      </trkpt>
      <trkpt lat="43.88382" lon="1.52666">
        <ele>176</ele>
        <time>2014-08-24T09:47:26Z</time>
      </trkpt>
      <trkpt lat="43.88382" lon="1.52666">
        <ele>176</ele>
        <time>2014-08-24T09:47:31Z</time>
      </trkpt>
      <trkpt lat="43.88382" lon="1.52666">
        <ele>176</ele>
        <time>2014-08-24T09:47:36Z</time>
      </trkpt>
      <trkpt lat="43.88382" lon="1.52667">
        <ele>176</ele>
        <time>2014-08-24T09:47:41Z</time>
      </trkpt>
      <trkpt lat="43.8838" lon="1.52674">
        <ele>176</ele>
        <time>2014-08-24T09:47:50Z</time>
      </trkpt>
      <trkpt lat="43.88378" lon="1.52677">
        <ele>177</ele>
        <time>2014-08-24T09:47:53Z</time>
      </trkpt>
      <trkpt lat="43.88377" lon="1.5268">
        <ele>177</ele>
        <time>2014-08-24T09:47:56Z</time>
      </trkpt>
      <trkpt lat="43.88374" lon="1.52687">
        <ele>178</ele>
        <time>2014-08-24T09:48:03Z</time>
      </trkpt>
      <trkpt lat="43.88372" lon="1.5269">
        <ele>178</ele>
        <time>2014-08-24T09:48:06Z</time>
      </trkpt>
      <trkpt lat="43.8837" lon="1.52695">
        <ele>178</ele>
        <time>2014-08-24T09:48:11Z</time>
      </trkpt>
      <trkpt lat="43.88366" lon="1.52703">
        <ele>179</ele>
        <time>2014-08-24T09:48:18Z</time>
      </trkpt>
      <trkpt lat="43.88364" lon="1.52707">
        <ele>180</ele>
        <time>2014-08-24T09:48:21Z</time>
      </trkpt>
      <trkpt lat="43.88361" lon="1.52714">
        <ele>180</ele>
        <time>2014-08-24T09:48:27Z</time>
      </trkpt>
      <trkpt lat="43.88359" lon="1.52719">
        <ele>181</ele>
        <time>2014-08-24T09:48:31Z</time>
      </trkpt>
      <trkpt lat="43.88356" lon="1.52725">
        <ele>181</ele>
        <time>2014-08-24T09:48:36Z</time>
      </trkpt>
      <trkpt lat="43.88355" lon="1.52732">
        <ele>182</ele>
        <time>2014-08-24T09:48:41Z</time>
      </trkpt>
      <trkpt lat="43.8835" lon="1.52743">
        <ele>182</ele>
        <time>2014-08-24T09:48:50Z</time>
      </trkpt>
      <trkpt lat="43.8835" lon="1.52744">
        <ele>182</ele>
        <time>2014-08-24T09:48:51Z</time>
      </trkpt>
      <trkpt lat="43.88348" lon="1.5275">
        <ele>182</ele>
        <time>2014-08-24T09:48:56Z</time>
      </trkpt>
      <trkpt lat="43.88345" lon="1.52761">
        <ele>183</ele>
        <time>2014-08-24T09:49:04Z</time>
      </trkpt>
      <trkpt lat="43.88342" lon="1.52769">
        <ele>183</ele>
        <time>2014-08-24T09:49:10Z</time>
      </trkpt>
      <trkpt lat="43.88341" lon="1.5277">
        <ele>183</ele>
        <time>2014-08-24T09:49:11Z</time>
      </trkpt>
      <trkpt lat="43.88338" lon="1.52777">
        <ele>183</ele>
        <time>2014-08-24T09:49:16Z</time>
      </trkpt>
      <trkpt lat="43.88334" lon="1.52789">
        <ele>183</ele>
        <time>2014-08-24T09:49:25Z</time>
      </trkpt>
      <trkpt lat="43.88333" lon="1.52791">
        <ele>183</ele>
        <time>2014-08-24T09:49:27Z</time>
      </trkpt>
      <trkpt lat="43.88331" lon="1.52796">
        <ele>184</ele>
        <time>2014-08-24T09:49:31Z</time>
      </trkpt>
      <trkpt lat="43.88329" lon="1.52803">
        <ele>184</ele>
        <time>2014-08-24T09:49:37Z</time>
      </trkpt>
      <trkpt lat="43.88327" lon="1.5281">
        <ele>184</ele>
        <time>2014-08-24T09:49:42Z</time>
      </trkpt>
      <trkpt lat="43.88325" lon="1.52816">
        <ele>185</ele>
        <time>2014-08-24T09:49:46Z</time>
      </trkpt>
      <trkpt lat="43.88323" lon="1.52822">
        <ele>185</ele>
        <time>2014-08-24T09:49:51Z</time>
      </trkpt>
      <trkpt lat="43.88322" lon="1.52826">
        <ele>185</ele>
        <time>2014-08-24T09:49:59Z</time>
      </trkpt>
      <trkpt lat="43.88322" lon="1.52829">
        <ele>186</ele>
        <time>2014-08-24T09:50:04Z</time>
      </trkpt>
      <trkpt lat="43.88321" lon="1.5283">
        <ele>186</ele>
        <time>2014-08-24T09:50:06Z</time>
      </trkpt>
      <trkpt lat="43.88317" lon="1.52841">
        <ele>186</ele>
        <time>2014-08-24T09:50:11Z</time>
      </trkpt>
      <trkpt lat="43.88312" lon="1.52851">
        <ele>187</ele>
        <time>2014-08-24T09:50:16Z</time>
      </trkpt>
      <trkpt lat="43.88309" lon="1.52864">
        <ele>188</ele>
        <time>2014-08-24T09:50:21Z</time>
      </trkpt>
      <trkpt lat="43.88304" lon="1.52881">
        <ele>189</ele>
        <time>2014-08-24T09:50:27Z</time>
      </trkpt>
      <trkpt lat="43.883" lon="1.52894">
        <ele>189</ele>
        <time>2014-08-24T09:50:31Z</time>
      </trkpt>
      <trkpt lat="43.88295" lon="1.52911">
        <ele>189</ele>
        <time>2014-08-24T09:50:36Z</time>
      </trkpt>
      <trkpt lat="43.88289" lon="1.52928">
        <ele>189</ele>
        <time>2014-08-24T09:50:41Z</time>
      </trkpt>
      <trkpt lat="43.88282" lon="1.52947">
        <ele>188</ele>
        <time>2014-08-24T09:50:46Z</time>
      </trkpt>
      <trkpt lat="43.88268" lon="1.52979">
        <ele>188</ele>
        <time>2014-08-24T09:50:55Z</time>
      </trkpt>
      <trkpt lat="43.88265" lon="1.52986">
        <ele>188</ele>
        <time>2014-08-24T09:50:57Z</time>
      </trkpt>
      <trkpt lat="43.88251" lon="1.53015">
        <ele>189</ele>
        <time>2014-08-24T09:51:05Z</time>
      </trkpt>
      <trkpt lat="43.88249" lon="1.53019">
        <ele>189</ele>
        <time>2014-08-24T09:51:06Z</time>
      </trkpt>
      <trkpt lat="43.88238" lon="1.53041">
        <ele>189</ele>
        <time>2014-08-24T09:51:12Z</time>
      </trkpt>
      <trkpt lat="43.88225" lon="1.53067">
        <ele>189</ele>
        <time>2014-08-24T09:51:19Z</time>
      </trkpt>
      <trkpt lat="43.8822" lon="1.53079">
        <ele>189</ele>
        <time>2014-08-24T09:51:22Z</time>
      </trkpt>
      <trkpt lat="43.88213" lon="1.53094">
        <ele>190</ele>
        <time>2014-08-24T09:51:26Z</time>
      </trkpt>
      <trkpt lat="43.88205" lon="1.53114">
        <ele>191</ele>
        <time>2014-08-24T09:51:31Z</time>
      </trkpt>
      <trkpt lat="43.88193" lon="1.53138">
        <ele>191</ele>
        <time>2014-08-24T09:51:37Z</time>
      </trkpt>
      <trkpt lat="43.88182" lon="1.53162">
        <ele>192</ele>
        <time>2014-08-24T09:51:43Z</time>
      </trkpt>
      <trkpt lat="43.88176" lon="1.53175">
        <ele>192</ele>
        <time>2014-08-24T09:51:46Z</time>
      </trkpt>
      <trkpt lat="43.88166" lon="1.53201">
        <ele>194</ele>
        <time>2014-08-24T09:51:52Z</time>
      </trkpt>
      <trkpt lat="43.88159" lon="1.53218">
        <ele>195</ele>
        <time>2014-08-24T09:51:56Z</time>
      </trkpt>
      <trkpt lat="43.88146" lon="1.53246">
        <ele>197</ele>
        <time>2014-08-24T09:52:03Z</time>
      </trkpt>
      <trkpt lat="43.88139" lon="1.53257">
        <ele>198</ele>
        <time>2014-08-24T09:52:06Z</time>
      </trkpt>
      <trkpt lat="43.8813" lon="1.53276">
        <ele>198</ele>
        <time>2014-08-24T09:52:11Z</time>
      </trkpt>
      <trkpt lat="43.88116" lon="1.53307">
        <ele>200</ele>
        <time>2014-08-24T09:52:19Z</time>
      </trkpt>
      <trkpt lat="43.88113" lon="1.53316">
        <ele>200</ele>
        <time>2014-08-24T09:52:21Z</time>
      </trkpt>
      <trkpt lat="43.88104" lon="1.53337">
        <ele>201</ele>
        <time>2014-08-24T09:52:26Z</time>
      </trkpt>
      <trkpt lat="43.88096" lon="1.53359">
        <ele>200</ele>
        <time>2014-08-24T09:52:31Z</time>
      </trkpt>
      <trkpt lat="43.88083" lon="1.53395">
        <ele>201</ele>
        <time>2014-08-24T09:52:39Z</time>
      </trkpt>
      <trkpt lat="43.8808" lon="1.53404">
        <ele>201</ele>
        <time>2014-08-24T09:52:41Z</time>
      </trkpt>
      <trkpt lat="43.8807" lon="1.5343">
        <ele>201</ele>
        <time>2014-08-24T09:52:47Z</time>
      </trkpt>
      <trkpt lat="43.88062" lon="1.53451">
        <ele>202</ele>
        <time>2014-08-24T09:52:52Z</time>
      </trkpt>
      <trkpt lat="43.88053" lon="1.53471">
        <ele>202</ele>
        <time>2014-08-24T09:52:57Z</time>
      </trkpt>
      <trkpt lat="43.88047" lon="1.53487">
        <ele>202</ele>
        <time>2014-08-24T09:53:01Z</time>
      </trkpt>
      <trkpt lat="43.88039" lon="1.53507">
        <ele>202</ele>
        <time>2014-08-24T09:53:06Z</time>
      </trkpt>
      <trkpt lat="43.8803" lon="1.5353">
        <ele>202</ele>
        <time>2014-08-24T09:53:11Z</time>
      </trkpt>
      <trkpt lat="43.88011" lon="1.53576">
        <ele>203</ele>
        <time>2014-08-24T09:53:20Z</time>
      </trkpt>
      <trkpt lat="43.87999" lon="1.53605">
        <ele>203</ele>
        <time>2014-08-24T09:53:25Z</time>
      </trkpt>
      <trkpt lat="43.87997" lon="1.5361">
        <ele>203</ele>
        <time>2014-08-24T09:53:26Z</time>
      </trkpt>
      <trkpt lat="43.87986" lon="1.53634">
        <ele>202</ele>
        <time>2014-08-24T09:53:31Z</time>
      </trkpt>
      <trkpt lat="43.87975" lon="1.53662">
        <ele>202</ele>
        <time>2014-08-24T09:53:37Z</time>
      </trkpt>
      <trkpt lat="43.87968" lon="1.5368">
        <ele>202</ele>
        <time>2014-08-24T09:53:41Z</time>
      </trkpt>
      <trkpt lat="43.87966" lon="1.53721">
        <ele>202</ele>
        <time>2014-08-24T09:53:49Z</time>
      </trkpt>
      <trkpt lat="43.87968" lon="1.53731">
        <ele>202</ele>
        <time>2014-08-24T09:53:51Z</time>
      </trkpt>
      <trkpt lat="43.8797" lon="1.53755">
        <ele>203</ele>
        <time>2014-08-24T09:53:56Z</time>
      </trkpt>
      <trkpt lat="43.87974" lon="1.5378">
        <ele>203</ele>
        <time>2014-08-24T09:54:01Z</time>
      </trkpt>
      <trkpt lat="43.87976" lon="1.53803">
        <ele>204</ele>
        <time>2014-08-24T09:54:06Z</time>
      </trkpt>
      <trkpt lat="43.8798" lon="1.53822">
        <ele>205</ele>
        <time>2014-08-24T09:54:11Z</time>
      </trkpt>
      <trkpt lat="43.87981" lon="1.53841">
        <ele>205</ele>
        <time>2014-08-24T09:54:16Z</time>
      </trkpt>
      <trkpt lat="43.87982" lon="1.53861">
        <ele>206</ele>
        <time>2014-08-24T09:54:21Z</time>
      </trkpt>
      <trkpt lat="43.87979" lon="1.53879">
        <ele>206</ele>
        <time>2014-08-24T09:54:26Z</time>
      </trkpt>
      <trkpt lat="43.87973" lon="1.539">
        <ele>206</ele>
        <time>2014-08-24T09:54:32Z</time>
      </trkpt>
      <trkpt lat="43.87969" lon="1.53913">
        <ele>206</ele>
        <time>2014-08-24T09:54:36Z</time>
      </trkpt>
      <trkpt lat="43.87963" lon="1.53929">
        <ele>207</ele>
        <time>2014-08-24T09:54:41Z</time>
      </trkpt>
      <trkpt lat="43.87954" lon="1.53958">
        <ele>206</ele>
        <time>2014-08-24T09:54:50Z</time>
      </trkpt>
      <trkpt lat="43.87952" lon="1.53968">
        <ele>206</ele>
        <time>2014-08-24T09:54:53Z</time>
      </trkpt>
      <trkpt lat="43.87948" lon="1.53988">
        <ele>205</ele>
        <time>2014-08-24T09:54:59Z</time>
      </trkpt>
      <trkpt lat="43.87947" lon="1.53994">
        <ele>205</ele>
        <time>2014-08-24T09:55:01Z</time>
      </trkpt>
      <trkpt lat="43.87943" lon="1.54014">
        <ele>205</ele>
        <time>2014-08-24T09:55:06Z</time>
      </trkpt>
      <trkpt lat="43.87938" lon="1.54045">
        <ele>204</ele>
        <time>2014-08-24T09:55:13Z</time>
      </trkpt>
      <trkpt lat="43.87935" lon="1.54064">
        <ele>204</ele>
        <time>2014-08-24T09:55:17Z</time>
      </trkpt>
      <trkpt lat="43.8793" lon="1.54084">
        <ele>204</ele>
        <time>2014-08-24T09:55:21Z</time>
      </trkpt>
      <trkpt lat="43.87913" lon="1.54128">
        <ele>204</ele>
        <time>2014-08-24T09:55:29Z</time>
      </trkpt>
      <trkpt lat="43.8791" lon="1.54135">
        <ele>205</ele>
        <time>2014-08-24T09:55:31Z</time>
      </trkpt>
      <trkpt lat="43.87919" lon="1.54165">
        <ele>205</ele>
        <time>2014-08-24T09:55:37Z</time>
      </trkpt>
      <trkpt lat="43.87936" lon="1.54198">
        <ele>205</ele>
        <time>2014-08-24T09:55:45Z</time>
      </trkpt>
      <trkpt lat="43.87937" lon="1.54203">
        <ele>205</ele>
        <time>2014-08-24T09:55:46Z</time>
      </trkpt>
      <trkpt lat="43.87945" lon="1.54226">
        <ele>205</ele>
        <time>2014-08-24T09:55:52Z</time>
      </trkpt>
      <trkpt lat="43.87949" lon="1.54239">
        <ele>205</ele>
        <time>2014-08-24T09:55:56Z</time>
      </trkpt>
      <trkpt lat="43.87959" lon="1.54269">
        <ele>205</ele>
        <time>2014-08-24T09:56:04Z</time>
      </trkpt>
      <trkpt lat="43.87965" lon="1.54286">
        <ele>206</ele>
        <time>2014-08-24T09:56:09Z</time>
      </trkpt>
      <trkpt lat="43.87973" lon="1.54308">
        <ele>207</ele>
        <time>2014-08-24T09:56:15Z</time>
      </trkpt>
      <trkpt lat="43.87974" lon="1.54312">
        <ele>207</ele>
        <time>2014-08-24T09:56:16Z</time>
      </trkpt>
      <trkpt lat="43.87984" lon="1.5434">
        <ele>208</ele>
        <time>2014-08-24T09:56:24Z</time>
      </trkpt>
      <trkpt lat="43.87986" lon="1.54346">
        <ele>208</ele>
        <time>2014-08-24T09:56:26Z</time>
      </trkpt>
      <trkpt lat="43.8799" lon="1.54364">
        <ele>209</ele>
        <time>2014-08-24T09:56:31Z</time>
      </trkpt>
      <trkpt lat="43.87993" lon="1.54394">
        <ele>209</ele>
        <time>2014-08-24T09:56:39Z</time>
      </trkpt>
      <trkpt lat="43.87994" lon="1.54401">
        <ele>209</ele>
        <time>2014-08-24T09:56:41Z</time>
      </trkpt>
      <trkpt lat="43.87996" lon="1.5442">
        <ele>209</ele>
        <time>2014-08-24T09:56:46Z</time>
      </trkpt>
      <trkpt lat="43.87997" lon="1.5444">
        <ele>209</ele>
        <time>2014-08-24T09:56:51Z</time>
      </trkpt>
      <trkpt lat="43.87999" lon="1.54461">
        <ele>210</ele>
        <time>2014-08-24T09:56:56Z</time>
      </trkpt>
      <trkpt lat="43.87999" lon="1.54481">
        <ele>210</ele>
        <time>2014-08-24T09:57:01Z</time>
      </trkpt>
      <trkpt lat="43.87996" lon="1.54502">
        <ele>210</ele>
        <time>2014-08-24T09:57:06Z</time>
      </trkpt>
      <trkpt lat="43.87993" lon="1.54522">
        <ele>210</ele>
        <time>2014-08-24T09:57:11Z</time>
      </trkpt>
      <trkpt lat="43.87984" lon="1.54554">
        <ele>211</ele>
        <time>2014-08-24T09:57:19Z</time>
      </trkpt>
      <trkpt lat="43.87982" lon="1.54567">
        <ele>211</ele>
        <time>2014-08-24T09:57:22Z</time>
      </trkpt>
      <trkpt lat="43.87978" lon="1.54584">
        <ele>211</ele>
        <time>2014-08-24T09:57:26Z</time>
      </trkpt>
      <trkpt lat="43.87974" lon="1.54608">
        <ele>211</ele>
        <time>2014-08-24T09:57:31Z</time>
      </trkpt>
      <trkpt lat="43.87972" lon="1.54633">
        <ele>212</ele>
        <time>2014-08-24T09:57:36Z</time>
      </trkpt>
      <trkpt lat="43.87968" lon="1.54656">
        <ele>212</ele>
        <time>2014-08-24T09:57:41Z</time>
      </trkpt>
      <trkpt lat="43.87963" lon="1.54678">
        <ele>213</ele>
        <time>2014-08-24T09:57:46Z</time>
      </trkpt>
      <trkpt lat="43.87965" lon="1.54731">
        <ele>213</ele>
        <time>2014-08-24T09:57:55Z</time>
      </trkpt>
      <trkpt lat="43.87967" lon="1.54738">
        <ele>213</ele>
        <time>2014-08-24T09:57:56Z</time>
      </trkpt>
      <trkpt lat="43.87993" lon="1.54808">
        <ele>212</ele>
        <time>2014-08-24T09:58:05Z</time>
      </trkpt>
      <trkpt lat="43.87998" lon="1.54814">
        <ele>212</ele>
        <time>2014-08-24T09:58:06Z</time>
      </trkpt>
      <trkpt lat="43.88045" lon="1.54834">
        <ele>210</ele>
        <time>2014-08-24T09:58:14Z</time>
      </trkpt>
      <trkpt lat="43.88055" lon="1.54831">
        <ele>209</ele>
        <time>2014-08-24T09:58:16Z</time>
      </trkpt>
      <trkpt lat="43.88083" lon="1.5482">
        <ele>208</ele>
        <time>2014-08-24T09:58:21Z</time>
      </trkpt>
      <trkpt lat="43.88106" lon="1.54804">
        <ele>206</ele>
        <time>2014-08-24T09:58:26Z</time>
      </trkpt>
      <trkpt lat="43.88129" lon="1.54784">
        <ele>204</ele>
        <time>2014-08-24T09:58:31Z</time>
      </trkpt>
      <trkpt lat="43.8815" lon="1.54765">
        <ele>203</ele>
        <time>2014-08-24T09:58:36Z</time>
      </trkpt>
      <trkpt lat="43.88171" lon="1.54746">
        <ele>203</ele>
        <time>2014-08-24T09:58:41Z</time>
      </trkpt>
      <trkpt lat="43.88198" lon="1.54724">
        <ele>203</ele>
        <time>2014-08-24T09:58:48Z</time>
      </trkpt>
      <trkpt lat="43.88211" lon="1.54714">
        <ele>203</ele>
        <time>2014-08-24T09:58:51Z</time>
      </trkpt>
      <trkpt lat="43.88228" lon="1.54699">
        <ele>203</ele>
        <time>2014-08-24T09:58:56Z</time>
      </trkpt>
      <trkpt lat="43.88248" lon="1.5468">
        <ele>203</ele>
        <time>2014-08-24T09:59:01Z</time>
      </trkpt>
      <trkpt lat="43.8827" lon="1.54661">
        <ele>202</ele>
        <time>2014-08-24T09:59:06Z</time>
      </trkpt>
      <trkpt lat="43.88292" lon="1.54642">
        <ele>203</ele>
        <time>2014-08-24T09:59:11Z</time>
      </trkpt>
      <trkpt lat="43.88314" lon="1.54623">
        <ele>203</ele>
        <time>2014-08-24T09:59:17Z</time>
      </trkpt>
      <trkpt lat="43.88329" lon="1.5461">
        <ele>203</ele>
        <time>2014-08-24T09:59:21Z</time>
      </trkpt>
      <trkpt lat="43.88345" lon="1.54596">
        <ele>204</ele>
        <time>2014-08-24T09:59:26Z</time>
      </trkpt>
      <trkpt lat="43.88357" lon="1.54609">
        <ele>205</ele>
        <time>2014-08-24T09:59:31Z</time>
      </trkpt>
      <trkpt lat="43.88365" lon="1.54628">
        <ele>205</ele>
        <time>2014-08-24T09:59:36Z</time>
      </trkpt>
      <trkpt lat="43.88374" lon="1.54656">
        <ele>206</ele>
        <time>2014-08-24T09:59:42Z</time>
      </trkpt>
      <trkpt lat="43.88379" lon="1.54682">
        <ele>206</ele>
        <time>2014-08-24T09:59:46Z</time>
      </trkpt>
      <trkpt lat="43.88385" lon="1.54717">
        <ele>206</ele>
        <time>2014-08-24T09:59:51Z</time>
      </trkpt>
      <trkpt lat="43.88394" lon="1.54766">
        <ele>205</ele>
        <time>2014-08-24T09:59:56Z</time>
      </trkpt>
      <trkpt lat="43.88405" lon="1.54825">
        <ele>203</ele>
        <time>2014-08-24T10:00:02Z</time>
      </trkpt>
      <trkpt lat="43.88398" lon="1.54859">
        <ele>201</ele>
        <time>2014-08-24T10:00:06Z</time>
      </trkpt>
      <trkpt lat="43.88392" lon="1.54908">
        <ele>197</ele>
        <time>2014-08-24T10:00:11Z</time>
      </trkpt>
      <trkpt lat="43.88392" lon="1.54959">
        <ele>194</ele>
        <time>2014-08-24T10:00:16Z</time>
      </trkpt>
      <trkpt lat="43.88402" lon="1.55007">
        <ele>193</ele>
        <time>2014-08-24T10:00:21Z</time>
      </trkpt>
      <trkpt lat="43.88421" lon="1.5505">
        <ele>193</ele>
        <time>2014-08-24T10:00:26Z</time>
      </trkpt>
      <trkpt lat="43.88451" lon="1.55089">
        <ele>193</ele>
        <time>2014-08-24T10:00:31Z</time>
      </trkpt>
      <trkpt lat="43.8851" lon="1.55152">
        <ele>185</ele>
        <time>2014-08-24T10:00:40Z</time>
      </trkpt>
      <trkpt lat="43.88515" lon="1.5516">
        <ele>183</ele>
        <time>2014-08-24T10:00:41Z</time>
      </trkpt>
      <trkpt lat="43.88544" lon="1.55223">
        <ele>174</ele>
        <time>2014-08-24T10:00:48Z</time>
      </trkpt>
      <trkpt lat="43.88569" lon="1.55282">
        <ele>167</ele>
        <time>2014-08-24T10:00:53Z</time>
      </trkpt>
      <trkpt lat="43.88584" lon="1.55314">
        <ele>163</ele>
        <time>2014-08-24T10:00:56Z</time>
      </trkpt>
      <trkpt lat="43.88608" lon="1.55353">
        <ele>159</ele>
        <time>2014-08-24T10:01:01Z</time>
      </trkpt>
      <trkpt lat="43.88632" lon="1.55384">
        <ele>156</ele>
        <time>2014-08-24T10:01:06Z</time>
      </trkpt>
      <trkpt lat="43.88644" lon="1.55396">
        <ele>155</ele>
        <time>2014-08-24T10:01:11Z</time>
      </trkpt>
      <trkpt lat="43.8865" lon="1.55403">
        <ele>155</ele>
        <time>2014-08-24T10:01:16Z</time>
      </trkpt>
      <trkpt lat="43.88655" lon="1.55408">
        <ele>155</ele>
        <time>2014-08-24T10:01:21Z</time>
      </trkpt>
      <trkpt lat="43.88661" lon="1.55413">
        <ele>156</ele>
        <time>2014-08-24T10:01:27Z</time>
      </trkpt>
      <trkpt lat="43.88665" lon="1.55417">
        <ele>156</ele>
        <time>2014-08-24T10:01:31Z</time>
      </trkpt>
      <trkpt lat="43.88671" lon="1.55424">
        <ele>157</ele>
        <time>2014-08-24T10:01:36Z</time>
      </trkpt>
      <trkpt lat="43.88676" lon="1.5543">
        <ele>157</ele>
        <time>2014-08-24T10:01:41Z</time>
      </trkpt>
      <trkpt lat="43.8868" lon="1.55436">
        <ele>158</ele>
        <time>2014-08-24T10:01:46Z</time>
      </trkpt>
      <trkpt lat="43.88684" lon="1.55441">
        <ele>158</ele>
        <time>2014-08-24T10:01:51Z</time>
      </trkpt>
      <trkpt lat="43.88689" lon="1.55447">
        <ele>159</ele>
        <time>2014-08-24T10:01:56Z</time>
      </trkpt>
      <trkpt lat="43.88693" lon="1.55451">
        <ele>160</ele>
        <time>2014-08-24T10:02:01Z</time>
      </trkpt>
      <trkpt lat="43.88696" lon="1.55452">
        <ele>160</ele>
        <time>2014-08-24T10:02:09Z</time>
      </trkpt>
      <trkpt lat="43.88696" lon="1.55452">
        <ele>160</ele>
        <time>2014-08-24T10:02:11Z</time>
      </trkpt>
      <trkpt lat="43.88696" lon="1.55452">
        <ele>160</ele>
        <time>2014-08-24T10:02:16Z</time>
      </trkpt>
      <trkpt lat="43.88696" lon="1.55453">
        <ele>160</ele>
        <time>2014-08-24T10:02:21Z</time>
      </trkpt>
      <trkpt lat="43.88697" lon="1.55453">
        <ele>161</ele>
        <time>2014-08-24T10:02:26Z</time>
      </trkpt>
      <trkpt lat="43.88702" lon="1.55457">
        <ele>161</ele>
        <time>2014-08-24T10:02:31Z</time>
      </trkpt>
      <trkpt lat="43.88707" lon="1.55462">
        <ele>163</ele>
        <time>2014-08-24T10:02:36Z</time>
      </trkpt>
      <trkpt lat="43.88712" lon="1.55466">
        <ele>164</ele>
        <time>2014-08-24T10:02:41Z</time>
      </trkpt>
      <trkpt lat="43.88717" lon="1.55471">
        <ele>165</ele>
        <time>2014-08-24T10:02:46Z</time>
      </trkpt>
      <trkpt lat="43.88722" lon="1.55476">
        <ele>166</ele>
        <time>2014-08-24T10:02:51Z</time>
      </trkpt>
      <trkpt lat="43.88726" lon="1.5548">
        <ele>167</ele>
        <time>2014-08-24T10:02:56Z</time>
      </trkpt>
      <trkpt lat="43.88733" lon="1.55486">
        <ele>169</ele>
        <time>2014-08-24T10:03:03Z</time>
      </trkpt>
      <trkpt lat="43.8874" lon="1.55493">
        <ele>171</ele>
        <time>2014-08-24T10:03:10Z</time>
      </trkpt>
      <trkpt lat="43.88741" lon="1.55494">
        <ele>171</ele>
        <time>2014-08-24T10:03:11Z</time>
      </trkpt>
      <trkpt lat="43.88746" lon="1.55499">
        <ele>173</ele>
        <time>2014-08-24T10:03:16Z</time>
      </trkpt>
      <trkpt lat="43.88751" lon="1.55504">
        <ele>174</ele>
        <time>2014-08-24T10:03:21Z</time>
      </trkpt>
      <trkpt lat="43.88761" lon="1.55513">
        <ele>177</ele>
        <time>2014-08-24T10:03:30Z</time>
      </trkpt>
      <trkpt lat="43.88761" lon="1.55514">
        <ele>177</ele>
        <time>2014-08-24T10:03:31Z</time>
      </trkpt>
      <trkpt lat="43.88766" lon="1.55518">
        <ele>178</ele>
        <time>2014-08-24T10:03:36Z</time>
      </trkpt>
      <trkpt lat="43.88771" lon="1.55524">
        <ele>180</ele>
        <time>2014-08-24T10:03:42Z</time>
      </trkpt>
      <trkpt lat="43.88775" lon="1.55529">
        <ele>181</ele>
        <time>2014-08-24T10:03:48Z</time>
      </trkpt>
      <trkpt lat="43.88776" lon="1.55531">
        <ele>182</ele>
        <time>2014-08-24T10:03:51Z</time>
      </trkpt>
      <trkpt lat="43.88779" lon="1.55535">
        <ele>182</ele>
        <time>2014-08-24T10:03:56Z</time>
      </trkpt>
      <trkpt lat="43.88788" lon="1.55542">
        <ele>184</ele>
        <time>2014-08-24T10:04:05Z</time>
      </trkpt>
      <trkpt lat="43.88789" lon="1.55543">
        <ele>185</ele>
        <time>2014-08-24T10:04:07Z</time>
      </trkpt>
      <trkpt lat="43.88792" lon="1.55547">
        <ele>186</ele>
        <time>2014-08-24T10:04:11Z</time>
      </trkpt>
      <trkpt lat="43.88796" lon="1.55551">
        <ele>187</ele>
        <time>2014-08-24T10:04:16Z</time>
      </trkpt>
      <trkpt lat="43.888" lon="1.55555">
        <ele>188</ele>
        <time>2014-08-24T10:04:21Z</time>
      </trkpt>
      <trkpt lat="43.88804" lon="1.55559">
        <ele>189</ele>
        <time>2014-08-24T10:04:25Z</time>
      </trkpt>
      <trkpt lat="43.8881" lon="1.55567">
        <ele>190</ele>
        <time>2014-08-24T10:04:33Z</time>
      </trkpt>
      <trkpt lat="43.88811" lon="1.55569">
        <ele>190</ele>
        <time>2014-08-24T10:04:34Z</time>
      </trkpt>
      <trkpt lat="43.88812" lon="1.55576">
        <ele>190</ele>
        <time>2014-08-24T10:04:39Z</time>
      </trkpt>
      <trkpt lat="43.88811" lon="1.55581">
        <ele>191</ele>
        <time>2014-08-24T10:04:43Z</time>
      </trkpt>
      <trkpt lat="43.88809" lon="1.55597">
        <ele>192</ele>
        <time>2014-08-24T10:04:50Z</time>
      </trkpt>
      <trkpt lat="43.88808" lon="1.55605">
        <ele>192</ele>
        <time>2014-08-24T10:04:53Z</time>
      </trkpt>
      <trkpt lat="43.88804" lon="1.55622">
        <ele>193</ele>
        <time>2014-08-24T10:04:59Z</time>
      </trkpt>
      <trkpt lat="43.88803" lon="1.55636">
        <ele>193</ele>
        <time>2014-08-24T10:05:03Z</time>
      </trkpt>
      <trkpt lat="43.88801" lon="1.55652">
        <ele>194</ele>
        <time>2014-08-24T10:05:08Z</time>
      </trkpt>
      <trkpt lat="43.88798" lon="1.55669">
        <ele>195</ele>
        <time>2014-08-24T10:05:13Z</time>
      </trkpt>
      <trkpt lat="43.88795" lon="1.55683">
        <ele>195</ele>
        <time>2014-08-24T10:05:17Z</time>
      </trkpt>
      <trkpt lat="43.88789" lon="1.55715">
        <ele>196</ele>
        <time>2014-08-24T10:05:26Z</time>
      </trkpt>
      <trkpt lat="43.88789" lon="1.55718">
        <ele>196</ele>
        <time>2014-08-24T10:05:27Z</time>
      </trkpt>
      <trkpt lat="43.88786" lon="1.55733">
        <ele>196</ele>
        <time>2014-08-24T10:05:31Z</time>
      </trkpt>
      <trkpt lat="43.88783" lon="1.55751">
        <ele>196</ele>
        <time>2014-08-24T10:05:36Z</time>
      </trkpt>
      <trkpt lat="43.88779" lon="1.55769">
        <ele>197</ele>
        <time>2014-08-24T10:05:41Z</time>
      </trkpt>
      <trkpt lat="43.88776" lon="1.55786">
        <ele>197</ele>
        <time>2014-08-24T10:05:46Z</time>
      </trkpt>
      <trkpt lat="43.88772" lon="1.55804">
        <ele>197</ele>
        <time>2014-08-24T10:05:51Z</time>
      </trkpt>
      <trkpt lat="43.88768" lon="1.55821">
        <ele>198</ele>
        <time>2014-08-24T10:05:56Z</time>
      </trkpt>
      <trkpt lat="43.88765" lon="1.55839">
        <ele>198</ele>
        <time>2014-08-24T10:06:01Z</time>
      </trkpt>
      <trkpt lat="43.88762" lon="1.55857">
        <ele>199</ele>
        <time>2014-08-24T10:06:06Z</time>
      </trkpt>
      <trkpt lat="43.88758" lon="1.55874">
        <ele>199</ele>
        <time>2014-08-24T10:06:11Z</time>
      </trkpt>
      <trkpt lat="43.88755" lon="1.55892">
        <ele>200</ele>
        <time>2014-08-24T10:06:16Z</time>
      </trkpt>
      <trkpt lat="43.88752" lon="1.5591">
        <ele>200</ele>
        <time>2014-08-24T10:06:21Z</time>
      </trkpt>
      <trkpt lat="43.88749" lon="1.55926">
        <ele>201</ele>
        <time>2014-08-24T10:06:26Z</time>
      </trkpt>
      <trkpt lat="43.88746" lon="1.55943">
        <ele>201</ele>
        <time>2014-08-24T10:06:31Z</time>
      </trkpt>
      <trkpt lat="43.88744" lon="1.55958">
        <ele>202</ele>
        <time>2014-08-24T10:06:36Z</time>
      </trkpt>
      <trkpt lat="43.88742" lon="1.55974">
        <ele>202</ele>
        <time>2014-08-24T10:06:41Z</time>
      </trkpt>
      <trkpt lat="43.8874" lon="1.55989">
        <ele>203</ele>
        <time>2014-08-24T10:06:46Z</time>
      </trkpt>
      <trkpt lat="43.88738" lon="1.56005">
        <ele>204</ele>
        <time>2014-08-24T10:06:51Z</time>
      </trkpt>
      <trkpt lat="43.88737" lon="1.56017">
        <ele>205</ele>
        <time>2014-08-24T10:06:55Z</time>
      </trkpt>
      <trkpt lat="43.88736" lon="1.56032">
        <ele>206</ele>
        <time>2014-08-24T10:07:00Z</time>
      </trkpt>
      <trkpt lat="43.88734" lon="1.56046">
        <ele>207</ele>
        <time>2014-08-24T10:07:05Z</time>
      </trkpt>
      <trkpt lat="43.88733" lon="1.5606">
        <ele>207</ele>
        <time>2014-08-24T10:07:10Z</time>
      </trkpt>
      <trkpt lat="43.88731" lon="1.56076">
        <ele>208</ele>
        <time>2014-08-24T10:07:16Z</time>
      </trkpt>
      <trkpt lat="43.88731" lon="1.56087">
        <ele>209</ele>
        <time>2014-08-24T10:07:20Z</time>
      </trkpt>
      <trkpt lat="43.8873" lon="1.56101">
        <ele>209</ele>
        <time>2014-08-24T10:07:25Z</time>
      </trkpt>
      <trkpt lat="43.88729" lon="1.56118">
        <ele>210</ele>
        <time>2014-08-24T10:07:31Z</time>
      </trkpt>
      <trkpt lat="43.88729" lon="1.56136">
        <ele>211</ele>
        <time>2014-08-24T10:07:37Z</time>
      </trkpt>
      <trkpt lat="43.88728" lon="1.56141">
        <ele>211</ele>
        <time>2014-08-24T10:07:39Z</time>
      </trkpt>
      <trkpt lat="43.88727" lon="1.56157">
        <ele>211</ele>
        <time>2014-08-24T10:07:44Z</time>
      </trkpt>
      <trkpt lat="43.88726" lon="1.56176">
        <ele>212</ele>
        <time>2014-08-24T10:07:49Z</time>
      </trkpt>
      <trkpt lat="43.88725" lon="1.56192">
        <ele>212</ele>
        <time>2014-08-24T10:07:53Z</time>
      </trkpt>
      <trkpt lat="43.88723" lon="1.56219">
        <ele>213</ele>
        <time>2014-08-24T10:08:00Z</time>
      </trkpt>
      <trkpt lat="43.88722" lon="1.5623">
        <ele>213</ele>
        <time>2014-08-24T10:08:03Z</time>
      </trkpt>
      <trkpt lat="43.88721" lon="1.5625">
        <ele>214</ele>
        <time>2014-08-24T10:08:08Z</time>
      </trkpt>
      <trkpt lat="43.8872" lon="1.56269">
        <ele>215</ele>
        <time>2014-08-24T10:08:13Z</time>
      </trkpt>
      <trkpt lat="43.88719" lon="1.56288">
        <ele>215</ele>
        <time>2014-08-24T10:08:18Z</time>
      </trkpt>
      <trkpt lat="43.88722" lon="1.56309">
        <ele>216</ele>
        <time>2014-08-24T10:08:25Z</time>
      </trkpt>
      <trkpt lat="43.8873" lon="1.56307">
        <ele>216</ele>
        <time>2014-08-24T10:08:28Z</time>
      </trkpt>
      <trkpt lat="43.88744" lon="1.56297">
        <ele>215</ele>
        <time>2014-08-24T10:08:33Z</time>
      </trkpt>
      <trkpt lat="43.88765" lon="1.56281">
        <ele>214</ele>
        <time>2014-08-24T10:08:39Z</time>
      </trkpt>
      <trkpt lat="43.88781" lon="1.56267">
        <ele>213</ele>
        <time>2014-08-24T10:08:43Z</time>
      </trkpt>
      <trkpt lat="43.88807" lon="1.56243">
        <ele>211</ele>
        <time>2014-08-24T10:08:49Z</time>
      </trkpt>
      <trkpt lat="43.88825" lon="1.56229">
        <ele>210</ele>
        <time>2014-08-24T10:08:53Z</time>
      </trkpt>
      <trkpt lat="43.88859" lon="1.56243">
        <ele>211</ele>
        <time>2014-08-24T10:08:59Z</time>
      </trkpt>
      <trkpt lat="43.88883" lon="1.56276">
        <ele>211</ele>
        <time>2014-08-24T10:09:03Z</time>
      </trkpt>
      <trkpt lat="43.88914" lon="1.56326">
        <ele>207</ele>
        <time>2014-08-24T10:09:08Z</time>
      </trkpt>
      <trkpt lat="43.88949" lon="1.5637">
        <ele>202</ele>
        <time>2014-08-24T10:09:13Z</time>
      </trkpt>
      <trkpt lat="43.89002" lon="1.56397">
        <ele>198</ele>
        <time>2014-08-24T10:09:20Z</time>
      </trkpt>
      <trkpt lat="43.89036" lon="1.56408">
        <ele>197</ele>
        <time>2014-08-24T10:09:25Z</time>
      </trkpt>
      <trkpt lat="43.89055" lon="1.56412">
        <ele>197</ele>
        <time>2014-08-24T10:09:28Z</time>
      </trkpt>
      <trkpt lat="43.8908" lon="1.56416">
        <ele>198</ele>
        <time>2014-08-24T10:09:33Z</time>
      </trkpt>
      <trkpt lat="43.89096" lon="1.5642">
        <ele>198</ele>
        <time>2014-08-24T10:09:38Z</time>
      </trkpt>
      <trkpt lat="43.89112" lon="1.56423">
        <ele>199</ele>
        <time>2014-08-24T10:09:43Z</time>
      </trkpt>
      <trkpt lat="43.89128" lon="1.56426">
        <ele>200</ele>
        <time>2014-08-24T10:09:48Z</time>
      </trkpt>
      <trkpt lat="43.89153" lon="1.56431">
        <ele>202</ele>
        <time>2014-08-24T10:09:56Z</time>
      </trkpt>
      <trkpt lat="43.89159" lon="1.56432">
        <ele>202</ele>
        <time>2014-08-24T10:09:58Z</time>
      </trkpt>
      <trkpt lat="43.89172" lon="1.56434">
        <ele>203</ele>
        <time>2014-08-24T10:10:03Z</time>
      </trkpt>
      <trkpt lat="43.89185" lon="1.56438">
        <ele>204</ele>
        <time>2014-08-24T10:10:08Z</time>
      </trkpt>
      <trkpt lat="43.89209" lon="1.56442">
        <ele>206</ele>
        <time>2014-08-24T10:10:17Z</time>
      </trkpt>
      <trkpt lat="43.89211" lon="1.56442">
        <ele>207</ele>
        <time>2014-08-24T10:10:18Z</time>
      </trkpt>
      <trkpt lat="43.89224" lon="1.56445">
        <ele>208</ele>
        <time>2014-08-24T10:10:23Z</time>
      </trkpt>
      <trkpt lat="43.89239" lon="1.56447">
        <ele>209</ele>
        <time>2014-08-24T10:10:29Z</time>
      </trkpt>
      <trkpt lat="43.89259" lon="1.56449">
        <ele>210</ele>
        <time>2014-08-24T10:10:37Z</time>
      </trkpt>
      <trkpt lat="43.89262" lon="1.5645">
        <ele>210</ele>
        <time>2014-08-24T10:10:38Z</time>
      </trkpt>
      <trkpt lat="43.89275" lon="1.56452">
        <ele>210</ele>
        <time>2014-08-24T10:10:43Z</time>
      </trkpt>
      <trkpt lat="43.89287" lon="1.56454">
        <ele>211</ele>
        <time>2014-08-24T10:10:48Z</time>
      </trkpt>
      <trkpt lat="43.89301" lon="1.56455">
        <ele>211</ele>
        <time>2014-08-24T10:10:53Z</time>
      </trkpt>
      <trkpt lat="43.89315" lon="1.56456">
        <ele>211</ele>
        <time>2014-08-24T10:10:58Z</time>
      </trkpt>
      <trkpt lat="43.89332" lon="1.56457">
        <ele>211</ele>
        <time>2014-08-24T10:11:03Z</time>
      </trkpt>
      <trkpt lat="43.8935" lon="1.56458">
        <ele>211</ele>
        <time>2014-08-24T10:11:08Z</time>
      </trkpt>
      <trkpt lat="43.89374" lon="1.56459">
        <ele>212</ele>
        <time>2014-08-24T10:11:15Z</time>
      </trkpt>
      <trkpt lat="43.89402" lon="1.5646">
        <ele>212</ele>
        <time>2014-08-24T10:11:22Z</time>
      </trkpt>
      <trkpt lat="43.89422" lon="1.5646">
        <ele>212</ele>
        <time>2014-08-24T10:11:26Z</time>
      </trkpt>
      <trkpt lat="43.89437" lon="1.56443">
        <ele>213</ele>
        <time>2014-08-24T10:11:30Z</time>
      </trkpt>
      <trkpt lat="43.89442" lon="1.56433">
        <ele>213</ele>
        <time>2014-08-24T10:11:32Z</time>
      </trkpt>
      <trkpt lat="43.89455" lon="1.5641">
        <ele>212</ele>
        <time>2014-08-24T10:11:37Z</time>
      </trkpt>
      <trkpt lat="43.89466" lon="1.56386">
        <ele>211</ele>
        <time>2014-08-24T10:11:42Z</time>
      </trkpt>
      <trkpt lat="43.89478" lon="1.56357">
        <ele>210</ele>
        <time>2014-08-24T10:11:48Z</time>
      </trkpt>
      <trkpt lat="43.89484" lon="1.56337">
        <ele>209</ele>
        <time>2014-08-24T10:11:52Z</time>
      </trkpt>
      <trkpt lat="43.89499" lon="1.56303">
        <ele>208</ele>
        <time>2014-08-24T10:11:58Z</time>
      </trkpt>
      <trkpt lat="43.89515" lon="1.56275">
        <ele>206</ele>
        <time>2014-08-24T10:12:02Z</time>
      </trkpt>
      <trkpt lat="43.89553" lon="1.56211">
        <ele>203</ele>
        <time>2014-08-24T10:12:11Z</time>
      </trkpt>
      <trkpt lat="43.89558" lon="1.56204">
        <ele>203</ele>
        <time>2014-08-24T10:12:12Z</time>
      </trkpt>
      <trkpt lat="43.89578" lon="1.56167">
        <ele>202</ele>
        <time>2014-08-24T10:12:17Z</time>
      </trkpt>
      <trkpt lat="43.89594" lon="1.56127">
        <ele>201</ele>
        <time>2014-08-24T10:12:22Z</time>
      </trkpt>
      <trkpt lat="43.89611" lon="1.56073">
        <ele>200</ele>
        <time>2014-08-24T10:12:28Z</time>
      </trkpt>
      <trkpt lat="43.89633" lon="1.56013">
        <ele>200</ele>
        <time>2014-08-24T10:12:35Z</time>
      </trkpt>
      <trkpt lat="43.8965" lon="1.5597">
        <ele>200</ele>
        <time>2014-08-24T10:12:40Z</time>
      </trkpt>
      <trkpt lat="43.8966" lon="1.55944">
        <ele>200</ele>
        <time>2014-08-24T10:12:43Z</time>
      </trkpt>
      <trkpt lat="43.89672" lon="1.55908">
        <ele>201</ele>
        <time>2014-08-24T10:12:47Z</time>
      </trkpt>
      <trkpt lat="43.89695" lon="1.55861">
        <ele>201</ele>
        <time>2014-08-24T10:12:53Z</time>
      </trkpt>
      <trkpt lat="43.89719" lon="1.5582">
        <ele>199</ele>
        <time>2014-08-24T10:12:58Z</time>
      </trkpt>
      <trkpt lat="43.89748" lon="1.5579">
        <ele>197</ele>
        <time>2014-08-24T10:13:02Z</time>
      </trkpt>
      <trkpt lat="43.89796" lon="1.55746">
        <ele>192</ele>
        <time>2014-08-24T10:13:08Z</time>
      </trkpt>
      <trkpt lat="43.89833" lon="1.55706">
        <ele>188</ele>
        <time>2014-08-24T10:13:13Z</time>
      </trkpt>
      <trkpt lat="43.89864" lon="1.55676">
        <ele>187</ele>
        <time>2014-08-24T10:13:17Z</time>
      </trkpt>
      <trkpt lat="43.89897" lon="1.55642">
        <ele>187</ele>
        <time>2014-08-24T10:13:22Z</time>
      </trkpt>
      <trkpt lat="43.89923" lon="1.55617">
        <ele>186</ele>
        <time>2014-08-24T10:13:26Z</time>
      </trkpt>
      <trkpt lat="43.89974" lon="1.55569">
        <ele>185</ele>
        <time>2014-08-24T10:13:35Z</time>
      </trkpt>
      <trkpt lat="43.89979" lon="1.55564">
        <ele>185</ele>
        <time>2014-08-24T10:13:36Z</time>
      </trkpt>
      <trkpt lat="43.90011" lon="1.55532">
        <ele>183</ele>
        <time>2014-08-24T10:13:42Z</time>
      </trkpt>
      <trkpt lat="43.90034" lon="1.5551">
        <ele>183</ele>
        <time>2014-08-24T10:13:46Z</time>
      </trkpt>
      <trkpt lat="43.90061" lon="1.55487">
        <ele>182</ele>
        <time>2014-08-24T10:13:51Z</time>
      </trkpt>
      <trkpt lat="43.90092" lon="1.5546">
        <ele>182</ele>
        <time>2014-08-24T10:13:57Z</time>
      </trkpt>
      <trkpt lat="43.90129" lon="1.55429">
        <ele>181</ele>
        <time>2014-08-24T10:14:04Z</time>
      </trkpt>
      <trkpt lat="43.90153" lon="1.55407">
        <ele>180</ele>
        <time>2014-08-24T10:14:08Z</time>
      </trkpt>
      <trkpt lat="43.90169" lon="1.55387">
        <ele>181</ele>
        <time>2014-08-24T10:14:11Z</time>
      </trkpt>
      <trkpt lat="43.90189" lon="1.55363">
        <ele>181</ele>
        <time>2014-08-24T10:14:15Z</time>
      </trkpt>
      <trkpt lat="43.90214" lon="1.5533">
        <ele>181</ele>
        <time>2014-08-24T10:14:20Z</time>
      </trkpt>
      <trkpt lat="43.90233" lon="1.55294">
        <ele>181</ele>
        <time>2014-08-24T10:14:25Z</time>
      </trkpt>
      <trkpt lat="43.90262" lon="1.55247">
        <ele>181</ele>
        <time>2014-08-24T10:14:32Z</time>
      </trkpt>
      <trkpt lat="43.90271" lon="1.55234">
        <ele>181</ele>
        <time>2014-08-24T10:14:35Z</time>
      </trkpt>
      <trkpt lat="43.90284" lon="1.55245">
        <ele>182</ele>
        <time>2014-08-24T10:14:40Z</time>
      </trkpt>
      <trkpt lat="43.90303" lon="1.55255">
        <ele>181</ele>
        <time>2014-08-24T10:14:45Z</time>
      </trkpt>
      <trkpt lat="43.90339" lon="1.55245">
        <ele>179</ele>
        <time>2014-08-24T10:14:54Z</time>
      </trkpt>
      <trkpt lat="43.90348" lon="1.55257">
        <ele>176</ele>
        <time>2014-08-24T10:14:57Z</time>
      </trkpt>
      <trkpt lat="43.90367" lon="1.55281">
        <ele>171</ele>
        <time>2014-08-24T10:15:02Z</time>
      </trkpt>
      <trkpt lat="43.90375" lon="1.55295">
        <ele>169</ele>
        <time>2014-08-24T10:15:05Z</time>
      </trkpt>
      <trkpt lat="43.90373" lon="1.55323">
        <ele>167</ele>
        <time>2014-08-24T10:15:10Z</time>
      </trkpt>
      <trkpt lat="43.90395" lon="1.55357">
        <ele>162</ele>
        <time>2014-08-24T10:15:19Z</time>
      </trkpt>
      <trkpt lat="43.90399" lon="1.55358">
        <ele>161</ele>
        <time>2014-08-24T10:15:20Z</time>
      </trkpt>
      <trkpt lat="43.90424" lon="1.55377">
        <ele>157</ele>
        <time>2014-08-24T10:15:25Z</time>
      </trkpt>
      <trkpt lat="43.9045" lon="1.55393">
        <ele>151</ele>
        <time>2014-08-24T10:15:30Z</time>
      </trkpt>
      <trkpt lat="43.90469" lon="1.55387">
        <ele>149</ele>
        <time>2014-08-24T10:15:35Z</time>
      </trkpt>
      <trkpt lat="43.90496" lon="1.55355">
        <ele>146</ele>
        <time>2014-08-24T10:15:44Z</time>
      </trkpt>
      <trkpt lat="43.90501" lon="1.55346">
        <ele>146</ele>
        <time>2014-08-24T10:15:46Z</time>
      </trkpt>
      <trkpt lat="43.90513" lon="1.55329">
        <ele>145</ele>
        <time>2014-08-24T10:15:50Z</time>
      </trkpt>
      <trkpt lat="43.90527" lon="1.55307">
        <ele>144</ele>
        <time>2014-08-24T10:15:55Z</time>
      </trkpt>
      <trkpt lat="43.90546" lon="1.55277">
        <ele>144</ele>
        <time>2014-08-24T10:16:02Z</time>
      </trkpt>
      <trkpt lat="43.90554" lon="1.5527">
        <ele>144</ele>
        <time>2014-08-24T10:16:05Z</time>
      </trkpt>
      <trkpt lat="43.90566" lon="1.55292">
        <ele>141</ele>
        <time>2014-08-24T10:16:13Z</time>
      </trkpt>
      <trkpt lat="43.90567" lon="1.55296">
        <ele>141</ele>
        <time>2014-08-24T10:16:15Z</time>
      </trkpt>
      <trkpt lat="43.90569" lon="1.55304">
        <ele>141</ele>
        <time>2014-08-24T10:16:20Z</time>
      </trkpt>
      <trkpt lat="43.90572" lon="1.55312">
        <ele>140</ele>
        <time>2014-08-24T10:16:25Z</time>
      </trkpt>
      <trkpt lat="43.90578" lon="1.55326">
        <ele>140</ele>
        <time>2014-08-24T10:16:34Z</time>
      </trkpt>
      <trkpt lat="43.90579" lon="1.55329">
        <ele>140</ele>
        <time>2014-08-24T10:16:36Z</time>
      </trkpt>
      <trkpt lat="43.90583" lon="1.55341">
        <ele>140</ele>
        <time>2014-08-24T10:16:43Z</time>
      </trkpt>
      <trkpt lat="43.90587" lon="1.55349">
        <ele>142</ele>
        <time>2014-08-24T10:16:48Z</time>
      </trkpt>
      <trkpt lat="43.90588" lon="1.55352">
        <ele>142</ele>
        <time>2014-08-24T10:16:50Z</time>
      </trkpt>
      <trkpt lat="43.90589" lon="1.55354">
        <ele>142</ele>
        <time>2014-08-24T10:16:55Z</time>
      </trkpt>
      <trkpt lat="43.9059" lon="1.55357">
        <ele>143</ele>
        <time>2014-08-24T10:17:03Z</time>
      </trkpt>
      <trkpt lat="43.90594" lon="1.55365">
        <ele>144</ele>
        <time>2014-08-24T10:17:09Z</time>
      </trkpt>
      <trkpt lat="43.90595" lon="1.55367">
        <ele>144</ele>
        <time>2014-08-24T10:17:10Z</time>
      </trkpt>
      <trkpt lat="43.90598" lon="1.55374">
        <ele>145</ele>
        <time>2014-08-24T10:17:15Z</time>
      </trkpt>
      <trkpt lat="43.906" lon="1.55381">
        <ele>146</ele>
        <time>2014-08-24T10:17:20Z</time>
      </trkpt>
      <trkpt lat="43.90603" lon="1.55388">
        <ele>148</ele>
        <time>2014-08-24T10:17:26Z</time>
      </trkpt>
      <trkpt lat="43.90606" lon="1.55394">
        <ele>148</ele>
        <time>2014-08-24T10:17:30Z</time>
      </trkpt>
      <trkpt lat="43.90609" lon="1.55401">
        <ele>150</ele>
        <time>2014-08-24T10:17:36Z</time>
      </trkpt>
      <trkpt lat="43.90612" lon="1.55408">
        <ele>151</ele>
        <time>2014-08-24T10:17:41Z</time>
      </trkpt>
      <trkpt lat="43.90616" lon="1.55417">
        <ele>152</ele>
        <time>2014-08-24T10:17:48Z</time>
      </trkpt>
      <trkpt lat="43.90617" lon="1.55419">
        <ele>153</ele>
        <time>2014-08-24T10:17:50Z</time>
      </trkpt>
      <trkpt lat="43.9062" lon="1.55425">
        <ele>154</ele>
        <time>2014-08-24T10:17:55Z</time>
      </trkpt>
      <trkpt lat="43.90624" lon="1.55436">
        <ele>155</ele>
        <time>2014-08-24T10:18:03Z</time>
      </trkpt>
      <trkpt lat="43.90625" lon="1.55439">
        <ele>155</ele>
        <time>2014-08-24T10:18:05Z</time>
      </trkpt>
      <trkpt lat="43.90628" lon="1.55448">
        <ele>156</ele>
        <time>2014-08-24T10:18:12Z</time>
      </trkpt>
      <trkpt lat="43.90631" lon="1.55455">
        <ele>157</ele>
        <time>2014-08-24T10:18:18Z</time>
      </trkpt>
      <trkpt lat="43.90632" lon="1.55458">
        <ele>158</ele>
        <time>2014-08-24T10:18:20Z</time>
      </trkpt>
      <trkpt lat="43.90635" lon="1.55464">
        <ele>159</ele>
        <time>2014-08-24T10:18:25Z</time>
      </trkpt>
      <trkpt lat="43.90638" lon="1.5547">
        <ele>160</ele>
        <time>2014-08-24T10:18:30Z</time>
      </trkpt>
      <trkpt lat="43.90642" lon="1.55479">
        <ele>161</ele>
        <time>2014-08-24T10:18:37Z</time>
      </trkpt>
      <trkpt lat="43.90644" lon="1.55482">
        <ele>161</ele>
        <time>2014-08-24T10:18:40Z</time>
      </trkpt>
      <trkpt lat="43.90646" lon="1.55488">
        <ele>162</ele>
        <time>2014-08-24T10:18:45Z</time>
      </trkpt>
      <trkpt lat="43.90648" lon="1.55492">
        <ele>163</ele>
        <time>2014-08-24T10:18:49Z</time>
      </trkpt>
      <trkpt lat="43.90651" lon="1.555">
        <ele>164</ele>
        <time>2014-08-24T10:18:55Z</time>
      </trkpt>
      <trkpt lat="43.90653" lon="1.55506">
        <ele>165</ele>
        <time>2014-08-24T10:19:01Z</time>
      </trkpt>
      <trkpt lat="43.90654" lon="1.5551">
        <ele>165</ele>
        <time>2014-08-24T10:19:04Z</time>
      </trkpt>
      <trkpt lat="43.90657" lon="1.55515">
        <ele>166</ele>
        <time>2014-08-24T10:19:09Z</time>
      </trkpt>
      <trkpt lat="43.90659" lon="1.5552">
        <ele>166</ele>
        <time>2014-08-24T10:19:14Z</time>
      </trkpt>
      <trkpt lat="43.90663" lon="1.55526">
        <ele>167</ele>
        <time>2014-08-24T10:19:21Z</time>
      </trkpt>
      <trkpt lat="43.90664" lon="1.55529">
        <ele>168</ele>
        <time>2014-08-24T10:19:24Z</time>
      </trkpt>
      <trkpt lat="43.90666" lon="1.55536">
        <ele>169</ele>
        <time>2014-08-24T10:19:30Z</time>
      </trkpt>
      <trkpt lat="43.90668" lon="1.55541">
        <ele>169</ele>
        <time>2014-08-24T10:19:34Z</time>
      </trkpt>
      <trkpt lat="43.90673" lon="1.55544">
        <ele>170</ele>
        <time>2014-08-24T10:19:39Z</time>
      </trkpt>
      <trkpt lat="43.90679" lon="1.55546">
        <ele>171</ele>
        <time>2014-08-24T10:19:44Z</time>
      </trkpt>
      <trkpt lat="43.90688" lon="1.55549">
        <ele>172</ele>
        <time>2014-08-24T10:19:53Z</time>
      </trkpt>
      <trkpt lat="43.90691" lon="1.55551">
        <ele>173</ele>
        <time>2014-08-24T10:19:55Z</time>
      </trkpt>
      <trkpt lat="43.90697" lon="1.55554">
        <ele>173</ele>
        <time>2014-08-24T10:19:59Z</time>
      </trkpt>
      <trkpt lat="43.90705" lon="1.55559">
        <ele>174</ele>
        <time>2014-08-24T10:20:04Z</time>
      </trkpt>
      <trkpt lat="43.90718" lon="1.55564">
        <ele>175</ele>
        <time>2014-08-24T10:20:09Z</time>
      </trkpt>
      <trkpt lat="43.90733" lon="1.5557">
        <ele>176</ele>
        <time>2014-08-24T10:20:14Z</time>
      </trkpt>
      <trkpt lat="43.90764" lon="1.55581">
        <ele>176</ele>
        <time>2014-08-24T10:20:23Z</time>
      </trkpt>
      <trkpt lat="43.90768" lon="1.55582">
        <ele>176</ele>
        <time>2014-08-24T10:20:24Z</time>
      </trkpt>
      <trkpt lat="43.90784" lon="1.55589">
        <ele>175</ele>
        <time>2014-08-24T10:20:29Z</time>
      </trkpt>
      <trkpt lat="43.908" lon="1.556">
        <ele>173</ele>
        <time>2014-08-24T10:20:36Z</time>
      </trkpt>
      <trkpt lat="43.90815" lon="1.5561">
        <ele>171</ele>
        <time>2014-08-24T10:20:42Z</time>
      </trkpt>
      <trkpt lat="43.90823" lon="1.55617">
        <ele>169</ele>
        <time>2014-08-24T10:20:44Z</time>
      </trkpt>
      <trkpt lat="43.90851" lon="1.55637">
        <ele>163</ele>
        <time>2014-08-24T10:20:49Z</time>
      </trkpt>
      <trkpt lat="43.90874" lon="1.55654">
        <ele>158</ele>
        <time>2014-08-24T10:20:54Z</time>
      </trkpt>
      <trkpt lat="43.90895" lon="1.55671">
        <ele>154</ele>
        <time>2014-08-24T10:20:59Z</time>
      </trkpt>
      <trkpt lat="43.90916" lon="1.55683">
        <ele>151</ele>
        <time>2014-08-24T10:21:04Z</time>
      </trkpt>
      <trkpt lat="43.90943" lon="1.55706">
        <ele>147</ele>
        <time>2014-08-24T10:21:10Z</time>
      </trkpt>
      <trkpt lat="43.90957" lon="1.55732">
        <ele>146</ele>
        <time>2014-08-24T10:21:14Z</time>
      </trkpt>
      <trkpt lat="43.90974" lon="1.5576">
        <ele>145</ele>
        <time>2014-08-24T10:21:19Z</time>
      </trkpt>
      <trkpt lat="43.90997" lon="1.55803">
        <ele>142</ele>
        <time>2014-08-24T10:21:26Z</time>
      </trkpt>
      <trkpt lat="43.91011" lon="1.55832">
        <ele>141</ele>
        <time>2014-08-24T10:21:33Z</time>
      </trkpt>
      <trkpt lat="43.91012" lon="1.55835">
        <ele>141</ele>
        <time>2014-08-24T10:21:34Z</time>
      </trkpt>
      <trkpt lat="43.91021" lon="1.55852">
        <ele>140</ele>
        <time>2014-08-24T10:21:40Z</time>
      </trkpt>
      <trkpt lat="43.91028" lon="1.55863">
        <ele>140</ele>
        <time>2014-08-24T10:21:44Z</time>
      </trkpt>
      <trkpt lat="43.9104" lon="1.55886">
        <ele>140</ele>
        <time>2014-08-24T10:21:50Z</time>
      </trkpt>
      <trkpt lat="43.91054" lon="1.55914">
        <ele>140</ele>
        <time>2014-08-24T10:21:56Z</time>
      </trkpt>
      <trkpt lat="43.9107" lon="1.5594">
        <ele>141</ele>
        <time>2014-08-24T10:22:01Z</time>
      </trkpt>
      <trkpt lat="43.91086" lon="1.55953">
        <ele>140</ele>
        <time>2014-08-24T10:22:05Z</time>
      </trkpt>
      <trkpt lat="43.91111" lon="1.55947">
        <ele>139</ele>
        <time>2014-08-24T10:22:10Z</time>
      </trkpt>
      <trkpt lat="43.91129" lon="1.55935">
        <ele>139</ele>
        <time>2014-08-24T10:22:14Z</time>
      </trkpt>
      <trkpt lat="43.91154" lon="1.55907">
        <ele>137</ele>
        <time>2014-08-24T10:22:21Z</time>
      </trkpt>
      <trkpt lat="43.91173" lon="1.55883">
        <ele>135</ele>
        <time>2014-08-24T10:22:27Z</time>
      </trkpt>
      <trkpt lat="43.91182" lon="1.55875">
        <ele>135</ele>
        <time>2014-08-24T10:22:29Z</time>
      </trkpt>
      <trkpt lat="43.91203" lon="1.55853">
        <ele>133</ele>
        <time>2014-08-24T10:22:34Z</time>
      </trkpt>
      <trkpt lat="43.91236" lon="1.55827">
        <ele>132</ele>
        <time>2014-08-24T10:22:40Z</time>
      </trkpt>
      <trkpt lat="43.91274" lon="1.55786">
        <ele>130</ele>
        <time>2014-08-24T10:22:47Z</time>
      </trkpt>
      <trkpt lat="43.91279" lon="1.55781">
        <ele>130</ele>
        <time>2014-08-24T10:22:48Z</time>
      </trkpt>
      <trkpt lat="43.91301" lon="1.55758">
        <ele>130</ele>
        <time>2014-08-24T10:22:53Z</time>
      </trkpt>
      <trkpt lat="43.91311" lon="1.55769">
        <ele>130</ele>
        <time>2014-08-24T10:22:58Z</time>
      </trkpt>
      <trkpt lat="43.9131" lon="1.55788">
        <ele>130</ele>
        <time>2014-08-24T10:23:03Z</time>
      </trkpt>
      <trkpt lat="43.91306" lon="1.55806">
        <ele>130</ele>
        <time>2014-08-24T10:23:08Z</time>
      </trkpt>
      <trkpt lat="43.91301" lon="1.55823">
        <ele>130</ele>
        <time>2014-08-24T10:23:13Z</time>
      </trkpt>
      <trkpt lat="43.91294" lon="1.55844">
        <ele>130</ele>
        <time>2014-08-24T10:23:19Z</time>
      </trkpt>
      <trkpt lat="43.9129" lon="1.55859">
        <ele>130</ele>
        <time>2014-08-24T10:23:23Z</time>
      </trkpt>
      <trkpt lat="43.91285" lon="1.55879">
        <ele>130</ele>
        <time>2014-08-24T10:23:28Z</time>
      </trkpt>
      <trkpt lat="43.91281" lon="1.55899">
        <ele>130</ele>
        <time>2014-08-24T10:23:33Z</time>
      </trkpt>
      <trkpt lat="43.91272" lon="1.55913">
        <ele>130</ele>
        <time>2014-08-24T10:23:38Z</time>
      </trkpt>
      <trkpt lat="43.9126" lon="1.55921">
        <ele>131</ele>
        <time>2014-08-24T10:23:43Z</time>
      </trkpt>
      <trkpt lat="43.91246" lon="1.55928">
        <ele>131</ele>
        <time>2014-08-24T10:23:49Z</time>
      </trkpt>
      <trkpt lat="43.91231" lon="1.55936">
        <ele>131</ele>
        <time>2014-08-24T10:23:55Z</time>
      </trkpt>
      <trkpt lat="43.91224" lon="1.55941">
        <ele>132</ele>
        <time>2014-08-24T10:23:58Z</time>
      </trkpt>
      <trkpt lat="43.91214" lon="1.55951">
        <ele>133</ele>
        <time>2014-08-24T10:24:03Z</time>
      </trkpt>
      <trkpt lat="43.91202" lon="1.55965">
        <ele>134</ele>
        <time>2014-08-24T10:24:09Z</time>
      </trkpt>
      <trkpt lat="43.91194" lon="1.55973">
        <ele>134</ele>
        <time>2014-08-24T10:24:13Z</time>
      </trkpt>
      <trkpt lat="43.91183" lon="1.55986">
        <ele>135</ele>
        <time>2014-08-24T10:24:19Z</time>
      </trkpt>
      <trkpt lat="43.91175" lon="1.55995">
        <ele>135</ele>
        <time>2014-08-24T10:24:23Z</time>
      </trkpt>
      <trkpt lat="43.91165" lon="1.56006">
        <ele>136</ele>
        <time>2014-08-24T10:24:28Z</time>
      </trkpt>
      <trkpt lat="43.91154" lon="1.56018">
        <ele>137</ele>
        <time>2014-08-24T10:24:33Z</time>
      </trkpt>
      <trkpt lat="43.91134" lon="1.56039">
        <ele>138</ele>
        <time>2014-08-24T10:24:42Z</time>
      </trkpt>
      <trkpt lat="43.9113" lon="1.56043">
        <ele>138</ele>
        <time>2014-08-24T10:24:44Z</time>
      </trkpt>
      <trkpt lat="43.91122" lon="1.56052">
        <ele>138</ele>
        <time>2014-08-24T10:24:48Z</time>
      </trkpt>
      <trkpt lat="43.91103" lon="1.56072">
        <ele>138</ele>
        <time>2014-08-24T10:24:57Z</time>
      </trkpt>
      <trkpt lat="43.911" lon="1.56077">
        <ele>138</ele>
        <time>2014-08-24T10:24:59Z</time>
      </trkpt>
      <trkpt lat="43.91093" lon="1.56087">
        <ele>139</ele>
        <time>2014-08-24T10:25:03Z</time>
      </trkpt>
      <trkpt lat="43.91082" lon="1.56102">
        <ele>139</ele>
        <time>2014-08-24T10:25:10Z</time>
      </trkpt>
      <trkpt lat="43.91076" lon="1.56107">
        <ele>139</ele>
        <time>2014-08-24T10:25:15Z</time>
      </trkpt>
      <trkpt lat="43.91075" lon="1.56107">
        <ele>139</ele>
        <time>2014-08-24T10:25:18Z</time>
      </trkpt>
      <trkpt lat="43.91075" lon="1.56109">
        <ele>139</ele>
        <time>2014-08-24T10:25:23Z</time>
      </trkpt>
      <trkpt lat="43.91074" lon="1.56115">
        <ele>139</ele>
        <time>2014-08-24T10:25:28Z</time>
      </trkpt>
      <trkpt lat="43.91076" lon="1.56121">
        <ele>139</ele>
        <time>2014-08-24T10:25:33Z</time>
      </trkpt>
      <trkpt lat="43.91078" lon="1.56124">
        <ele>139</ele>
        <time>2014-08-24T10:25:38Z</time>
      </trkpt>
      <trkpt lat="43.91077" lon="1.56125">
        <ele>140</ele>
        <time>2014-08-24T10:25:43Z</time>
      </trkpt>
      <trkpt lat="43.91078" lon="1.56129">
        <ele>140</ele>
        <time>2014-08-24T10:25:48Z</time>
      </trkpt>
      <trkpt lat="43.91084" lon="1.56135">
        <ele>140</ele>
        <time>2014-08-24T10:25:56Z</time>
      </trkpt>
      <trkpt lat="43.91086" lon="1.56137">
        <ele>140</ele>
        <time>2014-08-24T10:25:58Z</time>
      </trkpt>
      <trkpt lat="43.91095" lon="1.56147">
        <ele>140</ele>
        <time>2014-08-24T10:26:05Z</time>
      </trkpt>
      <trkpt lat="43.91101" lon="1.56154">
        <ele>140</ele>
        <time>2014-08-24T10:26:08Z</time>
      </trkpt>
      <trkpt lat="43.91113" lon="1.56168">
        <ele>140</ele>
        <time>2014-08-24T10:26:13Z</time>
      </trkpt>
      <trkpt lat="43.9113" lon="1.56203">
        <ele>140</ele>
        <time>2014-08-24T10:26:21Z</time>
      </trkpt>
      <trkpt lat="43.91134" lon="1.56216">
        <ele>140</ele>
        <time>2014-08-24T10:26:23Z</time>
      </trkpt>
      <trkpt lat="43.91144" lon="1.5625">
        <ele>139</ele>
        <time>2014-08-24T10:26:29Z</time>
      </trkpt>
      <trkpt lat="43.91155" lon="1.56278">
        <ele>138</ele>
        <time>2014-08-24T10:26:35Z</time>
      </trkpt>
      <trkpt lat="43.91162" lon="1.56289">
        <ele>138</ele>
        <time>2014-08-24T10:26:38Z</time>
      </trkpt>
      <trkpt lat="43.91177" lon="1.56306">
        <ele>137</ele>
        <time>2014-08-24T10:26:43Z</time>
      </trkpt>
      <trkpt lat="43.91195" lon="1.56324">
        <ele>135</ele>
        <time>2014-08-24T10:26:48Z</time>
      </trkpt>
      <trkpt lat="43.91195" lon="1.5635">
        <ele>135</ele>
        <time>2014-08-24T10:26:53Z</time>
      </trkpt>
      <trkpt lat="43.91191" lon="1.56367">
        <ele>136</ele>
        <time>2014-08-24T10:26:59Z</time>
      </trkpt>
      <trkpt lat="43.91189" lon="1.56379">
        <ele>136</ele>
        <time>2014-08-24T10:27:03Z</time>
      </trkpt>
      <trkpt lat="43.91185" lon="1.56394">
        <ele>136</ele>
        <time>2014-08-24T10:27:08Z</time>
      </trkpt>
      <trkpt lat="43.9118" lon="1.56412">
        <ele>136</ele>
        <time>2014-08-24T10:27:13Z</time>
      </trkpt>
      <trkpt lat="43.91172" lon="1.56435">
        <ele>137</ele>
        <time>2014-08-24T10:27:20Z</time>
      </trkpt>
      <trkpt lat="43.91168" lon="1.56446">
        <ele>137</ele>
        <time>2014-08-24T10:27:23Z</time>
      </trkpt>
      <trkpt lat="43.91164" lon="1.56463">
        <ele>137</ele>
        <time>2014-08-24T10:27:28Z</time>
      </trkpt>
      <trkpt lat="43.9116" lon="1.5648">
        <ele>138</ele>
        <time>2014-08-24T10:27:33Z</time>
      </trkpt>
      <trkpt lat="43.91157" lon="1.56494">
        <ele>138</ele>
        <time>2014-08-24T10:27:37Z</time>
      </trkpt>
      <trkpt lat="43.91151" lon="1.5652">
        <ele>139</ele>
        <time>2014-08-24T10:27:44Z</time>
      </trkpt>
      <trkpt lat="43.91148" lon="1.56531">
        <ele>139</ele>
        <time>2014-08-24T10:27:47Z</time>
      </trkpt>
      <trkpt lat="43.91144" lon="1.5655">
        <ele>139</ele>
        <time>2014-08-24T10:27:52Z</time>
      </trkpt>
      <trkpt lat="43.9114" lon="1.56568">
        <ele>140</ele>
        <time>2014-08-24T10:27:57Z</time>
      </trkpt>
      <trkpt lat="43.91133" lon="1.56596">
        <ele>141</ele>
        <time>2014-08-24T10:28:05Z</time>
      </trkpt>
      <trkpt lat="43.91131" lon="1.56603">
        <ele>141</ele>
        <time>2014-08-24T10:28:07Z</time>
      </trkpt>
      <trkpt lat="43.91128" lon="1.56622">
        <ele>141</ele>
        <time>2014-08-24T10:28:12Z</time>
      </trkpt>
      <trkpt lat="43.91124" lon="1.56641">
        <ele>142</ele>
        <time>2014-08-24T10:28:17Z</time>
      </trkpt>
      <trkpt lat="43.91119" lon="1.56661">
        <ele>142</ele>
        <time>2014-08-24T10:28:22Z</time>
      </trkpt>
      <trkpt lat="43.91115" lon="1.56681">
        <ele>143</ele>
        <time>2014-08-24T10:28:27Z</time>
      </trkpt>
      <trkpt lat="43.91111" lon="1.56701">
        <ele>143</ele>
        <time>2014-08-24T10:28:32Z</time>
      </trkpt>
      <trkpt lat="43.91108" lon="1.5672">
        <ele>143</ele>
        <time>2014-08-24T10:28:37Z</time>
      </trkpt>
      <trkpt lat="43.91104" lon="1.56742">
        <ele>144</ele>
        <time>2014-08-24T10:28:43Z</time>
      </trkpt>
      <trkpt lat="43.91101" lon="1.56758">
        <ele>144</ele>
        <time>2014-08-24T10:28:47Z</time>
      </trkpt>
      <trkpt lat="43.91098" lon="1.56777">
        <ele>144</ele>
        <time>2014-08-24T10:28:52Z</time>
      </trkpt>
      <trkpt lat="43.91095" lon="1.56797">
        <ele>144</ele>
        <time>2014-08-24T10:28:57Z</time>
      </trkpt>
      <trkpt lat="43.91092" lon="1.56816">
        <ele>145</ele>
        <time>2014-08-24T10:29:02Z</time>
      </trkpt>
      <trkpt lat="43.91087" lon="1.5684">
        <ele>145</ele>
        <time>2014-08-24T10:29:11Z</time>
      </trkpt>
      <trkpt lat="43.91085" lon="1.56848">
        <ele>145</ele>
        <time>2014-08-24T10:29:14Z</time>
      </trkpt>
      <trkpt lat="43.91084" lon="1.56857">
        <ele>145</ele>
        <time>2014-08-24T10:29:17Z</time>
      </trkpt>
      <trkpt lat="43.91078" lon="1.5688">
        <ele>145</ele>
        <time>2014-08-24T10:29:25Z</time>
      </trkpt>
      <trkpt lat="43.91074" lon="1.56886">
        <ele>145</ele>
        <time>2014-08-24T10:29:28Z</time>
      </trkpt>
      <trkpt lat="43.91066" lon="1.56892">
        <ele>145</ele>
        <time>2014-08-24T10:29:35Z</time>
      </trkpt>
      <trkpt lat="43.91063" lon="1.56894">
        <ele>146</ele>
        <time>2014-08-24T10:29:37Z</time>
      </trkpt>
      <trkpt lat="43.91059" lon="1.56904">
        <ele>146</ele>
        <time>2014-08-24T10:29:42Z</time>
      </trkpt>
      <trkpt lat="43.91056" lon="1.56919">
        <ele>145</ele>
        <time>2014-08-24T10:29:47Z</time>
      </trkpt>
      <trkpt lat="43.91056" lon="1.56928">
        <ele>145</ele>
        <time>2014-08-24T10:29:53Z</time>
      </trkpt>
      <trkpt lat="43.91056" lon="1.56927">
        <ele>145</ele>
        <time>2014-08-24T10:29:58Z</time>
      </trkpt>
      <trkpt lat="43.91056" lon="1.56927">
        <ele>145</ele>
        <time>2014-08-24T10:30:02Z</time>
      </trkpt>
      <trkpt lat="43.91055" lon="1.56929">
        <ele>145</ele>
        <time>2014-08-24T10:30:08Z</time>
      </trkpt>
      <trkpt lat="43.91055" lon="1.5693">
        <ele>145</ele>
        <time>2014-08-24T10:30:12Z</time>
      </trkpt>
      <trkpt lat="43.91055" lon="1.5693">
        <ele>145</ele>
        <time>2014-08-24T10:30:17Z</time>
      </trkpt>
      <trkpt lat="43.91055" lon="1.5693">
        <ele>145</ele>
        <time>2014-08-24T10:30:22Z</time>
      </trkpt>
      <trkpt lat="43.91055" lon="1.56931">
        <ele>145</ele>
        <time>2014-08-24T10:30:28Z</time>
      </trkpt>
    </trkseg>
  </trk>
</gpx>